<?xml version='1.0' encoding='UTF-8'?><gpx version="1.1" creator="JPX - https://github.com/jenetics/jpx" xmlns="http://www.topografix.com/GPX/1/1"><trk><trkseg><trkpt lat="43.240007520246365" lon="27.97597108063036"><ele>158.0</ele><time>2026-04-29T07:53:06Z</time></trkpt><trkpt lat="43.240069140438806" lon="27.975941951565737"><ele>158.0</ele><time>2026-04-29T07:53:08Z</time></trkpt><trkpt lat="43.24013628516771" lon="27.975921067989358"><ele>158.0</ele><time>2026-04-29T07:53:10Z</time></trkpt><trkpt lat="43.24022000432176" lon="27.975836450020577"><ele>158.0</ele><time>2026-04-29T07:53:12Z</time></trkpt><trkpt lat="43.240299613392395" lon="27.9757407889388"><ele>158.0</ele><time>2026-04-29T07:53:14Z</time></trkpt><trkpt lat="43.24033945956933" lon="27.975668934524187"><ele>158.0</ele><time>2026-04-29T07:53:19Z</time></trkpt><trkpt lat="43.24032391438328" lon="27.975494656809765"><ele>158.0</ele><time>2026-04-29T07:53:22Z</time></trkpt><trkpt lat="43.24029179388332" lon="27.97540756226696"><ele>158.0</ele><time>2026-04-29T07:53:23Z</time></trkpt><trkpt lat="43.240251342980834" lon="27.97530740489725"><ele>158.0</ele><time>2026-04-29T07:53:24Z</time></trkpt><trkpt lat="43.24021065158501" lon="27.97519664790709"><ele>158.0</ele><time>2026-04-29T07:53:25Z</time></trkpt><trkpt lat="43.24017030729033" lon="27.97509751152319"><ele>158.0</ele><time>2026-04-29T07:53:26Z</time></trkpt><trkpt lat="43.240145045782214" lon="27.974978902701956"><ele>158.0</ele><time>2026-04-29T07:53:27Z</time></trkpt><trkpt lat="43.24010782396948" lon="27.974854236571815"><ele>158.33333333333331</ele><time>2026-04-29T07:53:28Z</time></trkpt><trkpt lat="43.240071339906635" lon="27.97473632715948"><ele>158.66666666666666</ele><time>2026-04-29T07:53:29Z</time></trkpt><trkpt lat="43.24004784763179" lon="27.974644637686964"><ele>159.0</ele><time>2026-04-29T07:53:30Z</time></trkpt><trkpt lat="43.240017649347116" lon="27.9744998976705"><ele>159.33333333333334</ele><time>2026-04-29T07:53:32Z</time></trkpt><trkpt lat="43.239997606821355" lon="27.974404905332527"><ele>159.66666666666669</ele><time>2026-04-29T07:53:34Z</time></trkpt><trkpt lat="43.24003969324913" lon="27.97432098535654"><ele>160.0</ele><time>2026-04-29T07:53:37Z</time></trkpt><trkpt lat="43.24010438464014" lon="27.97432826403643"><ele>160.0</ele><time>2026-04-29T07:53:38Z</time></trkpt><trkpt lat="43.24020193895403" lon="27.974237741505522"><ele>160.0</ele><time>2026-04-29T07:53:40Z</time></trkpt><trkpt lat="43.24025599350095" lon="27.97418767268677"><ele>160.0</ele><time>2026-04-29T07:53:41Z</time></trkpt><trkpt lat="43.240310154501714" lon="27.974137668488265"><ele>160.0</ele><time>2026-04-29T07:53:42Z</time></trkpt><trkpt lat="43.240408085093286" lon="27.974047253944256"><ele>160.0</ele><time>2026-04-29T07:53:43.999Z</time></trkpt><trkpt lat="43.240503628234876" lon="27.97395904364859"><ele>160.83333333333334</ele><time>2026-04-29T07:53:45.999Z</time></trkpt><trkpt lat="43.24055992927994" lon="27.973907063617098"><ele>161.66666666666669</ele><time>2026-04-29T07:53:46.999Z</time></trkpt><trkpt lat="43.240612641711564" lon="27.973858396829247"><ele>162.5</ele><time>2026-04-29T07:53:47.999Z</time></trkpt><trkpt lat="43.24069965463089" lon="27.97380604379292"><ele>163.33333333333334</ele><time>2026-04-29T07:53:49.999Z</time></trkpt><trkpt lat="43.240748207913356" lon="27.973992783363475"><ele>164.16666666666666</ele><time>2026-04-29T07:53:51.999Z</time></trkpt><trkpt lat="43.24080448112977" lon="27.974058195379786"><ele>165.0</ele><time>2026-04-29T07:53:52.999Z</time></trkpt><trkpt lat="43.24088699827635" lon="27.97411160628601"><ele>165.71428571428572</ele><time>2026-04-29T07:53:53.999Z</time></trkpt><trkpt lat="43.24094794159627" lon="27.974151206116744"><ele>166.42857142857144</ele><time>2026-04-29T07:53:54.999Z</time></trkpt><trkpt lat="43.241019490962586" lon="27.974153424393123"><ele>167.14285714285717</ele><time>2026-04-29T07:53:55.999Z</time></trkpt><trkpt lat="43.24108763740542" lon="27.974166754491293"><ele>167.85714285714286</ele><time>2026-04-29T07:53:56.999Z</time></trkpt><trkpt lat="43.24115407767056" lon="27.974185460631865"><ele>168.57142857142856</ele><time>2026-04-29T07:53:57.999Z</time></trkpt><trkpt lat="43.24119739414372" lon="27.97426237968964"><ele>169.2857142857143</ele><time>2026-04-29T07:53:58.999Z</time></trkpt><trkpt lat="43.241253183859676" lon="27.97430964269447"><ele>170.0</ele><time>2026-04-29T07:53:59.999Z</time></trkpt><trkpt lat="43.24134927057615" lon="27.97439125980039"><ele>170.0</ele><time>2026-04-29T07:54:01.999Z</time></trkpt><trkpt lat="43.24142983202515" lon="27.9744596895854"><ele>170.0</ele><time>2026-04-29T07:54:03.999Z</time></trkpt><trkpt lat="43.241495027607634" lon="27.974515067544417"><ele>170.0</ele><time>2026-04-29T07:54:05.999Z</time></trkpt><trkpt lat="43.2416225738543" lon="27.97432352651077"><ele>170.0</ele><time>2026-04-29T07:54:07.999Z</time></trkpt><trkpt lat="43.24167870780945" lon="27.97412773337379"><ele>172.83333333333331</ele><time>2026-04-29T07:54:09.999Z</time></trkpt><trkpt lat="43.24163872682557" lon="27.973995034047363"><ele>175.66666666666666</ele><time>2026-04-29T07:54:10.999Z</time></trkpt><trkpt lat="43.24161826255784" lon="27.97388063703619"><ele>178.5</ele><time>2026-04-29T07:54:11.999Z</time></trkpt><trkpt lat="43.24159925411141" lon="27.973776224406556"><ele>181.33333333333334</ele><time>2026-04-29T07:54:12.999Z</time></trkpt><trkpt lat="43.24158192986716" lon="27.973678066569118"><ele>184.16666666666669</ele><time>2026-04-29T07:54:13.999Z</time></trkpt><trkpt lat="43.24153696540989" lon="27.97358818210092"><ele>187.0</ele><time>2026-04-29T07:54:14.999Z</time></trkpt><trkpt lat="43.24157381333205" lon="27.97344435481303"><ele>187.0</ele><time>2026-04-29T07:54:16.999Z</time></trkpt><trkpt lat="43.24156880103809" lon="27.973356700719492"><ele>187.0</ele><time>2026-04-29T07:54:17.999Z</time></trkpt><trkpt lat="43.24161320633377" lon="27.9732885575968"><ele>187.0</ele><time>2026-04-29T07:54:18.999Z</time></trkpt><trkpt lat="43.24165679724426" lon="27.973219680021078"><ele>187.0</ele><time>2026-04-29T07:54:19.999Z</time></trkpt><trkpt lat="43.2417050570197" lon="27.973160460288774"><ele>187.0</ele><time>2026-04-29T07:54:20.999Z</time></trkpt><trkpt lat="43.24175076237738" lon="27.97308161986318"><ele>187.0</ele><time>2026-04-29T07:54:21.999Z</time></trkpt><trkpt lat="43.24184465595566" lon="27.97309191528218"><ele>187.0</ele><time>2026-04-29T07:54:22.999Z</time></trkpt><trkpt lat="43.241816846382235" lon="27.972945214779678"><ele>188.16666666666669</ele><time>2026-04-29T07:54:23.999Z</time></trkpt><trkpt lat="43.24189267592311" lon="27.972838699995116"><ele>189.33333333333334</ele><time>2026-04-29T07:54:25.999Z</time></trkpt><trkpt lat="43.24193798214444" lon="27.972773772725994"><ele>190.5</ele><time>2026-04-29T07:54:26.999Z</time></trkpt><trkpt lat="43.241982455214846" lon="27.97271030907509"><ele>191.66666666666669</ele><time>2026-04-29T07:54:27.999Z</time></trkpt><trkpt lat="43.24206159664037" lon="27.972586382768572"><ele>192.83333333333334</ele><time>2026-04-29T07:54:29.999Z</time></trkpt><trkpt lat="43.24210689278218" lon="27.972512816264228"><ele>194.0</ele><time>2026-04-29T07:54:30.999Z</time></trkpt><trkpt lat="43.24215433477173" lon="27.972435764572896"><ele>194.0</ele><time>2026-04-29T07:54:31.999Z</time></trkpt><trkpt lat="43.24218280532402" lon="27.97235862587262"><ele>194.0</ele><time>2026-04-29T07:54:32.999Z</time></trkpt><trkpt lat="43.242266769767426" lon="27.972278377568706"><ele>194.0</ele><time>2026-04-29T07:54:34.999Z</time></trkpt><trkpt lat="43.24233657956136" lon="27.972169438329626"><ele>194.0</ele><time>2026-04-29T07:54:36.999Z</time></trkpt><trkpt lat="43.24241627096596" lon="27.972036920927632"><ele>194.0</ele><time>2026-04-29T07:54:38.999Z</time></trkpt><trkpt lat="43.24246942119033" lon="27.971965475658486"><ele>195.83333333333334</ele><time>2026-04-29T07:54:39.999Z</time></trkpt><trkpt lat="43.24251815342764" lon="27.97188406125076"><ele>197.66666666666669</ele><time>2026-04-29T07:54:40.999Z</time></trkpt><trkpt lat="43.242564742246216" lon="27.97180542768818"><ele>199.5</ele><time>2026-04-29T07:54:41.999Z</time></trkpt><trkpt lat="43.2426165496857" lon="27.971718310576527"><ele>201.33333333333331</ele><time>2026-04-29T07:54:42.999Z</time></trkpt><trkpt lat="43.242665284925486" lon="27.971636358916513"><ele>203.16666666666666</ele><time>2026-04-29T07:54:43.999Z</time></trkpt><trkpt lat="43.24271005466364" lon="27.97152499897996"><ele>205.0</ele><time>2026-04-29T07:54:44.998Z</time></trkpt><trkpt lat="43.24275110763564" lon="27.97142402968067"><ele>205.0</ele><time>2026-04-29T07:54:45.998Z</time></trkpt><trkpt lat="43.24279338366826" lon="27.971320960385086"><ele>205.0</ele><time>2026-04-29T07:54:46.998Z</time></trkpt><trkpt lat="43.242829827361916" lon="27.971233712297366"><ele>205.0</ele><time>2026-04-29T07:54:47.998Z</time></trkpt><trkpt lat="43.242852632138806" lon="27.971143622947388"><ele>205.0</ele><time>2026-04-29T07:54:48.998Z</time></trkpt><trkpt lat="43.242897227936794" lon="27.97107456181908"><ele>205.0</ele><time>2026-04-29T07:54:49.998Z</time></trkpt><trkpt lat="43.242933773622426" lon="27.97099671816511"><ele>205.0</ele><time>2026-04-29T07:54:51Z</time></trkpt><trkpt lat="43.24296890161496" lon="27.970921894321716"><ele>205.0</ele><time>2026-04-29T07:54:52Z</time></trkpt><trkpt lat="43.24300892644228" lon="27.970838297573064"><ele>204.16666666666666</ele><time>2026-04-29T07:54:53Z</time></trkpt><trkpt lat="43.24304725468085" lon="27.970736199504135"><ele>203.33333333333331</ele><time>2026-04-29T07:54:54Z</time></trkpt><trkpt lat="43.24313318269616" lon="27.97069823067244"><ele>202.5</ele><time>2026-04-29T07:54:55Z</time></trkpt><trkpt lat="43.24320102572316" lon="27.97062505873679"><ele>201.66666666666669</ele><time>2026-04-29T07:54:56Z</time></trkpt><trkpt lat="43.24326852322443" lon="27.970562934980272"><ele>200.83333333333334</ele><time>2026-04-29T07:54:57Z</time></trkpt><trkpt lat="43.24333308467547" lon="27.970509128081254"><ele>200.0</ele><time>2026-04-29T07:54:58Z</time></trkpt><trkpt lat="43.243398597438755" lon="27.97045452842941"><ele>203.0</ele><time>2026-04-29T07:54:59Z</time></trkpt><trkpt lat="43.243454691726065" lon="27.970407778299197"><ele>206.0</ele><time>2026-04-29T07:55:00Z</time></trkpt><trkpt lat="43.243478216069505" lon="27.97018777332351"><ele>209.0</ele><time>2026-04-29T07:55:02Z</time></trkpt><trkpt lat="43.24347742937834" lon="27.97009162694192"><ele>212.0</ele><time>2026-04-29T07:55:03Z</time></trkpt><trkpt lat="43.24348568473926" lon="27.969985215759824"><ele>215.0</ele><time>2026-04-29T07:55:04Z</time></trkpt><trkpt lat="43.24349786212718" lon="27.969876395202046"><ele>215.00000000000003</ele><time>2026-04-29T07:55:05Z</time></trkpt><trkpt lat="43.24353175612633" lon="27.96977662215095"><ele>215.0</ele><time>2026-04-29T07:55:06Z</time></trkpt><trkpt lat="43.243554372362844" lon="27.969672166183287"><ele>215.0</ele><time>2026-04-29T07:55:07Z</time></trkpt><trkpt lat="43.24357621659743" lon="27.96956302329663"><ele>215.0</ele><time>2026-04-29T07:55:08Z</time></trkpt><trkpt lat="43.24361829548017" lon="27.969453398605072"><ele>215.00000000000003</ele><time>2026-04-29T07:55:09Z</time></trkpt><trkpt lat="43.24366259579919" lon="27.969344240873465"><ele>215.0</ele><time>2026-04-29T07:55:10Z</time></trkpt><trkpt lat="43.24373317126656" lon="27.969255420605144"><ele>214.6</ele><time>2026-04-29T07:55:11Z</time></trkpt><trkpt lat="43.24380461299026" lon="27.969167452545275"><ele>214.2</ele><time>2026-04-29T07:55:12Z</time></trkpt><trkpt lat="43.24389206283614" lon="27.969140809257855"><ele>213.8</ele><time>2026-04-29T07:55:13Z</time></trkpt><trkpt lat="43.24398251803311" lon="27.969092962315717"><ele>213.4</ele><time>2026-04-29T07:55:14Z</time></trkpt><trkpt lat="43.24408141723624" lon="27.969120726687077"><ele>213.0</ele><time>2026-04-29T07:55:15Z</time></trkpt><trkpt lat="43.244176566425814" lon="27.96911629394615"><ele>216.0</ele><time>2026-04-29T07:55:16Z</time></trkpt><trkpt lat="43.244288430183566" lon="27.96909912594211"><ele>219.0</ele><time>2026-04-29T07:55:17Z</time></trkpt><trkpt lat="43.24439961595584" lon="27.96909787257178"><ele>222.0</ele><time>2026-04-29T07:55:18Z</time></trkpt><trkpt lat="43.24451664881268" lon="27.969094482714972"><ele>225.0</ele><time>2026-04-29T07:55:19Z</time></trkpt><trkpt lat="43.24463966297871" lon="27.969122184935166"><ele>225.0</ele><time>2026-04-29T07:55:20Z</time></trkpt><trkpt lat="43.244756991730775" lon="27.969130189176173"><ele>225.0</ele><time>2026-04-29T07:55:21Z</time></trkpt><trkpt lat="43.24486786941755" lon="27.969157883368666"><ele>225.0</ele><time>2026-04-29T07:55:22Z</time></trkpt><trkpt lat="43.244977334524904" lon="27.96919366016084"><ele>225.0</ele><time>2026-04-29T07:55:23Z</time></trkpt><trkpt lat="43.24508158031338" lon="27.969227731318462"><ele>227.5</ele><time>2026-04-29T07:55:24Z</time></trkpt><trkpt lat="43.245174592427816" lon="27.969258132627864"><ele>230.0</ele><time>2026-04-29T07:55:25Z</time></trkpt><trkpt lat="43.24524142876133" lon="27.96927943396927"><ele>232.5</ele><time>2026-04-29T07:55:26Z</time></trkpt><trkpt lat="43.24530662260149" lon="27.969300659255"><ele>235.0</ele><time>2026-04-29T07:55:27Z</time></trkpt><trkpt lat="43.2453726009627" lon="27.96932239193757"><ele>237.5</ele><time>2026-04-29T07:55:28Z</time></trkpt><trkpt lat="43.245459443314" lon="27.969245846899774"><ele>240.0</ele><time>2026-04-29T07:55:29Z</time></trkpt><trkpt lat="43.24553504496866" lon="27.969225137121764"><ele>240.33333333333334</ele><time>2026-04-29T07:55:30Z</time></trkpt><trkpt lat="43.245606459133356" lon="27.969179228456635"><ele>240.66666666666669</ele><time>2026-04-29T07:55:31Z</time></trkpt><trkpt lat="43.24568383680846" lon="27.96916568014634"><ele>241.0</ele><time>2026-04-29T07:55:32Z</time></trkpt><trkpt lat="43.24576984607948" lon="27.969231148765488"><ele>241.33333333333334</ele><time>2026-04-29T07:55:33Z</time></trkpt><trkpt lat="43.24584559242542" lon="27.969222467813356"><ele>241.66666666666669</ele><time>2026-04-29T07:55:34Z</time></trkpt><trkpt lat="43.24592734652697" lon="27.969213098339683"><ele>242.0</ele><time>2026-04-29T07:55:35Z</time></trkpt><trkpt lat="43.24599848067947" lon="27.969192186890286"><ele>240.39999999999998</ele><time>2026-04-29T07:55:36Z</time></trkpt><trkpt lat="43.24611415976506" lon="27.969150912081634"><ele>238.79999999999998</ele><time>2026-04-29T07:55:38Z</time></trkpt><trkpt lat="43.246136092663775" lon="27.969044361502192"><ele>237.2</ele><time>2026-04-29T07:55:39Z</time></trkpt><trkpt lat="43.24616831329621" lon="27.968905118925303"><ele>235.6</ele><time>2026-04-29T07:55:41Z</time></trkpt><trkpt lat="43.24611070732428" lon="27.968789725712092"><ele>234.0</ele><time>2026-04-29T07:55:42.999Z</time></trkpt><trkpt lat="43.24602681329387" lon="27.968656527696073"><ele>234.0</ele><time>2026-04-29T07:55:44.999Z</time></trkpt><trkpt lat="43.24597052158527" lon="27.968603142357882"><ele>234.0</ele><time>2026-04-29T07:55:45.999Z</time></trkpt><trkpt lat="43.24591365733819" lon="27.96854059274217"><ele>234.0</ele><time>2026-04-29T07:55:46.999Z</time></trkpt><trkpt lat="43.2458602746715" lon="27.968465557797245"><ele>234.0</ele><time>2026-04-29T07:55:47.999Z</time></trkpt><trkpt lat="43.245795256502056" lon="27.968401787638072"><ele>234.0</ele><time>2026-04-29T07:55:48.999Z</time></trkpt><trkpt lat="43.24572964536185" lon="27.968337435917064"><ele>234.0</ele><time>2026-04-29T07:55:49.999Z</time></trkpt><trkpt lat="43.2456609288681" lon="27.96826378858841"><ele>234.2857142857143</ele><time>2026-04-29T07:55:50.999Z</time></trkpt><trkpt lat="43.245600539712854" lon="27.968199488439605"><ele>234.5714285714286</ele><time>2026-04-29T07:55:51.999Z</time></trkpt><trkpt lat="43.245549684903274" lon="27.96812518310332"><ele>234.85714285714286</ele><time>2026-04-29T07:55:52.999Z</time></trkpt><trkpt lat="43.24550609023398" lon="27.968045349026703"><ele>235.14285714285717</ele><time>2026-04-29T07:55:53.999Z</time></trkpt><trkpt lat="43.24546678912733" lon="27.96795843714194"><ele>235.42857142857144</ele><time>2026-04-29T07:55:54.999Z</time></trkpt><trkpt lat="43.2454281142923" lon="27.967872910032977"><ele>235.71428571428572</ele><time>2026-04-29T07:55:55.999Z</time></trkpt><trkpt lat="43.24537338494613" lon="27.96779895824674"><ele>236.0</ele><time>2026-04-29T07:55:56.999Z</time></trkpt><trkpt lat="43.2452728497306" lon="27.967700644583868"><ele>236.00000000000003</ele><time>2026-04-29T07:55:58.999Z</time></trkpt><trkpt lat="43.245208005120126" lon="27.967679806495976"><ele>236.0</ele><time>2026-04-29T07:55:59.999Z</time></trkpt><trkpt lat="43.24513209614007" lon="27.967646565306882"><ele>236.0</ele><time>2026-04-29T07:56:00.999Z</time></trkpt><trkpt lat="43.24504882956623" lon="27.96763049316929"><ele>236.0</ele><time>2026-04-29T07:56:01.999Z</time></trkpt><trkpt lat="43.24497227535111" lon="27.967574639325953"><ele>236.00000000000003</ele><time>2026-04-29T07:56:02.999Z</time></trkpt><trkpt lat="43.24489773974191" lon="27.96754199488669"><ele>236.0</ele><time>2026-04-29T07:56:03.999Z</time></trkpt><trkpt lat="43.24483421007008" lon="27.967511953560773"><ele>237.42857142857142</ele><time>2026-04-29T07:56:04.999Z</time></trkpt><trkpt lat="43.24476065539177" lon="27.96747944664234"><ele>238.8571428571429</ele><time>2026-04-29T07:56:05.999Z</time></trkpt><trkpt lat="43.244716818483134" lon="27.967409966817517"><ele>240.2857142857143</ele><time>2026-04-29T07:56:06.999Z</time></trkpt><trkpt lat="43.24465703424081" lon="27.96736270305809"><ele>241.71428571428572</ele><time>2026-04-29T07:56:07.999Z</time></trkpt><trkpt lat="43.2445944977962" lon="27.967313422315605"><ele>243.14285714285717</ele><time>2026-04-29T07:56:08.999Z</time></trkpt><trkpt lat="43.24452888043946" lon="27.96727130555599"><ele>244.5714285714286</ele><time>2026-04-29T07:56:09.999Z</time></trkpt><trkpt lat="43.244462767891356" lon="27.967223102289864"><ele>246.00000000000003</ele><time>2026-04-29T07:56:10.999Z</time></trkpt><trkpt lat="43.24441124056029" lon="27.967149914711406"><ele>246.0</ele><time>2026-04-29T07:56:11.999Z</time></trkpt><trkpt lat="43.24435302241375" lon="27.967090291723448"><ele>246.0</ele><time>2026-04-29T07:56:12.999Z</time></trkpt><trkpt lat="43.244307247437746" lon="27.967019161027814"><ele>246.0</ele><time>2026-04-29T07:56:13.999Z</time></trkpt><trkpt lat="43.2442001443767" lon="27.96691661502799"><ele>246.0</ele><time>2026-04-29T07:56:15.999Z</time></trkpt><trkpt lat="43.24410833943789" lon="27.966831815767854"><ele>246.0</ele><time>2026-04-29T07:56:17.999Z</time></trkpt><trkpt lat="43.2440692543734" lon="27.966763536916087"><ele>246.0</ele><time>2026-04-29T07:56:18.999Z</time></trkpt><trkpt lat="43.24401678443355" lon="27.966686658537707"><ele>246.83333333333334</ele><time>2026-04-29T07:56:19.999Z</time></trkpt><trkpt lat="43.24394521799475" lon="27.966616530539458"><ele>247.66666666666669</ele><time>2026-04-29T07:56:20.999Z</time></trkpt><trkpt lat="43.24389611289815" lon="27.966521347808275"><ele>248.5</ele><time>2026-04-29T07:56:21.999Z</time></trkpt><trkpt lat="43.24383544613875" lon="27.96645933889877"><ele>249.33333333333334</ele><time>2026-04-29T07:56:22.999Z</time></trkpt><trkpt lat="43.24378994883195" lon="27.966380682077602"><ele>250.16666666666669</ele><time>2026-04-29T07:56:23.999Z</time></trkpt><trkpt lat="43.24373269942651" lon="27.966305874356866"><ele>251.0</ele><time>2026-04-29T07:56:24.999Z</time></trkpt><trkpt lat="43.243677022806736" lon="27.96623187037545"><ele>251.00000000000003</ele><time>2026-04-29T07:56:25.999Z</time></trkpt><trkpt lat="43.24362711647415" lon="27.966163390939318"><ele>251.0</ele><time>2026-04-29T07:56:26.999Z</time></trkpt><trkpt lat="43.24357632549517" lon="27.966093697411235"><ele>251.0</ele><time>2026-04-29T07:56:27.999Z</time></trkpt><trkpt lat="43.24354049305308" lon="27.965931251822635"><ele>251.0</ele><time>2026-04-29T07:56:29.999Z</time></trkpt><trkpt lat="43.24349499057268" lon="27.96586897829274"><ele>251.00000000000003</ele><time>2026-04-29T07:56:30.999Z</time></trkpt><trkpt lat="43.24346724258602" lon="27.965778327467497"><ele>251.0</ele><time>2026-04-29T07:56:31.999Z</time></trkpt><trkpt lat="43.2434138879673" lon="27.965609821074647"><ele>253.50000000000003</ele><time>2026-04-29T07:56:33.999Z</time></trkpt><trkpt lat="43.2434023007614" lon="27.965510853538568"><ele>256.0</ele><time>2026-04-29T07:56:34.999Z</time></trkpt><trkpt lat="43.24341895468587" lon="27.96542091748306"><ele>258.5</ele><time>2026-04-29T07:56:35.999Z</time></trkpt><trkpt lat="43.24343148810493" lon="27.965313975997333"><ele>261.0</ele><time>2026-04-29T07:56:37.999Z</time></trkpt><trkpt lat="43.24343620822907" lon="27.96520423524016"><ele>263.5</ele><time>2026-04-29T07:56:39.999Z</time></trkpt><trkpt lat="43.243466746944506" lon="27.96508538301853"><ele>266.0</ele><time>2026-04-29T07:56:41.998Z</time></trkpt><trkpt lat="43.24350387903509" lon="27.964992342072467"><ele>267.0</ele><time>2026-04-29T07:56:43.998Z</time></trkpt><trkpt lat="43.243473876045655" lon="27.96485798908291"><ele>268.0</ele><time>2026-04-29T07:56:45.998Z</time></trkpt><trkpt lat="43.24345472671167" lon="27.964725063063018"><ele>269.0</ele><time>2026-04-29T07:56:47.998Z</time></trkpt><trkpt lat="43.24347051103041" lon="27.964621421770097"><ele>270.0</ele><time>2026-04-29T07:56:49.998Z</time></trkpt><trkpt lat="43.24350581644163" lon="27.964486689885863"><ele>271.0</ele><time>2026-04-29T07:56:51.998Z</time></trkpt><trkpt lat="43.24354803588499" lon="27.964348717394802"><ele>271.0</ele><time>2026-04-29T07:56:53.998Z</time></trkpt><trkpt lat="43.24360688891678" lon="27.96426478242619"><ele>271.0</ele><time>2026-04-29T07:56:55.998Z</time></trkpt><trkpt lat="43.24363076453544" lon="27.96416187891058"><ele>271.0</ele><time>2026-04-29T07:56:58Z</time></trkpt><trkpt lat="43.243677667882956" lon="27.96405376108777"><ele>271.0</ele><time>2026-04-29T07:57:00Z</time></trkpt><trkpt lat="43.243748635262065" lon="27.96398229272145"><ele>271.0</ele><time>2026-04-29T07:57:02Z</time></trkpt><trkpt lat="43.24379283598573" lon="27.96386337755058"><ele>271.0</ele><time>2026-04-29T07:57:04Z</time></trkpt><trkpt lat="43.24382048250387" lon="27.963751209561238"><ele>272.5</ele><time>2026-04-29T07:57:06Z</time></trkpt><trkpt lat="43.2438106861986" lon="27.96366040388583"><ele>274.0</ele><time>2026-04-29T07:57:08Z</time></trkpt><trkpt lat="43.24376737081257" lon="27.9635044901615"><ele>275.5</ele><time>2026-04-29T07:57:10Z</time></trkpt><trkpt lat="43.24370743867116" lon="27.96342289944462"><ele>277.0</ele><time>2026-04-29T07:57:11Z</time></trkpt><trkpt lat="43.243662431813796" lon="27.96334045230262"><ele>278.5</ele><time>2026-04-29T07:57:12Z</time></trkpt><trkpt lat="43.24361334020976" lon="27.963251769093745"><ele>280.0</ele><time>2026-04-29T07:57:13Z</time></trkpt><trkpt lat="43.243557804093534" lon="27.963168794040023"><ele>281.16666666666663</ele><time>2026-04-29T07:57:14Z</time></trkpt><trkpt lat="43.24351044310149" lon="27.96308169946493"><ele>282.3333333333333</ele><time>2026-04-29T07:57:15Z</time></trkpt><trkpt lat="43.24346047872034" lon="27.963000997236726"><ele>283.5</ele><time>2026-04-29T07:57:16Z</time></trkpt><trkpt lat="43.243413894492626" lon="27.962910765953144"><ele>284.6666666666667</ele><time>2026-04-29T07:57:17Z</time></trkpt><trkpt lat="43.243369858594896" lon="27.962829933333932"><ele>285.83333333333337</ele><time>2026-04-29T07:57:18Z</time></trkpt><trkpt lat="43.24332677255718" lon="27.9627388418353"><ele>287.0</ele><time>2026-04-29T07:57:19Z</time></trkpt><trkpt lat="43.243288058886066" lon="27.962650137113954"><ele>287.0</ele><time>2026-04-29T07:57:20Z</time></trkpt><trkpt lat="43.24324818840468" lon="27.962565415917986"><ele>287.0</ele><time>2026-04-29T07:57:21Z</time></trkpt><trkpt lat="43.24320745053124" lon="27.96248445172174"><ele>287.0</ele><time>2026-04-29T07:57:22Z</time></trkpt><trkpt lat="43.243170499586995" lon="27.96239217571743"><ele>287.0</ele><time>2026-04-29T07:57:23Z</time></trkpt><trkpt lat="43.24313939580435" lon="27.962303575668496"><ele>287.0</ele><time>2026-04-29T07:57:24Z</time></trkpt><trkpt lat="43.243104692374224" lon="27.96221970694589"><ele>287.0</ele><time>2026-04-29T07:57:25Z</time></trkpt><trkpt lat="43.24310909799745" lon="27.96213334414738"><ele>287.0</ele><time>2026-04-29T07:57:26Z</time></trkpt><trkpt lat="43.243095661510566" lon="27.962038601249603"><ele>286.4</ele><time>2026-04-29T07:57:27Z</time></trkpt><trkpt lat="43.2430244420419" lon="27.96189777171328"><ele>285.79999999999995</ele><time>2026-04-29T07:57:29Z</time></trkpt><trkpt lat="43.243016755512194" lon="27.961810248365698"><ele>285.2</ele><time>2026-04-29T07:57:30Z</time></trkpt><trkpt lat="43.24300549866494" lon="27.961713933398205"><ele>284.59999999999997</ele><time>2026-04-29T07:57:31Z</time></trkpt><trkpt lat="43.242988448192236" lon="27.961568047101395"><ele>284.0</ele><time>2026-04-29T07:57:33Z</time></trkpt><trkpt lat="43.24307752795582" lon="27.96151779954186"><ele>285.4</ele><time>2026-04-29T07:57:35Z</time></trkpt><trkpt lat="43.24314283019791" lon="27.96144843738154"><ele>286.79999999999995</ele><time>2026-04-29T07:57:36Z</time></trkpt><trkpt lat="43.24320947145457" lon="27.961359208060266"><ele>288.20000000000005</ele><time>2026-04-29T07:57:37Z</time></trkpt><trkpt lat="43.243267900689865" lon="27.961280974232455"><ele>289.6</ele><time>2026-04-29T07:57:38Z</time></trkpt><trkpt lat="43.243327815566346" lon="27.96117104689764"><ele>291.0</ele><time>2026-04-29T07:57:39Z</time></trkpt><trkpt lat="43.24338398667887" lon="27.961064259634046"><ele>291.0</ele><time>2026-04-29T07:57:40Z</time></trkpt><trkpt lat="43.243441123992035" lon="27.960952019011916"><ele>291.0</ele><time>2026-04-29T07:57:41Z</time></trkpt><trkpt lat="43.24348739720003" lon="27.960856861694154"><ele>291.0</ele><time>2026-04-29T07:57:42Z</time></trkpt><trkpt lat="43.243527056943215" lon="27.960775319048803"><ele>291.0</ele><time>2026-04-29T07:57:43Z</time></trkpt><trkpt lat="43.24357272947634" lon="27.96068100952718"><ele>291.0</ele><time>2026-04-29T07:57:44.999Z</time></trkpt><trkpt lat="43.24364668423591" lon="27.960674405756713"><ele>291.0</ele><time>2026-04-29T07:57:47.999Z</time></trkpt><trkpt lat="43.24372339475224" lon="27.960739570235766"><ele>291.0</ele><time>2026-04-29T07:57:48.999Z</time></trkpt><trkpt lat="43.24380515313179" lon="27.960808907775558"><ele>291.0</ele><time>2026-04-29T07:57:49.999Z</time></trkpt><trkpt lat="43.24389544167755" lon="27.960884567482566"><ele>291.0</ele><time>2026-04-29T07:57:50.999Z</time></trkpt><trkpt lat="43.24399420523132" lon="27.960967271483987"><ele>291.0</ele><time>2026-04-29T07:57:51.999Z</time></trkpt><trkpt lat="43.24409722466962" lon="27.961054263334223"><ele>291.0</ele><time>2026-04-29T07:57:52.999Z</time></trkpt><trkpt lat="43.24420350398034" lon="27.96113834753646"><ele>292.5</ele><time>2026-04-29T07:57:53.999Z</time></trkpt><trkpt lat="43.244308032045474" lon="27.96121654810041"><ele>294.0</ele><time>2026-04-29T07:57:54.999Z</time></trkpt><trkpt lat="43.24440015727734" lon="27.96131042786181"><ele>295.5</ele><time>2026-04-29T07:57:55.999Z</time></trkpt><trkpt lat="43.24449108836403" lon="27.961399634677097"><ele>297.0</ele><time>2026-04-29T07:57:56.999Z</time></trkpt><trkpt lat="43.24459031920759" lon="27.961457752627886"><ele>297.0</ele><time>2026-04-29T07:57:57.999Z</time></trkpt><trkpt lat="43.24468200944238" lon="27.96154834557316"><ele>297.0</ele><time>2026-04-29T07:57:58.999Z</time></trkpt><trkpt lat="43.244787785810345" lon="27.961601293893573"><ele>297.0</ele><time>2026-04-29T07:57:59.999Z</time></trkpt><trkpt lat="43.24490480820838" lon="27.96164228447856"><ele>297.0</ele><time>2026-04-29T07:58:00.999Z</time></trkpt><trkpt lat="43.245028718939984" lon="27.961679440340045"><ele>297.75</ele><time>2026-04-29T07:58:01.999Z</time></trkpt><trkpt lat="43.245161549147184" lon="27.96171478999152"><ele>298.5</ele><time>2026-04-29T07:58:02.999Z</time></trkpt><trkpt lat="43.2452980782121" lon="27.961756991262774"><ele>299.25</ele><time>2026-04-29T07:58:03.999Z</time></trkpt><trkpt lat="43.2454387197351" lon="27.961800238249513"><ele>300.0</ele><time>2026-04-29T07:58:04.999Z</time></trkpt><trkpt lat="43.245587252100925" lon="27.96183377974261"><ele>301.0</ele><time>2026-04-29T07:58:05.999Z</time></trkpt><trkpt lat="43.24573430186796" lon="27.961877746561672"><ele>302.0</ele><time>2026-04-29T07:58:06.999Z</time></trkpt><trkpt lat="43.245885593749605" lon="27.961924974951934"><ele>303.0</ele><time>2026-04-29T07:58:07.999Z</time></trkpt><trkpt lat="43.24603688584305" lon="27.96196830121016"><ele>303.0</ele><time>2026-04-29T07:58:08.999Z</time></trkpt><trkpt lat="43.246192119827064" lon="27.962010798674797"><ele>303.0</ele><time>2026-04-29T07:58:09.999Z</time></trkpt><trkpt lat="43.24634866384591" lon="27.96205974451712"><ele>303.0</ele><time>2026-04-29T07:58:10.999Z</time></trkpt><trkpt lat="43.24650173606864" lon="27.96210577235646"><ele>303.0</ele><time>2026-04-29T07:58:11.999Z</time></trkpt><trkpt lat="43.2466552383302" lon="27.962152231289114"><ele>303.0</ele><time>2026-04-29T07:58:12.999Z</time></trkpt><trkpt lat="43.24680416795737" lon="27.962196211607395"><ele>303.0</ele><time>2026-04-29T07:58:13.999Z</time></trkpt><trkpt lat="43.24695456697615" lon="27.962243094991262"><ele>303.0</ele><time>2026-04-29T07:58:14.999Z</time></trkpt><trkpt lat="43.24710123284997" lon="27.962290075753"><ele>303.0</ele><time>2026-04-29T07:58:15.999Z</time></trkpt><trkpt lat="43.24724483214621" lon="27.962338575080658"><ele>303.0</ele><time>2026-04-29T07:58:16.999Z</time></trkpt><trkpt lat="43.2473840693736" lon="27.962382091698796"><ele>303.0</ele><time>2026-04-29T07:58:17.999Z</time></trkpt><trkpt lat="43.24751872955792" lon="27.962425254094487"><ele>302.75</ele><time>2026-04-29T07:58:18.999Z</time></trkpt><trkpt lat="43.24764300408906" lon="27.96247646290967"><ele>302.5</ele><time>2026-04-29T07:58:19.999Z</time></trkpt><trkpt lat="43.2477616324233" lon="27.962517146282757"><ele>302.25</ele><time>2026-04-29T07:58:20.999Z</time></trkpt><trkpt lat="43.247867911930044" lon="27.962550983815643"><ele>302.0</ele><time>2026-04-29T07:58:21.999Z</time></trkpt><trkpt lat="43.24794805609461" lon="27.962607492889926"><ele>302.0</ele><time>2026-04-29T07:58:22.999Z</time></trkpt><trkpt lat="43.24802114049198" lon="27.96260644853031"><ele>302.0</ele><time>2026-04-29T07:58:23.999Z</time></trkpt><trkpt lat="43.248101180437814" lon="27.96271025295463"><ele>302.0</ele><time>2026-04-29T07:58:25.999Z</time></trkpt><trkpt lat="43.2481380270243" lon="27.96279969749538"><ele>302.0</ele><time>2026-04-29T07:58:26.999Z</time></trkpt><trkpt lat="43.24820603217857" lon="27.96289176103008"><ele>302.0</ele><time>2026-04-29T07:58:27.999Z</time></trkpt><trkpt lat="43.24829014224955" lon="27.962991655049354"><ele>302.25</ele><time>2026-04-29T07:58:28.999Z</time></trkpt><trkpt lat="43.2483849838057" lon="27.96309808575464"><ele>302.5</ele><time>2026-04-29T07:58:29.999Z</time></trkpt><trkpt lat="43.24849261877996" lon="27.96319732821042"><ele>302.75</ele><time>2026-04-29T07:58:30.999Z</time></trkpt><trkpt lat="43.248609786717914" lon="27.963287638659654"><ele>303.0</ele><time>2026-04-29T07:58:31.999Z</time></trkpt><trkpt lat="43.248733105209816" lon="27.963375673349972"><ele>303.0</ele><time>2026-04-29T07:58:32.999Z</time></trkpt><trkpt lat="43.24885857277384" lon="27.963465936443157"><ele>303.0</ele><time>2026-04-29T07:58:33.999Z</time></trkpt><trkpt lat="43.24898933044438" lon="27.96354844793516"><ele>303.0</ele><time>2026-04-29T07:58:34.999Z</time></trkpt><trkpt lat="43.24912445956918" lon="27.96361300825713"><ele>303.0</ele><time>2026-04-29T07:58:35.999Z</time></trkpt><trkpt lat="43.24926091532925" lon="27.963665836690282"><ele>303.25</ele><time>2026-04-29T07:58:36.999Z</time></trkpt><trkpt lat="43.24939377985209" lon="27.96372460528139"><ele>303.5</ele><time>2026-04-29T07:58:37.999Z</time></trkpt><trkpt lat="43.24952563313598" lon="27.963778611485598"><ele>303.75</ele><time>2026-04-29T07:58:38.999Z</time></trkpt><trkpt lat="43.24965625355928" lon="27.963840664928217"><ele>304.0</ele><time>2026-04-29T07:58:39.999Z</time></trkpt><trkpt lat="43.24978885970049" lon="27.96390333292245"><ele>304.0</ele><time>2026-04-29T07:58:40.999Z</time></trkpt><trkpt lat="43.249922296456305" lon="27.963971788131943"><ele>304.0</ele><time>2026-04-29T07:58:41.998Z</time></trkpt><trkpt lat="43.25005530619321" lon="27.964038068311183"><ele>304.0</ele><time>2026-04-29T07:58:42.998Z</time></trkpt><trkpt lat="43.25018958474976" lon="27.964101080185017"><ele>304.0</ele><time>2026-04-29T07:58:43.998Z</time></trkpt><trkpt lat="43.25032299875103" lon="27.96416705407943"><ele>303.5</ele><time>2026-04-29T07:58:44.998Z</time></trkpt><trkpt lat="43.25045249736069" lon="27.96423327401203"><ele>303.0</ele><time>2026-04-29T07:58:45.998Z</time></trkpt><trkpt lat="43.250565006102654" lon="27.96432516421587"><ele>302.5</ele><time>2026-04-29T07:58:46.998Z</time></trkpt><trkpt lat="43.25068461689467" lon="27.964412170232354"><ele>302.0</ele><time>2026-04-29T07:58:47.998Z</time></trkpt><trkpt lat="43.25081164600138" lon="27.96449287484891"><ele>302.0</ele><time>2026-04-29T07:58:48.998Z</time></trkpt><trkpt lat="43.25093477701195" lon="27.96460569684268"><ele>302.0</ele><time>2026-04-29T07:58:49.998Z</time></trkpt><trkpt lat="43.251049845630966" lon="27.96472879860249"><ele>302.0</ele><time>2026-04-29T07:58:50.998Z</time></trkpt><trkpt lat="43.25116693666108" lon="27.96485734799945"><ele>302.0</ele><time>2026-04-29T07:58:51.998Z</time></trkpt><trkpt lat="43.25128546831148" lon="27.964984379275162"><ele>301.33333333333337</ele><time>2026-04-29T07:58:52.998Z</time></trkpt><trkpt lat="43.25140839346658" lon="27.965109360383572"><ele>300.6666666666667</ele><time>2026-04-29T07:58:53.998Z</time></trkpt><trkpt lat="43.251530677169626" lon="27.965234648292274"><ele>300.0</ele><time>2026-04-29T07:58:54.998Z</time></trkpt><trkpt lat="43.25165055067359" lon="27.965366330141208"><ele>300.0</ele><time>2026-04-29T07:58:55.998Z</time></trkpt><trkpt lat="43.25176948298361" lon="27.96549548381263"><ele>300.0</ele><time>2026-04-29T07:58:56.998Z</time></trkpt><trkpt lat="43.25187865122633" lon="27.965616337502112"><ele>300.0</ele><time>2026-04-29T07:58:57.998Z</time></trkpt><trkpt lat="43.251971569036826" lon="27.96572959452546"><ele>300.0</ele><time>2026-04-29T07:58:58.998Z</time></trkpt><trkpt lat="43.25204737384247" lon="27.965822072885008"><ele>300.3333333333333</ele><time>2026-04-29T07:58:59.998Z</time></trkpt><trkpt lat="43.25210995487153" lon="27.96589973338301"><ele>300.6666666666667</ele><time>2026-04-29T07:59:00.998Z</time></trkpt><trkpt lat="43.25216167208779" lon="27.965957602095227"><ele>301.0</ele><time>2026-04-29T07:59:01.998Z</time></trkpt><trkpt lat="43.25222462654105" lon="27.966055238415898"><ele>301.33333333333337</ele><time>2026-04-29T07:59:04Z</time></trkpt><trkpt lat="43.25233458595545" lon="27.966151937492352"><ele>301.6666666666667</ele><time>2026-04-29T07:59:06Z</time></trkpt><trkpt lat="43.252398440494986" lon="27.966187688356978"><ele>302.0</ele><time>2026-04-29T07:59:07Z</time></trkpt><trkpt lat="43.25246259617745" lon="27.966237896819038"><ele>302.0</ele><time>2026-04-29T07:59:08Z</time></trkpt><trkpt lat="43.252531937774016" lon="27.966267484876045"><ele>302.0</ele><time>2026-04-29T07:59:09Z</time></trkpt><trkpt lat="43.25259805906511" lon="27.96631627731627"><ele>302.0</ele><time>2026-04-29T07:59:10Z</time></trkpt><trkpt lat="43.252670909900274" lon="27.966468992218687"><ele>302.0</ele><time>2026-04-29T07:59:12Z</time></trkpt><trkpt lat="43.25274678506513" lon="27.96657558715787"><ele>302.0</ele><time>2026-04-29T07:59:14Z</time></trkpt><trkpt lat="43.25279756536495" lon="27.966676055012567"><ele>301.83333333333337</ele><time>2026-04-29T08:00:53.998Z</time></trkpt><trkpt lat="43.25285605729899" lon="27.966749426185853"><ele>301.6666666666667</ele><time>2026-04-29T08:00:56.998Z</time></trkpt><trkpt lat="43.252899577331426" lon="27.966812930508976"><ele>301.5</ele><time>2026-04-29T08:00:58.998Z</time></trkpt><trkpt lat="43.25295959674012" lon="27.966900510629376"><ele>301.3333333333333</ele><time>2026-04-29T08:01:00.998Z</time></trkpt><trkpt lat="43.25304757950827" lon="27.966999102389877"><ele>301.16666666666663</ele><time>2026-04-29T08:01:02.998Z</time></trkpt><trkpt lat="43.253126502671904" lon="27.966984919135825"><ele>301.0</ele><time>2026-04-29T08:01:03.998Z</time></trkpt><trkpt lat="43.25321303431893" lon="27.966975896777214"><ele>301.0</ele><time>2026-04-29T08:01:04.998Z</time></trkpt><trkpt lat="43.253150272308716" lon="27.966874265828185"><ele>301.0</ele><time>2026-04-29T08:01:05.998Z</time></trkpt><trkpt lat="43.253242362829894" lon="27.96679606431605"><ele>301.0</ele><time>2026-04-29T08:01:07.998Z</time></trkpt><trkpt lat="43.253299380859076" lon="27.96689593026875"><ele>301.0</ele><time>2026-04-29T08:01:10Z</time></trkpt><trkpt lat="43.25333251386097" lon="27.96697255271429"><ele>301.0</ele><time>2026-04-29T08:01:11Z</time></trkpt><trkpt lat="43.25337356372115" lon="27.967067784270487"><ele>301.0</ele><time>2026-04-29T08:01:12Z</time></trkpt><trkpt lat="43.25342132524315" lon="27.967178586188144"><ele>301.0</ele><time>2026-04-29T08:01:13Z</time></trkpt><trkpt lat="43.25347741967675" lon="27.96728109649095"><ele>301.0</ele><time>2026-04-29T08:01:14Z</time></trkpt><trkpt lat="43.25352351188488" lon="27.96739161953806"><ele>301.0</ele><time>2026-04-29T08:01:15Z</time></trkpt><trkpt lat="43.253579259896924" lon="27.96748714103773"><ele>301.0</ele><time>2026-04-29T08:01:16Z</time></trkpt><trkpt lat="43.25364578369073" lon="27.96757037335205"><ele>301.0</ele><time>2026-04-29T08:01:17Z</time></trkpt><trkpt lat="43.25371038102774" lon="27.967655497820736"><ele>300.8</ele><time>2026-04-29T08:01:18Z</time></trkpt><trkpt lat="43.253775009465606" lon="27.967746113393837"><ele>300.6</ele><time>2026-04-29T08:01:19Z</time></trkpt><trkpt lat="43.25383388381239" lon="27.967846841707967"><ele>300.4</ele><time>2026-04-29T08:01:20Z</time></trkpt><trkpt lat="43.253893941449626" lon="27.967947078918833"><ele>300.2</ele><time>2026-04-29T08:01:21Z</time></trkpt><trkpt lat="43.25396105493901" lon="27.968047790550017"><ele>300.0</ele><time>2026-04-29T08:01:22Z</time></trkpt><trkpt lat="43.2540329864459" lon="27.96815537844506"><ele>300.0</ele><time>2026-04-29T08:01:23Z</time></trkpt><trkpt lat="43.254106505779156" lon="27.968268841215686"><ele>300.0</ele><time>2026-04-29T08:01:24Z</time></trkpt><trkpt lat="43.25417840668518" lon="27.96838436588664"><ele>300.0</ele><time>2026-04-29T08:01:25Z</time></trkpt><trkpt lat="43.25424260156849" lon="27.96848453762885"><ele>300.0</ele><time>2026-04-29T08:01:26Z</time></trkpt><trkpt lat="43.254300149214494" lon="27.968574609862706"><ele>300.0</ele><time>2026-04-29T08:01:27Z</time></trkpt><trkpt lat="43.25435319180994" lon="27.96867707379294"><ele>299.8</ele><time>2026-04-29T08:01:28Z</time></trkpt><trkpt lat="43.25443620229607" lon="27.96875115881746"><ele>299.6</ele><time>2026-04-29T08:01:29Z</time></trkpt><trkpt lat="43.25450940214359" lon="27.968842154340404"><ele>299.4</ele><time>2026-04-29T08:01:30Z</time></trkpt><trkpt lat="43.25458434328667" lon="27.968936145559063"><ele>299.2</ele><time>2026-04-29T08:01:31Z</time></trkpt><trkpt lat="43.25465902971254" lon="27.969015884512544"><ele>299.0</ele><time>2026-04-29T08:01:32Z</time></trkpt><trkpt lat="43.25474181395413" lon="27.969100443063823"><ele>298.2</ele><time>2026-04-29T08:01:33Z</time></trkpt><trkpt lat="43.2548136068566" lon="27.969194818964453"><ele>297.4</ele><time>2026-04-29T08:01:34Z</time></trkpt><trkpt lat="43.25489131123578" lon="27.969296965775076"><ele>296.6</ele><time>2026-04-29T08:01:35Z</time></trkpt><trkpt lat="43.25496634980868" lon="27.96939562102055"><ele>295.8</ele><time>2026-04-29T08:01:36Z</time></trkpt><trkpt lat="43.255002953257865" lon="27.96952751590032"><ele>295.0</ele><time>2026-04-29T08:01:37Z</time></trkpt><trkpt lat="43.2550675913401" lon="27.96964339835022"><ele>295.0</ele><time>2026-04-29T08:01:38Z</time></trkpt><trkpt lat="43.25511640477144" lon="27.969756945988255"><ele>295.0</ele><time>2026-04-29T08:01:39Z</time></trkpt><trkpt lat="43.255174146281114" lon="27.96985930164584"><ele>295.0</ele><time>2026-04-29T08:01:40Z</time></trkpt><trkpt lat="43.25521216046232" lon="27.969952864494356"><ele>295.0</ele><time>2026-04-29T08:01:41Z</time></trkpt><trkpt lat="43.255243944741004" lon="27.970046081904325"><ele>295.0</ele><time>2026-04-29T08:01:42Z</time></trkpt><trkpt lat="43.255224384803476" lon="27.97015868709376"><ele>295.0</ele><time>2026-04-29T08:01:43Z</time></trkpt><trkpt lat="43.255221821900385" lon="27.970262419295075"><ele>294.8333333333333</ele><time>2026-04-29T08:01:44Z</time></trkpt><trkpt lat="43.25520887425182" lon="27.970351966263166"><ele>294.66666666666663</ele><time>2026-04-29T08:01:45Z</time></trkpt><trkpt lat="43.255235296581944" lon="27.97043982148175"><ele>294.5</ele><time>2026-04-29T08:01:46Z</time></trkpt><trkpt lat="43.255293190517584" lon="27.970509267801408"><ele>294.3333333333333</ele><time>2026-04-29T08:01:47Z</time></trkpt><trkpt lat="43.25535535822663" lon="27.970578583236673"><ele>294.1666666666667</ele><time>2026-04-29T08:01:48Z</time></trkpt><trkpt lat="43.25541587060268" lon="27.970658112074062"><ele>294.0</ele><time>2026-04-29T08:01:49Z</time></trkpt><trkpt lat="43.25548113399767" lon="27.970729741085016"><ele>294.0</ele><time>2026-04-29T08:01:50Z</time></trkpt><trkpt lat="43.255539621595894" lon="27.97081078859522"><ele>294.0</ele><time>2026-04-29T08:01:50.999Z</time></trkpt><trkpt lat="43.2555965858176" lon="27.970901863756403"><ele>294.0</ele><time>2026-04-29T08:01:51.999Z</time></trkpt><trkpt lat="43.255660231991584" lon="27.971012049691623"><ele>294.0</ele><time>2026-04-29T08:01:52.999Z</time></trkpt><trkpt lat="43.255730873848364" lon="27.971108749013077"><ele>294.0</ele><time>2026-04-29T08:01:53.999Z</time></trkpt><trkpt lat="43.25579915757718" lon="27.971215741145933"><ele>293.0</ele><time>2026-04-29T08:01:54.999Z</time></trkpt><trkpt lat="43.25586721249219" lon="27.97132322979699"><ele>292.0</ele><time>2026-04-29T08:01:55.999Z</time></trkpt><trkpt lat="43.255936838281265" lon="27.971432588131783"><ele>291.0</ele><time>2026-04-29T08:01:56.999Z</time></trkpt><trkpt lat="43.256009262273516" lon="27.97153657561524"><ele>290.0</ele><time>2026-04-29T08:01:57.999Z</time></trkpt><trkpt lat="43.25608692583238" lon="27.97164792216272"><ele>289.0</ele><time>2026-04-29T08:01:58.999Z</time></trkpt><trkpt lat="43.256158561760934" lon="27.971765624585764"><ele>288.8</ele><time>2026-04-29T08:01:59.999Z</time></trkpt><trkpt lat="43.256230173135734" lon="27.97186509573819"><ele>288.59999999999997</ele><time>2026-04-29T08:02:00.999Z</time></trkpt><trkpt lat="43.256302526538114" lon="27.971969653594574"><ele>288.4</ele><time>2026-04-29T08:02:01.999Z</time></trkpt><trkpt lat="43.25637088000013" lon="27.972085277744636"><ele>288.2</ele><time>2026-04-29T08:02:02.999Z</time></trkpt><trkpt lat="43.256447750824584" lon="27.9721995101561"><ele>288.0</ele><time>2026-04-29T08:02:03.999Z</time></trkpt><trkpt lat="43.25651755631856" lon="27.972314342608954"><ele>288.0</ele><time>2026-04-29T08:02:04.999Z</time></trkpt><trkpt lat="43.25658639218786" lon="27.972427035801015"><ele>288.0</ele><time>2026-04-29T08:02:05.999Z</time></trkpt><trkpt lat="43.25664992810101" lon="27.972518990549965"><ele>288.0</ele><time>2026-04-29T08:02:06.999Z</time></trkpt><trkpt lat="43.256705630295706" lon="27.97260834284148"><ele>288.0</ele><time>2026-04-29T08:02:07.999Z</time></trkpt><trkpt lat="43.256764337623736" lon="27.97269301857778"><ele>288.0</ele><time>2026-04-29T08:02:08.999Z</time></trkpt><trkpt lat="43.2568253749956" lon="27.97277337118532"><ele>287.8</ele><time>2026-04-29T08:02:09.999Z</time></trkpt><trkpt lat="43.25689850708162" lon="27.97284668835625"><ele>287.6</ele><time>2026-04-29T08:02:10.999Z</time></trkpt><trkpt lat="43.25697236477694" lon="27.97293326641858"><ele>287.4</ele><time>2026-04-29T08:02:11.999Z</time></trkpt><trkpt lat="43.257038384597095" lon="27.97302425478545"><ele>287.2</ele><time>2026-04-29T08:02:12.999Z</time></trkpt><trkpt lat="43.25710638231552" lon="27.973126696895324"><ele>287.0</ele><time>2026-04-29T08:02:13.999Z</time></trkpt><trkpt lat="43.2571720933478" lon="27.97321818381461"><ele>287.0</ele><time>2026-04-29T08:02:14.999Z</time></trkpt><trkpt lat="43.25723102459865" lon="27.97331027663979"><ele>287.0</ele><time>2026-04-29T08:02:15.999Z</time></trkpt><trkpt lat="43.25728193499432" lon="27.973399225596822"><ele>287.0</ele><time>2026-04-29T08:02:16.999Z</time></trkpt><trkpt lat="43.2573463573991" lon="27.973465990036956"><ele>287.0</ele><time>2026-04-29T08:02:17.999Z</time></trkpt><trkpt lat="43.25741892351312" lon="27.973517375716426"><ele>287.0</ele><time>2026-04-29T08:02:18.999Z</time></trkpt><trkpt lat="43.25749234901744" lon="27.973542673729966"><ele>287.0</ele><time>2026-04-29T08:02:19.999Z</time></trkpt><trkpt lat="43.25756491450368" lon="27.9736570751949"><ele>286.25</ele><time>2026-04-29T08:02:21.999Z</time></trkpt><trkpt lat="43.257496161720304" lon="27.97376733620634"><ele>285.5</ele><time>2026-04-29T08:02:23.999Z</time></trkpt><trkpt lat="43.257567763129764" lon="27.97395930886287"><ele>284.75</ele><time>2026-04-29T08:02:26.999Z</time></trkpt><trkpt lat="43.257659861415746" lon="27.974075263860787"><ele>284.0</ele><time>2026-04-29T08:02:28.999Z</time></trkpt><trkpt lat="43.25770944783444" lon="27.97415065637634"><ele>284.0</ele><time>2026-04-29T08:02:30.999Z</time></trkpt><trkpt lat="43.25776062322164" lon="27.97421431498695"><ele>284.0</ele><time>2026-04-29T08:02:32.999Z</time></trkpt><trkpt lat="43.2578292839281" lon="27.974317524955058"><ele>284.0</ele><time>2026-04-29T08:02:34.999Z</time></trkpt><trkpt lat="43.25777929594884" lon="27.97424133777866"><ele>284.0</ele><time>2026-04-29T08:02:53.998Z</time></trkpt><trkpt lat="43.25773590854461" lon="27.974174951556485"><ele>284.0</ele><time>2026-04-29T08:02:56.998Z</time></trkpt><trkpt lat="43.25767578650533" lon="27.974111372796298"><ele>284.0</ele><time>2026-04-29T08:03:00.998Z</time></trkpt><trkpt lat="43.25764408658901" lon="27.974031958083465"><ele>284.0</ele><time>2026-04-29T08:03:03.998Z</time></trkpt><trkpt lat="43.25757657418429" lon="27.97396313222719"><ele>284.0</ele><time>2026-04-29T08:03:06.998Z</time></trkpt><trkpt lat="43.2575258326317" lon="27.973887315666204"><ele>284.0</ele><time>2026-04-29T08:03:10.998Z</time></trkpt><trkpt lat="43.25748283568427" lon="27.97379740977606"><ele>284.0</ele><time>2026-04-29T08:03:13.998Z</time></trkpt><trkpt lat="43.25740177041466" lon="27.973911438181702"><ele>284.0</ele><time>2026-04-29T08:03:24Z</time></trkpt><trkpt lat="43.257358188550285" lon="27.973997287364803"><ele>284.0</ele><time>2026-04-29T08:03:25Z</time></trkpt><trkpt lat="43.25731965239404" lon="27.974070104880855"><ele>284.0</ele><time>2026-04-29T08:03:26Z</time></trkpt><trkpt lat="43.257240432205904" lon="27.97420516996946"><ele>284.0</ele><time>2026-04-29T08:03:28Z</time></trkpt><trkpt lat="43.25720737122882" lon="27.974279619462873"><ele>284.0</ele><time>2026-04-29T08:03:29Z</time></trkpt><trkpt lat="43.257169177876584" lon="27.974348413389883"><ele>284.0</ele><time>2026-04-29T08:03:30Z</time></trkpt><trkpt lat="43.25712987544747" lon="27.974417891828608"><ele>284.0</ele><time>2026-04-29T08:03:31Z</time></trkpt><trkpt lat="43.25702470631133" lon="27.974508170640178"><ele>284.0</ele><time>2026-04-29T08:03:33Z</time></trkpt><trkpt lat="43.25698862579622" lon="27.97459206553423"><ele>284.0</ele><time>2026-04-29T08:03:35Z</time></trkpt><trkpt lat="43.256939356514344" lon="27.974683941375442"><ele>284.0</ele><time>2026-04-29T08:03:39Z</time></trkpt><trkpt lat="43.2570117453218" lon="27.974797281095082"><ele>284.0</ele><time>2026-04-29T08:03:41Z</time></trkpt><trkpt lat="43.25708594539077" lon="27.974892403120265"><ele>284.0</ele><time>2026-04-29T08:03:43Z</time></trkpt><trkpt lat="43.257161776917584" lon="27.975011902239103"><ele>284.0</ele><time>2026-04-29T08:03:45Z</time></trkpt><trkpt lat="43.25721668010471" lon="27.97507893584588"><ele>283.2</ele><time>2026-04-29T08:03:46Z</time></trkpt><trkpt lat="43.257279411390954" lon="27.975152467746053"><ele>282.4</ele><time>2026-04-29T08:03:47Z</time></trkpt><trkpt lat="43.257339316907036" lon="27.975243712653363"><ele>281.6</ele><time>2026-04-29T08:03:48Z</time></trkpt><trkpt lat="43.257398460614944" lon="27.97534039818202"><ele>280.8</ele><time>2026-04-29T08:03:49Z</time></trkpt><trkpt lat="43.2574503206843" lon="27.975462417748048"><ele>280.0</ele><time>2026-04-29T08:03:50Z</time></trkpt><trkpt lat="43.257488769531136" lon="27.97559773655668"><ele>280.0</ele><time>2026-04-29T08:03:51Z</time></trkpt><trkpt lat="43.25753399693627" lon="27.975732703065567"><ele>280.0</ele><time>2026-04-29T08:03:52Z</time></trkpt><trkpt lat="43.25758332999582" lon="27.975873252254488"><ele>280.0</ele><time>2026-04-29T08:03:53Z</time></trkpt><trkpt lat="43.25763529326971" lon="27.97601134124324"><ele>280.0</ele><time>2026-04-29T08:03:54Z</time></trkpt><trkpt lat="43.257694909191024" lon="27.97615306085472"><ele>279.5</ele><time>2026-04-29T08:03:55Z</time></trkpt><trkpt lat="43.25775425404391" lon="27.97629393243287"><ele>279.0</ele><time>2026-04-29T08:03:56Z</time></trkpt><trkpt lat="43.25782402693126" lon="27.976429169965343"><ele>278.5</ele><time>2026-04-29T08:03:56.999Z</time></trkpt><trkpt lat="43.257897229466295" lon="27.976550811857855"><ele>278.0</ele><time>2026-04-29T08:03:57.999Z</time></trkpt><trkpt lat="43.25796665393998" lon="27.97665697344059"><ele>277.5</ele><time>2026-04-29T08:03:58.999Z</time></trkpt><trkpt lat="43.258027103067704" lon="27.97675553361555"><ele>277.0</ele><time>2026-04-29T08:03:59.999Z</time></trkpt><trkpt lat="43.25807655173841" lon="27.97683250899677"><ele>276.5</ele><time>2026-04-29T08:04:00.999Z</time></trkpt><trkpt lat="43.25814391749075" lon="27.97693539073959"><ele>276.0</ele><time>2026-04-29T08:04:02.999Z</time></trkpt><trkpt lat="43.258189916775706" lon="27.977007841823568"><ele>275.5</ele><time>2026-04-29T08:04:06.999Z</time></trkpt><trkpt lat="43.25824433531975" lon="27.97709510698652"><ele>275.0</ele><time>2026-04-29T08:04:09.999Z</time></trkpt><trkpt lat="43.25829165206476" lon="27.977166511422816"><ele>275.0</ele><time>2026-04-29T08:04:11.999Z</time></trkpt><trkpt lat="43.25833781047482" lon="27.977276840376046"><ele>275.0</ele><time>2026-04-29T08:04:13.999Z</time></trkpt><trkpt lat="43.258409986396614" lon="27.97737770011264"><ele>275.0</ele><time>2026-04-29T08:04:15.999Z</time></trkpt><trkpt lat="43.258469394695226" lon="27.977492521095762"><ele>275.0</ele><time>2026-04-29T08:04:17.999Z</time></trkpt><trkpt lat="43.25853508340101" lon="27.97761011368044"><ele>275.0</ele><time>2026-04-29T08:04:19.999Z</time></trkpt><trkpt lat="43.25860353737083" lon="27.977728728651382"><ele>274.6666666666667</ele><time>2026-04-29T08:04:21.999Z</time></trkpt><trkpt lat="43.258672855269495" lon="27.9778506203568"><ele>274.33333333333337</ele><time>2026-04-29T08:04:23.999Z</time></trkpt><trkpt lat="43.25874312807423" lon="27.97798877766721"><ele>274.0</ele><time>2026-04-29T08:04:25.999Z</time></trkpt><trkpt lat="43.25878409358738" lon="27.978060424723097"><ele>273.6666666666667</ele><time>2026-04-29T08:04:26.999Z</time></trkpt><trkpt lat="43.25882135321305" lon="27.978136265223803"><ele>273.3333333333333</ele><time>2026-04-29T08:04:27.999Z</time></trkpt><trkpt lat="43.25886672822769" lon="27.978199476582034"><ele>273.0</ele><time>2026-04-29T08:04:28.999Z</time></trkpt><trkpt lat="43.25891627772444" lon="27.978256156711524"><ele>273.0</ele><time>2026-04-29T08:04:29.999Z</time></trkpt><trkpt lat="43.258947337490156" lon="27.978337684160515"><ele>273.0</ele><time>2026-04-29T08:04:30.999Z</time></trkpt><trkpt lat="43.2589887909219" lon="27.9784078504976"><ele>273.0</ele><time>2026-04-29T08:04:31.999Z</time></trkpt><trkpt lat="43.25903229632959" lon="27.978481978802968"><ele>273.0</ele><time>2026-04-29T08:04:32.999Z</time></trkpt><trkpt lat="43.25906835086891" lon="27.978563196631697"><ele>273.0</ele><time>2026-04-29T08:04:33.999Z</time></trkpt><trkpt lat="43.25910505789253" lon="27.978639427577793"><ele>273.0</ele><time>2026-04-29T08:04:34.999Z</time></trkpt><trkpt lat="43.259155612667726" lon="27.978702861644866"><ele>273.0</ele><time>2026-04-29T08:04:35.999Z</time></trkpt><trkpt lat="43.25918418944893" lon="27.978798567579382"><ele>273.3333333333333</ele><time>2026-04-29T08:04:36.999Z</time></trkpt><trkpt lat="43.2592341932891" lon="27.978875756146174"><ele>273.6666666666667</ele><time>2026-04-29T08:04:37.999Z</time></trkpt><trkpt lat="43.25926049333692" lon="27.978960235186253"><ele>274.0</ele><time>2026-04-29T08:04:38.999Z</time></trkpt><trkpt lat="43.25928753625835" lon="27.979047730877507"><ele>274.33333333333337</ele><time>2026-04-29T08:04:39.999Z</time></trkpt><trkpt lat="43.25931718484578" lon="27.979127571820737"><ele>274.6666666666667</ele><time>2026-04-29T08:04:40.999Z</time></trkpt><trkpt lat="43.259380505323456" lon="27.979281525029045"><ele>275.0</ele><time>2026-04-29T08:04:42.999Z</time></trkpt><trkpt lat="43.25941002390674" lon="27.979363441763716"><ele>274.42857142857144</ele><time>2026-04-29T08:04:43.999Z</time></trkpt><trkpt lat="43.25944794769004" lon="27.979442104409557"><ele>273.85714285714283</ele><time>2026-04-29T08:04:44.999Z</time></trkpt><trkpt lat="43.25948458111336" lon="27.979521667308976"><ele>273.2857142857143</ele><time>2026-04-29T08:04:45.999Z</time></trkpt><trkpt lat="43.25950433612279" lon="27.979618481068286"><ele>272.7142857142857</ele><time>2026-04-29T08:04:46.999Z</time></trkpt><trkpt lat="43.259530927372786" lon="27.979698984494746"><ele>272.14285714285717</ele><time>2026-04-29T08:04:47.999Z</time></trkpt><trkpt lat="43.25956160779873" lon="27.97978028154031"><ele>271.57142857142856</ele><time>2026-04-29T08:04:48.999Z</time></trkpt><trkpt lat="43.259595715476124" lon="27.97985746467895"><ele>271.0</ele><time>2026-04-29T08:04:49.999Z</time></trkpt><trkpt lat="43.25962473947576" lon="27.979942538613376"><ele>270.7142857142857</ele><time>2026-04-29T08:04:50.999Z</time></trkpt><trkpt lat="43.25964657066757" lon="27.98002517320079"><ele>270.42857142857144</ele><time>2026-04-29T08:04:51.999Z</time></trkpt><trkpt lat="43.25967670741737" lon="27.98010968805946"><ele>270.14285714285717</ele><time>2026-04-29T08:04:52.999Z</time></trkpt><trkpt lat="43.25971136642746" lon="27.980188802022628"><ele>269.8571428571429</ele><time>2026-04-29T08:04:53.998Z</time></trkpt><trkpt lat="43.259746707242336" lon="27.980261436522493"><ele>269.5714285714286</ele><time>2026-04-29T08:04:54.998Z</time></trkpt><trkpt lat="43.25977378451395" lon="27.980349264002985"><ele>269.2857142857143</ele><time>2026-04-29T08:04:55.998Z</time></trkpt><trkpt lat="43.259807672520424" lon="27.98048357167754"><ele>269.0</ele><time>2026-04-29T08:04:57.998Z</time></trkpt><trkpt lat="43.25983908999666" lon="27.980597056784447"><ele>270.4</ele><time>2026-04-29T08:04:59.998Z</time></trkpt><trkpt lat="43.259852177882394" lon="27.98072178989247"><ele>271.79999999999995</ele><time>2026-04-29T08:05:01.998Z</time></trkpt><trkpt lat="43.25987365274759" lon="27.98086589781532"><ele>273.20000000000005</ele><time>2026-04-29T08:05:03.998Z</time></trkpt><trkpt lat="43.259893829875416" lon="27.98103003611559"><ele>274.6</ele><time>2026-04-29T08:05:05.998Z</time></trkpt><trkpt lat="43.25988327473352" lon="27.981123573618984"><ele>276.0</ele><time>2026-04-29T08:05:06.998Z</time></trkpt><trkpt lat="43.259886710488125" lon="27.981222241493874"><ele>276.1666666666667</ele><time>2026-04-29T08:05:07.998Z</time></trkpt><trkpt lat="43.259889892402775" lon="27.981313618619645"><ele>276.3333333333333</ele><time>2026-04-29T08:05:08.998Z</time></trkpt><trkpt lat="43.25991051472692" lon="27.981406305929944"><ele>276.5</ele><time>2026-04-29T08:05:09.998Z</time></trkpt><trkpt lat="43.259905767140914" lon="27.981495479205165"><ele>276.66666666666663</ele><time>2026-04-29T08:05:10.998Z</time></trkpt><trkpt lat="43.2599000560721" lon="27.981598146364885"><ele>276.8333333333333</ele><time>2026-04-29T08:05:11.998Z</time></trkpt><trkpt lat="43.25989840847075" lon="27.98177291282395"><ele>277.0</ele><time>2026-04-29T08:05:13.998Z</time></trkpt><trkpt lat="43.259908439433" lon="27.98195925929468"><ele>277.0</ele><time>2026-04-29T08:05:15.998Z</time></trkpt><trkpt lat="43.259921027271126" lon="27.98205341724795"><ele>277.0</ele><time>2026-04-29T08:05:16.998Z</time></trkpt><trkpt lat="43.25992387736762" lon="27.982226420690413"><ele>277.0</ele><time>2026-04-29T08:05:18.998Z</time></trkpt><trkpt lat="43.25992774998305" lon="27.982325367645753"><ele>277.0</ele><time>2026-04-29T08:05:19.998Z</time></trkpt><trkpt lat="43.25993456882806" lon="27.98242722887405"><ele>277.0</ele><time>2026-04-29T08:05:21Z</time></trkpt><trkpt lat="43.259941064389245" lon="27.982514388234588"><ele>277.0</ele><time>2026-04-29T08:05:22Z</time></trkpt><trkpt lat="43.25994448190122" lon="27.982616580726987"><ele>277.0</ele><time>2026-04-29T08:05:23Z</time></trkpt><trkpt lat="43.25995381003118" lon="27.982712829902535"><ele>277.0</ele><time>2026-04-29T08:05:24Z</time></trkpt><trkpt lat="43.2599621696709" lon="27.982812651757477"><ele>277.0</ele><time>2026-04-29T08:05:25Z</time></trkpt><trkpt lat="43.25996467118022" lon="27.982905599878276"><ele>277.0</ele><time>2026-04-29T08:05:26Z</time></trkpt><trkpt lat="43.25997090366451" lon="27.98305894813081"><ele>277.0</ele><time>2026-04-29T08:05:28Z</time></trkpt><trkpt lat="43.259966681183876" lon="27.983190896579995"><ele>277.0</ele><time>2026-04-29T08:05:30Z</time></trkpt><trkpt lat="43.259989369692114" lon="27.98333777358029"><ele>277.0</ele><time>2026-04-29T08:05:32Z</time></trkpt><trkpt lat="43.25999701932838" lon="27.983481481006535"><ele>277.0</ele><time>2026-04-29T08:05:34Z</time></trkpt><trkpt lat="43.259992358778" lon="27.98356812788786"><ele>277.0</ele><time>2026-04-29T08:05:36Z</time></trkpt><trkpt lat="43.26011006977195" lon="27.983571213732223"><ele>277.0</ele><time>2026-04-29T08:05:37Z</time></trkpt><trkpt lat="43.26018059323114" lon="27.983559506600532"><ele>277.0</ele><time>2026-04-29T08:05:38Z</time></trkpt><trkpt lat="43.26026955818824" lon="27.98347422742325"><ele>277.0</ele><time>2026-04-29T08:05:40Z</time></trkpt><trkpt lat="43.26030484382324" lon="27.983327260362387"><ele>277.0</ele><time>2026-04-29T08:05:42Z</time></trkpt><trkpt lat="43.26034118658428" lon="27.983185436736797"><ele>277.0</ele><time>2026-04-29T08:05:44Z</time></trkpt><trkpt lat="43.26038196880115" lon="27.983026503010137"><ele>277.0</ele><time>2026-04-29T08:05:46Z</time></trkpt><trkpt lat="43.26040236437855" lon="27.98293706780976"><ele>277.0</ele><time>2026-04-29T08:05:47Z</time></trkpt><trkpt lat="43.26043410509052" lon="27.98275915895651"><ele>277.0</ele><time>2026-04-29T08:05:49Z</time></trkpt><trkpt lat="43.260450801126616" lon="27.98266385504734"><ele>277.0</ele><time>2026-04-29T08:05:50Z</time></trkpt><trkpt lat="43.260467582302326" lon="27.982567989123535"><ele>277.0</ele><time>2026-04-29T08:05:51Z</time></trkpt><trkpt lat="43.26049829928831" lon="27.98239597405794"><ele>277.0</ele><time>2026-04-29T08:05:53Z</time></trkpt><trkpt lat="43.26051478960506" lon="27.982303628765177"><ele>277.0</ele><time>2026-04-29T08:05:54Z</time></trkpt><trkpt lat="43.260527873542216" lon="27.98220729298797"><ele>277.0</ele><time>2026-04-29T08:05:55Z</time></trkpt><trkpt lat="43.260631300126036" lon="27.982157367528707"><ele>277.2</ele><time>2026-04-29T08:05:56Z</time></trkpt><trkpt lat="43.260684833436265" lon="27.98205143022889"><ele>277.4</ele><time>2026-04-29T08:05:57Z</time></trkpt><trkpt lat="43.26075590198205" lon="27.98192572323285"><ele>277.6</ele><time>2026-04-29T08:05:58Z</time></trkpt><trkpt lat="43.26082935669607" lon="27.98181018117444"><ele>277.8</ele><time>2026-04-29T08:05:59Z</time></trkpt><trkpt lat="43.26091182642835" lon="27.981685538421292"><ele>278.0</ele><time>2026-04-29T08:06:00Z</time></trkpt><trkpt lat="43.26098700150796" lon="27.98157192066606"><ele>278.0</ele><time>2026-04-29T08:06:01Z</time></trkpt><trkpt lat="43.261061043377865" lon="27.981460015542503"><ele>278.0</ele><time>2026-04-29T08:06:02Z</time></trkpt><trkpt lat="43.261132636587284" lon="27.981351811269278"><ele>278.0</ele><time>2026-04-29T08:06:03Z</time></trkpt><trkpt lat="43.261200068308085" lon="27.981250782532424"><ele>278.0</ele><time>2026-04-29T08:06:03.999Z</time></trkpt><trkpt lat="43.26127426785027" lon="27.981138588831243"><ele>278.0</ele><time>2026-04-29T08:06:04.999Z</time></trkpt><trkpt lat="43.261350489155454" lon="27.98102293769263"><ele>278.0</ele><time>2026-04-29T08:06:05.999Z</time></trkpt><trkpt lat="43.26141990584675" lon="27.980917611152798"><ele>278.0</ele><time>2026-04-29T08:06:06.999Z</time></trkpt><trkpt lat="43.261488601446956" lon="27.98081432785309"><ele>278.0</ele><time>2026-04-29T08:06:07.999Z</time></trkpt><trkpt lat="43.26155984371381" lon="27.980706773928716"><ele>278.0</ele><time>2026-04-29T08:06:08.999Z</time></trkpt><trkpt lat="43.26162938061505" lon="27.980601501610003"><ele>278.0</ele><time>2026-04-29T08:06:09.999Z</time></trkpt><trkpt lat="43.2617061459802" lon="27.980485286015934"><ele>279.25</ele><time>2026-04-29T08:06:10.999Z</time></trkpt><trkpt lat="43.26178075041828" lon="27.98037027431393"><ele>280.5</ele><time>2026-04-29T08:06:11.999Z</time></trkpt><trkpt lat="43.26185408667055" lon="27.980250321633843"><ele>281.75</ele><time>2026-04-29T08:06:12.999Z</time></trkpt><trkpt lat="43.261931189439984" lon="27.98012457796074"><ele>283.0</ele><time>2026-04-29T08:06:13.999Z</time></trkpt><trkpt lat="43.262007265510256" lon="27.980000858892847"><ele>283.75</ele><time>2026-04-29T08:06:14.999Z</time></trkpt><trkpt lat="43.26208899656744" lon="27.979867943420377"><ele>284.5</ele><time>2026-04-29T08:06:15.999Z</time></trkpt><trkpt lat="43.26216814451228" lon="27.97973908540981"><ele>285.25</ele><time>2026-04-29T08:06:16.999Z</time></trkpt><trkpt lat="43.26224755141361" lon="27.979609530962218"><ele>286.0</ele><time>2026-04-29T08:06:17.999Z</time></trkpt><trkpt lat="43.26232788826674" lon="27.97947845929177"><ele>286.0</ele><time>2026-04-29T08:06:18.999Z</time></trkpt><trkpt lat="43.26240975142472" lon="27.979360384378943"><ele>286.0</ele><time>2026-04-29T08:06:19.999Z</time></trkpt><trkpt lat="43.26249097770337" lon="27.979244071561062"><ele>286.0</ele><time>2026-04-29T08:06:20.999Z</time></trkpt><trkpt lat="43.26257864531457" lon="27.979118853464442"><ele>286.0</ele><time>2026-04-29T08:06:21.999Z</time></trkpt><trkpt lat="43.262660852962526" lon="27.979002818718694"><ele>287.0</ele><time>2026-04-29T08:06:22.999Z</time></trkpt><trkpt lat="43.26274616221819" lon="27.978890075211858"><ele>288.0</ele><time>2026-04-29T08:06:23.999Z</time></trkpt><trkpt lat="43.26283321704245" lon="27.97877566980593"><ele>289.0</ele><time>2026-04-29T08:06:24.999Z</time></trkpt><trkpt lat="43.26291585692212" lon="27.978665601621746"><ele>290.0</ele><time>2026-04-29T08:06:25.999Z</time></trkpt><trkpt lat="43.26299616186949" lon="27.978559714575162"><ele>290.0</ele><time>2026-04-29T08:06:26.999Z</time></trkpt><trkpt lat="43.263067503716435" lon="27.978465093461626"><ele>290.0</ele><time>2026-04-29T08:06:27.999Z</time></trkpt><trkpt lat="43.26313909043694" lon="27.978370147680444"><ele>290.0</ele><time>2026-04-29T08:06:28.999Z</time></trkpt><trkpt lat="43.26320797392801" lon="27.978279239541948"><ele>290.0</ele><time>2026-04-29T08:06:29.999Z</time></trkpt><trkpt lat="43.263273398493595" lon="27.97819439457186"><ele>290.0</ele><time>2026-04-29T08:06:30.999Z</time></trkpt><trkpt lat="43.263338403112385" lon="27.978110094276143"><ele>290.2</ele><time>2026-04-29T08:06:31.999Z</time></trkpt><trkpt lat="43.26341203154174" lon="27.978014610303667"><ele>290.4</ele><time>2026-04-29T08:06:32.999Z</time></trkpt><trkpt lat="43.26348407718233" lon="27.977921179026907"><ele>290.6</ele><time>2026-04-29T08:06:33.999Z</time></trkpt><trkpt lat="43.26356067050145" lon="27.9778011003699"><ele>290.8</ele><time>2026-04-29T08:06:34.999Z</time></trkpt><trkpt lat="43.2636321356141" lon="27.977691146086844"><ele>291.0</ele><time>2026-04-29T08:06:35.999Z</time></trkpt><trkpt lat="43.26371084416786" lon="27.977570041155097"><ele>291.25</ele><time>2026-04-29T08:06:36.999Z</time></trkpt><trkpt lat="43.26378973393405" lon="27.977456298966555"><ele>291.5</ele><time>2026-04-29T08:06:37.999Z</time></trkpt><trkpt lat="43.26388171840258" lon="27.977345935102356"><ele>291.75</ele><time>2026-04-29T08:06:38.999Z</time></trkpt><trkpt lat="43.2639845066601" lon="27.977223079953777"><ele>292.0</ele><time>2026-04-29T08:06:39.999Z</time></trkpt><trkpt lat="43.26409531994633" lon="27.977090782796704"><ele>292.0</ele><time>2026-04-29T08:06:40.999Z</time></trkpt><trkpt lat="43.26419806555938" lon="27.976968458249882"><ele>292.0</ele><time>2026-04-29T08:06:41.999Z</time></trkpt><trkpt lat="43.26429304724734" lon="27.976853820502594"><ele>292.0</ele><time>2026-04-29T08:06:42.999Z</time></trkpt><trkpt lat="43.2643905542605" lon="27.976745227829465"><ele>292.0</ele><time>2026-04-29T08:06:43.999Z</time></trkpt><trkpt lat="43.264480095649674" lon="27.976645791443495"><ele>293.5</ele><time>2026-04-29T08:06:44.999Z</time></trkpt><trkpt lat="43.26456879196625" lon="27.976558243734075"><ele>295.0</ele><time>2026-04-29T08:06:45.999Z</time></trkpt><trkpt lat="43.26467704564881" lon="27.976465585355438"><ele>296.5</ele><time>2026-04-29T08:06:46.999Z</time></trkpt><trkpt lat="43.264797520720045" lon="27.976352743965286"><ele>298.0</ele><time>2026-04-29T08:06:47.999Z</time></trkpt><trkpt lat="43.26490822186734" lon="27.976237558300284"><ele>298.0</ele><time>2026-04-29T08:06:48.999Z</time></trkpt><trkpt lat="43.26501991694621" lon="27.976121486759922"><ele>298.0</ele><time>2026-04-29T08:06:49.999Z</time></trkpt><trkpt lat="43.26513074015682" lon="27.976006321757648"><ele>298.0</ele><time>2026-04-29T08:06:50.999Z</time></trkpt><trkpt lat="43.26523023485563" lon="27.975905201736744"><ele>298.0</ele><time>2026-04-29T08:06:51.999Z</time></trkpt><trkpt lat="43.26531882031359" lon="27.97581940123321"><ele>298.2</ele><time>2026-04-29T08:06:52.999Z</time></trkpt><trkpt lat="43.265408530998684" lon="27.975738561183068"><ele>298.4</ele><time>2026-04-29T08:06:53.999Z</time></trkpt><trkpt lat="43.26550197631122" lon="27.975688612831394"><ele>298.59999999999997</ele><time>2026-04-29T08:06:54.999Z</time></trkpt><trkpt lat="43.265611325731456" lon="27.975706351454427"><ele>298.8</ele><time>2026-04-29T08:06:55.999Z</time></trkpt><trkpt lat="43.26570878508717" lon="27.975702725080016"><ele>299.0</ele><time>2026-04-29T08:06:56.999Z</time></trkpt><trkpt lat="43.26576957648271" lon="27.975725331241172"><ele>299.1666666666667</ele><time>2026-04-29T08:06:57.999Z</time></trkpt><trkpt lat="43.26583952619278" lon="27.97564191614881"><ele>299.33333333333337</ele><time>2026-04-29T08:06:58.999Z</time></trkpt><trkpt lat="43.26590489680225" lon="27.975590143668157"><ele>299.5</ele><time>2026-04-29T08:06:59.998Z</time></trkpt><trkpt lat="43.26596621889698" lon="27.975549042653142"><ele>299.6666666666667</ele><time>2026-04-29T08:07:00.998Z</time></trkpt><trkpt lat="43.2660389303916" lon="27.97550828460044"><ele>299.8333333333333</ele><time>2026-04-29T08:07:01.998Z</time></trkpt><trkpt lat="43.26611560432146" lon="27.975452733007355"><ele>300.0</ele><time>2026-04-29T08:07:02.998Z</time></trkpt><trkpt lat="43.266179209134755" lon="27.975377216976266"><ele>300.0</ele><time>2026-04-29T08:07:03.998Z</time></trkpt><trkpt lat="43.26623723632586" lon="27.97528492207585"><ele>300.0</ele><time>2026-04-29T08:07:04.998Z</time></trkpt><trkpt lat="43.26631440574293" lon="27.975252251454048"><ele>300.0</ele><time>2026-04-29T08:07:05.998Z</time></trkpt><trkpt lat="43.266380223407964" lon="27.975216997048904"><ele>300.0</ele><time>2026-04-29T08:07:06.998Z</time></trkpt><trkpt lat="43.2664420683625" lon="27.975166457387132"><ele>300.0</ele><time>2026-04-29T08:07:07.998Z</time></trkpt><trkpt lat="43.26652554644402" lon="27.975190207770577"><ele>300.0</ele><time>2026-04-29T08:07:08.998Z</time></trkpt><trkpt lat="43.26660767355202" lon="27.975209015806925"><ele>300.1666666666667</ele><time>2026-04-29T08:07:09.998Z</time></trkpt><trkpt lat="43.266691718889376" lon="27.97522150603394"><ele>300.3333333333333</ele><time>2026-04-29T08:07:10.998Z</time></trkpt><trkpt lat="43.266754554114506" lon="27.97524213641488"><ele>300.5</ele><time>2026-04-29T08:07:11.998Z</time></trkpt><trkpt lat="43.26682144210737" lon="27.975264097365727"><ele>300.66666666666663</ele><time>2026-04-29T08:07:12.998Z</time></trkpt><trkpt lat="43.26688838154839" lon="27.97528607529702"><ele>300.8333333333333</ele><time>2026-04-29T08:07:13.998Z</time></trkpt><trkpt lat="43.26696884509801" lon="27.975312493491487"><ele>301.0</ele><time>2026-04-29T08:07:14.998Z</time></trkpt><trkpt lat="43.26705731729731" lon="27.97534154098522"><ele>301.0</ele><time>2026-04-29T08:07:15.998Z</time></trkpt><trkpt lat="43.26714980228537" lon="27.97535792799364"><ele>301.0</ele><time>2026-04-29T08:07:16.998Z</time></trkpt><trkpt lat="43.26724447361098" lon="27.97537609226234"><ele>301.0</ele><time>2026-04-29T08:07:17.998Z</time></trkpt><trkpt lat="43.267341977395255" lon="27.97539764338181"><ele>301.0</ele><time>2026-04-29T08:07:18.998Z</time></trkpt><trkpt lat="43.26745367261425" lon="27.97530567066387"><ele>301.0</ele><time>2026-04-29T08:07:19.998Z</time></trkpt><trkpt lat="43.26753896708483" lon="27.975199847218118"><ele>301.0</ele><time>2026-04-29T08:07:20.998Z</time></trkpt><trkpt lat="43.26764992403809" lon="27.975125519960635"><ele>301.0</ele><time>2026-04-29T08:07:21.998Z</time></trkpt><trkpt lat="43.267763832195364" lon="27.975021249236015"><ele>301.0</ele><time>2026-04-29T08:07:22.998Z</time></trkpt><trkpt lat="43.267888344797306" lon="27.974907656494384"><ele>301.0</ele><time>2026-04-29T08:07:23.998Z</time></trkpt><trkpt lat="43.26800814045588" lon="27.974797623122434"><ele>301.5</ele><time>2026-04-29T08:07:24.998Z</time></trkpt><trkpt lat="43.26811241318334" lon="27.974685271461023"><ele>302.0</ele><time>2026-04-29T08:07:25.998Z</time></trkpt><trkpt lat="43.26823419648805" lon="27.974609352276172"><ele>302.5</ele><time>2026-04-29T08:07:27Z</time></trkpt><trkpt lat="43.26833065552791" lon="27.974510267425803"><ele>303.0</ele><time>2026-04-29T08:07:28Z</time></trkpt><trkpt lat="43.2684241808032" lon="27.974431476421874"><ele>303.0</ele><time>2026-04-29T08:07:29Z</time></trkpt><trkpt lat="43.26850159666774" lon="27.97433408602715"><ele>303.0</ele><time>2026-04-29T08:07:30Z</time></trkpt><trkpt lat="43.268567335252506" lon="27.974227147438484"><ele>303.0</ele><time>2026-04-29T08:07:31Z</time></trkpt><trkpt lat="43.268624837567465" lon="27.974125402450472"><ele>303.0</ele><time>2026-04-29T08:07:32Z</time></trkpt><trkpt lat="43.268672218348186" lon="27.97403392417832"><ele>303.0</ele><time>2026-04-29T08:07:33Z</time></trkpt><trkpt lat="43.268613568264826" lon="27.973796136762914"><ele>303.4</ele><time>2026-04-29T08:07:34Z</time></trkpt><trkpt lat="43.268605055665375" lon="27.973658902153034"><ele>303.8</ele><time>2026-04-29T08:07:35Z</time></trkpt><trkpt lat="43.26859502188358" lon="27.973518611220555"><ele>304.2</ele><time>2026-04-29T08:07:36Z</time></trkpt><trkpt lat="43.268554314675605" lon="27.973370706046907"><ele>304.6</ele><time>2026-04-29T08:07:37Z</time></trkpt><trkpt lat="43.26850089562134" lon="27.973233349313613"><ele>305.0</ele><time>2026-04-29T08:07:38Z</time></trkpt><trkpt lat="43.268469303019245" lon="27.973090277236114"><ele>305.0</ele><time>2026-04-29T08:07:39Z</time></trkpt><trkpt lat="43.268412491194944" lon="27.972966372547308"><ele>305.0</ele><time>2026-04-29T08:07:40Z</time></trkpt><trkpt lat="43.268379943960525" lon="27.972853008918317"><ele>305.0</ele><time>2026-04-29T08:07:41Z</time></trkpt><trkpt lat="43.26833961311641" lon="27.972751434025263"><ele>305.0</ele><time>2026-04-29T08:07:42Z</time></trkpt><trkpt lat="43.26829465523596" lon="27.97263820577895"><ele>305.0</ele><time>2026-04-29T08:07:43Z</time></trkpt><trkpt lat="43.26825132803027" lon="27.972519748988727"><ele>305.2</ele><time>2026-04-29T08:07:44Z</time></trkpt><trkpt lat="43.26820649846377" lon="27.97238898821487"><ele>305.4</ele><time>2026-04-29T08:07:45Z</time></trkpt><trkpt lat="43.268161015799876" lon="27.972256894268995"><ele>305.6</ele><time>2026-04-29T08:07:46Z</time></trkpt><trkpt lat="43.26810199107364" lon="27.97212475470394"><ele>305.8</ele><time>2026-04-29T08:07:47Z</time></trkpt><trkpt lat="43.26808106072396" lon="27.971975269444183"><ele>306.0</ele><time>2026-04-29T08:07:48Z</time></trkpt><trkpt lat="43.26805351369511" lon="27.9718240037494"><ele>306.0</ele><time>2026-04-29T08:07:49Z</time></trkpt><trkpt lat="43.26801753592332" lon="27.971692445366802"><ele>306.0</ele><time>2026-04-29T08:07:50Z</time></trkpt><trkpt lat="43.26798472419252" lon="27.971572465254585"><ele>306.0</ele><time>2026-04-29T08:07:51Z</time></trkpt><trkpt lat="43.26792412748165" lon="27.971462806111404"><ele>306.0</ele><time>2026-04-29T08:07:52Z</time></trkpt><trkpt lat="43.26788022209458" lon="27.97138781879339"><ele>306.0</ele><time>2026-04-29T08:07:53Z</time></trkpt><trkpt lat="43.26782681501077" lon="27.971294863325063"><ele>306.40000000000003</ele><time>2026-04-29T08:07:55Z</time></trkpt><trkpt lat="43.26775479605617" lon="27.971146103848962"><ele>306.8</ele><time>2026-04-29T08:07:57Z</time></trkpt><trkpt lat="43.26770533979593" lon="27.971043954666612"><ele>307.20000000000005</ele><time>2026-04-29T08:07:58Z</time></trkpt><trkpt lat="43.26765533512691" lon="27.970934865660187"><ele>307.6</ele><time>2026-04-29T08:07:59Z</time></trkpt><trkpt lat="43.26758874234149" lon="27.97082941984909"><ele>308.0</ele><time>2026-04-29T08:08:00Z</time></trkpt><trkpt lat="43.26754200911116" lon="27.9706961048737"><ele>308.0</ele><time>2026-04-29T08:08:01Z</time></trkpt><trkpt lat="43.267480178380616" lon="27.97056468214441"><ele>308.0</ele><time>2026-04-29T08:08:02Z</time></trkpt><trkpt lat="43.26741925353374" lon="27.970458491426232"><ele>308.0</ele><time>2026-04-29T08:08:03Z</time></trkpt><trkpt lat="43.267394367595" lon="27.97034823302897"><ele>308.0</ele><time>2026-04-29T08:08:04Z</time></trkpt><trkpt lat="43.26735763265864" lon="27.970244170668597"><ele>308.0</ele><time>2026-04-29T08:08:05Z</time></trkpt><trkpt lat="43.26732511782337" lon="27.970144973891642"><ele>308.0</ele><time>2026-04-29T08:08:06Z</time></trkpt><trkpt lat="43.26729576340448" lon="27.970041923459462"><ele>308.0</ele><time>2026-04-29T08:08:07Z</time></trkpt><trkpt lat="43.26727346878015" lon="27.969954041598598"><ele>308.0</ele><time>2026-04-29T08:08:08Z</time></trkpt><trkpt lat="43.267262008037385" lon="27.969842632282383"><ele>308.0</ele><time>2026-04-29T08:08:09Z</time></trkpt><trkpt lat="43.2672528856568" lon="27.969753201786304"><ele>308.0</ele><time>2026-04-29T08:08:09.999Z</time></trkpt><trkpt lat="43.26724199972892" lon="27.96964648247383"><ele>308.0</ele><time>2026-04-29T08:08:10.999Z</time></trkpt><trkpt lat="43.2672323549011" lon="27.96955192657987"><ele>308.0</ele><time>2026-04-29T08:08:11.999Z</time></trkpt><trkpt lat="43.26721532565123" lon="27.96945940537657"><ele>308.6</ele><time>2026-04-29T08:08:12.999Z</time></trkpt><trkpt lat="43.26724411720884" lon="27.969376256133923"><ele>309.20000000000005</ele><time>2026-04-29T08:08:13.999Z</time></trkpt><trkpt lat="43.26727767796741" lon="27.96925345922835"><ele>309.8</ele><time>2026-04-29T08:08:14.999Z</time></trkpt><trkpt lat="43.267313651593405" lon="27.969113722750272"><ele>310.40000000000003</ele><time>2026-04-29T08:08:15.999Z</time></trkpt><trkpt lat="43.26734658594639" lon="27.968976132376515"><ele>311.0</ele><time>2026-04-29T08:08:16.999Z</time></trkpt><trkpt lat="43.26737624735878" lon="27.968852215701364"><ele>311.6666666666667</ele><time>2026-04-29T08:08:17.999Z</time></trkpt><trkpt lat="43.26740702221529" lon="27.96872364740689"><ele>312.33333333333337</ele><time>2026-04-29T08:08:18.999Z</time></trkpt><trkpt lat="43.267433713878894" lon="27.968612137051185"><ele>313.0</ele><time>2026-04-29T08:08:19.999Z</time></trkpt><trkpt lat="43.26744179726451" lon="27.96851403245425"><ele>313.6666666666667</ele><time>2026-04-29T08:08:20.999Z</time></trkpt><trkpt lat="43.26747449339689" lon="27.968439135540255"><ele>314.3333333333333</ele><time>2026-04-29T08:08:21.999Z</time></trkpt><trkpt lat="43.26749538239755" lon="27.96835475217847"><ele>315.0</ele><time>2026-04-29T08:08:22.999Z</time></trkpt><trkpt lat="43.267519381593864" lon="27.968252530217296"><ele>315.6</ele><time>2026-04-29T08:08:23.999Z</time></trkpt><trkpt lat="43.26754504373225" lon="27.96814449250077"><ele>316.2</ele><time>2026-04-29T08:08:24.999Z</time></trkpt><trkpt lat="43.26756233961913" lon="27.968026187186478"><ele>316.8</ele><time>2026-04-29T08:08:25.999Z</time></trkpt><trkpt lat="43.26760787777023" lon="27.967916913783"><ele>317.4</ele><time>2026-04-29T08:08:26.999Z</time></trkpt><trkpt lat="43.26764475031919" lon="27.967796933801132"><ele>318.0</ele><time>2026-04-29T08:08:27.999Z</time></trkpt><trkpt lat="43.26768287889913" lon="27.967672866728112"><ele>318.0</ele><time>2026-04-29T08:08:28.999Z</time></trkpt><trkpt lat="43.267723620785276" lon="27.967540296458157"><ele>318.0</ele><time>2026-04-29T08:08:29.999Z</time></trkpt><trkpt lat="43.26776011085624" lon="27.967417552621615"><ele>318.0</ele><time>2026-04-29T08:08:30.999Z</time></trkpt><trkpt lat="43.26779450090143" lon="27.967279322555147"><ele>318.0</ele><time>2026-04-29T08:08:31.999Z</time></trkpt><trkpt lat="43.26782959863717" lon="27.96713824721603"><ele>318.0</ele><time>2026-04-29T08:08:32.999Z</time></trkpt><trkpt lat="43.26784465914688" lon="27.966987104897612"><ele>318.8</ele><time>2026-04-29T08:08:33.999Z</time></trkpt><trkpt lat="43.26788063623035" lon="27.966855592573985"><ele>319.6</ele><time>2026-04-29T08:08:34.999Z</time></trkpt><trkpt lat="43.267896995260955" lon="27.966724826182723"><ele>320.40000000000003</ele><time>2026-04-29T08:08:35.999Z</time></trkpt><trkpt lat="43.267910064019595" lon="27.966597153376096"><ele>321.20000000000005</ele><time>2026-04-29T08:08:36.999Z</time></trkpt><trkpt lat="43.26786769395706" lon="27.96642883303069"><ele>322.0</ele><time>2026-04-29T08:08:37.999Z</time></trkpt><trkpt lat="43.267804745017926" lon="27.966302635756644"><ele>323.20000000000005</ele><time>2026-04-29T08:08:38.999Z</time></trkpt><trkpt lat="43.26771770835426" lon="27.966207164346823"><ele>324.4</ele><time>2026-04-29T08:08:39.999Z</time></trkpt><trkpt lat="43.26761357380709" lon="27.966152342890084"><ele>325.6</ele><time>2026-04-29T08:08:40.999Z</time></trkpt><trkpt lat="43.26751743255798" lon="27.9661000784611"><ele>326.79999999999995</ele><time>2026-04-29T08:08:41.999Z</time></trkpt><trkpt lat="43.267403366860705" lon="27.96607913365455"><ele>328.0</ele><time>2026-04-29T08:08:42.999Z</time></trkpt><trkpt lat="43.267302493918535" lon="27.966042124007565"><ele>328.0</ele><time>2026-04-29T08:08:43.999Z</time></trkpt><trkpt lat="43.26720976083614" lon="27.96599156758339"><ele>328.0</ele><time>2026-04-29T08:08:44.999Z</time></trkpt><trkpt lat="43.26714015984025" lon="27.96591287317655"><ele>328.0</ele><time>2026-04-29T08:08:45.999Z</time></trkpt><trkpt lat="43.2670496372948" lon="27.965824323205897"><ele>328.0</ele><time>2026-04-29T08:08:46.999Z</time></trkpt><trkpt lat="43.26703874194084" lon="27.965647102621553"><ele>328.0</ele><time>2026-04-29T08:08:47.999Z</time></trkpt><trkpt lat="43.26701836766878" lon="27.965500304080717"><ele>328.0</ele><time>2026-04-29T08:08:48.999Z</time></trkpt><trkpt lat="43.266988339330396" lon="27.96537324783746"><ele>328.0</ele><time>2026-04-29T08:08:49.999Z</time></trkpt><trkpt lat="43.26698853720424" lon="27.965281888529447"><ele>328.0</ele><time>2026-04-29T08:08:50.999Z</time></trkpt><trkpt lat="43.26695777059771" lon="27.965178246432107"><ele>328.0</ele><time>2026-04-29T08:08:51.999Z</time></trkpt><trkpt lat="43.266937440291635" lon="27.965055858166735"><ele>328.0</ele><time>2026-04-29T08:08:52.999Z</time></trkpt><trkpt lat="43.266912351633536" lon="27.964923637642023"><ele>328.0</ele><time>2026-04-29T08:08:53.999Z</time></trkpt><trkpt lat="43.266886692441744" lon="27.964786613269855"><ele>328.2</ele><time>2026-04-29T08:08:54.999Z</time></trkpt><trkpt lat="43.266853229180725" lon="27.964642781837632"><ele>328.4</ele><time>2026-04-29T08:08:55.999Z</time></trkpt><trkpt lat="43.26682452481002" lon="27.964501759418862"><ele>328.59999999999997</ele><time>2026-04-29T08:08:56.999Z</time></trkpt><trkpt lat="43.266794587259675" lon="27.964356442712397"><ele>328.79999999999995</ele><time>2026-04-29T08:08:57.999Z</time></trkpt><trkpt lat="43.266750841256304" lon="27.9642381955327"><ele>329.0</ele><time>2026-04-29T08:08:58.999Z</time></trkpt><trkpt lat="43.266687694798996" lon="27.964159131259343"><ele>329.5</ele><time>2026-04-29T08:08:59.999Z</time></trkpt><trkpt lat="43.26666002695348" lon="27.964077426890896"><ele>330.0</ele><time>2026-04-29T08:09:00.999Z</time></trkpt><trkpt lat="43.26676308001009" lon="27.963970351895302"><ele>330.5</ele><time>2026-04-29T08:09:01.999Z</time></trkpt><trkpt lat="43.26684464128548" lon="27.963938028245735"><ele>331.0</ele><time>2026-04-29T08:09:03.999Z</time></trkpt><trkpt lat="43.266875186282064" lon="27.963660736786704"><ele>331.0</ele><time>2026-04-29T08:09:05.999Z</time></trkpt><trkpt lat="43.26687071061634" lon="27.963938017570193"><ele>331.0</ele><time>2026-04-29T08:09:07.998Z</time></trkpt><trkpt lat="43.26695866983908" lon="27.963859339504264"><ele>331.0</ele><time>2026-04-29T08:10:22.999Z</time></trkpt><trkpt lat="43.267022067723985" lon="27.963820185285027"><ele>331.0</ele><time>2026-04-29T08:10:23.999Z</time></trkpt><trkpt lat="43.2671023037593" lon="27.963790496211523"><ele>331.0</ele><time>2026-04-29T08:10:24.999Z</time></trkpt><trkpt lat="43.26717884392228" lon="27.963770080854562"><ele>331.0</ele><time>2026-04-29T08:10:25.999Z</time></trkpt><trkpt lat="43.26726012196711" lon="27.9637473588621"><ele>331.0</ele><time>2026-04-29T08:10:26.999Z</time></trkpt><trkpt lat="43.267331656673775" lon="27.963719679543313"><ele>331.0</ele><time>2026-04-29T08:10:27.999Z</time></trkpt><trkpt lat="43.26740443156423" lon="27.963631896165662"><ele>331.0</ele><time>2026-04-29T08:10:29.999Z</time></trkpt><trkpt lat="43.26753752667758" lon="27.96367119764097"><ele>331.0</ele><time>2026-04-29T08:10:58.999Z</time></trkpt><trkpt lat="43.2675903278402" lon="27.96350805241595"><ele>331.0</ele><time>2026-04-29T08:10:59.999Z</time></trkpt><trkpt lat="43.26768074238763" lon="27.963484236529375"><ele>331.0</ele><time>2026-04-29T08:11:00.999Z</time></trkpt><trkpt lat="43.26777991347726" lon="27.963437072112963"><ele>331.0</ele><time>2026-04-29T08:11:01.999Z</time></trkpt><trkpt lat="43.267886429962594" lon="27.963394235460246"><ele>331.0</ele><time>2026-04-29T08:11:02.999Z</time></trkpt><trkpt lat="43.26800070993686" lon="27.96334723155653"><ele>330.5</ele><time>2026-04-29T08:11:03.999Z</time></trkpt><trkpt lat="43.2681181676125" lon="27.963300268141474"><ele>330.0</ele><time>2026-04-29T08:11:04.999Z</time></trkpt><trkpt lat="43.26824516592396" lon="27.963250023097"><ele>329.5</ele><time>2026-04-29T08:11:05.999Z</time></trkpt><trkpt lat="43.268398603844766" lon="27.96335553957758"><ele>329.0</ele><time>2026-04-29T08:11:06.999Z</time></trkpt><trkpt lat="43.2684862746293" lon="27.963155031684018"><ele>329.0</ele><time>2026-04-29T08:11:07.999Z</time></trkpt><trkpt lat="43.268599169742714" lon="27.963112116063346"><ele>329.0</ele><time>2026-04-29T08:11:08.999Z</time></trkpt><trkpt lat="43.268700325767696" lon="27.963068706626792"><ele>329.0</ele><time>2026-04-29T08:11:09.998Z</time></trkpt><trkpt lat="43.268790349076184" lon="27.96303326447701"><ele>329.0</ele><time>2026-04-29T08:11:10.998Z</time></trkpt><trkpt lat="43.2688727783817" lon="27.96299982136353"><ele>329.0</ele><time>2026-04-29T08:11:11.998Z</time></trkpt><trkpt lat="43.26896041516862" lon="27.962959171814976"><ele>329.4</ele><time>2026-04-29T08:11:12.998Z</time></trkpt><trkpt lat="43.26906375147478" lon="27.962922181463053"><ele>329.79999999999995</ele><time>2026-04-29T08:11:13.998Z</time></trkpt><trkpt lat="43.26916699357523" lon="27.962881940024317"><ele>330.20000000000005</ele><time>2026-04-29T08:11:14.998Z</time></trkpt><trkpt lat="43.2692769408329" lon="27.96283860618898"><ele>330.6</ele><time>2026-04-29T08:11:15.998Z</time></trkpt><trkpt lat="43.26939235727406" lon="27.96279367401475"><ele>331.0</ele><time>2026-04-29T08:11:16.998Z</time></trkpt><trkpt lat="43.26951379880024" lon="27.962740245822385"><ele>331.0</ele><time>2026-04-29T08:11:17.998Z</time></trkpt><trkpt lat="43.26963751544846" lon="27.96269010285233"><ele>331.0</ele><time>2026-04-29T08:11:18.998Z</time></trkpt><trkpt lat="43.269765168056416" lon="27.96263817960018"><ele>331.0</ele><time>2026-04-29T08:11:19.998Z</time></trkpt><trkpt lat="43.26989032069129" lon="27.962586945562677"><ele>331.0</ele><time>2026-04-29T08:11:20.998Z</time></trkpt><trkpt lat="43.27001287465351" lon="27.962535345145376"><ele>331.25</ele><time>2026-04-29T08:11:21.998Z</time></trkpt><trkpt lat="43.27013355907075" lon="27.96248498908026"><ele>331.5</ele><time>2026-04-29T08:11:22.998Z</time></trkpt><trkpt lat="43.27025230152878" lon="27.96243742270728"><ele>331.75</ele><time>2026-04-29T08:11:23.998Z</time></trkpt><trkpt lat="43.27037079883397" lon="27.96239226483576"><ele>332.0</ele><time>2026-04-29T08:11:24.998Z</time></trkpt><trkpt lat="43.27048988757387" lon="27.962346200377574"><ele>332.0</ele><time>2026-04-29T08:11:25.998Z</time></trkpt><trkpt lat="43.27060465159291" lon="27.96229471703097"><ele>332.0</ele><time>2026-04-29T08:11:26.998Z</time></trkpt><trkpt lat="43.270719734577625" lon="27.962250138092"><ele>332.0</ele><time>2026-04-29T08:11:27.998Z</time></trkpt><trkpt lat="43.27083959250176" lon="27.96220209071985"><ele>332.0</ele><time>2026-04-29T08:11:28.998Z</time></trkpt><trkpt lat="43.27095837714832" lon="27.962153272594904"><ele>331.75</ele><time>2026-04-29T08:11:29.998Z</time></trkpt><trkpt lat="43.271081754343186" lon="27.96210202191463"><ele>331.5</ele><time>2026-04-29T08:11:30.998Z</time></trkpt><trkpt lat="43.27120422128454" lon="27.9620478890161"><ele>331.25</ele><time>2026-04-29T08:11:31.998Z</time></trkpt><trkpt lat="43.271329940772716" lon="27.96199786184611"><ele>331.0</ele><time>2026-04-29T08:11:32.998Z</time></trkpt><trkpt lat="43.27145480723138" lon="27.961948309680974"><ele>330.75</ele><time>2026-04-29T08:11:33.998Z</time></trkpt><trkpt lat="43.27158299479516" lon="27.961899679084464"><ele>330.5</ele><time>2026-04-29T08:11:34.998Z</time></trkpt><trkpt lat="43.271709942929384" lon="27.961849082019878"><ele>330.25</ele><time>2026-04-29T08:11:35.998Z</time></trkpt><trkpt lat="43.271838350758905" lon="27.961793998957248"><ele>330.0</ele><time>2026-04-29T08:11:36.998Z</time></trkpt><trkpt lat="43.27196563754677" lon="27.961743328884054"><ele>330.25</ele><time>2026-04-29T08:11:37.998Z</time></trkpt><trkpt lat="43.27209681136023" lon="27.961690678131855"><ele>330.5</ele><time>2026-04-29T08:11:39Z</time></trkpt><trkpt lat="43.272226456351994" lon="27.96163622502374"><ele>330.75</ele><time>2026-04-29T08:11:40Z</time></trkpt><trkpt lat="43.27235683856256" lon="27.961585080796425"><ele>331.0</ele><time>2026-04-29T08:11:41Z</time></trkpt><trkpt lat="43.27248765504248" lon="27.961528591962786"><ele>331.0</ele><time>2026-04-29T08:11:42Z</time></trkpt><trkpt lat="43.27261911579144" lon="27.96147500912424"><ele>331.0</ele><time>2026-04-29T08:11:43Z</time></trkpt><trkpt lat="43.27275023257141" lon="27.9614186182942"><ele>331.0</ele><time>2026-04-29T08:11:44Z</time></trkpt><trkpt lat="43.272880350068924" lon="27.96136528921662"><ele>331.0</ele><time>2026-04-29T08:11:45Z</time></trkpt><trkpt lat="43.27301141121052" lon="27.961314279428475"><ele>331.0</ele><time>2026-04-29T08:11:46Z</time></trkpt><trkpt lat="43.273141984486735" lon="27.961260702095505"><ele>331.0</ele><time>2026-04-29T08:11:47Z</time></trkpt><trkpt lat="43.27327511838855" lon="27.9612045636136"><ele>331.0</ele><time>2026-04-29T08:11:48Z</time></trkpt><trkpt lat="43.27340686527282" lon="27.961153887701723"><ele>331.0</ele><time>2026-04-29T08:11:49Z</time></trkpt><trkpt lat="43.27353740006911" lon="27.961099774381267"><ele>331.0</ele><time>2026-04-29T08:11:50Z</time></trkpt><trkpt lat="43.27366158156098" lon="27.9610483793456"><ele>331.0</ele><time>2026-04-29T08:11:51Z</time></trkpt><trkpt lat="43.273776878412185" lon="27.960996750911143"><ele>331.0</ele><time>2026-04-29T08:11:52Z</time></trkpt><trkpt lat="43.27388251871343" lon="27.960953221788017"><ele>331.0</ele><time>2026-04-29T08:11:53Z</time></trkpt><trkpt lat="43.27397963055689" lon="27.960911679726838"><ele>330.8333333333333</ele><time>2026-04-29T08:11:54Z</time></trkpt><trkpt lat="43.27406561652946" lon="27.960875138317093"><ele>330.66666666666663</ele><time>2026-04-29T08:11:55Z</time></trkpt><trkpt lat="43.27413861991116" lon="27.960835609566423"><ele>330.5</ele><time>2026-04-29T08:11:56Z</time></trkpt><trkpt lat="43.27419995722403" lon="27.96081034904785"><ele>330.3333333333333</ele><time>2026-04-29T08:11:57Z</time></trkpt><trkpt lat="43.274276773982635" lon="27.960769456856916"><ele>330.1666666666667</ele><time>2026-04-29T08:11:59Z</time></trkpt><trkpt lat="43.27438798922649" lon="27.96083713891605"><ele>330.0</ele><time>2026-04-29T08:12:05Z</time></trkpt><trkpt lat="43.27437229009334" lon="27.960604074991963"><ele>330.5</ele><time>2026-04-29T08:12:06Z</time></trkpt><trkpt lat="43.2743262458749" lon="27.960494956469063"><ele>331.0</ele><time>2026-04-29T08:12:07Z</time></trkpt><trkpt lat="43.27428886609316" lon="27.960405171663055"><ele>331.5</ele><time>2026-04-29T08:12:08Z</time></trkpt><trkpt lat="43.27424619185109" lon="27.96031316731962"><ele>332.0</ele><time>2026-04-29T08:12:09Z</time></trkpt><trkpt lat="43.274200719236674" lon="27.9602120625305"><ele>332.5</ele><time>2026-04-29T08:12:10Z</time></trkpt><trkpt lat="43.27415143149996" lon="27.9601043397896"><ele>333.0</ele><time>2026-04-29T08:12:11Z</time></trkpt><trkpt lat="43.27410045834303" lon="27.959993514144433"><ele>333.1666666666667</ele><time>2026-04-29T08:12:12Z</time></trkpt><trkpt lat="43.27404924493309" lon="27.95988255644196"><ele>333.3333333333333</ele><time>2026-04-29T08:12:13Z</time></trkpt><trkpt lat="43.27399710636284" lon="27.959769851918573"><ele>333.5</ele><time>2026-04-29T08:12:14Z</time></trkpt><trkpt lat="43.273949758804726" lon="27.959666657234262"><ele>333.66666666666663</ele><time>2026-04-29T08:12:15Z</time></trkpt><trkpt lat="43.27391017676552" lon="27.9595803565533"><ele>333.8333333333333</ele><time>2026-04-29T08:12:16Z</time></trkpt><trkpt lat="43.27386233546424" lon="27.95948755495876"><ele>334.0</ele><time>2026-04-29T08:12:17Z</time></trkpt><trkpt lat="43.27380774773338" lon="27.959403259881334"><ele>334.0</ele><time>2026-04-29T08:12:18Z</time></trkpt><trkpt lat="43.27375126040241" lon="27.959318176167475"><ele>334.0</ele><time>2026-04-29T08:12:18.999Z</time></trkpt><trkpt lat="43.27371081209705" lon="27.95921402286598"><ele>334.0</ele><time>2026-04-29T08:12:19.999Z</time></trkpt><trkpt lat="43.273662545285866" lon="27.959126732928386"><ele>334.0</ele><time>2026-04-29T08:12:20.999Z</time></trkpt><trkpt lat="43.27360265299802" lon="27.959043934347143"><ele>334.0</ele><time>2026-04-29T08:12:21.999Z</time></trkpt><trkpt lat="43.273547358533435" lon="27.95895882787917"><ele>334.0</ele><time>2026-04-29T08:12:22.999Z</time></trkpt><trkpt lat="43.27350121111659" lon="27.958859071100665"><ele>333.6</ele><time>2026-04-29T08:12:23.999Z</time></trkpt><trkpt lat="43.273435346458214" lon="27.958787603955702"><ele>333.2</ele><time>2026-04-29T08:12:24.999Z</time></trkpt><trkpt lat="43.27339321576373" lon="27.958684240121155"><ele>332.8</ele><time>2026-04-29T08:12:25.999Z</time></trkpt><trkpt lat="43.27334279941918" lon="27.958602670716466"><ele>332.40000000000003</ele><time>2026-04-29T08:12:26.999Z</time></trkpt><trkpt lat="43.273299016614" lon="27.95853183489726"><ele>332.0</ele><time>2026-04-29T08:12:27.999Z</time></trkpt><trkpt lat="43.273209226257066" lon="27.958381030844418"><ele>331.83333333333337</ele><time>2026-04-29T08:12:29.999Z</time></trkpt><trkpt lat="43.27315253107757" lon="27.958286415069654"><ele>331.6666666666667</ele><time>2026-04-29T08:12:30.999Z</time></trkpt><trkpt lat="43.273092520821905" lon="27.95818699106119"><ele>331.5</ele><time>2026-04-29T08:12:31.999Z</time></trkpt><trkpt lat="43.27304978975146" lon="27.95810782915824"><ele>331.3333333333333</ele><time>2026-04-29T08:12:32.999Z</time></trkpt><trkpt lat="43.27299561180026" lon="27.957999073120934"><ele>331.16666666666663</ele><time>2026-04-29T08:12:33.999Z</time></trkpt><trkpt lat="43.27294093490262" lon="27.957889315497823"><ele>331.0</ele><time>2026-04-29T08:12:34.999Z</time></trkpt><trkpt lat="43.27288813954168" lon="27.95778648623596"><ele>330.16666666666663</ele><time>2026-04-29T08:12:35.999Z</time></trkpt><trkpt lat="43.27284045006576" lon="27.957680360079266"><ele>329.3333333333333</ele><time>2026-04-29T08:12:36.999Z</time></trkpt><trkpt lat="43.272791936260916" lon="27.957572398403236"><ele>328.5</ele><time>2026-04-29T08:12:37.999Z</time></trkpt><trkpt lat="43.27274567014258" lon="27.957483604999396"><ele>327.6666666666667</ele><time>2026-04-29T08:12:38.999Z</time></trkpt><trkpt lat="43.27270720626157" lon="27.957373931996813"><ele>326.83333333333337</ele><time>2026-04-29T08:12:39.999Z</time></trkpt><trkpt lat="43.27265839836871" lon="27.95725977848323"><ele>326.0</ele><time>2026-04-29T08:12:40.999Z</time></trkpt><trkpt lat="43.27262327353988" lon="27.957134607913943"><ele>325.8</ele><time>2026-04-29T08:12:41.999Z</time></trkpt><trkpt lat="43.27258793154857" lon="27.957006596771045"><ele>325.6</ele><time>2026-04-29T08:12:42.999Z</time></trkpt><trkpt lat="43.27253618380302" lon="27.956876733117646"><ele>325.4</ele><time>2026-04-29T08:12:43.999Z</time></trkpt><trkpt lat="43.2725087652793" lon="27.956741156079932"><ele>325.2</ele><time>2026-04-29T08:12:44.999Z</time></trkpt><trkpt lat="43.27247830446784" lon="27.956601624485828"><ele>325.0</ele><time>2026-04-29T08:12:45.999Z</time></trkpt><trkpt lat="43.27243026081771" lon="27.956476719793667"><ele>324.2</ele><time>2026-04-29T08:12:46.999Z</time></trkpt><trkpt lat="43.27240333032966" lon="27.956335788522598"><ele>323.4</ele><time>2026-04-29T08:12:47.999Z</time></trkpt><trkpt lat="43.27236699328659" lon="27.956201327379176"><ele>322.6</ele><time>2026-04-29T08:12:48.999Z</time></trkpt><trkpt lat="43.27233309427723" lon="27.956063820324136"><ele>321.8</ele><time>2026-04-29T08:12:49.999Z</time></trkpt><trkpt lat="43.27229975279538" lon="27.95593472350987"><ele>321.0</ele><time>2026-04-29T08:12:50.999Z</time></trkpt><trkpt lat="43.27226656416549" lon="27.955800220437265"><ele>319.6</ele><time>2026-04-29T08:12:51.999Z</time></trkpt><trkpt lat="43.27223129227645" lon="27.955657266509938"><ele>318.20000000000005</ele><time>2026-04-29T08:12:52.999Z</time></trkpt><trkpt lat="43.27219710049084" lon="27.95551736703977"><ele>316.79999999999995</ele><time>2026-04-29T08:12:53.999Z</time></trkpt><trkpt lat="43.272159404140076" lon="27.955369315841562"><ele>315.4</ele><time>2026-04-29T08:12:54.999Z</time></trkpt><trkpt lat="43.272125223563684" lon="27.95521976426389"><ele>314.0</ele><time>2026-04-29T08:12:55.999Z</time></trkpt><trkpt lat="43.272087924042346" lon="27.95507644464244"><ele>313.2</ele><time>2026-04-29T08:12:56.999Z</time></trkpt><trkpt lat="43.272052385250134" lon="27.95492906552787"><ele>312.4</ele><time>2026-04-29T08:12:57.999Z</time></trkpt><trkpt lat="43.272017205886335" lon="27.9547829433882"><ele>311.6</ele><time>2026-04-29T08:12:58.999Z</time></trkpt><trkpt lat="43.27198600275114" lon="27.954632180932105"><ele>310.8</ele><time>2026-04-29T08:12:59.999Z</time></trkpt><trkpt lat="43.27195342940281" lon="27.954495635692446"><ele>310.0</ele><time>2026-04-29T08:13:00.999Z</time></trkpt><trkpt lat="43.271933718550116" lon="27.95435263305722"><ele>310.0</ele><time>2026-04-29T08:13:01.999Z</time></trkpt><trkpt lat="43.2719014553847" lon="27.95421304126562"><ele>310.0</ele><time>2026-04-29T08:13:02.999Z</time></trkpt><trkpt lat="43.27186498112617" lon="27.954076836818675"><ele>310.0</ele><time>2026-04-29T08:13:03.999Z</time></trkpt><trkpt lat="43.27184856383325" lon="27.953925622190923"><ele>310.0</ele><time>2026-04-29T08:13:04.999Z</time></trkpt><trkpt lat="43.27181046312534" lon="27.953782239084383"><ele>310.0</ele><time>2026-04-29T08:13:05.999Z</time></trkpt><trkpt lat="43.27178726358458" lon="27.953639842109656"><ele>309.4</ele><time>2026-04-29T08:13:06.999Z</time></trkpt><trkpt lat="43.27176073226183" lon="27.95351477705363"><ele>308.8</ele><time>2026-04-29T08:13:07.999Z</time></trkpt><trkpt lat="43.27174227581778" lon="27.953387979444454"><ele>308.2</ele><time>2026-04-29T08:13:08.999Z</time></trkpt><trkpt lat="43.27171956559445" lon="27.953256269267793"><ele>307.6</ele><time>2026-04-29T08:13:09.999Z</time></trkpt><trkpt lat="43.271695378197926" lon="27.95313252758381"><ele>307.0</ele><time>2026-04-29T08:13:10.999Z</time></trkpt><trkpt lat="43.271687285068595" lon="27.952996609924682"><ele>306.6</ele><time>2026-04-29T08:13:11.999Z</time></trkpt><trkpt lat="43.27166375879961" lon="27.9528612434441"><ele>306.2</ele><time>2026-04-29T08:13:12.999Z</time></trkpt><trkpt lat="43.271640294544675" lon="27.952725625668126"><ele>305.8</ele><time>2026-04-29T08:13:13.999Z</time></trkpt><trkpt lat="43.27160615840589" lon="27.95260336538725"><ele>305.4</ele><time>2026-04-29T08:13:14.999Z</time></trkpt><trkpt lat="43.27158796573603" lon="27.952472928800365"><ele>305.0</ele><time>2026-04-29T08:13:15.999Z</time></trkpt><trkpt lat="43.27156631900052" lon="27.952337016782206"><ele>304.6666666666667</ele><time>2026-04-29T08:13:16.999Z</time></trkpt><trkpt lat="43.27154847123318" lon="27.952216329262438"><ele>304.33333333333337</ele><time>2026-04-29T08:13:17.998Z</time></trkpt><trkpt lat="43.27153643832348" lon="27.952093913561175"><ele>304.0</ele><time>2026-04-29T08:13:18.998Z</time></trkpt><trkpt lat="43.27151933136464" lon="27.951967691473218"><ele>303.6666666666667</ele><time>2026-04-29T08:13:19.998Z</time></trkpt><trkpt lat="43.271498646361664" lon="27.951845484405474"><ele>303.3333333333333</ele><time>2026-04-29T08:13:20.998Z</time></trkpt><trkpt lat="43.27147692119718" lon="27.951741603368145"><ele>303.0</ele><time>2026-04-29T08:13:21.998Z</time></trkpt><trkpt lat="43.271462708997774" lon="27.951637032176354"><ele>302.8333333333333</ele><time>2026-04-29T08:13:22.998Z</time></trkpt><trkpt lat="43.271443919723204" lon="27.951531432646995"><ele>302.6666666666667</ele><time>2026-04-29T08:13:23.998Z</time></trkpt><trkpt lat="43.27142597478822" lon="27.95143066528777"><ele>302.5</ele><time>2026-04-29T08:13:24.998Z</time></trkpt><trkpt lat="43.27140627152842" lon="27.95132501642543"><ele>302.33333333333337</ele><time>2026-04-29T08:13:25.998Z</time></trkpt><trkpt lat="43.271395563669486" lon="27.951220140438092"><ele>302.1666666666667</ele><time>2026-04-29T08:13:26.998Z</time></trkpt><trkpt lat="43.27138170062947" lon="27.951114823453704"><ele>302.0</ele><time>2026-04-29T08:13:27.998Z</time></trkpt><trkpt lat="43.271388445402934" lon="27.95100035177581"><ele>301.83333333333337</ele><time>2026-04-29T08:13:28.998Z</time></trkpt><trkpt lat="43.27137985932451" lon="27.95089610315576"><ele>301.6666666666667</ele><time>2026-04-29T08:13:29.998Z</time></trkpt><trkpt lat="43.271372394249596" lon="27.95080623509384"><ele>301.5</ele><time>2026-04-29T08:13:30.998Z</time></trkpt><trkpt lat="43.27133314780565" lon="27.950640689141306"><ele>301.3333333333333</ele><time>2026-04-29T08:13:32.998Z</time></trkpt><trkpt lat="43.271302696620516" lon="27.950549387602486"><ele>301.16666666666663</ele><time>2026-04-29T08:13:33.998Z</time></trkpt><trkpt lat="43.27127218091325" lon="27.950463602032894"><ele>301.0</ele><time>2026-04-29T08:13:34.998Z</time></trkpt><trkpt lat="43.271236851998154" lon="27.950364193041203"><ele>300.2</ele><time>2026-04-29T08:13:35.998Z</time></trkpt><trkpt lat="43.271197500128125" lon="27.95025459973497"><ele>299.40000000000003</ele><time>2026-04-29T08:13:36.998Z</time></trkpt><trkpt lat="43.27115648319075" lon="27.950145095303892"><ele>298.6</ele><time>2026-04-29T08:13:37.998Z</time></trkpt><trkpt lat="43.27111370361953" lon="27.95003061264653"><ele>297.8</ele><time>2026-04-29T08:13:38.998Z</time></trkpt><trkpt lat="43.2710722233831" lon="27.94991758486697"><ele>297.0</ele><time>2026-04-29T08:13:39.998Z</time></trkpt><trkpt lat="43.271032934514174" lon="27.94981054229514"><ele>296.6</ele><time>2026-04-29T08:13:40.998Z</time></trkpt><trkpt lat="43.27099330577346" lon="27.949689625802304"><ele>296.2</ele><time>2026-04-29T08:13:41.998Z</time></trkpt><trkpt lat="43.27095486962554" lon="27.94957234831516"><ele>295.8</ele><time>2026-04-29T08:13:42.998Z</time></trkpt><trkpt lat="43.27092582153435" lon="27.94945864109638"><ele>295.4</ele><time>2026-04-29T08:13:43.998Z</time></trkpt><trkpt lat="43.27089734141937" lon="27.94933018112442"><ele>295.0</ele><time>2026-04-29T08:13:45Z</time></trkpt><trkpt lat="43.27087327779831" lon="27.94919939253759"><ele>294.8</ele><time>2026-04-29T08:13:46Z</time></trkpt><trkpt lat="43.270848517611235" lon="27.94904910949518"><ele>294.6</ele><time>2026-04-29T08:13:47Z</time></trkpt><trkpt lat="43.270814868354186" lon="27.948918517107927"><ele>294.4</ele><time>2026-04-29T08:13:48Z</time></trkpt><trkpt lat="43.27078111556443" lon="27.948787525020016"><ele>294.2</ele><time>2026-04-29T08:13:49Z</time></trkpt><trkpt lat="43.27075165201684" lon="27.948678961757416"><ele>294.0</ele><time>2026-04-29T08:13:50Z</time></trkpt><trkpt lat="43.270718136273665" lon="27.94856586813541"><ele>294.0</ele><time>2026-04-29T08:13:52Z</time></trkpt><trkpt lat="43.2706856254869" lon="27.948475560879626"><ele>294.0</ele><time>2026-04-29T08:13:54Z</time></trkpt><trkpt lat="43.270666964310934" lon="27.94838629942888"><ele>294.0</ele><time>2026-04-29T08:13:55Z</time></trkpt><trkpt lat="43.27063200807968" lon="27.948230162785936"><ele>294.0</ele><time>2026-04-29T08:13:57Z</time></trkpt><trkpt lat="43.27062360564949" lon="27.94810280162672"><ele>294.0</ele><time>2026-04-29T08:14:00Z</time></trkpt><trkpt lat="43.27061655118843" lon="27.947966791779855"><ele>294.0</ele><time>2026-04-29T08:14:02Z</time></trkpt><trkpt lat="43.27059991408494" lon="27.947806205953327"><ele>294.0</ele><time>2026-04-29T08:14:04Z</time></trkpt><trkpt lat="43.27061683329802" lon="27.94772198046536"><ele>294.0</ele><time>2026-04-29T08:14:05Z</time></trkpt><trkpt lat="43.27061714230808" lon="27.947635365653877"><ele>294.0</ele><time>2026-04-29T08:14:06Z</time></trkpt><trkpt lat="43.27061747146699" lon="27.947543101979296"><ele>294.0</ele><time>2026-04-29T08:14:07Z</time></trkpt><trkpt lat="43.270601210276006" lon="27.94745407490954"><ele>294.0</ele><time>2026-04-29T08:14:08Z</time></trkpt><trkpt lat="43.27059750765662" lon="27.947364239532853"><ele>294.0</ele><time>2026-04-29T08:14:09Z</time></trkpt><trkpt lat="43.27059856551923" lon="27.94727695714376"><ele>294.2</ele><time>2026-04-29T08:14:10Z</time></trkpt><trkpt lat="43.27057621247494" lon="27.947182099532714"><ele>294.4</ele><time>2026-04-29T08:14:11Z</time></trkpt><trkpt lat="43.270538600137655" lon="27.94701636217699"><ele>294.6</ele><time>2026-04-29T08:14:13Z</time></trkpt><trkpt lat="43.27052605019261" lon="27.94689680177016"><ele>294.8</ele><time>2026-04-29T08:14:15Z</time></trkpt><trkpt lat="43.27051041818387" lon="27.94675314633865"><ele>295.0</ele><time>2026-04-29T08:14:17Z</time></trkpt><trkpt lat="43.2705010079608" lon="27.94661258126721"><ele>294.66666666666663</ele><time>2026-04-29T08:14:19Z</time></trkpt><trkpt lat="43.27049515888386" lon="27.94652428084369"><ele>294.3333333333333</ele><time>2026-04-29T08:14:20Z</time></trkpt><trkpt lat="43.270481032275086" lon="27.946430020068437"><ele>294.0</ele><time>2026-04-29T08:14:21Z</time></trkpt><trkpt lat="43.27044530095017" lon="27.9462597703077"><ele>293.6666666666667</ele><time>2026-04-29T08:14:23Z</time></trkpt><trkpt lat="43.270421077631276" lon="27.946153806436556"><ele>293.33333333333337</ele><time>2026-04-29T08:14:24Z</time></trkpt><trkpt lat="43.270396670581256" lon="27.946055694737225"><ele>293.0</ele><time>2026-04-29T08:14:25Z</time></trkpt><trkpt lat="43.27036951171931" lon="27.945942852385464"><ele>292.5</ele><time>2026-04-29T08:14:26Z</time></trkpt><trkpt lat="43.270344508776475" lon="27.945836370675032"><ele>292.0</ele><time>2026-04-29T08:14:26.999Z</time></trkpt><trkpt lat="43.27031944005141" lon="27.945727638860863"><ele>291.5</ele><time>2026-04-29T08:14:27.999Z</time></trkpt><trkpt lat="43.27027782399057" lon="27.945619940621672"><ele>291.0</ele><time>2026-04-29T08:14:28.999Z</time></trkpt><trkpt lat="43.270272496329895" lon="27.945497194501378"><ele>290.5</ele><time>2026-04-29T08:14:29.999Z</time></trkpt><trkpt lat="43.27027025865534" lon="27.945391234409175"><ele>290.0</ele><time>2026-04-29T08:14:30.999Z</time></trkpt><trkpt lat="43.27030507642566" lon="27.945289082025596"><ele>290.0</ele><time>2026-04-29T08:14:31.999Z</time></trkpt><trkpt lat="43.270300156375086" lon="27.945194949693192"><ele>290.0</ele><time>2026-04-29T08:14:32.999Z</time></trkpt><trkpt lat="43.27029524716863" lon="27.945101022290256"><ele>290.0</ele><time>2026-04-29T08:14:33.999Z</time></trkpt><trkpt lat="43.2702693193629" lon="27.945004246404924"><ele>290.0</ele><time>2026-04-29T08:14:34.999Z</time></trkpt><trkpt lat="43.270225242664665" lon="27.944912957487098"><ele>290.0</ele><time>2026-04-29T08:14:35.999Z</time></trkpt><trkpt lat="43.27018310920058" lon="27.94484516824055"><ele>290.0</ele><time>2026-04-29T08:14:36.999Z</time></trkpt><trkpt lat="43.27012287095036" lon="27.944748939024073"><ele>290.0</ele><time>2026-04-29T08:14:38.999Z</time></trkpt><trkpt lat="43.27005982462295" lon="27.94470788914106"><ele>289.33333333333337</ele><time>2026-04-29T08:14:39.999Z</time></trkpt><trkpt lat="43.26999407563653" lon="27.944709395495305"><ele>288.6666666666667</ele><time>2026-04-29T08:14:40.999Z</time></trkpt><trkpt lat="43.269899699577536" lon="27.944620760867586"><ele>288.0</ele><time>2026-04-29T08:14:42.999Z</time></trkpt><trkpt lat="43.26984146561845" lon="27.94457384226676"><ele>287.3333333333333</ele><time>2026-04-29T08:14:43.999Z</time></trkpt><trkpt lat="43.26977786266198" lon="27.94452412582922"><ele>286.66666666666663</ele><time>2026-04-29T08:14:44.999Z</time></trkpt><trkpt lat="43.269700067968756" lon="27.944486582598316"><ele>286.0</ele><time>2026-04-29T08:14:45.999Z</time></trkpt><trkpt lat="43.269621497657425" lon="27.94445507178698"><ele>285.8333333333333</ele><time>2026-04-29T08:14:46.999Z</time></trkpt><trkpt lat="43.26953615146756" lon="27.944420843548485"><ele>285.66666666666663</ele><time>2026-04-29T08:14:47.999Z</time></trkpt><trkpt lat="43.269448463023174" lon="27.94438567598193"><ele>285.5</ele><time>2026-04-29T08:14:48.999Z</time></trkpt><trkpt lat="43.26936379452531" lon="27.94434705447192"><ele>285.3333333333333</ele><time>2026-04-29T08:14:49.999Z</time></trkpt><trkpt lat="43.269279015422754" lon="27.944301873623278"><ele>285.1666666666667</ele><time>2026-04-29T08:14:50.999Z</time></trkpt><trkpt lat="43.269228495779984" lon="27.94422893004814"><ele>285.0</ele><time>2026-04-29T08:14:51.999Z</time></trkpt><trkpt lat="43.26917141748779" lon="27.94416488490695"><ele>284.6</ele><time>2026-04-29T08:14:52.999Z</time></trkpt><trkpt lat="43.26915401456425" lon="27.94406503530875"><ele>284.2</ele><time>2026-04-29T08:14:54.999Z</time></trkpt><trkpt lat="43.26900738685134" lon="27.9440332843585"><ele>283.8</ele><time>2026-04-29T08:14:58.999Z</time></trkpt><trkpt lat="43.268934730841245" lon="27.944080509849233"><ele>283.4</ele><time>2026-04-29T08:15:00.999Z</time></trkpt><trkpt lat="43.26882175629687" lon="27.94414980515522"><ele>283.0</ele><time>2026-04-29T08:15:02.999Z</time></trkpt><trkpt lat="43.26872169123986" lon="27.94420632662986"><ele>283.0</ele><time>2026-04-29T08:15:04.999Z</time></trkpt><trkpt lat="43.268624990688096" lon="27.94423719720926"><ele>283.0</ele><time>2026-04-29T08:15:06.999Z</time></trkpt><trkpt lat="43.26855732336826" lon="27.94425847900831"><ele>283.0</ele><time>2026-04-29T08:15:10.999Z</time></trkpt><trkpt lat="43.26849811339884" lon="27.94414825159074"><ele>283.0</ele><time>2026-04-29T08:15:13.999Z</time></trkpt><trkpt lat="43.2684239231372" lon="27.944170158560816"><ele>283.0</ele><time>2026-04-29T08:15:16.999Z</time></trkpt><trkpt lat="43.26832850438334" lon="27.94419607940979"><ele>283.0</ele><time>2026-04-29T08:15:18.999Z</time></trkpt><trkpt lat="43.268257687334945" lon="27.94420989851584"><ele>283.0</ele><time>2026-04-29T08:15:21.999Z</time></trkpt><trkpt lat="43.26833527758608" lon="27.944163521064805"><ele>283.0</ele><time>2026-04-29T08:15:43.998Z</time></trkpt><trkpt lat="43.26840135390763" lon="27.94410896181684"><ele>283.0</ele><time>2026-04-29T08:15:44.998Z</time></trkpt><trkpt lat="43.26849991253423" lon="27.944211013644836"><ele>283.0</ele><time>2026-04-29T08:15:45.998Z</time></trkpt><trkpt lat="43.26857298590169" lon="27.94416208093254"><ele>283.0</ele><time>2026-04-29T08:15:52Z</time></trkpt><trkpt lat="43.268658050007616" lon="27.94413168748927"><ele>283.0</ele><time>2026-04-29T08:15:56Z</time></trkpt><trkpt lat="43.268640945602094" lon="27.943961637089068"><ele>283.0</ele><time>2026-04-29T08:15:58Z</time></trkpt><trkpt lat="43.26861740245919" lon="27.943857309320464"><ele>283.0</ele><time>2026-04-29T08:16:01Z</time></trkpt><trkpt lat="43.26861740245931" lon="27.94374805046666"><ele>283.0</ele><time>2026-04-29T08:16:03Z</time></trkpt><trkpt lat="43.26874710789437" lon="27.943706531029008"><ele>283.0</ele><time>2026-04-29T08:16:04Z</time></trkpt><trkpt lat="43.268815108925665" lon="27.943602690573808"><ele>283.0</ele><time>2026-04-29T08:16:06Z</time></trkpt><trkpt lat="43.268879253853264" lon="27.943534045752585"><ele>283.0</ele><time>2026-04-29T08:16:08Z</time></trkpt><trkpt lat="43.26893801185562" lon="27.943463490072762"><ele>283.0</ele><time>2026-04-29T08:16:10Z</time></trkpt><trkpt lat="43.26898867222678" lon="27.94340265953804"><ele>283.0</ele><time>2026-04-29T08:16:15Z</time></trkpt><trkpt lat="43.26898637721971" lon="27.943292126771627"><ele>283.0</ele><time>2026-04-29T08:16:16Z</time></trkpt><trkpt lat="43.26890787721735" lon="27.943115502303343"><ele>283.2</ele><time>2026-04-29T08:16:18Z</time></trkpt><trkpt lat="43.26885143198893" lon="27.943002812015838"><ele>283.4</ele><time>2026-04-29T08:16:20Z</time></trkpt><trkpt lat="43.268810790770125" lon="27.942880299131193"><ele>283.59999999999997</ele><time>2026-04-29T08:16:22Z</time></trkpt><trkpt lat="43.268776546357785" lon="27.94276171334201"><ele>283.8</ele><time>2026-04-29T08:16:23Z</time></trkpt><trkpt lat="43.26870388611691" lon="27.942653053732528"><ele>284.0</ele><time>2026-04-29T08:16:25Z</time></trkpt><trkpt lat="43.268632617016955" lon="27.942547017061568"><ele>284.0</ele><time>2026-04-29T08:16:27Z</time></trkpt><trkpt lat="43.2685620249877" lon="27.942415441715767"><ele>284.0</ele><time>2026-04-29T08:16:29Z</time></trkpt><trkpt lat="43.268524127401236" lon="27.942344627572275"><ele>284.0</ele><time>2026-04-29T08:16:30Z</time></trkpt><trkpt lat="43.26845207034422" lon="27.94220998441295"><ele>284.0</ele><time>2026-04-29T08:16:32Z</time></trkpt><trkpt lat="43.26841966647051" lon="27.942112002812873"><ele>284.0</ele><time>2026-04-29T08:16:34Z</time></trkpt><trkpt lat="43.26853237784204" lon="27.942063196556713"><ele>284.0</ele><time>2026-04-29T08:16:36Z</time></trkpt><trkpt lat="43.26859602415102" lon="27.942012319931028"><ele>284.0</ele><time>2026-04-29T08:16:36.999Z</time></trkpt><trkpt lat="43.268669332556435" lon="27.94195371969513"><ele>284.0</ele><time>2026-04-29T08:16:37.999Z</time></trkpt><trkpt lat="43.26874574254687" lon="27.94189264009681"><ele>284.0</ele><time>2026-04-29T08:16:38.999Z</time></trkpt><trkpt lat="43.268820859388136" lon="27.941832741009463"><ele>284.0</ele><time>2026-04-29T08:16:39.999Z</time></trkpt><trkpt lat="43.26889696408924" lon="27.941772166607052"><ele>284.0</ele><time>2026-04-29T08:16:40.999Z</time></trkpt><trkpt lat="43.26898098553634" lon="27.941704392490262"><ele>283.6666666666667</ele><time>2026-04-29T08:16:41.999Z</time></trkpt><trkpt lat="43.26906464118146" lon="27.941637779705992"><ele>283.33333333333337</ele><time>2026-04-29T08:16:42.999Z</time></trkpt><trkpt lat="43.26914217096879" lon="27.94157588599759"><ele>283.0</ele><time>2026-04-29T08:16:43.999Z</time></trkpt><trkpt lat="43.26921013082681" lon="27.941521627638245"><ele>282.6666666666667</ele><time>2026-04-29T08:16:44.999Z</time></trkpt><trkpt lat="43.269275723691955" lon="27.941449041667596"><ele>282.3333333333333</ele><time>2026-04-29T08:16:45.999Z</time></trkpt><trkpt lat="43.269360332203554" lon="27.941389035384187"><ele>282.0</ele><time>2026-04-29T08:16:46.999Z</time></trkpt><trkpt lat="43.26944965669283" lon="27.941320432364133"><ele>282.0</ele><time>2026-04-29T08:16:47.999Z</time></trkpt><trkpt lat="43.26954273969257" lon="27.941245522017137"><ele>282.0</ele><time>2026-04-29T08:16:48.999Z</time></trkpt><trkpt lat="43.2696423885524" lon="27.94116955448041"><ele>282.0</ele><time>2026-04-29T08:16:49.999Z</time></trkpt><trkpt lat="43.2697401710753" lon="27.941092857816354"><ele>282.0</ele><time>2026-04-29T08:16:50.999Z</time></trkpt><trkpt lat="43.269819861725416" lon="27.94103464886554"><ele>282.0</ele><time>2026-04-29T08:16:51.999Z</time></trkpt><trkpt lat="43.26987614875487" lon="27.940978936709456"><ele>282.1666666666667</ele><time>2026-04-29T08:16:52.999Z</time></trkpt><trkpt lat="43.26990476195715" lon="27.940871255047256"><ele>282.3333333333333</ele><time>2026-04-29T08:16:54.999Z</time></trkpt><trkpt lat="43.26987666121088" lon="27.94076137185492"><ele>282.5</ele><time>2026-04-29T08:16:55.999Z</time></trkpt><trkpt lat="43.26982397405545" lon="27.940653886479268"><ele>282.66666666666663</ele><time>2026-04-29T08:16:56.999Z</time></trkpt><trkpt lat="43.26978029652269" lon="27.940541314698574"><ele>282.8333333333333</ele><time>2026-04-29T08:16:57.999Z</time></trkpt><trkpt lat="43.26974217431386" lon="27.940442935699437"><ele>283.0</ele><time>2026-04-29T08:16:58.999Z</time></trkpt><trkpt lat="43.26970729708634" lon="27.94035293323574"><ele>283.0</ele><time>2026-04-29T08:16:59.999Z</time></trkpt><trkpt lat="43.26963581219625" lon="27.940273785018345"><ele>283.0</ele><time>2026-04-29T08:17:00.999Z</time></trkpt><trkpt lat="43.269578307032965" lon="27.94019589150557"><ele>283.0</ele><time>2026-04-29T08:17:01.999Z</time></trkpt><trkpt lat="43.26952100474601" lon="27.94011827258526"><ele>283.0</ele><time>2026-04-29T08:17:02.999Z</time></trkpt><trkpt lat="43.269461421522564" lon="27.940037564045365"><ele>283.0</ele><time>2026-04-29T08:17:03.999Z</time></trkpt><trkpt lat="43.26940196855448" lon="27.939957312261786"><ele>283.0</ele><time>2026-04-29T08:17:04.999Z</time></trkpt><trkpt lat="43.26934291523824" lon="27.939877772260626"><ele>283.66666666666663</ele><time>2026-04-29T08:17:05.999Z</time></trkpt><trkpt lat="43.269297164256336" lon="27.93981579147229"><ele>284.3333333333333</ele><time>2026-04-29T08:17:06.999Z</time></trkpt><trkpt lat="43.26927177614491" lon="27.939724520514147"><ele>285.0</ele><time>2026-04-29T08:17:08.999Z</time></trkpt><trkpt lat="43.26937139802302" lon="27.939598523190135"><ele>285.6666666666667</ele><time>2026-04-29T08:17:10.999Z</time></trkpt><trkpt lat="43.269424078844125" lon="27.93951549343349"><ele>286.33333333333337</ele><time>2026-04-29T08:17:11.999Z</time></trkpt><trkpt lat="43.269492354534485" lon="27.939446017983812"><ele>287.0</ele><time>2026-04-29T08:17:12.999Z</time></trkpt><trkpt lat="43.269535307911084" lon="27.939369254563662"><ele>287.0</ele><time>2026-04-29T08:17:13.999Z</time></trkpt><trkpt lat="43.269598096841264" lon="27.93928939525575"><ele>287.0</ele><time>2026-04-29T08:17:14.999Z</time></trkpt><trkpt lat="43.269661944070016" lon="27.939196432334388"><ele>287.0</ele><time>2026-04-29T08:17:15.999Z</time></trkpt><trkpt lat="43.26972378476927" lon="27.939107230242396"><ele>287.0</ele><time>2026-04-29T08:17:16.999Z</time></trkpt><trkpt lat="43.269785808340046" lon="27.939015810450528"><ele>287.0</ele><time>2026-04-29T08:17:17.999Z</time></trkpt><trkpt lat="43.26984905740008" lon="27.938922290452282"><ele>286.83333333333337</ele><time>2026-04-29T08:17:18.999Z</time></trkpt><trkpt lat="43.26990690019142" lon="27.938837950670997"><ele>286.6666666666667</ele><time>2026-04-29T08:17:19.999Z</time></trkpt><trkpt lat="43.26996831503078" lon="27.938747841711038"><ele>286.5</ele><time>2026-04-29T08:17:20.999Z</time></trkpt><trkpt lat="43.27002164111612" lon="27.938669461099927"><ele>286.3333333333333</ele><time>2026-04-29T08:17:21.999Z</time></trkpt><trkpt lat="43.27006517696156" lon="27.93860580801643"><ele>286.16666666666663</ele><time>2026-04-29T08:17:22.999Z</time></trkpt><trkpt lat="43.27013367817159" lon="27.938477651129286"><ele>286.0</ele><time>2026-04-29T08:17:24.999Z</time></trkpt><trkpt lat="43.27022507226242" lon="27.938369274012572"><ele>286.0</ele><time>2026-04-29T08:17:26.999Z</time></trkpt><trkpt lat="43.27028064297685" lon="27.938326899158174"><ele>286.0</ele><time>2026-04-29T08:17:28.999Z</time></trkpt><trkpt lat="43.27037289698721" lon="27.938468598064496"><ele>286.0</ele><time>2026-04-29T08:17:31.999Z</time></trkpt><trkpt lat="43.2704173443307" lon="27.938584448202146"><ele>286.0</ele><time>2026-04-29T08:17:32.999Z</time></trkpt><trkpt lat="43.27046866864784" lon="27.938708342253594"><ele>286.0</ele><time>2026-04-29T08:17:33.999Z</time></trkpt><trkpt lat="43.27052081380144" lon="27.938826163994545"><ele>286.0</ele><time>2026-04-29T08:17:34.999Z</time></trkpt><trkpt lat="43.27056108066519" lon="27.93892729643429"><ele>286.0</ele><time>2026-04-29T08:17:35.998Z</time></trkpt><trkpt lat="43.2705969044868" lon="27.939015130250503"><ele>286.0</ele><time>2026-04-29T08:17:36.998Z</time></trkpt><trkpt lat="43.270648883662204" lon="27.93911763551827"><ele>286.0</ele><time>2026-04-29T08:17:38.998Z</time></trkpt><trkpt lat="43.270783532344716" lon="27.939033969997332"><ele>286.0</ele><time>2026-04-29T08:17:40.998Z</time></trkpt><trkpt lat="43.27085798594508" lon="27.938947076292795"><ele>285.0</ele><time>2026-04-29T08:17:42.998Z</time></trkpt><trkpt lat="43.27095133124117" lon="27.938835961761153"><ele>284.0</ele><time>2026-04-29T08:17:44.998Z</time></trkpt><trkpt lat="43.27097894322707" lon="27.938749668862947"><ele>283.0</ele><time>2026-04-29T08:17:45.998Z</time></trkpt><trkpt lat="43.27103375183366" lon="27.938676555234114"><ele>282.0</ele><time>2026-04-29T08:17:46.998Z</time></trkpt><trkpt lat="43.27108047147144" lon="27.938586682721283"><ele>281.0</ele><time>2026-04-29T08:17:47.998Z</time></trkpt><trkpt lat="43.271131362851" lon="27.93848878516754"><ele>280.0</ele><time>2026-04-29T08:17:48.998Z</time></trkpt><trkpt lat="43.271177305606884" lon="27.938400407385963"><ele>280.3333333333333</ele><time>2026-04-29T08:17:49.998Z</time></trkpt><trkpt lat="43.27122595695499" lon="27.938308438645112"><ele>280.66666666666663</ele><time>2026-04-29T08:17:50.998Z</time></trkpt><trkpt lat="43.27127120402818" lon="27.938210704690544"><ele>281.0</ele><time>2026-04-29T08:17:51.998Z</time></trkpt><trkpt lat="43.27131621075307" lon="27.938113167931967"><ele>281.3333333333333</ele><time>2026-04-29T08:17:52.998Z</time></trkpt><trkpt lat="43.271361175183735" lon="27.9380157225073"><ele>281.6666666666667</ele><time>2026-04-29T08:17:53.998Z</time></trkpt><trkpt lat="43.271406289312644" lon="27.937917952792265"><ele>282.0</ele><time>2026-04-29T08:17:54.998Z</time></trkpt><trkpt lat="43.27145569663203" lon="27.937810879105907"><ele>281.3333333333333</ele><time>2026-04-29T08:17:55.998Z</time></trkpt><trkpt lat="43.27150647924597" lon="27.937700824914497"><ele>280.6666666666667</ele><time>2026-04-29T08:17:57Z</time></trkpt><trkpt lat="43.27153549643265" lon="27.937592988243622"><ele>280.0</ele><time>2026-04-29T08:17:58Z</time></trkpt><trkpt lat="43.27157301970876" lon="27.937513223414495"><ele>279.33333333333337</ele><time>2026-04-29T08:17:59Z</time></trkpt><trkpt lat="43.27161652738026" lon="27.93742567145915"><ele>278.6666666666667</ele><time>2026-04-29T08:18:00Z</time></trkpt><trkpt lat="43.27161971087196" lon="27.93731475102926"><ele>278.0</ele><time>2026-04-29T08:18:01Z</time></trkpt><trkpt lat="43.2716379423958" lon="27.937176545854275"><ele>278.0</ele><time>2026-04-29T08:18:03Z</time></trkpt><trkpt lat="43.27171826176196" lon="27.937078615266657"><ele>278.0</ele><time>2026-04-29T08:18:05Z</time></trkpt><trkpt lat="43.27179083435723" lon="27.93704147066449"><ele>278.0</ele><time>2026-04-29T08:18:06Z</time></trkpt><trkpt lat="43.271871630742744" lon="27.937010454176306"><ele>278.0</ele><time>2026-04-29T08:18:07Z</time></trkpt><trkpt lat="43.271946718202734" lon="27.937024834908563"><ele>278.0</ele><time>2026-04-29T08:18:08Z</time></trkpt><trkpt lat="43.272016065361605" lon="27.937020653596523"><ele>278.0</ele><time>2026-04-29T08:18:09Z</time></trkpt><trkpt lat="43.272090673539225" lon="27.93697378659132"><ele>278.0</ele><time>2026-04-29T08:18:10Z</time></trkpt><trkpt lat="43.272167931808596" lon="27.936956893623993"><ele>278.0</ele><time>2026-04-29T08:18:11Z</time></trkpt><trkpt lat="43.27221857634188" lon="27.93683645214454"><ele>278.0</ele><time>2026-04-29T08:18:12Z</time></trkpt><trkpt lat="43.272277466879466" lon="27.9367439904505"><ele>278.0</ele><time>2026-04-29T08:18:13Z</time></trkpt><trkpt lat="43.27232636468528" lon="27.936659144022087"><ele>278.0</ele><time>2026-04-29T08:18:14Z</time></trkpt><trkpt lat="43.27238015290051" lon="27.936565811657218"><ele>278.0</ele><time>2026-04-29T08:18:15Z</time></trkpt><trkpt lat="43.27241679419791" lon="27.936447209543534"><ele>277.2</ele><time>2026-04-29T08:18:16Z</time></trkpt><trkpt lat="43.27244369603224" lon="27.936342960255356"><ele>276.4</ele><time>2026-04-29T08:18:17Z</time></trkpt><trkpt lat="43.272469254975654" lon="27.936243915583823"><ele>275.59999999999997</ele><time>2026-04-29T08:18:18Z</time></trkpt><trkpt lat="43.272580674427445" lon="27.936150521752207"><ele>274.8</ele><time>2026-04-29T08:18:20Z</time></trkpt><trkpt lat="43.27266130025374" lon="27.936184250864827"><ele>274.0</ele><time>2026-04-29T08:18:21Z</time></trkpt><trkpt lat="43.27272999847469" lon="27.93610135344591"><ele>274.0</ele><time>2026-04-29T08:18:22Z</time></trkpt><trkpt lat="43.272792758921845" lon="27.93605892937957"><ele>274.0</ele><time>2026-04-29T08:18:23Z</time></trkpt><trkpt lat="43.272905906967104" lon="27.936000340126675"><ele>274.0</ele><time>2026-04-29T08:18:25Z</time></trkpt><trkpt lat="43.272997773053085" lon="27.935915989693807"><ele>274.0</ele><time>2026-04-29T08:18:27Z</time></trkpt><trkpt lat="43.273011711799995" lon="27.93574982218876"><ele>274.0</ele><time>2026-04-29T08:18:29Z</time></trkpt><trkpt lat="43.273041735474386" lon="27.9356094271313"><ele>273.8</ele><time>2026-04-29T08:18:31Z</time></trkpt><trkpt lat="43.273077378217344" lon="27.93543757197821"><ele>273.59999999999997</ele><time>2026-04-29T08:18:33Z</time></trkpt><trkpt lat="43.27307376316186" lon="27.935340727824507"><ele>273.4</ele><time>2026-04-29T08:18:34Z</time></trkpt><trkpt lat="43.27308617805474" lon="27.935227105003097"><ele>273.2</ele><time>2026-04-29T08:18:35Z</time></trkpt><trkpt lat="43.27309525244291" lon="27.935110385023524"><ele>273.0</ele><time>2026-04-29T08:18:36Z</time></trkpt><trkpt lat="43.27311692245807" lon="27.934996375314157"><ele>272.8333333333333</ele><time>2026-04-29T08:18:37Z</time></trkpt><trkpt lat="43.27312904791346" lon="27.934897451163774"><ele>272.6666666666667</ele><time>2026-04-29T08:18:38Z</time></trkpt><trkpt lat="43.27314023059239" lon="27.93480034388886"><ele>272.5</ele><time>2026-04-29T08:18:39Z</time></trkpt><trkpt lat="43.27316063393027" lon="27.934623169936607"><ele>272.33333333333337</ele><time>2026-04-29T08:18:41Z</time></trkpt><trkpt lat="43.273215586432094" lon="27.934556695707705"><ele>272.1666666666667</ele><time>2026-04-29T08:18:42Z</time></trkpt><trkpt lat="43.27325266449423" lon="27.934461178828403"><ele>272.0</ele><time>2026-04-29T08:18:42.999Z</time></trkpt><trkpt lat="43.27328913482266" lon="27.934367241404583"><ele>272.0</ele><time>2026-04-29T08:18:43.999Z</time></trkpt><trkpt lat="43.27332702810731" lon="27.934269667254117"><ele>272.0</ele><time>2026-04-29T08:18:44.999Z</time></trkpt><trkpt lat="43.27336525230976" lon="27.934171240942"><ele>272.0</ele><time>2026-04-29T08:18:45.999Z</time></trkpt><trkpt lat="43.273401602768374" lon="27.934077000924848"><ele>272.0</ele><time>2026-04-29T08:18:46.999Z</time></trkpt><trkpt lat="43.27345150157448" lon="27.933988726297287"><ele>272.0</ele><time>2026-04-29T08:18:47.999Z</time></trkpt><trkpt lat="43.273502479799276" lon="27.933895593612792"><ele>272.0</ele><time>2026-04-29T08:18:48.999Z</time></trkpt><trkpt lat="43.27355544794586" lon="27.93379882367054"><ele>272.5</ele><time>2026-04-29T08:18:49.999Z</time></trkpt><trkpt lat="43.27361049662775" lon="27.933706598321486"><ele>273.0</ele><time>2026-04-29T08:18:50.999Z</time></trkpt><trkpt lat="43.27366514410557" lon="27.933619934941756"><ele>273.5</ele><time>2026-04-29T08:18:51.999Z</time></trkpt><trkpt lat="43.27371920747827" lon="27.933534197818727"><ele>274.0</ele><time>2026-04-29T08:18:52.999Z</time></trkpt><trkpt lat="43.2737709434311" lon="27.933452151671307"><ele>274.5</ele><time>2026-04-29T08:18:53.999Z</time></trkpt><trkpt lat="43.27382180440691" lon="27.933380825070415"><ele>275.0</ele><time>2026-04-29T08:18:54.999Z</time></trkpt><trkpt lat="43.273874130646675" lon="27.933316419198658"><ele>274.6666666666667</ele><time>2026-04-29T08:18:55.999Z</time></trkpt><trkpt lat="43.27392832814737" lon="27.93324970751457"><ele>274.33333333333337</ele><time>2026-04-29T08:18:56.999Z</time></trkpt><trkpt lat="43.273997919974526" lon="27.93324132512222"><ele>274.0</ele><time>2026-04-29T08:18:57.999Z</time></trkpt><trkpt lat="43.27407060526719" lon="27.93320203868112"><ele>273.6666666666667</ele><time>2026-04-29T08:18:58.999Z</time></trkpt><trkpt lat="43.274147227224475" lon="27.933160736584547"><ele>273.3333333333333</ele><time>2026-04-29T08:18:59.999Z</time></trkpt><trkpt lat="43.27423011339498" lon="27.933116057843137"><ele>273.0</ele><time>2026-04-29T08:19:00.999Z</time></trkpt><trkpt lat="43.274325552362185" lon="27.933064052462523"><ele>273.0</ele><time>2026-04-29T08:19:01.999Z</time></trkpt><trkpt lat="43.27442472804227" lon="27.93298930918193"><ele>273.0</ele><time>2026-04-29T08:19:02.999Z</time></trkpt><trkpt lat="43.27452304622643" lon="27.932924683108073"><ele>273.0</ele><time>2026-04-29T08:19:03.999Z</time></trkpt><trkpt lat="43.27459945849749" lon="27.93286961032594"><ele>273.0</ele><time>2026-04-29T08:19:04.999Z</time></trkpt><trkpt lat="43.274701273563736" lon="27.93278262319747"><ele>273.0</ele><time>2026-04-29T08:19:06.999Z</time></trkpt><trkpt lat="43.27477377355272" lon="27.93269832209299"><ele>272.6666666666667</ele><time>2026-04-29T08:19:08.999Z</time></trkpt><trkpt lat="43.274845002722486" lon="27.932615497975263"><ele>272.3333333333333</ele><time>2026-04-29T08:19:14.999Z</time></trkpt><trkpt lat="43.27486500073454" lon="27.932460994218083"><ele>272.0</ele><time>2026-04-29T08:19:16.999Z</time></trkpt><trkpt lat="43.27490929870596" lon="27.93239331423675"><ele>271.66666666666663</ele><time>2026-04-29T08:19:18.999Z</time></trkpt><trkpt lat="43.27498054417495" lon="27.93244997927334"><ele>271.3333333333333</ele><time>2026-04-29T08:19:35.999Z</time></trkpt><trkpt lat="43.275053890616896" lon="27.93246360264078"><ele>271.0</ele><time>2026-04-29T08:19:38.999Z</time></trkpt><trkpt lat="43.27513957777912" lon="27.93240134106938"><ele>271.0</ele><time>2026-04-29T08:19:40.998Z</time></trkpt><trkpt lat="43.27524626778966" lon="27.93235074725496"><ele>271.0</ele><time>2026-04-29T08:19:42.998Z</time></trkpt><trkpt lat="43.275362403401495" lon="27.932319779643706"><ele>271.0</ele><time>2026-04-29T08:19:44.998Z</time></trkpt><trkpt lat="43.275456680135825" lon="27.932277383347945"><ele>271.0</ele><time>2026-04-29T08:19:46.998Z</time></trkpt><trkpt lat="43.27555949054754" lon="27.932267334088444"><ele>271.0</ele><time>2026-04-29T08:19:48.998Z</time></trkpt><trkpt lat="43.275620740410965" lon="27.93221009255052"><ele>271.0</ele><time>2026-04-29T08:19:50.998Z</time></trkpt><trkpt lat="43.275684732379936" lon="27.932163079546477"><ele>271.0</ele><time>2026-04-29T08:19:52.998Z</time></trkpt><trkpt lat="43.275692185511765" lon="27.931998199548392"><ele>271.0</ele><time>2026-04-29T08:19:56.998Z</time></trkpt><trkpt lat="43.27567354459519" lon="27.93187585549573"><ele>271.0</ele><time>2026-04-29T08:19:58.998Z</time></trkpt><trkpt lat="43.2756918164485" lon="27.931732047181765"><ele>271.0</ele><time>2026-04-29T08:20:00.998Z</time></trkpt><trkpt lat="43.27576134885602" lon="27.931670042732936"><ele>271.0</ele><time>2026-04-29T08:20:01.998Z</time></trkpt><trkpt lat="43.27583058422255" lon="27.931543078337313"><ele>271.0</ele><time>2026-04-29T08:20:04Z</time></trkpt><trkpt lat="43.275901015624264" lon="27.931438974562905"><ele>271.0</ele><time>2026-04-29T08:20:06Z</time></trkpt><trkpt lat="43.275964807582994" lon="27.931337731842774"><ele>271.0</ele><time>2026-04-29T08:20:08Z</time></trkpt><trkpt lat="43.27601890480583" lon="27.931291926880917"><ele>271.0</ele><time>2026-04-29T08:20:09Z</time></trkpt><trkpt lat="43.27607371660303" lon="27.931232116218748"><ele>271.0</ele><time>2026-04-29T08:20:10Z</time></trkpt><trkpt lat="43.27613434174007" lon="27.931181250249374"><ele>271.0</ele><time>2026-04-29T08:20:11Z</time></trkpt><trkpt lat="43.27618010206267" lon="27.93110360220151"><ele>271.0</ele><time>2026-04-29T08:20:12Z</time></trkpt><trkpt lat="43.27624752224738" lon="27.931028484893584"><ele>271.0</ele><time>2026-04-29T08:20:13Z</time></trkpt><trkpt lat="43.276294951869815" lon="27.930923660618998"><ele>271.0</ele><time>2026-04-29T08:20:14Z</time></trkpt><trkpt lat="43.27632980687165" lon="27.930807836850164"><ele>271.0</ele><time>2026-04-29T08:20:15Z</time></trkpt><trkpt lat="43.27638197578147" lon="27.93071744350495"><ele>269.5</ele><time>2026-04-29T08:20:16Z</time></trkpt><trkpt lat="43.276446120339855" lon="27.93063938825682"><ele>268.0</ele><time>2026-04-29T08:20:17Z</time></trkpt><trkpt lat="43.27651085935904" lon="27.9305304329844"><ele>266.5</ele><time>2026-04-29T08:20:18Z</time></trkpt><trkpt lat="43.27658180050738" lon="27.93038567150327"><ele>265.0</ele><time>2026-04-29T08:20:19Z</time></trkpt><trkpt lat="43.27665382207152" lon="27.930228637385532"><ele>265.0</ele><time>2026-04-29T08:20:20Z</time></trkpt><trkpt lat="43.27676088836512" lon="27.93012104511035"><ele>265.0</ele><time>2026-04-29T08:20:21Z</time></trkpt><trkpt lat="43.2768669922102" lon="27.930014423804714"><ele>265.0</ele><time>2026-04-29T08:20:22Z</time></trkpt><trkpt lat="43.276964526384404" lon="27.929915174134145"><ele>265.0</ele><time>2026-04-29T08:20:23Z</time></trkpt><trkpt lat="43.27706403006847" lon="27.929838697490794"><ele>265.66666666666663</ele><time>2026-04-29T08:20:24Z</time></trkpt><trkpt lat="43.2771337173349" lon="27.929739250681532"><ele>266.3333333333333</ele><time>2026-04-29T08:20:25Z</time></trkpt><trkpt lat="43.27720001501746" lon="27.929670314863976"><ele>267.0</ele><time>2026-04-29T08:20:26Z</time></trkpt><trkpt lat="43.27726929446942" lon="27.929598813825518"><ele>267.6666666666667</ele><time>2026-04-29T08:20:27Z</time></trkpt><trkpt lat="43.27733675274075" lon="27.92952572310951"><ele>268.33333333333337</ele><time>2026-04-29T08:20:28Z</time></trkpt><trkpt lat="43.27740833967072" lon="27.92944691282875"><ele>269.0</ele><time>2026-04-29T08:20:29Z</time></trkpt><trkpt lat="43.27748342408456" lon="27.929364252109476"><ele>269.0</ele><time>2026-04-29T08:20:30Z</time></trkpt><trkpt lat="43.277562492392924" lon="27.9292772061276"><ele>269.0</ele><time>2026-04-29T08:20:31Z</time></trkpt><trkpt lat="43.27765478436899" lon="27.929200562419442"><ele>269.0</ele><time>2026-04-29T08:20:32Z</time></trkpt><trkpt lat="43.277746694082786" lon="27.92912134081446"><ele>269.0</ele><time>2026-04-29T08:20:33Z</time></trkpt><trkpt lat="43.27783681869769" lon="27.929043522006417"><ele>269.0</ele><time>2026-04-29T08:20:34Z</time></trkpt><trkpt lat="43.27791589579551" lon="27.928965448336047"><ele>269.59999999999997</ele><time>2026-04-29T08:20:35Z</time></trkpt><trkpt lat="43.27800092016727" lon="27.92888199500355"><ele>270.2</ele><time>2026-04-29T08:20:36Z</time></trkpt><trkpt lat="43.27808973820381" lon="27.928795520866352"><ele>270.79999999999995</ele><time>2026-04-29T08:20:37Z</time></trkpt><trkpt lat="43.27818466130394" lon="27.928711235813854"><ele>271.4</ele><time>2026-04-29T08:20:38Z</time></trkpt><trkpt lat="43.278271739279646" lon="27.928636975135458"><ele>272.0</ele><time>2026-04-29T08:20:39Z</time></trkpt><trkpt lat="43.278365547108955" lon="27.928557574659713"><ele>272.0</ele><time>2026-04-29T08:20:40Z</time></trkpt><trkpt lat="43.278474402198206" lon="27.928491496068876"><ele>272.0</ele><time>2026-04-29T08:20:41Z</time></trkpt><trkpt lat="43.278577925765255" lon="27.92841077394811"><ele>272.0</ele><time>2026-04-29T08:20:42Z</time></trkpt><trkpt lat="43.27868451525482" lon="27.92832697097391"><ele>272.0</ele><time>2026-04-29T08:20:43Z</time></trkpt><trkpt lat="43.2787844233403" lon="27.92825479197514"><ele>271.75</ele><time>2026-04-29T08:20:44Z</time></trkpt><trkpt lat="43.278879716467436" lon="27.92818184617119"><ele>271.5</ele><time>2026-04-29T08:20:44.999Z</time></trkpt><trkpt lat="43.278987728213444" lon="27.928108699247378"><ele>271.25</ele><time>2026-04-29T08:20:45.999Z</time></trkpt><trkpt lat="43.27908959727345" lon="27.928043442316334"><ele>271.0</ele><time>2026-04-29T08:20:46.999Z</time></trkpt><trkpt lat="43.27919038156102" lon="27.927956045249548"><ele>271.0</ele><time>2026-04-29T08:20:47.999Z</time></trkpt><trkpt lat="43.279285734396154" lon="27.927857417277526"><ele>271.0</ele><time>2026-04-29T08:20:48.999Z</time></trkpt><trkpt lat="43.27938888698301" lon="27.927765676526455"><ele>271.0</ele><time>2026-04-29T08:20:49.999Z</time></trkpt><trkpt lat="43.279464330375475" lon="27.927640804700864"><ele>271.0</ele><time>2026-04-29T08:20:50.999Z</time></trkpt><trkpt lat="43.2795478159549" lon="27.927534451987874"><ele>270.75</ele><time>2026-04-29T08:20:51.999Z</time></trkpt><trkpt lat="43.279633183776184" lon="27.927424544975214"><ele>270.5</ele><time>2026-04-29T08:20:52.999Z</time></trkpt><trkpt lat="43.27972203151857" lon="27.927315929033735"><ele>270.25</ele><time>2026-04-29T08:20:53.999Z</time></trkpt><trkpt lat="43.27981755987291" lon="27.927229655833465"><ele>270.0</ele><time>2026-04-29T08:20:54.999Z</time></trkpt><trkpt lat="43.279905549270396" lon="27.927134786175266"><ele>270.0</ele><time>2026-04-29T08:20:55.999Z</time></trkpt><trkpt lat="43.27997843639857" lon="27.927024995000227"><ele>270.0</ele><time>2026-04-29T08:20:56.999Z</time></trkpt><trkpt lat="43.280065559386905" lon="27.926932617520464"><ele>270.0</ele><time>2026-04-29T08:20:57.999Z</time></trkpt><trkpt lat="43.280146469932376" lon="27.926845956391634"><ele>270.0</ele><time>2026-04-29T08:20:58.999Z</time></trkpt><trkpt lat="43.28020863737175" lon="27.926737013430106"><ele>270.0</ele><time>2026-04-29T08:20:59.999Z</time></trkpt><trkpt lat="43.28025257513085" lon="27.92662488720394"><ele>270.6</ele><time>2026-04-29T08:21:00.999Z</time></trkpt><trkpt lat="43.2802771938464" lon="27.9265038763983"><ele>271.2</ele><time>2026-04-29T08:21:01.999Z</time></trkpt><trkpt lat="43.28031408949581" lon="27.926388863502602"><ele>271.8</ele><time>2026-04-29T08:21:02.999Z</time></trkpt><trkpt lat="43.2803358348985" lon="27.926252250977697"><ele>272.4</ele><time>2026-04-29T08:21:03.999Z</time></trkpt><trkpt lat="43.280338395856546" lon="27.92610785244531"><ele>273.0</ele><time>2026-04-29T08:21:04.999Z</time></trkpt><trkpt lat="43.28032488505794" lon="27.92595443436014"><ele>272.8</ele><time>2026-04-29T08:21:05.999Z</time></trkpt><trkpt lat="43.28030934811872" lon="27.925814548165803"><ele>272.6</ele><time>2026-04-29T08:21:06.999Z</time></trkpt><trkpt lat="43.28025842239202" lon="27.925681701375602"><ele>272.4</ele><time>2026-04-29T08:21:07.999Z</time></trkpt><trkpt lat="43.280224052791596" lon="27.92555872794926"><ele>272.2</ele><time>2026-04-29T08:21:08.999Z</time></trkpt><trkpt lat="43.280162478793706" lon="27.92547045842204"><ele>272.0</ele><time>2026-04-29T08:21:09.999Z</time></trkpt><trkpt lat="43.28011241597548" lon="27.925365339531737"><ele>272.0</ele><time>2026-04-29T08:21:10.999Z</time></trkpt><trkpt lat="43.28004403412915" lon="27.92527386620797"><ele>272.0</ele><time>2026-04-29T08:21:11.999Z</time></trkpt><trkpt lat="43.279987578452236" lon="27.92518635664909"><ele>272.0</ele><time>2026-04-29T08:21:12.999Z</time></trkpt><trkpt lat="43.27992145988769" lon="27.925063901132734"><ele>272.0</ele><time>2026-04-29T08:21:14.999Z</time></trkpt><trkpt lat="43.27986164683906" lon="27.924947720030442"><ele>272.0</ele><time>2026-04-29T08:21:16.999Z</time></trkpt><trkpt lat="43.2798254626822" lon="27.9248254526337"><ele>272.0</ele><time>2026-04-29T08:21:18.999Z</time></trkpt><trkpt lat="43.279803019436066" lon="27.92472041584689"><ele>272.0</ele><time>2026-04-29T08:21:20.999Z</time></trkpt><trkpt lat="43.27986556897326" lon="27.924655030717165"><ele>272.0</ele><time>2026-04-29T08:21:23.999Z</time></trkpt><trkpt lat="43.27994903838536" lon="27.92466171539525"><ele>272.0</ele><time>2026-04-29T08:21:25.999Z</time></trkpt><trkpt lat="43.28005031057773" lon="27.924686703827515"><ele>272.0</ele><time>2026-04-29T08:21:27.999Z</time></trkpt><trkpt lat="43.28011402150393" lon="27.924691755470327"><ele>272.0</ele><time>2026-04-29T08:21:28.999Z</time></trkpt><trkpt lat="43.28018007557115" lon="27.924696067982882"><ele>271.99999999999994</ele><time>2026-04-29T08:21:29.999Z</time></trkpt><trkpt lat="43.280247454999135" lon="27.924692469469345"><ele>272.0</ele><time>2026-04-29T08:21:30.999Z</time></trkpt><trkpt lat="43.28031586190725" lon="27.92468822497467"><ele>272.0</ele><time>2026-04-29T08:21:31.999Z</time></trkpt><trkpt lat="43.2803788096772" lon="27.92466535818309"><ele>272.0</ele><time>2026-04-29T08:21:32.999Z</time></trkpt><trkpt lat="43.28044108578395" lon="27.924680455307136"><ele>272.0</ele><time>2026-04-29T08:21:33.999Z</time></trkpt><trkpt lat="43.28051820831808" lon="27.924713013912868"><ele>271.99999999999994</ele><time>2026-04-29T08:21:35.999Z</time></trkpt><trkpt lat="43.28061885600177" lon="27.924719430798486"><ele>272.0</ele><time>2026-04-29T08:21:37.999Z</time></trkpt><trkpt lat="43.28069869235135" lon="27.92470645493086"><ele>271.83333333333337</ele><time>2026-04-29T08:21:38.999Z</time></trkpt><trkpt lat="43.280778993359036" lon="27.924702026965097"><ele>271.6666666666667</ele><time>2026-04-29T08:21:39.999Z</time></trkpt><trkpt lat="43.28085354555878" lon="27.92469974187673"><ele>271.5</ele><time>2026-04-29T08:21:40.999Z</time></trkpt><trkpt lat="43.28094650359817" lon="27.92468967981954"><ele>271.3333333333333</ele><time>2026-04-29T08:21:42.998Z</time></trkpt><trkpt lat="43.2810502548535" lon="27.924716459489467"><ele>271.16666666666663</ele><time>2026-04-29T08:21:44.998Z</time></trkpt><trkpt lat="43.28112051679803" lon="27.92471468841845"><ele>271.0</ele><time>2026-04-29T08:21:45.998Z</time></trkpt><trkpt lat="43.28119468607817" lon="27.92469013970764"><ele>271.0</ele><time>2026-04-29T08:21:46.998Z</time></trkpt><trkpt lat="43.2812654496082" lon="27.924716255020943"><ele>271.0</ele><time>2026-04-29T08:21:47.998Z</time></trkpt><trkpt lat="43.28133554243272" lon="27.92470828364136"><ele>271.0</ele><time>2026-04-29T08:21:48.998Z</time></trkpt><trkpt lat="43.28139768884801" lon="27.924674950153918"><ele>271.0</ele><time>2026-04-29T08:21:49.998Z</time></trkpt><trkpt lat="43.2814674306881" lon="27.924655508769177"><ele>271.0</ele><time>2026-04-29T08:21:50.998Z</time></trkpt><trkpt lat="43.28154399786713" lon="27.924652192608907"><ele>271.0</ele><time>2026-04-29T08:21:51.998Z</time></trkpt><trkpt lat="43.281623736218535" lon="27.924631269884937"><ele>271.0</ele><time>2026-04-29T08:21:52.998Z</time></trkpt><trkpt lat="43.28174252097538" lon="27.924585810089482"><ele>270.66666666666663</ele><time>2026-04-29T08:21:54.998Z</time></trkpt><trkpt lat="43.281813590809286" lon="27.924577093101114"><ele>270.3333333333333</ele><time>2026-04-29T08:21:55.998Z</time></trkpt><trkpt lat="43.28188340476793" lon="27.924555672317243"><ele>270.0</ele><time>2026-04-29T08:21:56.998Z</time></trkpt><trkpt lat="43.28195190208624" lon="27.92451342374436"><ele>269.6666666666667</ele><time>2026-04-29T08:21:57.998Z</time></trkpt><trkpt lat="43.282038372388236" lon="27.924484737089877"><ele>269.33333333333337</ele><time>2026-04-29T08:21:58.998Z</time></trkpt><trkpt lat="43.28213006977799" lon="27.92444908239864"><ele>269.0</ele><time>2026-04-29T08:21:59.998Z</time></trkpt><trkpt lat="43.28221426550273" lon="27.924404264432027"><ele>269.1666666666667</ele><time>2026-04-29T08:22:00.998Z</time></trkpt><trkpt lat="43.28230660338777" lon="27.924368013932998"><ele>269.33333333333337</ele><time>2026-04-29T08:22:01.998Z</time></trkpt><trkpt lat="43.28239438790375" lon="27.924325168249695"><ele>269.5</ele><time>2026-04-29T08:22:02.998Z</time></trkpt><trkpt lat="43.282477537659545" lon="27.924285320058676"><ele>269.6666666666667</ele><time>2026-04-29T08:22:03.998Z</time></trkpt><trkpt lat="43.282539285678446" lon="27.92424934980498"><ele>269.8333333333333</ele><time>2026-04-29T08:22:04.998Z</time></trkpt><trkpt lat="43.282580127422776" lon="27.92418179838428"><ele>270.0</ele><time>2026-04-29T08:22:05.998Z</time></trkpt><trkpt lat="43.28264988475387" lon="27.92412373323844"><ele>270.0</ele><time>2026-04-29T08:22:07.998Z</time></trkpt><trkpt lat="43.28271226689536" lon="27.924098603280964"><ele>270.0</ele><time>2026-04-29T08:23:43.999Z</time></trkpt><trkpt lat="43.28276644971005" lon="27.92399592572404"><ele>270.0</ele><time>2026-04-29T08:23:45.999Z</time></trkpt><trkpt lat="43.28284907140855" lon="27.923881181691815"><ele>270.0</ele><time>2026-04-29T08:23:47.999Z</time></trkpt><trkpt lat="43.28293765017252" lon="27.923764282153556"><ele>270.0</ele><time>2026-04-29T08:23:49.998Z</time></trkpt><trkpt lat="43.28301223398744" lon="27.92369549055345"><ele>270.0</ele><time>2026-04-29T08:23:51.998Z</time></trkpt><trkpt lat="43.2830645695353" lon="27.92364473065244"><ele>270.0</ele><time>2026-04-29T08:23:54.998Z</time></trkpt><trkpt lat="43.28312133138896" lon="27.923530240858273"><ele>270.0</ele><time>2026-04-29T08:23:57.998Z</time></trkpt><trkpt lat="43.28316869538022" lon="27.923436344936228"><ele>270.0</ele><time>2026-04-29T08:23:59.998Z</time></trkpt><trkpt lat="43.283214822693694" lon="27.92334404164744"><ele>270.0</ele><time>2026-04-29T08:24:02.998Z</time></trkpt><trkpt lat="43.28327572227489" lon="27.923221780897492"><ele>270.0</ele><time>2026-04-29T08:24:05.998Z</time></trkpt><trkpt lat="43.28331604835499" lon="27.923139890188008"><ele>269.57142857142856</ele><time>2026-04-29T08:24:08.998Z</time></trkpt><trkpt lat="43.2833788460998" lon="27.923037369923648"><ele>269.1428571428571</ele><time>2026-04-29T08:24:11.998Z</time></trkpt><trkpt lat="43.283428515673364" lon="27.922950881604535"><ele>268.7142857142857</ele><time>2026-04-29T08:24:13.998Z</time></trkpt><trkpt lat="43.28346989274462" lon="27.922880998187456"><ele>268.2857142857143</ele><time>2026-04-29T08:24:18Z</time></trkpt><trkpt lat="43.28351234833446" lon="27.92281663587864"><ele>267.8571428571429</ele><time>2026-04-29T08:24:20Z</time></trkpt><trkpt lat="43.28356230413516" lon="27.922740852985452"><ele>267.42857142857144</ele><time>2026-04-29T08:24:22Z</time></trkpt><trkpt lat="43.28357965051288" lon="27.92265267412876"><ele>267.0</ele><time>2026-04-29T08:24:25Z</time></trkpt><trkpt lat="43.2836390356833" lon="27.922623049470346"><ele>267.0</ele><time>2026-04-29T08:24:27Z</time></trkpt><trkpt lat="43.28372421434863" lon="27.92258101304752"><ele>267.0</ele><time>2026-04-29T08:24:30Z</time></trkpt><trkpt lat="43.283799893131146" lon="27.922544037385034"><ele>267.0</ele><time>2026-04-29T08:24:32Z</time></trkpt><trkpt lat="43.283870518520544" lon="27.922509525905987"><ele>267.0</ele><time>2026-04-29T08:24:35Z</time></trkpt><trkpt lat="43.28393014589686" lon="27.92248038303904"><ele>267.0</ele><time>2026-04-29T08:24:37Z</time></trkpt><trkpt lat="43.28400898679515" lon="27.922426625607557"><ele>267.0</ele><time>2026-04-29T08:24:40Z</time></trkpt><trkpt lat="43.284133019132646" lon="27.9223719155989"><ele>266.2</ele><time>2026-04-29T08:24:42Z</time></trkpt><trkpt lat="43.284203163346895" lon="27.922340598480144"><ele>265.4</ele><time>2026-04-29T08:24:43Z</time></trkpt><trkpt lat="43.284265578901085" lon="27.92230891373887"><ele>264.6</ele><time>2026-04-29T08:24:44Z</time></trkpt><trkpt lat="43.28433936100068" lon="27.922286675300864"><ele>263.8</ele><time>2026-04-29T08:24:45Z</time></trkpt><trkpt lat="43.28445030385911" lon="27.922231620840716"><ele>263.0</ele><time>2026-04-29T08:24:47Z</time></trkpt><trkpt lat="43.28454697964911" lon="27.922137988204344"><ele>263.0</ele><time>2026-04-29T08:24:49Z</time></trkpt><trkpt lat="43.284639590822195" lon="27.922056313099482"><ele>263.0</ele><time>2026-04-29T08:24:51Z</time></trkpt><trkpt lat="43.28472666896785" lon="27.9219788580491"><ele>263.0</ele><time>2026-04-29T08:24:53Z</time></trkpt><trkpt lat="43.284825582092886" lon="27.921918041551308"><ele>263.0</ele><time>2026-04-29T08:24:55Z</time></trkpt><trkpt lat="43.284921830521235" lon="27.921870248185787"><ele>263.0</ele><time>2026-04-29T08:24:57Z</time></trkpt><trkpt lat="43.284916015518405" lon="27.92176646564465"><ele>264.0</ele><time>2026-04-29T08:24:59.999Z</time></trkpt><trkpt lat="43.28495720875835" lon="27.921643847911263"><ele>265.0</ele><time>2026-04-29T08:25:02.999Z</time></trkpt><trkpt lat="43.28500958777215" lon="27.92151637879424"><ele>266.0</ele><time>2026-04-29T08:25:04.999Z</time></trkpt><trkpt lat="43.2850415751139" lon="27.921438284564555"><ele>267.0</ele><time>2026-04-29T08:25:05.999Z</time></trkpt><trkpt lat="43.28507604010832" lon="27.921354141530202"><ele>268.0</ele><time>2026-04-29T08:25:06.999Z</time></trkpt><trkpt lat="43.285111412302804" lon="27.92126770464868"><ele>269.0</ele><time>2026-04-29T08:25:07.999Z</time></trkpt><trkpt lat="43.28516727603192" lon="27.92116205853304"><ele>269.0</ele><time>2026-04-29T08:25:09.999Z</time></trkpt><trkpt lat="43.28520558552495" lon="27.921033808964765"><ele>269.0</ele><time>2026-04-29T08:25:11.999Z</time></trkpt><trkpt lat="43.28524781738985" lon="27.920927227076668"><ele>269.0</ele><time>2026-04-29T08:25:13.999Z</time></trkpt><trkpt lat="43.28529144478913" lon="27.920817080847645"><ele>269.0</ele><time>2026-04-29T08:25:15.999Z</time></trkpt><trkpt lat="43.28537715700345" lon="27.920634364444147"><ele>269.0</ele><time>2026-04-29T08:25:16.999Z</time></trkpt><trkpt lat="43.285430519580856" lon="27.920547469257038"><ele>268.4</ele><time>2026-04-29T08:25:18.999Z</time></trkpt><trkpt lat="43.28549918440927" lon="27.920435655805463"><ele>267.79999999999995</ele><time>2026-04-29T08:25:21.999Z</time></trkpt><trkpt lat="43.28557119953764" lon="27.920318386906715"><ele>267.20000000000005</ele><time>2026-04-29T08:25:23.999Z</time></trkpt><trkpt lat="43.28567403542555" lon="27.920179431427364"><ele>266.6</ele><time>2026-04-29T08:25:24.999Z</time></trkpt><trkpt lat="43.28573079963992" lon="27.920110726053952"><ele>266.0</ele><time>2026-04-29T08:25:25.999Z</time></trkpt><trkpt lat="43.28583192996448" lon="27.919988723550247"><ele>267.0</ele><time>2026-04-29T08:25:27.999Z</time></trkpt><trkpt lat="43.28587938352245" lon="27.919930736892514"><ele>268.0</ele><time>2026-04-29T08:25:28.999Z</time></trkpt><trkpt lat="43.28593466976361" lon="27.91986053564345"><ele>269.0</ele><time>2026-04-29T08:25:29.999Z</time></trkpt><trkpt lat="43.285995874347776" lon="27.91978297020116"><ele>270.0</ele><time>2026-04-29T08:25:30.999Z</time></trkpt><trkpt lat="43.286056527409265" lon="27.919706118389897"><ele>271.0</ele><time>2026-04-29T08:25:31.999Z</time></trkpt><trkpt lat="43.28611180358695" lon="27.919636079559776"><ele>272.0</ele><time>2026-04-29T08:25:32.999Z</time></trkpt><trkpt lat="43.28622100672019" lon="27.919522928244035"><ele>272.0</ele><time>2026-04-29T08:25:33.999Z</time></trkpt><trkpt lat="43.286314266812056" lon="27.919439285955846"><ele>272.0</ele><time>2026-04-29T08:25:35.999Z</time></trkpt><trkpt lat="43.28637185538239" lon="27.919387636462027"><ele>272.0</ele><time>2026-04-29T08:25:36.999Z</time></trkpt><trkpt lat="43.28649335890147" lon="27.919298498854825"><ele>272.0</ele><time>2026-04-29T08:25:37.999Z</time></trkpt><trkpt lat="43.28659187425639" lon="27.91924263275324"><ele>272.0</ele><time>2026-04-29T08:25:39.999Z</time></trkpt><trkpt lat="43.286688590716544" lon="27.91918752096938"><ele>271.6666666666667</ele><time>2026-04-29T08:25:41.999Z</time></trkpt><trkpt lat="43.28674965010084" lon="27.919152727538314"><ele>271.3333333333333</ele><time>2026-04-29T08:26:06.998Z</time></trkpt><trkpt lat="43.28682379767337" lon="27.91911045280227"><ele>271.0</ele><time>2026-04-29T08:26:08.998Z</time></trkpt><trkpt lat="43.28719601762959" lon="27.919075109732937"><ele>267.3333333333333</ele><time>2026-04-29T08:26:16.998Z</time></trkpt><trkpt lat="43.28731814872931" lon="27.919065119113846"><ele>263.6666666666667</ele><time>2026-04-29T08:26:18.998Z</time></trkpt><trkpt lat="43.28739373450613" lon="27.919013016397493"><ele>260.0</ele><time>2026-04-29T08:26:21Z</time></trkpt><trkpt lat="43.28762126339811" lon="27.919344857353707"><ele>260.0</ele><time>2026-04-29T08:26:23Z</time></trkpt><trkpt lat="43.28766769717029" lon="27.919253938036974"><ele>260.0</ele><time>2026-04-29T08:26:25Z</time></trkpt><trkpt lat="43.28772775072821" lon="27.91918178564898"><ele>260.0</ele><time>2026-04-29T08:26:28Z</time></trkpt><trkpt lat="43.2877547961173" lon="27.919103073472883"><ele>260.0</ele><time>2026-04-29T08:26:31Z</time></trkpt><trkpt lat="43.28778790186218" lon="27.919016232578127"><ele>260.0</ele><time>2026-04-29T08:26:36Z</time></trkpt><trkpt lat="43.28784556267133" lon="27.918917327095375"><ele>260.0</ele><time>2026-04-29T08:26:38Z</time></trkpt><trkpt lat="43.287903971213204" lon="27.918767457396143"><ele>260.0</ele><time>2026-04-29T08:26:40Z</time></trkpt><trkpt lat="43.2879411107848" lon="27.91869365864101"><ele>260.0</ele><time>2026-04-29T08:26:41Z</time></trkpt><trkpt lat="43.287980820606904" lon="27.918617370643684"><ele>260.0</ele><time>2026-04-29T08:26:42Z</time></trkpt><trkpt lat="43.288001311485154" lon="27.91853180085704"><ele>260.0</ele><time>2026-04-29T08:26:43Z</time></trkpt><trkpt lat="43.288034445969465" lon="27.918397041489335"><ele>260.0</ele><time>2026-04-29T08:26:45Z</time></trkpt><trkpt lat="43.28803907360556" lon="27.918301352688204"><ele>260.0</ele><time>2026-04-29T08:26:47Z</time></trkpt><trkpt lat="43.288061143098915" lon="27.918177032485687"><ele>260.6</ele><time>2026-04-29T08:26:50Z</time></trkpt><trkpt lat="43.288091650871976" lon="27.918068649540036"><ele>261.2</ele><time>2026-04-29T08:26:52Z</time></trkpt><trkpt lat="43.2881295347866" lon="27.91794480249994"><ele>261.8</ele><time>2026-04-29T08:26:54Z</time></trkpt><trkpt lat="43.28820198391814" lon="27.917863162945107"><ele>262.4</ele><time>2026-04-29T08:26:56Z</time></trkpt><trkpt lat="43.28830009694756" lon="27.917865296496313"><ele>263.0</ele><time>2026-04-29T08:26:58Z</time></trkpt><trkpt lat="43.288365382913206" lon="27.91793611580279"><ele>260.1666666666667</ele><time>2026-04-29T08:27:00Z</time></trkpt><trkpt lat="43.288409427201586" lon="27.918033894739295"><ele>257.33333333333337</ele><time>2026-04-29T08:27:02Z</time></trkpt><trkpt lat="43.28842492929825" lon="27.91813131854013"><ele>254.5</ele><time>2026-04-29T08:27:03.999Z</time></trkpt><trkpt lat="43.28843586608558" lon="27.91825527981122"><ele>251.66666666666669</ele><time>2026-04-29T08:27:05.999Z</time></trkpt><trkpt lat="43.28843381031328" lon="27.918374024425788"><ele>248.83333333333334</ele><time>2026-04-29T08:27:08.999Z</time></trkpt><trkpt lat="43.28846288722733" lon="27.918464292708812"><ele>246.0</ele><time>2026-04-29T08:27:10.999Z</time></trkpt><trkpt lat="43.28846738682765" lon="27.918603376244466"><ele>245.4</ele><time>2026-04-29T08:27:12.999Z</time></trkpt><trkpt lat="43.28848678409218" lon="27.918748062355004"><ele>244.8</ele><time>2026-04-29T08:27:14.999Z</time></trkpt><trkpt lat="43.28850723547419" lon="27.91887903622655"><ele>244.20000000000002</ele><time>2026-04-29T08:27:16.999Z</time></trkpt><trkpt lat="43.288512724107115" lon="27.919011880996976"><ele>243.60000000000002</ele><time>2026-04-29T08:27:18.999Z</time></trkpt><trkpt lat="43.288527196076664" lon="27.91911555718155"><ele>243.0</ele><time>2026-04-29T08:27:20.999Z</time></trkpt><trkpt lat="43.288551436566856" lon="27.919208364447314"><ele>241.5</ele><time>2026-04-29T08:27:22.999Z</time></trkpt><trkpt lat="43.28855285904357" lon="27.919336273967133"><ele>240.0</ele><time>2026-04-29T08:27:24.999Z</time></trkpt><trkpt lat="43.28853115236882" lon="27.919446533310477"><ele>238.5</ele><time>2026-04-29T08:27:26.999Z</time></trkpt><trkpt lat="43.288551014511405" lon="27.919539571497488"><ele>237.0</ele><time>2026-04-29T08:27:28.999Z</time></trkpt><trkpt lat="43.28855850105366" lon="27.919663166663067"><ele>235.5</ele><time>2026-04-29T08:27:30.999Z</time></trkpt><trkpt lat="43.28856489931775" lon="27.91976821910547"><ele>234.0</ele><time>2026-04-29T08:27:32.999Z</time></trkpt><trkpt lat="43.28861736249287" lon="27.91983576288211"><ele>234.0</ele><time>2026-04-29T08:27:35.999Z</time></trkpt><trkpt lat="43.28863138901006" lon="27.919931358183266"><ele>234.0</ele><time>2026-04-29T08:27:46.999Z</time></trkpt><trkpt lat="43.28860837208249" lon="27.920081041390535"><ele>234.0</ele><time>2026-04-29T08:27:49.999Z</time></trkpt><trkpt lat="43.28861423565045" lon="27.920202342152773"><ele>234.0</ele><time>2026-04-29T08:27:51.999Z</time></trkpt><trkpt lat="43.288601993077485" lon="27.920290917955487"><ele>234.0</ele><time>2026-04-29T08:27:54.999Z</time></trkpt><trkpt lat="43.28859814048171" lon="27.920174749699783"><ele>234.0</ele><time>2026-04-29T08:34:03.999Z</time></trkpt><trkpt lat="43.28862390293053" lon="27.920073541493753"><ele>234.0</ele><time>2026-04-29T08:34:05.999Z</time></trkpt><trkpt lat="43.28864703342615" lon="27.919925930115518"><ele>233.99999999999997</ele><time>2026-04-29T08:34:06.999Z</time></trkpt><trkpt lat="43.28867115852603" lon="27.919803047465464"><ele>233.99999999999997</ele><time>2026-04-29T08:34:07.999Z</time></trkpt><trkpt lat="43.28861020524989" lon="27.919658372060262"><ele>234.0</ele><time>2026-04-29T08:34:09.999Z</time></trkpt><trkpt lat="43.28860308842207" lon="27.919513703212438"><ele>234.0</ele><time>2026-04-29T08:34:11.999Z</time></trkpt><trkpt lat="43.28852741102838" lon="27.919417032575858"><ele>234.0</ele><time>2026-04-29T08:34:14.999Z</time></trkpt><trkpt lat="43.288534694804554" lon="27.919281296184707"><ele>233.99999999999997</ele><time>2026-04-29T08:34:16.999Z</time></trkpt><trkpt lat="43.2885407767811" lon="27.919155486379974"><ele>233.99999999999997</ele><time>2026-04-29T08:34:18.999Z</time></trkpt><trkpt lat="43.288507232428245" lon="27.919031365605"><ele>234.0</ele><time>2026-04-29T08:34:20.998Z</time></trkpt><trkpt lat="43.288493873989715" lon="27.918915512230654"><ele>234.0</ele><time>2026-04-29T08:34:22.998Z</time></trkpt><trkpt lat="43.28847393177991" lon="27.91875968035615"><ele>235.5</ele><time>2026-04-29T08:34:24.998Z</time></trkpt><trkpt lat="43.28846329140332" lon="27.918635871201225"><ele>237.0</ele><time>2026-04-29T08:34:26.998Z</time></trkpt><trkpt lat="43.28844051801954" lon="27.918541222979687"><ele>238.5</ele><time>2026-04-29T08:34:28.998Z</time></trkpt><trkpt lat="43.28843618967827" lon="27.918453391624027"><ele>240.0</ele><time>2026-04-29T08:34:31.998Z</time></trkpt><trkpt lat="43.28842262856197" lon="27.918351836046746"><ele>241.5</ele><time>2026-04-29T08:34:33.998Z</time></trkpt><trkpt lat="43.28841996477376" lon="27.91824447805533"><ele>243.0</ele><time>2026-04-29T08:34:35.998Z</time></trkpt><trkpt lat="43.288410034680396" lon="27.91810238748901"><ele>243.5</ele><time>2026-04-29T08:34:37.998Z</time></trkpt><trkpt lat="43.28837624862939" lon="27.91800969566283"><ele>244.0</ele><time>2026-04-29T08:34:40.998Z</time></trkpt><trkpt lat="43.28831151526901" lon="27.917904285854274"><ele>244.5</ele><time>2026-04-29T08:34:43.998Z</time></trkpt><trkpt lat="43.28823371049788" lon="27.917886914932865"><ele>245.0</ele><time>2026-04-29T08:34:46Z</time></trkpt><trkpt lat="43.28816194428453" lon="27.917938792020795"><ele>245.5</ele><time>2026-04-29T08:34:48Z</time></trkpt><trkpt lat="43.28812788001776" lon="27.91803833637498"><ele>246.0</ele><time>2026-04-29T08:34:52Z</time></trkpt><trkpt lat="43.28810651655056" lon="27.918138776378772"><ele>246.0</ele><time>2026-04-29T08:34:55Z</time></trkpt><trkpt lat="43.28811344671782" lon="27.91824950048073"><ele>246.0</ele><time>2026-04-29T08:35:39.999Z</time></trkpt><trkpt lat="43.28809000662396" lon="27.918388292171887"><ele>246.0</ele><time>2026-04-29T08:35:41.999Z</time></trkpt><trkpt lat="43.28807793653545" lon="27.91847493265156"><ele>246.0</ele><time>2026-04-29T08:35:42.999Z</time></trkpt><trkpt lat="43.2880505729692" lon="27.91857988524291"><ele>246.0</ele><time>2026-04-29T08:35:43.999Z</time></trkpt><trkpt lat="43.288017215487216" lon="27.918713349830877"><ele>246.0</ele><time>2026-04-29T08:35:45.999Z</time></trkpt><trkpt lat="43.28797281536569" lon="27.918801055068677"><ele>246.60000000000002</ele><time>2026-04-29T08:35:46.999Z</time></trkpt><trkpt lat="43.28793133605216" lon="27.918894093349355"><ele>247.20000000000002</ele><time>2026-04-29T08:35:47.999Z</time></trkpt><trkpt lat="43.28788748187374" lon="27.91897571615551"><ele>247.79999999999998</ele><time>2026-04-29T08:35:48.999Z</time></trkpt><trkpt lat="43.28789864817371" lon="27.919076604842044"><ele>248.39999999999998</ele><time>2026-04-29T08:35:50.999Z</time></trkpt><trkpt lat="43.28790731386746" lon="27.91924640574896"><ele>249.0</ele><time>2026-04-29T08:35:52.999Z</time></trkpt><trkpt lat="43.28790454248287" lon="27.919421342648352"><ele>249.0</ele><time>2026-04-29T08:35:54.999Z</time></trkpt><trkpt lat="43.28791584144635" lon="27.919575589255867"><ele>248.99999999999997</ele><time>2026-04-29T08:35:56.999Z</time></trkpt><trkpt lat="43.28789592858782" lon="27.91966741772507"><ele>248.99999999999997</ele><time>2026-04-29T08:35:57.999Z</time></trkpt><trkpt lat="43.287869694630594" lon="27.91979702735413"><ele>249.0</ele><time>2026-04-29T08:35:59.999Z</time></trkpt><trkpt lat="43.28777619629079" lon="27.919878840738534"><ele>249.0</ele><time>2026-04-29T08:36:01.999Z</time></trkpt><trkpt lat="43.287662435170205" lon="27.919937544589626"><ele>249.0</ele><time>2026-04-29T08:36:03.999Z</time></trkpt><trkpt lat="43.28755049491037" lon="27.91996616391312"><ele>248.99999999999997</ele><time>2026-04-29T08:36:05.999Z</time></trkpt><trkpt lat="43.287443641981284" lon="27.919983946012664"><ele>248.99999999999997</ele><time>2026-04-29T08:36:07.999Z</time></trkpt><trkpt lat="43.287364588560834" lon="27.919972534068563"><ele>249.0</ele><time>2026-04-29T08:36:09.999Z</time></trkpt><trkpt lat="43.287255391882574" lon="27.92000294245866"><ele>249.0</ele><time>2026-04-29T08:36:11.999Z</time></trkpt><trkpt lat="43.28714234116002" lon="27.919988848219322"><ele>247.83333333333334</ele><time>2026-04-29T08:36:13.999Z</time></trkpt><trkpt lat="43.28704616806102" lon="27.919964891019195"><ele>246.66666666666669</ele><time>2026-04-29T08:36:15.999Z</time></trkpt><trkpt lat="43.286957905523096" lon="27.919971141714015"><ele>245.5</ele><time>2026-04-29T08:36:17.999Z</time></trkpt><trkpt lat="43.2868853559381" lon="27.92004119346873"><ele>244.33333333333334</ele><time>2026-04-29T08:36:19.999Z</time></trkpt><trkpt lat="43.28681167627113" lon="27.92007349762349"><ele>243.16666666666669</ele><time>2026-04-29T08:36:21.999Z</time></trkpt><trkpt lat="43.286749632473224" lon="27.92009784952118"><ele>242.0</ele><time>2026-04-29T08:36:23.998Z</time></trkpt><trkpt lat="43.28668614120569" lon="27.920127026571386"><ele>242.0</ele><time>2026-04-29T08:36:25.998Z</time></trkpt><trkpt lat="43.28663280692727" lon="27.920259333976574"><ele>242.0</ele><time>2026-04-29T08:36:27.998Z</time></trkpt><trkpt lat="43.28655377627547" lon="27.920378186172037"><ele>242.0</ele><time>2026-04-29T08:36:29.998Z</time></trkpt><trkpt lat="43.28650462359548" lon="27.920490809273783"><ele>242.0</ele><time>2026-04-29T08:36:31.998Z</time></trkpt><trkpt lat="43.28642534890892" lon="27.920596681816637"><ele>242.0</ele><time>2026-04-29T08:36:33.998Z</time></trkpt><trkpt lat="43.28636637668113" lon="27.920627934927932"><ele>244.6</ele><time>2026-04-29T08:36:34.998Z</time></trkpt><trkpt lat="43.28626791581769" lon="27.920715772768755"><ele>247.2</ele><time>2026-04-29T08:36:36.998Z</time></trkpt><trkpt lat="43.286206716974526" lon="27.920827169154922"><ele>249.8</ele><time>2026-04-29T08:36:38.998Z</time></trkpt><trkpt lat="43.286158461568625" lon="27.920913219120056"><ele>252.4</ele><time>2026-04-29T08:36:39.998Z</time></trkpt><trkpt lat="43.2861181342935" lon="27.920980615567977"><ele>255.0</ele><time>2026-04-29T08:36:40.998Z</time></trkpt><trkpt lat="43.28604119195257" lon="27.92108327749187"><ele>255.0</ele><time>2026-04-29T08:36:42.998Z</time></trkpt><trkpt lat="43.28598551678242" lon="27.921183929502018"><ele>255.0</ele><time>2026-04-29T08:36:44.998Z</time></trkpt><trkpt lat="43.28592467321647" lon="27.921215827307904"><ele>255.0</ele><time>2026-04-29T08:36:46.998Z</time></trkpt><trkpt lat="43.28598640639995" lon="27.92112445977722"><ele>255.0</ele><time>2026-04-29T08:37:15Z</time></trkpt><trkpt lat="43.28603180542421" lon="27.921054363171468"><ele>255.0</ele><time>2026-04-29T08:37:17Z</time></trkpt><trkpt lat="43.28613478653578" lon="27.920967269476694"><ele>255.0</ele><time>2026-04-29T08:37:19Z</time></trkpt><trkpt lat="43.28618283698419" lon="27.920852866370733"><ele>257.2</ele><time>2026-04-29T08:37:21Z</time></trkpt><trkpt lat="43.28621898306891" lon="27.92074781383796"><ele>259.4</ele><time>2026-04-29T08:37:23Z</time></trkpt><trkpt lat="43.28629662159955" lon="27.92065445352005"><ele>261.6</ele><time>2026-04-29T08:37:24.999Z</time></trkpt><trkpt lat="43.28638028947652" lon="27.920577204985605"><ele>263.8</ele><time>2026-04-29T08:37:28.999Z</time></trkpt><trkpt lat="43.286471236053025" lon="27.920517346635503"><ele>266.0</ele><time>2026-04-29T08:37:30.999Z</time></trkpt><trkpt lat="43.286518629117296" lon="27.920408850531647"><ele>265.1666666666667</ele><time>2026-04-29T08:37:32.999Z</time></trkpt><trkpt lat="43.28653775570317" lon="27.92031220114674"><ele>264.33333333333337</ele><time>2026-04-29T08:37:34.999Z</time></trkpt><trkpt lat="43.28659407445322" lon="27.920232094583213"><ele>263.5</ele><time>2026-04-29T08:37:36.999Z</time></trkpt><trkpt lat="43.286646898239326" lon="27.92015055985481"><ele>262.6666666666667</ele><time>2026-04-29T08:37:38.999Z</time></trkpt><trkpt lat="43.28669752003687" lon="27.920080751174083"><ele>261.8333333333333</ele><time>2026-04-29T08:37:40.999Z</time></trkpt><trkpt lat="43.286767775478246" lon="27.920049822102843"><ele>261.0</ele><time>2026-04-29T08:37:42.999Z</time></trkpt><trkpt lat="43.28685997737009" lon="27.92002205708724"><ele>261.0</ele><time>2026-04-29T08:37:45.999Z</time></trkpt><trkpt lat="43.286936798413194" lon="27.919961189194005"><ele>261.0</ele><time>2026-04-29T08:37:47.999Z</time></trkpt><trkpt lat="43.287023435839835" lon="27.919954577929502"><ele>261.0</ele><time>2026-04-29T08:37:49.999Z</time></trkpt><trkpt lat="43.28711164545591" lon="27.91995787813822"><ele>261.0</ele><time>2026-04-29T08:37:52.999Z</time></trkpt><trkpt lat="43.287194559714216" lon="27.919987443185207"><ele>261.0</ele><time>2026-04-29T08:37:56.999Z</time></trkpt><trkpt lat="43.287285827334614" lon="27.9199694795725"><ele>261.0</ele><time>2026-04-29T08:38:00.999Z</time></trkpt><trkpt lat="43.28736411724163" lon="27.919945628263093"><ele>258.6</ele><time>2026-04-29T08:38:02.999Z</time></trkpt><trkpt lat="43.287458537899404" lon="27.91993765434538"><ele>256.20000000000005</ele><time>2026-04-29T08:38:04.999Z</time></trkpt><trkpt lat="43.28756326726526" lon="27.919938298076875"><ele>253.79999999999998</ele><time>2026-04-29T08:38:06.999Z</time></trkpt><trkpt lat="43.28766574594496" lon="27.91991139734246"><ele>251.39999999999998</ele><time>2026-04-29T08:38:08.999Z</time></trkpt><trkpt lat="43.287742862129356" lon="27.91983872258542"><ele>249.0</ele><time>2026-04-29T08:38:10.999Z</time></trkpt><trkpt lat="43.287813665485345" lon="27.919743968651883"><ele>249.0</ele><time>2026-04-29T08:38:12.999Z</time></trkpt><trkpt lat="43.28785311972002" lon="27.91965619444436"><ele>248.99999999999997</ele><time>2026-04-29T08:38:14.999Z</time></trkpt><trkpt lat="43.28784811247576" lon="27.919530133730774"><ele>248.99999999999997</ele><time>2026-04-29T08:38:16.999Z</time></trkpt><trkpt lat="43.28785025923768" lon="27.919372643546918"><ele>249.0</ele><time>2026-04-29T08:38:18.999Z</time></trkpt><trkpt lat="43.28784398589757" lon="27.919224358806925"><ele>249.0</ele><time>2026-04-29T08:38:20.999Z</time></trkpt><trkpt lat="43.28787464534794" lon="27.919105166513383"><ele>249.0</ele><time>2026-04-29T08:38:22.999Z</time></trkpt><trkpt lat="43.28784226584102" lon="27.919004245762714"><ele>249.0</ele><time>2026-04-29T08:38:25.998Z</time></trkpt><trkpt lat="43.28779129809119" lon="27.919057846157386"><ele>249.0</ele><time>2026-04-29T08:38:27.998Z</time></trkpt><trkpt lat="43.28775925033481" lon="27.919163015899297"><ele>249.0</ele><time>2026-04-29T08:38:31.998Z</time></trkpt><trkpt lat="43.28771898558372" lon="27.919242597363223"><ele>249.0</ele><time>2026-04-29T08:38:33.998Z</time></trkpt><trkpt lat="43.28767916295274" lon="27.9193209795811"><ele>249.0</ele><time>2026-04-29T08:38:35.998Z</time></trkpt><trkpt lat="43.287598945355526" lon="27.919419638219743"><ele>249.0</ele><time>2026-04-29T08:38:37.998Z</time></trkpt><trkpt lat="43.28756368045548" lon="27.91950095197013"><ele>249.0</ele><time>2026-04-29T08:38:40.998Z</time></trkpt><trkpt lat="43.28750556401626" lon="27.919453000550558"><ele>249.0</ele><time>2026-04-29T08:39:03Z</time></trkpt><trkpt lat="43.287546718360474" lon="27.919357287263416"><ele>249.0</ele><time>2026-04-29T08:39:05Z</time></trkpt><trkpt lat="43.28751406564978" lon="27.91928235948679"><ele>249.0</ele><time>2026-04-29T08:39:07Z</time></trkpt><trkpt lat="43.287520123667186" lon="27.919194622259546"><ele>249.0</ele><time>2026-04-29T08:39:08Z</time></trkpt><trkpt lat="43.287576995040084" lon="27.919070272031032"><ele>250.83333333333334</ele><time>2026-04-29T08:39:10Z</time></trkpt><trkpt lat="43.287567179334424" lon="27.918929346645402"><ele>252.66666666666669</ele><time>2026-04-29T08:39:12Z</time></trkpt><trkpt lat="43.28757404049575" lon="27.918827154394574"><ele>254.5</ele><time>2026-04-29T08:39:14Z</time></trkpt><trkpt lat="43.2875664142121" lon="27.918708316964523"><ele>256.33333333333337</ele><time>2026-04-29T08:39:16Z</time></trkpt><trkpt lat="43.28753136598982" lon="27.918636418873632"><ele>258.1666666666667</ele><time>2026-04-29T08:39:18Z</time></trkpt><trkpt lat="43.28748014477442" lon="27.918568942969166"><ele>260.0</ele><time>2026-04-29T08:39:20Z</time></trkpt><trkpt lat="43.28741763042844" lon="27.918489072144077"><ele>260.0</ele><time>2026-04-29T08:39:22Z</time></trkpt><trkpt lat="43.287358441857734" lon="27.918418365834622"><ele>260.0</ele><time>2026-04-29T08:39:24Z</time></trkpt><trkpt lat="43.28730348317768" lon="27.918345530409432"><ele>260.0</ele><time>2026-04-29T08:39:26Z</time></trkpt><trkpt lat="43.28722255543389" lon="27.918240460955644"><ele>260.0</ele><time>2026-04-29T08:39:28Z</time></trkpt><trkpt lat="43.28717147218564" lon="27.918138381340224"><ele>260.0</ele><time>2026-04-29T08:39:29Z</time></trkpt><trkpt lat="43.28706530064669" lon="27.91809393433231"><ele>262.8</ele><time>2026-04-29T08:39:30Z</time></trkpt><trkpt lat="43.28699886942825" lon="27.917982042540057"><ele>265.6</ele><time>2026-04-29T08:39:32Z</time></trkpt><trkpt lat="43.28693507757036" lon="27.917875264305266"><ele>268.4</ele><time>2026-04-29T08:39:34Z</time></trkpt><trkpt lat="43.28686400900722" lon="27.91775603769485"><ele>271.2</ele><time>2026-04-29T08:39:36Z</time></trkpt><trkpt lat="43.28679431575346" lon="27.91769886056741"><ele>274.0</ele><time>2026-04-29T08:39:38.999Z</time></trkpt><trkpt lat="43.28673516251466" lon="27.91766669195735"><ele>274.0</ele><time>2026-04-29T08:39:41.999Z</time></trkpt><trkpt lat="43.286686894483346" lon="27.917597006550796"><ele>274.0</ele><time>2026-04-29T08:39:42.999Z</time></trkpt><trkpt lat="43.28660397076388" lon="27.917638421967705"><ele>274.0</ele><time>2026-04-29T08:39:44.999Z</time></trkpt><trkpt lat="43.28653092898166" lon="27.917674901504288"><ele>274.0</ele><time>2026-04-29T08:39:46.999Z</time></trkpt><trkpt lat="43.286463373401716" lon="27.91770865975622"><ele>274.0</ele><time>2026-04-29T08:39:48.999Z</time></trkpt><trkpt lat="43.286365261453255" lon="27.917769649320412"><ele>274.0</ele><time>2026-04-29T08:39:50.999Z</time></trkpt><trkpt lat="43.28627514285169" lon="27.91785587216406"><ele>275.42857142857144</ele><time>2026-04-29T08:39:52.999Z</time></trkpt><trkpt lat="43.28619420664412" lon="27.91788754431895"><ele>276.8571428571429</ele><time>2026-04-29T08:39:55.999Z</time></trkpt><trkpt lat="43.2861219838985" lon="27.917893810231224"><ele>278.2857142857143</ele><time>2026-04-29T08:39:57.999Z</time></trkpt><trkpt lat="43.28606103623495" lon="27.917915534344413"><ele>279.7142857142857</ele><time>2026-04-29T08:40:00.999Z</time></trkpt><trkpt lat="43.285992319175705" lon="27.91794025573171"><ele>281.1428571428571</ele><time>2026-04-29T08:40:03.999Z</time></trkpt><trkpt lat="43.28591414422154" lon="27.917968379659406"><ele>282.57142857142856</ele><time>2026-04-29T08:40:06.999Z</time></trkpt><trkpt lat="43.28584828517635" lon="27.917992073101228"><ele>284.0</ele><time>2026-04-29T08:40:40.998Z</time></trkpt><trkpt lat="43.28573771636502" lon="27.918003228038213"><ele>284.0</ele><time>2026-04-29T08:40:42.998Z</time></trkpt><trkpt lat="43.28566885803025" lon="27.918013368389715"><ele>284.0</ele><time>2026-04-29T08:40:43.998Z</time></trkpt><trkpt lat="43.28559235087802" lon="27.91802647785129"><ele>284.0</ele><time>2026-04-29T08:40:44.998Z</time></trkpt><trkpt lat="43.28551985270367" lon="27.91804029683217"><ele>284.0</ele><time>2026-04-29T08:40:45.998Z</time></trkpt><trkpt lat="43.28544902646398" lon="27.918053436140486"><ele>284.0</ele><time>2026-04-29T08:40:46.998Z</time></trkpt><trkpt lat="43.285380563732495" lon="27.918065937512267"><ele>284.0</ele><time>2026-04-29T08:40:47.998Z</time></trkpt><trkpt lat="43.28530293785692" lon="27.918123669916373"><ele>284.0</ele><time>2026-04-29T08:40:48.998Z</time></trkpt><trkpt lat="43.28524264532141" lon="27.91817900009099"><ele>284.59999999999997</ele><time>2026-04-29T08:40:49.998Z</time></trkpt><trkpt lat="43.2851737683459" lon="27.918228693901654"><ele>285.2</ele><time>2026-04-29T08:40:51.998Z</time></trkpt><trkpt lat="43.28507349532934" lon="27.91829519176918"><ele>285.79999999999995</ele><time>2026-04-29T08:40:53.998Z</time></trkpt><trkpt lat="43.28502744313959" lon="27.91822159880275"><ele>286.4</ele><time>2026-04-29T08:40:54.998Z</time></trkpt><trkpt lat="43.28493683845617" lon="27.91813052598087"><ele>287.0</ele><time>2026-04-29T08:40:57.998Z</time></trkpt><trkpt lat="43.284860134987774" lon="27.91807812646708"><ele>287.0</ele><time>2026-04-29T08:40:59.998Z</time></trkpt><trkpt lat="43.284801275271036" lon="27.918043335492833"><ele>287.0</ele><time>2026-04-29T08:41:03Z</time></trkpt><trkpt lat="43.284717359944494" lon="27.918018019367395"><ele>287.0</ele><time>2026-04-29T08:41:06Z</time></trkpt><trkpt lat="43.284646326084456" lon="27.917996653771894"><ele>287.0</ele><time>2026-04-29T08:41:08Z</time></trkpt><trkpt lat="43.28454009024653" lon="27.917947144975585"><ele>287.0</ele><time>2026-04-29T08:41:09Z</time></trkpt><trkpt lat="43.28445884141281" lon="27.917977874490944"><ele>287.0</ele><time>2026-04-29T08:41:11Z</time></trkpt><trkpt lat="43.28438269526005" lon="27.918008604801535"><ele>287.8</ele><time>2026-04-29T08:41:13Z</time></trkpt><trkpt lat="43.28429153143857" lon="27.918044804890872"><ele>288.6</ele><time>2026-04-29T08:41:15Z</time></trkpt><trkpt lat="43.28418899041916" lon="27.918085226870016"><ele>289.40000000000003</ele><time>2026-04-29T08:41:17Z</time></trkpt><trkpt lat="43.28406465819662" lon="27.918134019885905"><ele>290.2</ele><time>2026-04-29T08:41:19Z</time></trkpt><trkpt lat="43.28400055507599" lon="27.9181596102791"><ele>291.0</ele><time>2026-04-29T08:41:20Z</time></trkpt><trkpt lat="43.28389318329777" lon="27.91819673611592"><ele>291.1666666666667</ele><time>2026-04-29T08:41:22Z</time></trkpt><trkpt lat="43.28379664667965" lon="27.91825854233192"><ele>291.3333333333333</ele><time>2026-04-29T08:41:24Z</time></trkpt><trkpt lat="43.28373294784372" lon="27.91827745319789"><ele>291.5</ele><time>2026-04-29T08:41:25Z</time></trkpt><trkpt lat="43.283669084111175" lon="27.91825110300974"><ele>291.66666666666663</ele><time>2026-04-29T08:41:26Z</time></trkpt><trkpt lat="43.283540656481534" lon="27.918244873886152"><ele>291.8333333333333</ele><time>2026-04-29T08:41:28Z</time></trkpt><trkpt lat="43.283467353239715" lon="27.91824131854305"><ele>292.0</ele><time>2026-04-29T08:41:29Z</time></trkpt><trkpt lat="43.283401846646086" lon="27.918215286427944"><ele>292.0</ele><time>2026-04-29T08:41:30Z</time></trkpt><trkpt lat="43.283335542920156" lon="27.918199155720853"><ele>292.0</ele><time>2026-04-29T08:41:31Z</time></trkpt><trkpt lat="43.28319860446453" lon="27.91819695902015"><ele>292.0</ele><time>2026-04-29T08:41:33Z</time></trkpt><trkpt lat="43.283128912170476" lon="27.918208625184505"><ele>292.0</ele><time>2026-04-29T08:41:34Z</time></trkpt><trkpt lat="43.28302700994976" lon="27.91821130797213"><ele>292.0</ele><time>2026-04-29T08:41:36Z</time></trkpt><trkpt lat="43.282941979731255" lon="27.91821130797211"><ele>292.0</ele><time>2026-04-29T08:41:38Z</time></trkpt><trkpt lat="43.2829348237214" lon="27.91811157880698"><ele>292.0</ele><time>2026-04-29T08:41:47Z</time></trkpt><trkpt lat="43.28303812140604" lon="27.918045383947245"><ele>292.0</ele><time>2026-04-29T08:41:50.999Z</time></trkpt><trkpt lat="43.28310546429544" lon="27.917991409680113"><ele>292.0</ele><time>2026-04-29T08:41:52.999Z</time></trkpt><trkpt lat="43.28316009126425" lon="27.917937746666595"><ele>292.0</ele><time>2026-04-29T08:41:54.999Z</time></trkpt><trkpt lat="43.28322122714879" lon="27.917880747811886"><ele>292.0</ele><time>2026-04-29T08:41:56.999Z</time></trkpt><trkpt lat="43.28328634203588" lon="27.917820773096924"><ele>292.0</ele><time>2026-04-29T08:41:58.999Z</time></trkpt><trkpt lat="43.28333961909547" lon="27.917752673525317"><ele>292.0</ele><time>2026-04-29T08:42:00.999Z</time></trkpt><trkpt lat="43.283400593255514" lon="27.91768595234235"><ele>292.0</ele><time>2026-04-29T08:42:02.999Z</time></trkpt><trkpt lat="43.28346054477039" lon="27.917626230162337"><ele>292.0</ele><time>2026-04-29T08:42:04.999Z</time></trkpt><trkpt lat="43.28354266035162" lon="27.9175728348535"><ele>292.0</ele><time>2026-04-29T08:42:06.999Z</time></trkpt><trkpt lat="43.28360231299284" lon="27.917485698200547"><ele>292.0</ele><time>2026-04-29T08:42:08.999Z</time></trkpt><trkpt lat="43.28365467298379" lon="27.917437390877254"><ele>292.16666666666663</ele><time>2026-04-29T08:42:10.999Z</time></trkpt><trkpt lat="43.283731768359615" lon="27.91738565901363"><ele>292.3333333333333</ele><time>2026-04-29T08:42:13.999Z</time></trkpt><trkpt lat="43.283798989030025" lon="27.917318556213363"><ele>292.5</ele><time>2026-04-29T08:42:15.999Z</time></trkpt><trkpt lat="43.28385312944272" lon="27.9172251140487"><ele>292.6666666666667</ele><time>2026-04-29T08:42:17.999Z</time></trkpt><trkpt lat="43.283918831846" lon="27.917148033569987"><ele>292.83333333333337</ele><time>2026-04-29T08:42:19.999Z</time></trkpt><trkpt lat="43.2839751269053" lon="27.91709296178248"><ele>293.0</ele><time>2026-04-29T08:42:21.999Z</time></trkpt><trkpt lat="43.28404153597668" lon="27.917018629842737"><ele>293.0</ele><time>2026-04-29T08:42:25.999Z</time></trkpt><trkpt lat="43.28410512328638" lon="27.91695703017053"><ele>293.0</ele><time>2026-04-29T08:42:27.999Z</time></trkpt><trkpt lat="43.28417985363958" lon="27.916870849819002"><ele>293.0</ele><time>2026-04-29T08:42:30.999Z</time></trkpt><trkpt lat="43.284245262942086" lon="27.91681275473291"><ele>293.0</ele><time>2026-04-29T08:42:32.999Z</time></trkpt><trkpt lat="43.28431422989177" lon="27.916740815165042"><ele>293.0</ele><time>2026-04-29T08:42:34.999Z</time></trkpt><trkpt lat="43.28438813027006" lon="27.916664176771036"><ele>293.0</ele><time>2026-04-29T08:42:37.999Z</time></trkpt><trkpt lat="43.284451199348936" lon="27.91663084392265"><ele>292.8</ele><time>2026-04-29T08:42:40.999Z</time></trkpt><trkpt lat="43.28451820512906" lon="27.916575688671973"><ele>292.6</ele><time>2026-04-29T08:42:48.998Z</time></trkpt><trkpt lat="43.2846100048234" lon="27.916501256261654"><ele>292.4</ele><time>2026-04-29T08:42:51.998Z</time></trkpt><trkpt lat="43.28470153007516" lon="27.91642520911864"><ele>292.2</ele><time>2026-04-29T08:42:53.998Z</time></trkpt><trkpt lat="43.28478823740218" lon="27.916290080999353"><ele>292.0</ele><time>2026-04-29T08:42:55.998Z</time></trkpt><trkpt lat="43.284817025200155" lon="27.91611613818645"><ele>292.0</ele><time>2026-04-29T08:42:57.998Z</time></trkpt><trkpt lat="43.28472758718644" lon="27.916033226600675"><ele>292.0</ele><time>2026-04-29T08:42:58.998Z</time></trkpt><trkpt lat="43.28475697048252" lon="27.915933428903863"><ele>292.0</ele><time>2026-04-29T08:43:11Z</time></trkpt><trkpt lat="43.28488794474949" lon="27.915930623330762"><ele>292.0</ele><time>2026-04-29T08:43:13Z</time></trkpt><trkpt lat="43.284989408209476" lon="27.915927885961477"><ele>292.0</ele><time>2026-04-29T08:43:14Z</time></trkpt><trkpt lat="43.285101721386155" lon="27.915921559038335"><ele>291.75</ele><time>2026-04-29T08:43:15Z</time></trkpt><trkpt lat="43.28521974022236" lon="27.91591784148962"><ele>291.5</ele><time>2026-04-29T08:43:16Z</time></trkpt><trkpt lat="43.28535111083915" lon="27.91591123355418"><ele>291.25</ele><time>2026-04-29T08:43:17Z</time></trkpt><trkpt lat="43.2854942343565" lon="27.91590380240005"><ele>291.0</ele><time>2026-04-29T08:43:18Z</time></trkpt><trkpt lat="43.28563640768973" lon="27.915896041770566"><ele>291.0</ele><time>2026-04-29T08:43:19Z</time></trkpt><trkpt lat="43.2857821541317" lon="27.915889734794884"><ele>291.0</ele><time>2026-04-29T08:43:20Z</time></trkpt><trkpt lat="43.28593291681196" lon="27.915905344901034"><ele>291.0</ele><time>2026-04-29T08:43:21Z</time></trkpt><trkpt lat="43.28608711271316" lon="27.915900351610475"><ele>291.0</ele><time>2026-04-29T08:43:22Z</time></trkpt><trkpt lat="43.28624545409904" lon="27.91589631055055"><ele>291.0</ele><time>2026-04-29T08:43:23Z</time></trkpt><trkpt lat="43.2864048748143" lon="27.915891559271298"><ele>291.0</ele><time>2026-04-29T08:43:24Z</time></trkpt><trkpt lat="43.28656095965946" lon="27.91587537451335"><ele>289.5</ele><time>2026-04-29T08:43:25Z</time></trkpt><trkpt lat="43.28671046517066" lon="27.91587950956475"><ele>288.0</ele><time>2026-04-29T08:43:26Z</time></trkpt><trkpt lat="43.28684744564422" lon="27.91587942103627"><ele>286.5</ele><time>2026-04-29T08:43:27Z</time></trkpt><trkpt lat="43.2869783897522" lon="27.91586190700704"><ele>285.0</ele><time>2026-04-29T08:43:28Z</time></trkpt><trkpt lat="43.28711278621867" lon="27.915852168976677"><ele>285.0</ele><time>2026-04-29T08:43:29Z</time></trkpt><trkpt lat="43.287240190855115" lon="27.915788417409782"><ele>285.0</ele><time>2026-04-29T08:43:30Z</time></trkpt><trkpt lat="43.28735700710236" lon="27.91571443859576"><ele>285.0</ele><time>2026-04-29T08:43:31Z</time></trkpt><trkpt lat="43.28746825813328" lon="27.91563948017279"><ele>285.0</ele><time>2026-04-29T08:43:32Z</time></trkpt><trkpt lat="43.287581578313976" lon="27.91559454798657"><ele>283.0</ele><time>2026-04-29T08:43:33Z</time></trkpt><trkpt lat="43.28770482186625" lon="27.915569140353867"><ele>281.0</ele><time>2026-04-29T08:43:34Z</time></trkpt><trkpt lat="43.28782649759516" lon="27.915570986521217"><ele>279.0</ele><time>2026-04-29T08:43:35Z</time></trkpt><trkpt lat="43.28796167859916" lon="27.91555597906193"><ele>277.0</ele><time>2026-04-29T08:43:36Z</time></trkpt><trkpt lat="43.2880933402951" lon="27.915587500556295"><ele>274.0</ele><time>2026-04-29T08:43:37Z</time></trkpt><trkpt lat="43.288232998402876" lon="27.915583502256823"><ele>271.0</ele><time>2026-04-29T08:43:38Z</time></trkpt><trkpt lat="43.288366475801006" lon="27.91554893411471"><ele>268.0</ele><time>2026-04-29T08:43:39Z</time></trkpt><trkpt lat="43.28850333549548" lon="27.915472697941755"><ele>265.0</ele><time>2026-04-29T08:43:40Z</time></trkpt><trkpt lat="43.288631334837376" lon="27.915395737200303"><ele>265.0</ele><time>2026-04-29T08:43:41Z</time></trkpt><trkpt lat="43.28876175706071" lon="27.91531835069781"><ele>265.0</ele><time>2026-04-29T08:43:42Z</time></trkpt><trkpt lat="43.28888415864294" lon="27.915246564896595"><ele>265.0</ele><time>2026-04-29T08:43:43Z</time></trkpt><trkpt lat="43.28900448755273" lon="27.91517993905357"><ele>265.0</ele><time>2026-04-29T08:43:44Z</time></trkpt><trkpt lat="43.2891261610247" lon="27.915081635095035"><ele>265.25</ele><time>2026-04-29T08:43:45Z</time></trkpt><trkpt lat="43.289238395231266" lon="27.914977731784912"><ele>265.5</ele><time>2026-04-29T08:43:46Z</time></trkpt><trkpt lat="43.289347983794976" lon="27.914854797489994"><ele>265.75</ele><time>2026-04-29T08:43:47Z</time></trkpt><trkpt lat="43.2894544504392" lon="27.914732138539023"><ele>266.0</ele><time>2026-04-29T08:43:48Z</time></trkpt><trkpt lat="43.28955939289984" lon="27.914610681090014"><ele>266.0</ele><time>2026-04-29T08:43:49Z</time></trkpt><trkpt lat="43.28968130497058" lon="27.91452643958188"><ele>266.0</ele><time>2026-04-29T08:43:50Z</time></trkpt><trkpt lat="43.28980732965699" lon="27.914441977058797"><ele>266.0</ele><time>2026-04-29T08:43:51Z</time></trkpt><trkpt lat="43.28993609001341" lon="27.914363503801585"><ele>266.0</ele><time>2026-04-29T08:43:52Z</time></trkpt><trkpt lat="43.290053647559276" lon="27.91429187474664"><ele>266.0</ele><time>2026-04-29T08:43:53Z</time></trkpt><trkpt lat="43.29015039474587" lon="27.914157576008773"><ele>266.0</ele><time>2026-04-29T08:43:54Z</time></trkpt><trkpt lat="43.2902452290191" lon="27.914037041279723"><ele>266.0</ele><time>2026-04-29T08:43:55Z</time></trkpt><trkpt lat="43.290333900668934" lon="27.913908590840016"><ele>266.0</ele><time>2026-04-29T08:43:56Z</time></trkpt><trkpt lat="43.29042615305883" lon="27.913775264170752"><ele>266.0</ele><time>2026-04-29T08:43:56.999Z</time></trkpt><trkpt lat="43.29052326188363" lon="27.91363531380472"><ele>266.0</ele><time>2026-04-29T08:43:57.999Z</time></trkpt><trkpt lat="43.29062082181569" lon="27.91349410337097"><ele>266.0</ele><time>2026-04-29T08:43:58.999Z</time></trkpt><trkpt lat="43.290727848609095" lon="27.913360409219646"><ele>266.0</ele><time>2026-04-29T08:43:59.999Z</time></trkpt><trkpt lat="43.290837818621796" lon="27.9132329471535"><ele>263.5</ele><time>2026-04-29T08:44:00.999Z</time></trkpt><trkpt lat="43.29093882385961" lon="27.91309104716907"><ele>261.0</ele><time>2026-04-29T08:44:01.999Z</time></trkpt><trkpt lat="43.29105958190109" lon="27.912995904044944"><ele>258.5</ele><time>2026-04-29T08:44:02.999Z</time></trkpt><trkpt lat="43.2911663205228" lon="27.91289593779081"><ele>256.0</ele><time>2026-04-29T08:44:03.999Z</time></trkpt><trkpt lat="43.29128169844479" lon="27.91283508211725"><ele>256.0</ele><time>2026-04-29T08:44:04.999Z</time></trkpt><trkpt lat="43.291406684362634" lon="27.912806930305106"><ele>256.0</ele><time>2026-04-29T08:44:05.999Z</time></trkpt><trkpt lat="43.29153653714636" lon="27.912762977852772"><ele>256.0</ele><time>2026-04-29T08:44:06.999Z</time></trkpt><trkpt lat="43.29167414132058" lon="27.912749850150433"><ele>256.0</ele><time>2026-04-29T08:44:07.999Z</time></trkpt><trkpt lat="43.29181221664883" lon="27.91273127537075"><ele>252.25</ele><time>2026-04-29T08:44:08.999Z</time></trkpt><trkpt lat="43.291946782504255" lon="27.912707005539183"><ele>248.5</ele><time>2026-04-29T08:44:09.999Z</time></trkpt><trkpt lat="43.292080683673596" lon="27.912665932684103"><ele>244.75</ele><time>2026-04-29T08:44:10.999Z</time></trkpt><trkpt lat="43.29221213317967" lon="27.91260765175492"><ele>241.0</ele><time>2026-04-29T08:44:11.999Z</time></trkpt><trkpt lat="43.29234541273329" lon="27.912549677399227"><ele>241.0</ele><time>2026-04-29T08:44:12.999Z</time></trkpt><trkpt lat="43.29247541900072" lon="27.912487630633837"><ele>241.0</ele><time>2026-04-29T08:44:13.999Z</time></trkpt><trkpt lat="43.29259580090749" lon="27.912429452006634"><ele>241.0</ele><time>2026-04-29T08:44:14.999Z</time></trkpt><trkpt lat="43.292699229631296" lon="27.912372319651023"><ele>241.0</ele><time>2026-04-29T08:44:15.999Z</time></trkpt><trkpt lat="43.29278384986459" lon="27.91227446399852"><ele>241.0</ele><time>2026-04-29T08:44:16.999Z</time></trkpt><trkpt lat="43.292844617967425" lon="27.91213477504263"><ele>241.0</ele><time>2026-04-29T08:44:17.999Z</time></trkpt><trkpt lat="43.29291108029092" lon="27.911997828994767"><ele>241.0</ele><time>2026-04-29T08:44:18.999Z</time></trkpt><trkpt lat="43.29296263244058" lon="27.911841746154263"><ele>241.0</ele><time>2026-04-29T08:44:19.999Z</time></trkpt><trkpt lat="43.29301229021882" lon="27.911683804557207"><ele>238.25</ele><time>2026-04-29T08:44:20.999Z</time></trkpt><trkpt lat="43.29306273122568" lon="27.911521555131305"><ele>235.5</ele><time>2026-04-29T08:44:21.999Z</time></trkpt><trkpt lat="43.29311516003632" lon="27.911390630546823"><ele>232.75</ele><time>2026-04-29T08:44:22.999Z</time></trkpt><trkpt lat="43.29317622152221" lon="27.911266817338774"><ele>230.0</ele><time>2026-04-29T08:44:23.999Z</time></trkpt><trkpt lat="43.293233224024554" lon="27.911138740352005"><ele>230.0</ele><time>2026-04-29T08:44:24.999Z</time></trkpt><trkpt lat="43.29332671304261" lon="27.9110458838952"><ele>230.0</ele><time>2026-04-29T08:44:25.999Z</time></trkpt><trkpt lat="43.293426538934945" lon="27.910944149791163"><ele>230.0</ele><time>2026-04-29T08:44:26.999Z</time></trkpt><trkpt lat="43.29353392743696" lon="27.91085203811599"><ele>230.0</ele><time>2026-04-29T08:44:27.999Z</time></trkpt><trkpt lat="43.293654671801185" lon="27.910778725706752"><ele>229.8</ele><time>2026-04-29T08:44:28.999Z</time></trkpt><trkpt lat="43.293760129731425" lon="27.910692392371768"><ele>229.6</ele><time>2026-04-29T08:44:29.999Z</time></trkpt><trkpt lat="43.293853676011274" lon="27.910616382394743"><ele>229.39999999999998</ele><time>2026-04-29T08:44:30.999Z</time></trkpt><trkpt lat="43.29392725089486" lon="27.910545592583386"><ele>229.2</ele><time>2026-04-29T08:44:31.999Z</time></trkpt><trkpt lat="43.29401169972632" lon="27.910536342399457"><ele>229.0</ele><time>2026-04-29T08:44:32.999Z</time></trkpt><trkpt lat="43.29409082389376" lon="27.910575478454618"><ele>228.99999999999997</ele><time>2026-04-29T08:44:33.999Z</time></trkpt><trkpt lat="43.294148698307616" lon="27.91065874067324"><ele>229.0</ele><time>2026-04-29T08:44:34.999Z</time></trkpt><trkpt lat="43.29417267743115" lon="27.91077507513519"><ele>229.0</ele><time>2026-04-29T08:44:35.999Z</time></trkpt><trkpt lat="43.29415930816187" lon="27.91089612142997"><ele>229.0</ele><time>2026-04-29T08:44:36.999Z</time></trkpt><trkpt lat="43.29410653018433" lon="27.911003171877894"><ele>228.99999999999997</ele><time>2026-04-29T08:44:37.999Z</time></trkpt><trkpt lat="43.29404392205697" lon="27.911093530284447"><ele>229.0</ele><time>2026-04-29T08:44:38.999Z</time></trkpt><trkpt lat="43.29398274856229" lon="27.911202057205006"><ele>229.2</ele><time>2026-04-29T08:44:39.999Z</time></trkpt><trkpt lat="43.29392996791318" lon="27.91132922570249"><ele>229.39999999999998</ele><time>2026-04-29T08:44:40.999Z</time></trkpt><trkpt lat="43.29389593422724" lon="27.911477973333238"><ele>229.6</ele><time>2026-04-29T08:44:41.999Z</time></trkpt><trkpt lat="43.29387730554341" lon="27.911630389246103"><ele>229.8</ele><time>2026-04-29T08:44:42.999Z</time></trkpt><trkpt lat="43.29387174739985" lon="27.911785549637422"><ele>230.0</ele><time>2026-04-29T08:44:43.999Z</time></trkpt><trkpt lat="43.29386811865543" lon="27.911935732696058"><ele>228.2</ele><time>2026-04-29T08:44:44.999Z</time></trkpt><trkpt lat="43.2938629197404" lon="27.912076201554335"><ele>226.4</ele><time>2026-04-29T08:44:45.999Z</time></trkpt><trkpt lat="43.293882914712576" lon="27.912200359967017"><ele>224.60000000000002</ele><time>2026-04-29T08:44:46.999Z</time></trkpt><trkpt lat="43.293929795368335" lon="27.91230790943859"><ele>222.8</ele><time>2026-04-29T08:44:47.999Z</time></trkpt><trkpt lat="43.29399662365685" lon="27.912399952009398"><ele>221.0</ele><time>2026-04-29T08:44:48.999Z</time></trkpt><trkpt lat="43.294079346893206" lon="27.912459938824053"><ele>219.75</ele><time>2026-04-29T08:44:49.999Z</time></trkpt><trkpt lat="43.29417580521902" lon="27.912504556851818"><ele>218.5</ele><time>2026-04-29T08:44:50.999Z</time></trkpt><trkpt lat="43.29429026194956" lon="27.912516994192043"><ele>217.25</ele><time>2026-04-29T08:44:51.999Z</time></trkpt><trkpt lat="43.29441693529332" lon="27.91250429113453"><ele>216.0</ele><time>2026-04-29T08:44:52.998Z</time></trkpt><trkpt lat="43.29454915893784" lon="27.912493871440248"><ele>216.0</ele><time>2026-04-29T08:44:53.998Z</time></trkpt><trkpt lat="43.29468878170375" lon="27.91248123718933"><ele>216.0</ele><time>2026-04-29T08:44:54.998Z</time></trkpt><trkpt lat="43.29482969900821" lon="27.91246544493592"><ele>216.0</ele><time>2026-04-29T08:44:55.998Z</time></trkpt><trkpt lat="43.29497487940917" lon="27.9124579071632"><ele>216.0</ele><time>2026-04-29T08:44:56.998Z</time></trkpt><trkpt lat="43.295119288720805" lon="27.912451829367168"><ele>215.75</ele><time>2026-04-29T08:44:57.998Z</time></trkpt><trkpt lat="43.2952709182895" lon="27.91245288685314"><ele>215.5</ele><time>2026-04-29T08:44:58.998Z</time></trkpt><trkpt lat="43.29541941205242" lon="27.912449077853825"><ele>215.25</ele><time>2026-04-29T08:44:59.998Z</time></trkpt><trkpt lat="43.29556800363364" lon="27.91244309778608"><ele>215.0</ele><time>2026-04-29T08:45:00.998Z</time></trkpt><trkpt lat="43.29571377451409" lon="27.912436632964276"><ele>216.0</ele><time>2026-04-29T08:45:01.998Z</time></trkpt><trkpt lat="43.295850668087155" lon="27.912432043017784"><ele>217.0</ele><time>2026-04-29T08:45:02.998Z</time></trkpt><trkpt lat="43.29597451664478" lon="27.912432858994002"><ele>218.0</ele><time>2026-04-29T08:45:03.998Z</time></trkpt><trkpt lat="43.2960790793581" lon="27.91238742191434"><ele>219.0</ele><time>2026-04-29T08:45:04.998Z</time></trkpt><trkpt lat="43.29617927652611" lon="27.912313762628536"><ele>219.0</ele><time>2026-04-29T08:45:05.998Z</time></trkpt><trkpt lat="43.296270664918126" lon="27.912217810106913"><ele>219.0</ele><time>2026-04-29T08:45:06.998Z</time></trkpt><trkpt lat="43.29635818576856" lon="27.912105886298278"><ele>219.0</ele><time>2026-04-29T08:45:07.998Z</time></trkpt><trkpt lat="43.29645101558771" lon="27.911997738373564"><ele>219.0</ele><time>2026-04-29T08:45:08.998Z</time></trkpt><trkpt lat="43.29654665375495" lon="27.91189074937364"><ele>220.0</ele><time>2026-04-29T08:45:09.998Z</time></trkpt><trkpt lat="43.29664732043556" lon="27.911780600622063"><ele>221.0</ele><time>2026-04-29T08:45:10.998Z</time></trkpt><trkpt lat="43.2967532445407" lon="27.91167619942437"><ele>222.0</ele><time>2026-04-29T08:45:11.998Z</time></trkpt><trkpt lat="43.296862855131664" lon="27.911582141218084"><ele>223.0</ele><time>2026-04-29T08:45:12.998Z</time></trkpt><trkpt lat="43.29699156416708" lon="27.91152112624973"><ele>223.0</ele><time>2026-04-29T08:45:13.998Z</time></trkpt><trkpt lat="43.2971140391606" lon="27.911425348314115"><ele>223.0</ele><time>2026-04-29T08:45:15Z</time></trkpt><trkpt lat="43.297244412410926" lon="27.911345850106652"><ele>223.0</ele><time>2026-04-29T08:45:16Z</time></trkpt><trkpt lat="43.297380311903126" lon="27.91128247015039"><ele>223.0</ele><time>2026-04-29T08:45:17Z</time></trkpt><trkpt lat="43.29751013500954" lon="27.91119102478664"><ele>223.5</ele><time>2026-04-29T08:45:18Z</time></trkpt><trkpt lat="43.29762601814503" lon="27.911074217765286"><ele>224.0</ele><time>2026-04-29T08:45:19Z</time></trkpt><trkpt lat="43.29775088987174" lon="27.910966863744644"><ele>224.5</ele><time>2026-04-29T08:45:20Z</time></trkpt><trkpt lat="43.29787513464928" lon="27.91086022160386"><ele>225.0</ele><time>2026-04-29T08:45:21Z</time></trkpt><trkpt lat="43.29799952605318" lon="27.910753519022737"><ele>230.0</ele><time>2026-04-29T08:45:22Z</time></trkpt><trkpt lat="43.298126222286186" lon="27.910646489957067"><ele>235.0</ele><time>2026-04-29T08:45:23Z</time></trkpt><trkpt lat="43.29824997631588" lon="27.910537569740544"><ele>240.0</ele><time>2026-04-29T08:45:24Z</time></trkpt><trkpt lat="43.29837645898181" lon="27.910434158096866"><ele>245.0</ele><time>2026-04-29T08:45:25Z</time></trkpt><trkpt lat="43.29850061781208" lon="27.910330651620765"><ele>245.0</ele><time>2026-04-29T08:45:26Z</time></trkpt><trkpt lat="43.29861690488458" lon="27.91021400475744"><ele>245.0</ele><time>2026-04-29T08:45:27Z</time></trkpt><trkpt lat="43.29873881592509" lon="27.910103327188978"><ele>245.0</ele><time>2026-04-29T08:45:28Z</time></trkpt><trkpt lat="43.29883575749645" lon="27.909958868078785"><ele>245.0</ele><time>2026-04-29T08:45:29Z</time></trkpt><trkpt lat="43.298935822650485" lon="27.909810749319078"><ele>245.75</ele><time>2026-04-29T08:45:30Z</time></trkpt><trkpt lat="43.29903431302038" lon="27.90965872208751"><ele>246.5</ele><time>2026-04-29T08:45:31Z</time></trkpt><trkpt lat="43.29912459014322" lon="27.909516784806577"><ele>247.25</ele><time>2026-04-29T08:45:32Z</time></trkpt><trkpt lat="43.29921142597811" lon="27.909378936701987"><ele>248.0</ele><time>2026-04-29T08:45:33Z</time></trkpt><trkpt lat="43.29929975333232" lon="27.909238803118512"><ele>248.0</ele><time>2026-04-29T08:45:34Z</time></trkpt><trkpt lat="43.29938404732978" lon="27.909083272723187"><ele>248.0</ele><time>2026-04-29T08:45:35Z</time></trkpt><trkpt lat="43.29945974832633" lon="27.908928839291214"><ele>248.0</ele><time>2026-04-29T08:45:36Z</time></trkpt><trkpt lat="43.29953552231968" lon="27.9087732524782"><ele>248.0</ele><time>2026-04-29T08:45:37Z</time></trkpt><trkpt lat="43.29960884727665" lon="27.908622507961454"><ele>248.0</ele><time>2026-04-29T08:45:38Z</time></trkpt><trkpt lat="43.2996798211796" lon="27.908469545886792"><ele>248.0</ele><time>2026-04-29T08:45:39Z</time></trkpt><trkpt lat="43.29974534372288" lon="27.9083278617488"><ele>248.0</ele><time>2026-04-29T08:45:40Z</time></trkpt><trkpt lat="43.29978288756093" lon="27.90821079135983"><ele>248.0</ele><time>2026-04-29T08:45:41Z</time></trkpt><trkpt lat="43.29982937346812" lon="27.908151238569893"><ele>248.0</ele><time>2026-04-29T08:45:42Z</time></trkpt><trkpt lat="43.299916853652064" lon="27.908119761528503"><ele>248.00000000000003</ele><time>2026-04-29T08:45:44Z</time></trkpt><trkpt lat="43.29996205877898" lon="27.908223738624258"><ele>248.0</ele><time>2026-04-29T08:45:46Z</time></trkpt><trkpt lat="43.29989817602809" lon="27.90831232255116"><ele>248.0</ele><time>2026-04-29T08:45:47Z</time></trkpt><trkpt lat="43.29983985330931" lon="27.908393704001345"><ele>248.0</ele><time>2026-04-29T08:45:49Z</time></trkpt><trkpt lat="43.299792171193594" lon="27.908479672953476"><ele>248.00000000000003</ele><time>2026-04-29T08:45:51Z</time></trkpt><trkpt lat="43.299732008712596" lon="27.908599171128355"><ele>248.0</ele><time>2026-04-29T08:45:53Z</time></trkpt><trkpt lat="43.2996774718858" lon="27.90871466793254"><ele>248.0</ele><time>2026-04-29T08:45:55Z</time></trkpt><trkpt lat="43.29966554941833" lon="27.908805704368532"><ele>248.00000000000003</ele><time>2026-04-29T08:46:20.999Z</time></trkpt><trkpt lat="43.29971058847604" lon="27.90874390756445"><ele>248.0</ele><time>2026-04-29T08:46:30.999Z</time></trkpt><trkpt lat="43.2997403057171" lon="27.908646663504072"><ele>248.0</ele><time>2026-04-29T08:46:33.999Z</time></trkpt><trkpt lat="43.2997838605145" lon="27.90855403382416"><ele>248.00000000000003</ele><time>2026-04-29T08:46:35.999Z</time></trkpt><trkpt lat="43.29982374345651" lon="27.908479188577594"><ele>248.0</ele><time>2026-04-29T08:46:36.999Z</time></trkpt><trkpt lat="43.299869016853656" lon="27.90839092894877"><ele>248.0</ele><time>2026-04-29T08:46:37.999Z</time></trkpt><trkpt lat="43.2999047116054" lon="27.90830963071177"><ele>249.33333333333334</ele><time>2026-04-29T08:46:38.999Z</time></trkpt><trkpt lat="43.29994891723104" lon="27.908238695713273"><ele>250.66666666666669</ele><time>2026-04-29T08:46:39.999Z</time></trkpt><trkpt lat="43.29999189971964" lon="27.90816308615216"><ele>252.0</ele><time>2026-04-29T08:46:40.999Z</time></trkpt><trkpt lat="43.300017147390044" lon="27.908074686445687"><ele>253.33333333333331</ele><time>2026-04-29T08:46:41.999Z</time></trkpt><trkpt lat="43.299980143238166" lon="27.907938552315585"><ele>254.66666666666666</ele><time>2026-04-29T08:46:43.999Z</time></trkpt><trkpt lat="43.29994856995454" lon="27.90805374524133"><ele>256.0</ele><time>2026-04-29T08:46:44.999Z</time></trkpt><trkpt lat="43.30008439967293" lon="27.908168928136774"><ele>256.0</ele><time>2026-04-29T08:46:45.999Z</time></trkpt><trkpt lat="43.30026246925027" lon="27.907763854230932"><ele>256.0</ele><time>2026-04-29T08:46:46.999Z</time></trkpt><trkpt lat="43.30023316059491" lon="27.907626980111452"><ele>256.0</ele><time>2026-04-29T08:46:47.999Z</time></trkpt><trkpt lat="43.300285807207544" lon="27.907549954789992"><ele>252.8</ele><time>2026-04-29T08:46:48.999Z</time></trkpt><trkpt lat="43.30034156035654" lon="27.9074782574359"><ele>249.60000000000002</ele><time>2026-04-29T08:46:50.999Z</time></trkpt><trkpt lat="43.300430742394575" lon="27.907354353269973"><ele>246.4</ele><time>2026-04-29T08:46:52.999Z</time></trkpt><trkpt lat="43.30047356164672" lon="27.90725439713834"><ele>243.2</ele><time>2026-04-29T08:46:53.999Z</time></trkpt><trkpt lat="43.30050473589424" lon="27.907137629232587"><ele>240.0</ele><time>2026-04-29T08:46:54.999Z</time></trkpt><trkpt lat="43.30052876772388" lon="27.907026569490025"><ele>240.0</ele><time>2026-04-29T08:46:55.999Z</time></trkpt><trkpt lat="43.30055137227294" lon="27.906917689629278"><ele>240.0</ele><time>2026-04-29T08:46:56.999Z</time></trkpt><trkpt lat="43.30057122728502" lon="27.906822708068745"><ele>240.0</ele><time>2026-04-29T08:46:57.999Z</time></trkpt><trkpt lat="43.30063299034842" lon="27.906664383571318"><ele>240.0</ele><time>2026-04-29T08:46:59.999Z</time></trkpt><trkpt lat="43.30067823062008" lon="27.906568639255244"><ele>240.0</ele><time>2026-04-29T08:47:00.999Z</time></trkpt><trkpt lat="43.30073747803105" lon="27.906537182699676"><ele>240.0</ele><time>2026-04-29T08:47:01.999Z</time></trkpt><trkpt lat="43.30080591816349" lon="27.90647130479388"><ele>240.85714285714286</ele><time>2026-04-29T08:47:02.999Z</time></trkpt><trkpt lat="43.30086443052596" lon="27.90641511443858"><ele>241.71428571428572</ele><time>2026-04-29T08:47:03.999Z</time></trkpt><trkpt lat="43.30091920236794" lon="27.90636125737462"><ele>242.57142857142858</ele><time>2026-04-29T08:47:04.998Z</time></trkpt><trkpt lat="43.300971141591575" lon="27.906304516563306"><ele>243.42857142857144</ele><time>2026-04-29T08:47:05.998Z</time></trkpt><trkpt lat="43.30102565825635" lon="27.906245126239632"><ele>244.28571428571428</ele><time>2026-04-29T08:47:06.998Z</time></trkpt><trkpt lat="43.30108510263048" lon="27.906180447215796"><ele>245.14285714285717</ele><time>2026-04-29T08:47:07.998Z</time></trkpt><trkpt lat="43.301139603579" lon="27.906118718842777"><ele>246.00000000000003</ele><time>2026-04-29T08:47:08.998Z</time></trkpt><trkpt lat="43.30118925530069" lon="27.90606113275607"><ele>246.0</ele><time>2026-04-29T08:47:09.998Z</time></trkpt><trkpt lat="43.30127933295924" lon="27.905957311044833"><ele>246.0</ele><time>2026-04-29T08:47:11.998Z</time></trkpt><trkpt lat="43.30136939972961" lon="27.90584109842091"><ele>246.0</ele><time>2026-04-29T08:47:13.998Z</time></trkpt><trkpt lat="43.30145365301002" lon="27.90573050693166"><ele>246.0</ele><time>2026-04-29T08:47:15.998Z</time></trkpt><trkpt lat="43.301541638983565" lon="27.905625881759054"><ele>246.0</ele><time>2026-04-29T08:47:17.998Z</time></trkpt><trkpt lat="43.301628557930144" lon="27.905524127733234"><ele>246.00000000000003</ele><time>2026-04-29T08:47:19.998Z</time></trkpt><trkpt lat="43.30168734421529" lon="27.90545924064306"><ele>246.00000000000003</ele><time>2026-04-29T08:47:22Z</time></trkpt><trkpt lat="43.30175493161265" lon="27.905388488143863"><ele>246.0</ele><time>2026-04-29T08:47:24Z</time></trkpt><trkpt lat="43.30184133118675" lon="27.905297056172724"><ele>246.0</ele><time>2026-04-29T08:47:26Z</time></trkpt><trkpt lat="43.30191444752871" lon="27.90524731742346"><ele>246.0</ele><time>2026-04-29T08:47:28Z</time></trkpt><trkpt lat="43.301992028450776" lon="27.905193973230368"><ele>246.00000000000003</ele><time>2026-04-29T08:47:30Z</time></trkpt><trkpt lat="43.302092115494034" lon="27.905138297530442"><ele>246.00000000000003</ele><time>2026-04-29T08:47:32Z</time></trkpt><trkpt lat="43.30219713121885" lon="27.90506524503313"><ele>246.0</ele><time>2026-04-29T08:47:34Z</time></trkpt><trkpt lat="43.302268507182845" lon="27.905000879219426"><ele>246.0</ele><time>2026-04-29T08:47:36Z</time></trkpt><trkpt lat="43.3023389015973" lon="27.90493768111839"><ele>243.60000000000002</ele><time>2026-04-29T08:47:38Z</time></trkpt><trkpt lat="43.30242023567939" lon="27.90491096445337"><ele>241.20000000000002</ele><time>2026-04-29T08:47:40Z</time></trkpt><trkpt lat="43.30249717982023" lon="27.904812058529895"><ele>238.79999999999998</ele><time>2026-04-29T08:47:42Z</time></trkpt><trkpt lat="43.30259553474805" lon="27.904706430015956"><ele>236.39999999999998</ele><time>2026-04-29T08:47:44Z</time></trkpt><trkpt lat="43.302635775941916" lon="27.904629315014375"><ele>234.0</ele><time>2026-04-29T08:47:45Z</time></trkpt><trkpt lat="43.302738266179944" lon="27.904534353287453"><ele>234.0</ele><time>2026-04-29T08:47:47Z</time></trkpt><trkpt lat="43.302822301181486" lon="27.904432993011834"><ele>234.0</ele><time>2026-04-29T08:47:49Z</time></trkpt><trkpt lat="43.30285596845109" lon="27.904359161706015"><ele>234.0</ele><time>2026-04-29T08:47:51Z</time></trkpt><trkpt lat="43.30291783265534" lon="27.90430750212554"><ele>234.0</ele><time>2026-04-29T08:48:09.999Z</time></trkpt><trkpt lat="43.30297390630239" lon="27.904232757060885"><ele>234.0</ele><time>2026-04-29T08:48:11.999Z</time></trkpt><trkpt lat="43.303026121778665" lon="27.90416264441959"><ele>234.0</ele><time>2026-04-29T08:48:13.999Z</time></trkpt><trkpt lat="43.30311121443798" lon="27.904048387132452"><ele>232.83333333333334</ele><time>2026-04-29T08:48:15.999Z</time></trkpt><trkpt lat="43.30318075598819" lon="27.903927227924942"><ele>231.66666666666669</ele><time>2026-04-29T08:48:17.999Z</time></trkpt><trkpt lat="43.30328132642397" lon="27.903887115593843"><ele>230.5</ele><time>2026-04-29T08:48:19.999Z</time></trkpt><trkpt lat="43.303346713785615" lon="27.903920475477808"><ele>229.33333333333334</ele><time>2026-04-29T08:48:21.999Z</time></trkpt><trkpt lat="43.30342496615731" lon="27.90388896459726"><ele>228.16666666666669</ele><time>2026-04-29T08:48:23.999Z</time></trkpt><trkpt lat="43.30346260731971" lon="27.9038067844367"><ele>227.0</ele><time>2026-04-29T08:48:24.999Z</time></trkpt><trkpt lat="43.30356570375716" lon="27.903743621910657"><ele>227.0</ele><time>2026-04-29T08:48:26.999Z</time></trkpt><trkpt lat="43.30367658539815" lon="27.903801247017217"><ele>227.0</ele><time>2026-04-29T08:48:28.999Z</time></trkpt><trkpt lat="43.303786676099605" lon="27.903799013609984"><ele>227.0</ele><time>2026-04-29T08:48:30.999Z</time></trkpt><trkpt lat="43.30387592163095" lon="27.903796935735222"><ele>227.0</ele><time>2026-04-29T08:48:32.999Z</time></trkpt><trkpt lat="43.30394704957304" lon="27.903795005579855"><ele>227.0</ele><time>2026-04-29T08:48:35.999Z</time></trkpt><trkpt lat="43.30401866552391" lon="27.90379306217137"><ele>226.71428571428572</ele><time>2026-04-29T08:48:37.999Z</time></trkpt><trkpt lat="43.30409088068219" lon="27.90379503785511"><ele>226.42857142857144</ele><time>2026-04-29T08:48:39.999Z</time></trkpt><trkpt lat="43.304149327598005" lon="27.903833892685014"><ele>226.14285714285717</ele><time>2026-04-29T08:48:41.999Z</time></trkpt><trkpt lat="43.304209804189696" lon="27.9038771557257"><ele>225.8571428571429</ele><time>2026-04-29T08:48:45.999Z</time></trkpt><trkpt lat="43.30427723193709" lon="27.903945233451736"><ele>225.57142857142858</ele><time>2026-04-29T08:48:48.999Z</time></trkpt><trkpt lat="43.304350005833484" lon="27.903974350341816"><ele>225.28571428571433</ele><time>2026-04-29T08:48:50.999Z</time></trkpt><trkpt lat="43.30438844791158" lon="27.904050083117934"><ele>225.00000000000003</ele><time>2026-04-29T08:48:53.999Z</time></trkpt><trkpt lat="43.304468188950814" lon="27.904051651462552"><ele>225.0</ele><time>2026-04-29T08:48:59.998Z</time></trkpt><trkpt lat="43.30459339775176" lon="27.90403186657891"><ele>225.0</ele><time>2026-04-29T08:49:03.998Z</time></trkpt><trkpt lat="43.30465889864385" lon="27.903959265909396"><ele>225.0</ele><time>2026-04-29T08:49:05.998Z</time></trkpt><trkpt lat="43.30472853905227" lon="27.903839409789896"><ele>225.0</ele><time>2026-04-29T08:49:06.998Z</time></trkpt><trkpt lat="43.3047426934293" lon="27.903738434631126"><ele>225.0</ele><time>2026-04-29T08:49:08.998Z</time></trkpt><trkpt lat="43.30476035958082" lon="27.903614558913294"><ele>226.33333333333334</ele><time>2026-04-29T08:49:10.998Z</time></trkpt><trkpt lat="43.304776743957234" lon="27.903507571973588"><ele>227.66666666666669</ele><time>2026-04-29T08:49:12.998Z</time></trkpt><trkpt lat="43.30479503755379" lon="27.903390753069985"><ele>229.0</ele><time>2026-04-29T08:49:14.998Z</time></trkpt><trkpt lat="43.30471993591212" lon="27.903399583894007"><ele>230.33333333333334</ele><time>2026-04-29T08:49:15.998Z</time></trkpt><trkpt lat="43.304796095405074" lon="27.90337469146531"><ele>231.66666666666669</ele><time>2026-04-29T08:49:17.998Z</time></trkpt><trkpt lat="43.30489754834129" lon="27.903341540250548"><ele>233.0</ele><time>2026-04-29T08:49:19.998Z</time></trkpt><trkpt lat="43.30501356272331" lon="27.903288789035184"><ele>230.33333333333334</ele><time>2026-04-29T08:49:21.998Z</time></trkpt><trkpt lat="43.305105431160676" lon="27.903273776330316"><ele>227.66666666666669</ele><time>2026-04-29T08:49:23.998Z</time></trkpt><trkpt lat="43.305179099802785" lon="27.903249370191872"><ele>225.0</ele><time>2026-04-29T08:49:25.998Z</time></trkpt><trkpt lat="43.30525797878884" lon="27.903223166025313"><ele>222.33333333333331</ele><time>2026-04-29T08:49:28Z</time></trkpt><trkpt lat="43.30534476415956" lon="27.903202614398992"><ele>219.66666666666666</ele><time>2026-04-29T08:49:30Z</time></trkpt><trkpt lat="43.305410639360154" lon="27.903173275471378"><ele>217.0</ele><time>2026-04-29T08:49:33Z</time></trkpt><trkpt lat="43.3054927091543" lon="27.90317473940358"><ele>218.6</ele><time>2026-04-29T08:49:35Z</time></trkpt><trkpt lat="43.30558982406025" lon="27.90313724922546"><ele>220.2</ele><time>2026-04-29T08:49:37Z</time></trkpt><trkpt lat="43.305699138305194" lon="27.903120415470536"><ele>221.8</ele><time>2026-04-29T08:49:39Z</time></trkpt><trkpt lat="43.30582143611043" lon="27.9031014851717"><ele>223.4</ele><time>2026-04-29T08:49:41Z</time></trkpt><trkpt lat="43.30590245204832" lon="27.903108495773626"><ele>225.0</ele><time>2026-04-29T08:49:42Z</time></trkpt><trkpt lat="43.30597568523786" lon="27.903087622293906"><ele>225.00000000000003</ele><time>2026-04-29T08:49:43Z</time></trkpt><trkpt lat="43.306043159963956" lon="27.903049965257186"><ele>225.0</ele><time>2026-04-29T08:49:44Z</time></trkpt><trkpt lat="43.306107385657334" lon="27.903040738323728"><ele>225.00000000000003</ele><time>2026-04-29T08:49:45Z</time></trkpt><trkpt lat="43.30617688702324" lon="27.9030363567905"><ele>225.00000000000003</ele><time>2026-04-29T08:49:46Z</time></trkpt><trkpt lat="43.306255531487736" lon="27.903025306785217"><ele>225.0</ele><time>2026-04-29T08:49:47Z</time></trkpt><trkpt lat="43.3063336233574" lon="27.903038013767734"><ele>225.00000000000003</ele><time>2026-04-29T08:49:48Z</time></trkpt><trkpt lat="43.30640642784198" lon="27.90303090154645"><ele>225.00000000000003</ele><time>2026-04-29T08:49:49Z</time></trkpt><trkpt lat="43.30651375338984" lon="27.903007403376776"><ele>227.2</ele><time>2026-04-29T08:49:50Z</time></trkpt><trkpt lat="43.3066146118968" lon="27.9029633934605"><ele>229.4</ele><time>2026-04-29T08:49:51Z</time></trkpt><trkpt lat="43.30670434022936" lon="27.90290747395011"><ele>231.60000000000002</ele><time>2026-04-29T08:49:52Z</time></trkpt><trkpt lat="43.306779665234195" lon="27.902892292897075"><ele>233.8</ele><time>2026-04-29T08:49:53Z</time></trkpt><trkpt lat="43.306837218696884" lon="27.90284372416476"><ele>236.0</ele><time>2026-04-29T08:49:54Z</time></trkpt><trkpt lat="43.306938917314106" lon="27.902829019495634"><ele>236.0</ele><time>2026-04-29T08:49:56Z</time></trkpt><trkpt lat="43.307037987328926" lon="27.902784010590814"><ele>236.0</ele><time>2026-04-29T08:49:57.999Z</time></trkpt><trkpt lat="43.30713527626933" lon="27.90273803080089"><ele>236.0</ele><time>2026-04-29T08:49:59.999Z</time></trkpt><trkpt lat="43.30723717711093" lon="27.90263999009934"><ele>236.0</ele><time>2026-04-29T08:50:01.999Z</time></trkpt><trkpt lat="43.307351011365206" lon="27.902556995509773"><ele>233.50000000000003</ele><time>2026-04-29T08:50:03.999Z</time></trkpt><trkpt lat="43.30745343361796" lon="27.902482031152793"><ele>231.0</ele><time>2026-04-29T08:50:05.999Z</time></trkpt><trkpt lat="43.3075099810126" lon="27.902440554421265"><ele>228.5</ele><time>2026-04-29T08:50:06.999Z</time></trkpt><trkpt lat="43.30756865350131" lon="27.902387482605125"><ele>226.0</ele><time>2026-04-29T08:50:07.999Z</time></trkpt><trkpt lat="43.30761816868601" lon="27.90231996586371"><ele>223.50000000000003</ele><time>2026-04-29T08:50:08.999Z</time></trkpt><trkpt lat="43.30767679582912" lon="27.902255143526126"><ele>221.0</ele><time>2026-04-29T08:50:09.999Z</time></trkpt><trkpt lat="43.307746670422056" lon="27.90219059695761"><ele>221.00000000000003</ele><time>2026-04-29T08:50:10.999Z</time></trkpt><trkpt lat="43.30779473541275" lon="27.902100488366976"><ele>221.0</ele><time>2026-04-29T08:50:11.999Z</time></trkpt><trkpt lat="43.30785304471035" lon="27.902027097065304"><ele>221.0</ele><time>2026-04-29T08:50:12.999Z</time></trkpt><trkpt lat="43.30788734405478" lon="27.90193556170817"><ele>221.0</ele><time>2026-04-29T08:50:13.999Z</time></trkpt><trkpt lat="43.30793297581324" lon="27.90185286628101"><ele>221.00000000000003</ele><time>2026-04-29T08:50:14.999Z</time></trkpt><trkpt lat="43.30798668833361" lon="27.90175639934532"><ele>221.0</ele><time>2026-04-29T08:50:15.999Z</time></trkpt><trkpt lat="43.30804365444329" lon="27.901652886420255"><ele>222.42857142857144</ele><time>2026-04-29T08:50:16.999Z</time></trkpt><trkpt lat="43.308099271614076" lon="27.901551117548753"><ele>223.85714285714286</ele><time>2026-04-29T08:50:17.999Z</time></trkpt><trkpt lat="43.30814077324195" lon="27.901476636419506"><ele>225.28571428571428</ele><time>2026-04-29T08:50:18.999Z</time></trkpt><trkpt lat="43.30818589166317" lon="27.901394807247232"><ele>226.71428571428572</ele><time>2026-04-29T08:50:19.999Z</time></trkpt><trkpt lat="43.30822893414121" lon="27.901315994972673"><ele>228.14285714285714</ele><time>2026-04-29T08:50:20.999Z</time></trkpt><trkpt lat="43.30827361837235" lon="27.901232997806822"><ele>229.57142857142858</ele><time>2026-04-29T08:50:21.999Z</time></trkpt><trkpt lat="43.30833535432109" lon="27.901197363097427"><ele>231.0</ele><time>2026-04-29T08:50:22.999Z</time></trkpt><trkpt lat="43.308399433628935" lon="27.90114414606882"><ele>231.0</ele><time>2026-04-29T08:50:23.999Z</time></trkpt><trkpt lat="43.308453781337384" lon="27.901099011006533"><ele>231.00000000000003</ele><time>2026-04-29T08:50:24.999Z</time></trkpt><trkpt lat="43.30851263649452" lon="27.901050132642574"><ele>231.00000000000003</ele><time>2026-04-29T08:50:25.999Z</time></trkpt><trkpt lat="43.30861114380684" lon="27.901001458534417"><ele>231.0</ele><time>2026-04-29T08:50:27.999Z</time></trkpt><trkpt lat="43.30871323843085" lon="27.9009486178435"><ele>231.0</ele><time>2026-04-29T08:50:29.999Z</time></trkpt><trkpt lat="43.30881581270101" lon="27.900895883979967"><ele>231.4</ele><time>2026-04-29T08:50:31.999Z</time></trkpt><trkpt lat="43.30891057016811" lon="27.900847201942486"><ele>231.8</ele><time>2026-04-29T08:50:33.999Z</time></trkpt><trkpt lat="43.308970905072016" lon="27.900816204615168"><ele>232.20000000000002</ele><time>2026-04-29T08:50:34.999Z</time></trkpt><trkpt lat="43.309086835666974" lon="27.900756644820152"><ele>232.60000000000002</ele><time>2026-04-29T08:50:36.999Z</time></trkpt><trkpt lat="43.3092018417415" lon="27.9007486027097"><ele>233.0</ele><time>2026-04-29T08:50:38.999Z</time></trkpt><trkpt lat="43.309265109496906" lon="27.90074433224895"><ele>233.0</ele><time>2026-04-29T08:50:39.999Z</time></trkpt><trkpt lat="43.30936719431823" lon="27.90073744170543"><ele>233.0</ele><time>2026-04-29T08:50:41.999Z</time></trkpt><trkpt lat="43.30945456305686" lon="27.900731544870556"><ele>233.0</ele><time>2026-04-29T08:50:43.999Z</time></trkpt><trkpt lat="43.30953478152226" lon="27.900725335966982"><ele>233.0</ele><time>2026-04-29T08:50:45.999Z</time></trkpt><trkpt lat="43.309639469866035" lon="27.900788645717853"><ele>233.0</ele><time>2026-04-29T08:50:47.999Z</time></trkpt><trkpt lat="43.30970927431847" lon="27.900857540753222"><ele>236.00000000000003</ele><time>2026-04-29T08:50:49.999Z</time></trkpt><trkpt lat="43.30975582439627" lon="27.90092027854047"><ele>239.0</ele><time>2026-04-29T08:50:54.999Z</time></trkpt><trkpt lat="43.30985569576348" lon="27.900921727617376"><ele>242.0</ele><time>2026-04-29T08:51:11.998Z</time></trkpt><trkpt lat="43.30992341559943" lon="27.90094604238092"><ele>245.0</ele><time>2026-04-29T08:51:13.998Z</time></trkpt><trkpt lat="43.309989231711256" lon="27.900985376438346"><ele>248.00000000000003</ele><time>2026-04-29T08:51:15.998Z</time></trkpt><trkpt lat="43.310071918414465" lon="27.901030706113225"><ele>251.0</ele><time>2026-04-29T08:51:17.998Z</time></trkpt><trkpt lat="43.31017095062737" lon="27.901058425051758"><ele>251.0</ele><time>2026-04-29T08:51:19.998Z</time></trkpt><trkpt lat="43.3102677005732" lon="27.90109662754138"><ele>251.00000000000003</ele><time>2026-04-29T08:51:21.998Z</time></trkpt><trkpt lat="43.31036049302003" lon="27.90117246488391"><ele>251.00000000000003</ele><time>2026-04-29T08:51:23.998Z</time></trkpt><trkpt lat="43.31046758476445" lon="27.901248516385245"><ele>251.0</ele><time>2026-04-29T08:51:25.998Z</time></trkpt><trkpt lat="43.31053106134212" lon="27.90125793219277"><ele>251.0</ele><time>2026-04-29T08:51:26.998Z</time></trkpt><trkpt lat="43.31062623686529" lon="27.901346334726487"><ele>250.66666666666669</ele><time>2026-04-29T08:51:28.998Z</time></trkpt><trkpt lat="43.31068751505161" lon="27.901428861178662"><ele>250.33333333333334</ele><time>2026-04-29T08:51:30.998Z</time></trkpt><trkpt lat="43.31072780097513" lon="27.90153433383753"><ele>250.0</ele><time>2026-04-29T08:51:32.999Z</time></trkpt><trkpt lat="43.310758038048164" lon="27.901646302249553"><ele>249.66666666666669</ele><time>2026-04-29T08:51:36Z</time></trkpt><trkpt lat="43.31079784552676" lon="27.901730595236618"><ele>249.33333333333334</ele><time>2026-04-29T08:51:39Z</time></trkpt><trkpt lat="43.31084116360222" lon="27.901843920663648"><ele>249.0</ele><time>2026-04-29T08:51:42Z</time></trkpt><trkpt lat="43.31090605254907" lon="27.901936886310967"><ele>249.0</ele><time>2026-04-29T08:51:44Z</time></trkpt><trkpt lat="43.31097248096921" lon="27.902016835691512"><ele>249.0</ele><time>2026-04-29T08:51:46Z</time></trkpt><trkpt lat="43.31105016032589" lon="27.90207819363412"><ele>249.0</ele><time>2026-04-29T08:51:49Z</time></trkpt><trkpt lat="43.31111377459704" lon="27.902146419817885"><ele>249.0</ele><time>2026-04-29T08:51:51Z</time></trkpt><trkpt lat="43.311162343953875" lon="27.90223048959044"><ele>249.0</ele><time>2026-04-29T08:51:53Z</time></trkpt><trkpt lat="43.311196029456816" lon="27.90233932890658"><ele>249.0</ele><time>2026-04-29T08:51:55Z</time></trkpt><trkpt lat="43.311243196318856" lon="27.90243933908675"><ele>249.0</ele><time>2026-04-29T08:51:58Z</time></trkpt><trkpt lat="43.311281752687776" lon="27.90252732158666"><ele>249.0</ele><time>2026-04-29T08:52:00Z</time></trkpt><trkpt lat="43.31132478056893" lon="27.902596342671256"><ele>249.0</ele><time>2026-04-29T08:52:02.999Z</time></trkpt><trkpt lat="43.31134861315178" lon="27.90269130279441"><ele>249.0</ele><time>2026-04-29T08:52:05.999Z</time></trkpt><trkpt lat="43.31137401637104" lon="27.90279183231968"><ele>249.0</ele><time>2026-04-29T08:52:11.999Z</time></trkpt><trkpt lat="43.31138611403229" lon="27.902927845181523"><ele>249.0</ele><time>2026-04-29T08:52:14.999Z</time></trkpt><trkpt lat="43.31145423353592" lon="27.90304639341933"><ele>246.83333333333334</ele><time>2026-04-29T08:52:16.999Z</time></trkpt><trkpt lat="43.311501666595774" lon="27.903121630036196"><ele>244.66666666666669</ele><time>2026-04-29T08:52:18.999Z</time></trkpt><trkpt lat="43.31155630024771" lon="27.903204383817933"><ele>242.5</ele><time>2026-04-29T08:52:20.999Z</time></trkpt><trkpt lat="43.31161688499829" lon="27.903253411510768"><ele>240.33333333333334</ele><time>2026-04-29T08:52:22.999Z</time></trkpt><trkpt lat="43.311684217617845" lon="27.90322048385537"><ele>238.16666666666669</ele><time>2026-04-29T08:52:26.999Z</time></trkpt><trkpt lat="43.311734400813386" lon="27.903126079539064"><ele>236.0</ele><time>2026-04-29T08:52:30.999Z</time></trkpt><trkpt lat="43.31178582484392" lon="27.903058957818043"><ele>236.00000000000003</ele><time>2026-04-29T08:52:33.999Z</time></trkpt><trkpt lat="43.31180475384531" lon="27.902951044362613"><ele>236.0</ele><time>2026-04-29T08:52:36.999Z</time></trkpt><trkpt lat="43.31178979675775" lon="27.902849002302315"><ele>236.0</ele><time>2026-04-29T08:52:41.999Z</time></trkpt><trkpt lat="43.31172747522125" lon="27.902795695964297"><ele>236.0</ele><time>2026-04-29T08:52:44.999Z</time></trkpt><trkpt lat="43.311648694576085" lon="27.90271239865175"><ele>236.00000000000003</ele><time>2026-04-29T08:52:47.999Z</time></trkpt><trkpt lat="43.311625878934684" lon="27.90261037883791"><ele>236.0</ele><time>2026-04-29T08:52:51.999Z</time></trkpt><trkpt lat="43.311650214444406" lon="27.902528540928255"><ele>234.50000000000003</ele><time>2026-04-29T08:52:54.999Z</time></trkpt><trkpt lat="43.31162964359582" lon="27.902417827071556"><ele>233.0</ele><time>2026-04-29T08:52:57.999Z</time></trkpt><trkpt lat="43.3116358937235" lon="27.902329162975384"><ele>231.5</ele><time>2026-04-29T08:52:59.999Z</time></trkpt><trkpt lat="43.31164735048319" lon="27.902207994940124"><ele>230.0</ele><time>2026-04-29T08:53:01.999Z</time></trkpt><trkpt lat="43.311660693057256" lon="27.902119868670543"><ele>228.50000000000003</ele><time>2026-04-29T08:53:03.999Z</time></trkpt><trkpt lat="43.311670740466866" lon="27.902008102695582"><ele>227.0</ele><time>2026-04-29T08:53:07.999Z</time></trkpt><trkpt lat="43.311637483688976" lon="27.90187118091041"><ele>225.16666666666669</ele><time>2026-04-29T08:53:09.999Z</time></trkpt><trkpt lat="43.311622909777505" lon="27.901748073437826"><ele>223.33333333333334</ele><time>2026-04-29T08:53:11.998Z</time></trkpt><trkpt lat="43.31159604731867" lon="27.90165893711417"><ele>221.5</ele><time>2026-04-29T08:53:13.998Z</time></trkpt><trkpt lat="43.31159792641987" lon="27.901561738759305"><ele>219.66666666666669</ele><time>2026-04-29T08:53:15.998Z</time></trkpt><trkpt lat="43.31155672964125" lon="27.901441255541695"><ele>217.83333333333334</ele><time>2026-04-29T08:53:17.998Z</time></trkpt><trkpt lat="43.311522608507694" lon="27.901344119216912"><ele>216.0</ele><time>2026-04-29T08:53:19.998Z</time></trkpt><trkpt lat="43.31148599264069" lon="27.901219160804242"><ele>216.0</ele><time>2026-04-29T08:53:22.998Z</time></trkpt><trkpt lat="43.31146541522302" lon="27.90110247431589"><ele>216.0</ele><time>2026-04-29T08:53:24.998Z</time></trkpt><trkpt lat="43.311439886578675" lon="27.90100377544001"><ele>216.0</ele><time>2026-04-29T08:53:26.998Z</time></trkpt><trkpt lat="43.311443684846004" lon="27.900893731361933"><ele>216.0</ele><time>2026-04-29T08:53:28.998Z</time></trkpt><trkpt lat="43.311432832496614" lon="27.90075857825297"><ele>216.0</ele><time>2026-04-29T08:53:30.998Z</time></trkpt><trkpt lat="43.31143426432022" lon="27.900641220803234"><ele>216.0</ele><time>2026-04-29T08:53:33.998Z</time></trkpt><trkpt lat="43.31146208987483" lon="27.9005480457407"><ele>214.0</ele><time>2026-04-29T08:53:35.998Z</time></trkpt><trkpt lat="43.311508296277026" lon="27.900434186875135"><ele>212.00000000000003</ele><time>2026-04-29T08:53:37.998Z</time></trkpt><trkpt lat="43.31157245636062" lon="27.900378366995877"><ele>210.0</ele><time>2026-04-29T08:53:41Z</time></trkpt><trkpt lat="43.311631493317485" lon="27.90030148991545"><ele>208.0</ele><time>2026-04-29T08:53:45Z</time></trkpt><trkpt lat="43.31157138001539" lon="27.900170485201954"><ele>206.0</ele><time>2026-04-29T08:53:48Z</time></trkpt><trkpt lat="43.31151887611387" lon="27.900057963090827"><ele>204.50000000000003</ele><time>2026-04-29T08:53:50Z</time></trkpt><trkpt lat="43.31151971383635" lon="27.899926469345218"><ele>203.0</ele><time>2026-04-29T08:53:52Z</time></trkpt><trkpt lat="43.31154453200642" lon="27.899817272909846"><ele>201.5</ele><time>2026-04-29T08:53:54Z</time></trkpt><trkpt lat="43.31155023345522" lon="27.899708617855353"><ele>200.0</ele><time>2026-04-29T08:53:56Z</time></trkpt><trkpt lat="43.311517211567164" lon="27.899612700812117"><ele>198.50000000000003</ele><time>2026-04-29T08:53:58Z</time></trkpt><trkpt lat="43.31149295930951" lon="27.89949035250797"><ele>197.0</ele><time>2026-04-29T08:54:00Z</time></trkpt><trkpt lat="43.31144496680055" lon="27.899416773348023"><ele>196.14285714285714</ele><time>2026-04-29T08:54:02Z</time></trkpt><trkpt lat="43.31139554644335" lon="27.89934061997507"><ele>195.28571428571428</ele><time>2026-04-29T08:54:04Z</time></trkpt><trkpt lat="43.31135337001073" lon="27.89924819346191"><ele>194.42857142857144</ele><time>2026-04-29T08:54:11Z</time></trkpt><trkpt lat="43.311331636529026" lon="27.8991656175684"><ele>193.57142857142856</ele><time>2026-04-29T08:54:33.999Z</time></trkpt><trkpt lat="43.31129172635844" lon="27.899097549896688"><ele>192.7142857142857</ele><time>2026-04-29T08:54:44.999Z</time></trkpt><trkpt lat="43.31125515207022" lon="27.89902218083595"><ele>191.85714285714286</ele><time>2026-04-29T08:54:53.999Z</time></trkpt><trkpt lat="43.311252681980086" lon="27.89892609039494"><ele>191.0</ele><time>2026-04-29T08:55:01.999Z</time></trkpt><trkpt lat="43.31126178931227" lon="27.898815072061897"><ele>191.0</ele><time>2026-04-29T08:55:35.998Z</time></trkpt><trkpt lat="43.311257001707496" lon="27.89870018262139"><ele>191.0</ele><time>2026-04-29T08:55:38.998Z</time></trkpt><trkpt lat="43.311238093666574" lon="27.898594064449284"><ele>191.0</ele><time>2026-04-29T08:55:41.998Z</time></trkpt><trkpt lat="43.31127132538991" lon="27.898504109585485"><ele>191.0</ele><time>2026-04-29T08:55:46Z</time></trkpt><trkpt lat="43.31125645891519" lon="27.898412620257336"><ele>191.0</ele><time>2026-04-29T08:55:51Z</time></trkpt><trkpt lat="43.31119079321008" lon="27.89838962656581"><ele>191.0</ele><time>2026-04-29T08:55:54Z</time></trkpt><trkpt lat="43.31111940053508" lon="27.898376272253973"><ele>191.0</ele><time>2026-04-29T08:56:06Z</time></trkpt><trkpt lat="43.311116133917054" lon="27.898288887094083"><ele>189.71428571428572</ele><time>2026-04-29T08:56:11Z</time></trkpt><trkpt lat="43.31114795270185" lon="27.898202949662636"><ele>188.42857142857142</ele><time>2026-04-29T08:56:15Z</time></trkpt><trkpt lat="43.31118974462016" lon="27.898134484188787"><ele>187.14285714285714</ele><time>2026-04-29T08:56:29Z</time></trkpt><trkpt lat="43.31123132378498" lon="27.89806759622821"><ele>185.85714285714286</ele><time>2026-04-29T08:56:51.999Z</time></trkpt><trkpt lat="43.31129758191369" lon="27.898102558138028"><ele>184.57142857142856</ele><time>2026-04-29T08:56:57.999Z</time></trkpt><trkpt lat="43.31136111022309" lon="27.898119214491544"><ele>183.28571428571428</ele><time>2026-04-29T08:57:01.999Z</time></trkpt><trkpt lat="43.31143089181771" lon="27.898143179864576"><ele>182.0</ele><time>2026-04-29T08:57:04.999Z</time></trkpt><trkpt lat="43.311498398984796" lon="27.898141163300416"><ele>181.66666666666666</ele><time>2026-04-29T08:57:14.999Z</time></trkpt><trkpt lat="43.31156764060105" lon="27.898127955788926"><ele>181.33333333333331</ele><time>2026-04-29T08:57:19.999Z</time></trkpt><trkpt lat="43.31163166567457" lon="27.8981507052884"><ele>181.0</ele><time>2026-04-29T08:57:26.999Z</time></trkpt><trkpt lat="43.31169961560131" lon="27.898174384654947"><ele>180.66666666666666</ele><time>2026-04-29T08:57:31.999Z</time></trkpt><trkpt lat="43.31180555999446" lon="27.898187515192134"><ele>180.33333333333334</ele><time>2026-04-29T08:57:38.998Z</time></trkpt><trkpt lat="43.31192146992195" lon="27.898160074768185"><ele>180.0</ele><time>2026-04-29T08:57:40.998Z</time></trkpt><trkpt lat="43.31204394110523" lon="27.89811643056943"><ele>180.0</ele><time>2026-04-29T08:57:42.998Z</time></trkpt><trkpt lat="43.312119018711606" lon="27.89806353808686"><ele>180.0</ele><time>2026-04-29T08:57:43.998Z</time></trkpt><trkpt lat="43.31218231977532" lon="27.898010411598264"><ele>180.0</ele><time>2026-04-29T08:57:44.998Z</time></trkpt><trkpt lat="43.312205379695946" lon="27.897911662596883"><ele>180.0</ele><time>2026-04-29T08:57:45.998Z</time></trkpt><trkpt lat="43.3122487811063" lon="27.897833996091066"><ele>180.0</ele><time>2026-04-29T08:57:46.998Z</time></trkpt><trkpt lat="43.312233874245024" lon="27.897722307707102"><ele>180.0</ele><time>2026-04-29T08:57:47.998Z</time></trkpt><trkpt lat="43.31224647369504" lon="27.89759474984377"><ele>181.4</ele><time>2026-04-29T08:57:49.998Z</time></trkpt><trkpt lat="43.312226001184754" lon="27.897498324517148"><ele>182.8</ele><time>2026-04-29T08:57:53Z</time></trkpt><trkpt lat="43.31221720639784" lon="27.897362962723502"><ele>184.2</ele><time>2026-04-29T08:57:55Z</time></trkpt><trkpt lat="43.312192315657015" lon="27.89721342606812"><ele>185.6</ele><time>2026-04-29T08:57:57Z</time></trkpt><trkpt lat="43.31215988734059" lon="27.897105940209215"><ele>187.0</ele><time>2026-04-29T08:57:59Z</time></trkpt><trkpt lat="43.31216121591011" lon="27.896977928355394"><ele>187.0</ele><time>2026-04-29T08:58:01Z</time></trkpt><trkpt lat="43.31214943124857" lon="27.896851542463793"><ele>187.0</ele><time>2026-04-29T08:58:03Z</time></trkpt><trkpt lat="43.3121503147584" lon="27.89673032316834"><ele>187.0</ele><time>2026-04-29T08:58:05Z</time></trkpt><trkpt lat="43.31217621597382" lon="27.89663631339301"><ele>187.0</ele><time>2026-04-29T08:58:07Z</time></trkpt><trkpt lat="43.31216661147456" lon="27.896540778368195"><ele>187.0</ele><time>2026-04-29T08:58:13Z</time></trkpt><trkpt lat="43.3121697241819" lon="27.896423402314742"><ele>187.0</ele><time>2026-04-29T08:58:18Z</time></trkpt><trkpt lat="43.312212493623036" lon="27.896315024918874"><ele>185.33333333333334</ele><time>2026-04-29T08:58:22Z</time></trkpt><trkpt lat="43.31229880801552" lon="27.896271127758403"><ele>183.66666666666669</ele><time>2026-04-29T08:58:27Z</time></trkpt><trkpt lat="43.31235811074688" lon="27.896240482916614"><ele>182.0</ele><time>2026-04-29T08:58:33Z</time></trkpt><trkpt lat="43.312450818231646" lon="27.89620381762507"><ele>180.33333333333334</ele><time>2026-04-29T08:58:38Z</time></trkpt><trkpt lat="43.31253842247899" lon="27.89617735403576"><ele>178.66666666666666</ele><time>2026-04-29T08:58:40Z</time></trkpt><trkpt lat="43.312634960755986" lon="27.896175255524685"><ele>177.0</ele><time>2026-04-29T08:58:41.999Z</time></trkpt><trkpt lat="43.31275127359959" lon="27.896208035291682"><ele>177.0</ele><time>2026-04-29T08:58:43.999Z</time></trkpt><trkpt lat="43.31280970207742" lon="27.896247707599333"><ele>177.0</ele><time>2026-04-29T08:58:44.999Z</time></trkpt><trkpt lat="43.31290006641671" lon="27.89618433058236"><ele>177.0</ele><time>2026-04-29T08:58:46.999Z</time></trkpt><trkpt lat="43.31296631708812" lon="27.89616806859712"><ele>177.0</ele><time>2026-04-29T08:58:48.999Z</time></trkpt><trkpt lat="43.31301378268462" lon="27.89610499612888"><ele>177.0</ele><time>2026-04-29T08:58:50.999Z</time></trkpt><trkpt lat="43.31306485612697" lon="27.896043401938503"><ele>177.0</ele><time>2026-04-29T08:58:52.999Z</time></trkpt><trkpt lat="43.31312279427167" lon="27.895973528739077"><ele>177.0</ele><time>2026-04-29T08:58:54.999Z</time></trkpt><trkpt lat="43.31314320210772" lon="27.89581485124079"><ele>177.8</ele><time>2026-04-29T08:58:56.999Z</time></trkpt><trkpt lat="43.31311606967519" lon="27.89563589496568"><ele>178.6</ele><time>2026-04-29T08:58:58.999Z</time></trkpt><trkpt lat="43.31310772574351" lon="27.8955195496203"><ele>179.4</ele><time>2026-04-29T08:58:59.999Z</time></trkpt><trkpt lat="43.31309402352009" lon="27.895394976740246"><ele>180.20000000000002</ele><time>2026-04-29T08:59:00.999Z</time></trkpt><trkpt lat="43.31307385892651" lon="27.89526875594721"><ele>181.0</ele><time>2026-04-29T08:59:01.999Z</time></trkpt><trkpt lat="43.31305770347491" lon="27.895167630406288"><ele>180.16666666666669</ele><time>2026-04-29T08:59:02.999Z</time></trkpt><trkpt lat="43.313060851394184" lon="27.895064389707105"><ele>179.33333333333334</ele><time>2026-04-29T08:59:03.999Z</time></trkpt><trkpt lat="43.313060851400834" lon="27.894951151426753"><ele>178.5</ele><time>2026-04-29T08:59:05.999Z</time></trkpt><trkpt lat="43.31310425323414" lon="27.894869127269033"><ele>177.66666666666666</ele><time>2026-04-29T08:59:07.999Z</time></trkpt><trkpt lat="43.31317296028718" lon="27.894794631040828"><ele>176.83333333333331</ele><time>2026-04-29T08:59:10.999Z</time></trkpt><trkpt lat="43.313239569442715" lon="27.894683686035833"><ele>176.0</ele><time>2026-04-29T08:59:13.999Z</time></trkpt><trkpt lat="43.31331039201461" lon="27.894605192203425"><ele>176.0</ele><time>2026-04-29T08:59:15.999Z</time></trkpt><trkpt lat="43.31341133537173" lon="27.894537438885028"><ele>176.0</ele><time>2026-04-29T08:59:17.999Z</time></trkpt><trkpt lat="43.31350466413312" lon="27.894452821493207"><ele>176.0</ele><time>2026-04-29T08:59:19.999Z</time></trkpt><trkpt lat="43.3136040983525" lon="27.89438057855468"><ele>176.0</ele><time>2026-04-29T08:59:21.999Z</time></trkpt><trkpt lat="43.313699019808176" lon="27.894324610282588"><ele>176.0</ele><time>2026-04-29T08:59:23.999Z</time></trkpt><trkpt lat="43.3138291007771" lon="27.89430777151746"><ele>176.0</ele><time>2026-04-29T08:59:25.999Z</time></trkpt><trkpt lat="43.31389710256256" lon="27.894292025001597"><ele>176.0</ele><time>2026-04-29T08:59:26.999Z</time></trkpt><trkpt lat="43.31396648056981" lon="27.894297237001478"><ele>176.0</ele><time>2026-04-29T08:59:27.999Z</time></trkpt><trkpt lat="43.31406095886163" lon="27.89431929326549"><ele>176.0</ele><time>2026-04-29T08:59:29.999Z</time></trkpt><trkpt lat="43.314175033623286" lon="27.894352613609566"><ele>176.0</ele><time>2026-04-29T08:59:31.999Z</time></trkpt><trkpt lat="43.31425891273416" lon="27.89435930144062"><ele>176.0</ele><time>2026-04-29T08:59:33.999Z</time></trkpt><trkpt lat="43.314374454111245" lon="27.894368513756014"><ele>176.0</ele><time>2026-04-29T08:59:35.999Z</time></trkpt><trkpt lat="43.31443742563977" lon="27.8943725579676"><ele>176.0</ele><time>2026-04-29T08:59:36.999Z</time></trkpt><trkpt lat="43.3145021299708" lon="27.894369418882338"><ele>176.0</ele><time>2026-04-29T08:59:37.999Z</time></trkpt><trkpt lat="43.314652750110376" lon="27.894338845773124"><ele>176.0</ele><time>2026-04-29T08:59:39.999Z</time></trkpt><trkpt lat="43.31473612878347" lon="27.89429877171015"><ele>176.0</ele><time>2026-04-29T08:59:40.999Z</time></trkpt><trkpt lat="43.31482026042378" lon="27.894224284242977"><ele>174.66666666666666</ele><time>2026-04-29T08:59:41.999Z</time></trkpt><trkpt lat="43.314899721247656" lon="27.894176250894283"><ele>173.33333333333331</ele><time>2026-04-29T08:59:42.998Z</time></trkpt><trkpt lat="43.314978902623345" lon="27.89413684007345"><ele>172.0</ele><time>2026-04-29T08:59:43.998Z</time></trkpt><trkpt lat="43.31505006684316" lon="27.894108843312438"><ele>170.66666666666666</ele><time>2026-04-29T08:59:44.998Z</time></trkpt><trkpt lat="43.31511594679228" lon="27.894085772913904"><ele>169.33333333333334</ele><time>2026-04-29T08:59:45.998Z</time></trkpt><trkpt lat="43.31520282824833" lon="27.8940631558852"><ele>168.0</ele><time>2026-04-29T08:59:46.998Z</time></trkpt><trkpt lat="43.31527741446837" lon="27.89404373957486"><ele>168.0</ele><time>2026-04-29T08:59:47.998Z</time></trkpt><trkpt lat="43.3153417696585" lon="27.89402698666962"><ele>168.0</ele><time>2026-04-29T08:59:48.998Z</time></trkpt><trkpt lat="43.31539682343992" lon="27.89410118509982"><ele>168.0</ele><time>2026-04-29T08:59:49.998Z</time></trkpt><trkpt lat="43.31547614335688" lon="27.894134192379124"><ele>168.0</ele><time>2026-04-29T08:59:50.998Z</time></trkpt><trkpt lat="43.315547558513714" lon="27.894162966090537"><ele>168.0</ele><time>2026-04-29T08:59:51.998Z</time></trkpt><trkpt lat="43.315634822088434" lon="27.894181462792925"><ele>168.0</ele><time>2026-04-29T08:59:52.998Z</time></trkpt><trkpt lat="43.315721900806665" lon="27.89421282787181"><ele>167.33333333333334</ele><time>2026-04-29T08:59:53.998Z</time></trkpt><trkpt lat="43.31580833567497" lon="27.89423435028162"><ele>166.66666666666666</ele><time>2026-04-29T08:59:54.998Z</time></trkpt><trkpt lat="43.315883681778196" lon="27.894258478364524"><ele>166.0</ele><time>2026-04-29T08:59:55.998Z</time></trkpt><trkpt lat="43.31595292928396" lon="27.894296868157344"><ele>165.33333333333331</ele><time>2026-04-29T08:59:57Z</time></trkpt><trkpt lat="43.316031516247726" lon="27.89432160700613"><ele>164.66666666666666</ele><time>2026-04-29T08:59:58Z</time></trkpt><trkpt lat="43.31610761823313" lon="27.894345607478314"><ele>164.0</ele><time>2026-04-29T08:59:59Z</time></trkpt><trkpt lat="43.31619206993244" lon="27.894372241213073"><ele>164.83333333333331</ele><time>2026-04-29T09:00:00Z</time></trkpt><trkpt lat="43.31627273491638" lon="27.894374933821958"><ele>165.66666666666666</ele><time>2026-04-29T09:00:01Z</time></trkpt><trkpt lat="43.316345009727236" lon="27.894398574143782"><ele>166.5</ele><time>2026-04-29T09:00:02Z</time></trkpt><trkpt lat="43.3164219575101" lon="27.894432772107333"><ele>167.33333333333334</ele><time>2026-04-29T09:00:03Z</time></trkpt><trkpt lat="43.316486940583175" lon="27.894481860757192"><ele>168.16666666666669</ele><time>2026-04-29T09:00:04Z</time></trkpt><trkpt lat="43.31656668691018" lon="27.89449470829387"><ele>169.0</ele><time>2026-04-29T09:00:05Z</time></trkpt><trkpt lat="43.31663384169399" lon="27.89453595182845"><ele>169.0</ele><time>2026-04-29T09:00:06Z</time></trkpt><trkpt lat="43.31669601376146" lon="27.894577197963468"><ele>169.0</ele><time>2026-04-29T09:00:07Z</time></trkpt><trkpt lat="43.31676153719389" lon="27.894621162307534"><ele>169.0</ele><time>2026-04-29T09:00:08Z</time></trkpt><trkpt lat="43.31683505970882" lon="27.89465179511763"><ele>169.0</ele><time>2026-04-29T09:00:09Z</time></trkpt><trkpt lat="43.316936037752555" lon="27.89465857593603"><ele>169.0</ele><time>2026-04-29T09:00:11Z</time></trkpt><trkpt lat="43.31700698934779" lon="27.89462726629426"><ele>169.0</ele><time>2026-04-29T09:00:14Z</time></trkpt><trkpt lat="43.31707467649653" lon="27.894590172714768"><ele>169.0</ele><time>2026-04-29T09:00:18Z</time></trkpt><trkpt lat="43.31713409456387" lon="27.89454538185254"><ele>169.0</ele><time>2026-04-29T09:00:27Z</time></trkpt><trkpt lat="43.31720047886937" lon="27.894543740126053"><ele>169.0</ele><time>2026-04-29T09:00:30Z</time></trkpt><trkpt lat="43.3172550322641" lon="27.89447578735791"><ele>169.0</ele><time>2026-04-29T09:00:32Z</time></trkpt><trkpt lat="43.31731143402416" lon="27.8944238458314"><ele>169.0</ele><time>2026-04-29T09:00:34Z</time></trkpt><trkpt lat="43.31739264367588" lon="27.89432596757279"><ele>169.0</ele><time>2026-04-29T09:00:36Z</time></trkpt><trkpt lat="43.31745593372741" lon="27.89421517970214"><ele>168.39999999999998</ele><time>2026-04-29T09:00:38Z</time></trkpt><trkpt lat="43.31752369969576" lon="27.894106367175883"><ele>167.8</ele><time>2026-04-29T09:00:40Z</time></trkpt><trkpt lat="43.31758405085242" lon="27.893988685404334"><ele>167.2</ele><time>2026-04-29T09:00:42Z</time></trkpt><trkpt lat="43.317692952797934" lon="27.89399061475377"><ele>166.60000000000002</ele><time>2026-04-29T09:00:43.999Z</time></trkpt><trkpt lat="43.317813961543905" lon="27.893993308174974"><ele>166.0</ele><time>2026-04-29T09:00:45.999Z</time></trkpt><trkpt lat="43.31788694442135" lon="27.893996228159114"><ele>166.0</ele><time>2026-04-29T09:00:46.999Z</time></trkpt><trkpt lat="43.3179606836487" lon="27.89401080394043"><ele>166.0</ele><time>2026-04-29T09:00:47.999Z</time></trkpt><trkpt lat="43.318049671776784" lon="27.894010803946376"><ele>166.0</ele><time>2026-04-29T09:00:49.999Z</time></trkpt><trkpt lat="43.318103505269306" lon="27.89395777019121"><ele>166.0</ele><time>2026-04-29T09:00:52.999Z</time></trkpt><trkpt lat="43.31817777760354" lon="27.893943227450084"><ele>166.0</ele><time>2026-04-29T09:00:54.999Z</time></trkpt><trkpt lat="43.31824060100102" lon="27.893829383603112"><ele>166.0</ele><time>2026-04-29T09:00:57.999Z</time></trkpt><trkpt lat="43.318324031346435" lon="27.89376753957935"><ele>165.5</ele><time>2026-04-29T09:00:59.999Z</time></trkpt><trkpt lat="43.31841344282838" lon="27.893722796851076"><ele>165.0</ele><time>2026-04-29T09:01:01.999Z</time></trkpt><trkpt lat="43.318513317609906" lon="27.89369913118749"><ele>164.5</ele><time>2026-04-29T09:01:03.999Z</time></trkpt><trkpt lat="43.31859748021174" lon="27.893690791601554"><ele>164.0</ele><time>2026-04-29T09:01:04.999Z</time></trkpt><trkpt lat="43.31866257370272" lon="27.893725124012008"><ele>163.5</ele><time>2026-04-29T09:01:05.999Z</time></trkpt><trkpt lat="43.31872720150106" lon="27.893759210833835"><ele>163.0</ele><time>2026-04-29T09:01:06.999Z</time></trkpt><trkpt lat="43.318787965079395" lon="27.893791259516448"><ele>163.0</ele><time>2026-04-29T09:01:07.999Z</time></trkpt><trkpt lat="43.318855649781135" lon="27.893857130527646"><ele>163.0</ele><time>2026-04-29T09:01:08.999Z</time></trkpt><trkpt lat="43.31891301361004" lon="27.89391581562546"><ele>163.0</ele><time>2026-04-29T09:01:09.999Z</time></trkpt><trkpt lat="43.31896587236988" lon="27.893971670899067"><ele>163.0</ele><time>2026-04-29T09:01:10.999Z</time></trkpt><trkpt lat="43.319019300342575" lon="27.89402834524143"><ele>163.0</ele><time>2026-04-29T09:01:11.999Z</time></trkpt><trkpt lat="43.31907926815676" lon="27.894094581314864"><ele>163.0</ele><time>2026-04-29T09:01:12.999Z</time></trkpt><trkpt lat="43.319138092545685" lon="27.894163313762544"><ele>163.0</ele><time>2026-04-29T09:01:13.999Z</time></trkpt><trkpt lat="43.31918559745767" lon="27.894232296395188"><ele>162.83333333333334</ele><time>2026-04-29T09:01:14.999Z</time></trkpt><trkpt lat="43.31926297720028" lon="27.894217744832833"><ele>162.66666666666669</ele><time>2026-04-29T09:01:16.999Z</time></trkpt><trkpt lat="43.31934103085428" lon="27.89421435824793"><ele>162.5</ele><time>2026-04-29T09:01:21.999Z</time></trkpt><trkpt lat="43.31941820792772" lon="27.89419571724999"><ele>162.33333333333334</ele><time>2026-04-29T09:01:25.999Z</time></trkpt><trkpt lat="43.319508905079836" lon="27.89420808297527"><ele>162.16666666666666</ele><time>2026-04-29T09:01:27.999Z</time></trkpt><trkpt lat="43.31962004681904" lon="27.894165769115528"><ele>162.0</ele><time>2026-04-29T09:01:29.999Z</time></trkpt><trkpt lat="43.319739976371466" lon="27.89410999071629"><ele>162.0</ele><time>2026-04-29T09:01:31.999Z</time></trkpt><trkpt lat="43.31982150564288" lon="27.894054128578407"><ele>162.0</ele><time>2026-04-29T09:01:32.999Z</time></trkpt><trkpt lat="43.31989614997229" lon="27.893994782425224"><ele>162.0</ele><time>2026-04-29T09:01:33.999Z</time></trkpt><trkpt lat="43.319971819281875" lon="27.89393462128559"><ele>162.0</ele><time>2026-04-29T09:01:34.999Z</time></trkpt><trkpt lat="43.32004941220636" lon="27.893872931006765"><ele>162.0</ele><time>2026-04-29T09:01:35.999Z</time></trkpt><trkpt lat="43.32011252120188" lon="27.893848456621193"><ele>162.0</ele><time>2026-04-29T09:01:36.999Z</time></trkpt><trkpt lat="43.32017403528477" lon="27.893817022707847"><ele>162.0</ele><time>2026-04-29T09:01:37.999Z</time></trkpt><trkpt lat="43.32027571138011" lon="27.893782888370115"><ele>162.0</ele><time>2026-04-29T09:01:39.999Z</time></trkpt><trkpt lat="43.32034889123571" lon="27.89375360956292"><ele>162.0</ele><time>2026-04-29T09:01:41.999Z</time></trkpt><trkpt lat="43.32041952169222" lon="27.893760236558013"><ele>162.0</ele><time>2026-04-29T09:01:44.999Z</time></trkpt><trkpt lat="43.32048596010283" lon="27.89375397897034"><ele>162.0</ele><time>2026-04-29T09:01:46.998Z</time></trkpt><trkpt lat="43.32057914396041" lon="27.893745300956727"><ele>162.0</ele><time>2026-04-29T09:01:49.998Z</time></trkpt><trkpt lat="43.32064746890627" lon="27.893748489620492"><ele>162.14285714285714</ele><time>2026-04-29T09:01:50.998Z</time></trkpt><trkpt lat="43.320717074272125" lon="27.89375376999693"><ele>162.28571428571428</ele><time>2026-04-29T09:01:51.998Z</time></trkpt><trkpt lat="43.320789797974285" lon="27.89376666730617"><ele>162.42857142857144</ele><time>2026-04-29T09:01:52.998Z</time></trkpt><trkpt lat="43.3208549694011" lon="27.893774252403368"><ele>162.57142857142856</ele><time>2026-04-29T09:01:53.998Z</time></trkpt><trkpt lat="43.320931879703075" lon="27.893775524385735"><ele>162.7142857142857</ele><time>2026-04-29T09:01:54.998Z</time></trkpt><trkpt lat="43.32100985311978" lon="27.893768782935528"><ele>162.85714285714286</ele><time>2026-04-29T09:01:55.998Z</time></trkpt><trkpt lat="43.321047487238054" lon="27.893868216858444"><ele>163.0</ele><time>2026-04-29T09:01:56.998Z</time></trkpt><trkpt lat="43.32112129389266" lon="27.893974398216834"><ele>163.0</ele><time>2026-04-29T09:01:58.998Z</time></trkpt><trkpt lat="43.32118121413739" lon="27.894033466006864"><ele>163.0</ele><time>2026-04-29T09:01:59.998Z</time></trkpt><trkpt lat="43.32120763924774" lon="27.89416563798907"><ele>163.0</ele><time>2026-04-29T09:02:00.998Z</time></trkpt><trkpt lat="43.321268098045635" lon="27.89423607548426"><ele>163.0</ele><time>2026-04-29T09:02:01.998Z</time></trkpt><trkpt lat="43.32133230599521" lon="27.894310459022236"><ele>163.0</ele><time>2026-04-29T09:02:03Z</time></trkpt><trkpt lat="43.32139204562263" lon="27.894380665211433"><ele>163.0</ele><time>2026-04-29T09:02:04Z</time></trkpt><trkpt lat="43.321453402504545" lon="27.894457634264484"><ele>162.16666666666669</ele><time>2026-04-29T09:02:05Z</time></trkpt><trkpt lat="43.32152301375614" lon="27.894511929954405"><ele>161.33333333333334</ele><time>2026-04-29T09:02:06Z</time></trkpt><trkpt lat="43.32160357054905" lon="27.8945703511195"><ele>160.5</ele><time>2026-04-29T09:02:07Z</time></trkpt><trkpt lat="43.321660888844335" lon="27.8946128837972"><ele>159.66666666666666</ele><time>2026-04-29T09:02:08Z</time></trkpt><trkpt lat="43.321714895289986" lon="27.894685334838577"><ele>158.83333333333331</ele><time>2026-04-29T09:02:10Z</time></trkpt><trkpt lat="43.32177787421849" lon="27.89472207927931"><ele>158.0</ele><time>2026-04-29T09:02:15Z</time></trkpt><trkpt lat="43.321850277208455" lon="27.894797522926368"><ele>158.0</ele><time>2026-04-29T09:02:19Z</time></trkpt><trkpt lat="43.32191267375063" lon="27.894872657678093"><ele>158.0</ele><time>2026-04-29T09:02:22Z</time></trkpt><trkpt lat="43.32198282072586" lon="27.89493914652989"><ele>158.0</ele><time>2026-04-29T09:02:25Z</time></trkpt><trkpt lat="43.32206693512896" lon="27.895002377076164"><ele>158.0</ele><time>2026-04-29T09:02:27Z</time></trkpt><trkpt lat="43.32213814223553" lon="27.895078480410508"><ele>158.0</ele><time>2026-04-29T09:02:29Z</time></trkpt><trkpt lat="43.322218915452346" lon="27.895129638248275"><ele>158.0</ele><time>2026-04-29T09:02:31Z</time></trkpt><trkpt lat="43.32232166003845" lon="27.895154802204118"><ele>158.33333333333331</ele><time>2026-04-29T09:02:33Z</time></trkpt><trkpt lat="43.32239530575859" lon="27.895147263090607"><ele>158.66666666666666</ele><time>2026-04-29T09:02:35Z</time></trkpt><trkpt lat="43.32248315450546" lon="27.894972696349196"><ele>159.0</ele><time>2026-04-29T09:03:13.999Z</time></trkpt><trkpt lat="43.3225200249319" lon="27.894882783075776"><ele>159.33333333333334</ele><time>2026-04-29T09:03:18.999Z</time></trkpt><trkpt lat="43.32253452488582" lon="27.89479787149836"><ele>159.66666666666669</ele><time>2026-04-29T09:03:22.999Z</time></trkpt><trkpt lat="43.32255720393963" lon="27.894700605095423"><ele>160.0</ele><time>2026-04-29T09:03:26.999Z</time></trkpt><trkpt lat="43.32257801868376" lon="27.894615120265218"><ele>159.0</ele><time>2026-04-29T09:03:40.999Z</time></trkpt><trkpt lat="43.32252003784014" lon="27.89452890173681"><ele>158.0</ele><time>2026-04-29T09:05:39.999Z</time></trkpt><trkpt lat="43.32252269975236" lon="27.89444033616354"><ele>157.0</ele><time>2026-04-29T09:06:02.998Z</time></trkpt><trkpt lat="43.32254744812709" lon="27.894520481057825"><ele>156.0</ele><time>2026-04-29T09:06:21Z</time></trkpt><trkpt lat="43.32262198425413" lon="27.894488765934888"><ele>155.0</ele><time>2026-04-29T09:06:51Z</time></trkpt><trkpt lat="43.322712262173695" lon="27.89443738721833"><ele>154.0</ele><time>2026-04-29T09:06:53Z</time></trkpt><trkpt lat="43.3228077506702" lon="27.89441649086836"><ele>154.0</ele><time>2026-04-29T09:06:56Z</time></trkpt><trkpt lat="43.322871415732685" lon="27.894403108329097"><ele>154.0</ele><time>2026-04-29T09:06:57.999Z</time></trkpt><trkpt lat="43.32293696373906" lon="27.894396375636532"><ele>154.0</ele><time>2026-04-29T09:06:59.999Z</time></trkpt><trkpt lat="43.32302563579671" lon="27.894400704741653"><ele>154.0</ele><time>2026-04-29T09:07:02.999Z</time></trkpt><trkpt lat="43.32310766454055" lon="27.89438798370762"><ele>154.0</ele><time>2026-04-29T09:07:04.999Z</time></trkpt><trkpt lat="43.32320186559889" lon="27.894373329240242"><ele>154.0</ele><time>2026-04-29T09:07:06.999Z</time></trkpt><trkpt lat="43.32331401204058" lon="27.894355875803665"><ele>155.33333333333334</ele><time>2026-04-29T09:07:08.999Z</time></trkpt><trkpt lat="43.323377608063495" lon="27.89434642561292"><ele>156.66666666666669</ele><time>2026-04-29T09:07:09.999Z</time></trkpt><trkpt lat="43.32349046459342" lon="27.894329416672957"><ele>158.0</ele><time>2026-04-29T09:07:11.999Z</time></trkpt><trkpt lat="43.32356414803708" lon="27.894305870677595"><ele>159.33333333333334</ele><time>2026-04-29T09:07:14.999Z</time></trkpt><trkpt lat="43.32363624988078" lon="27.894321445199715"><ele>160.66666666666666</ele><time>2026-04-29T09:07:16.999Z</time></trkpt><trkpt lat="43.32374596504654" lon="27.894290338844947"><ele>162.0</ele><time>2026-04-29T09:07:18.999Z</time></trkpt><trkpt lat="43.323816817826824" lon="27.894287408746035"><ele>163.66666666666666</ele><time>2026-04-29T09:07:19.999Z</time></trkpt><trkpt lat="43.323905138360445" lon="27.89426509281948"><ele>165.33333333333334</ele><time>2026-04-29T09:07:21.999Z</time></trkpt><trkpt lat="43.32397876457972" lon="27.89425355805004"><ele>167.0</ele><time>2026-04-29T09:07:22.999Z</time></trkpt><trkpt lat="43.32407139126106" lon="27.894224472541705"><ele>168.66666666666669</ele><time>2026-04-29T09:07:24.999Z</time></trkpt><trkpt lat="43.32414857104108" lon="27.89422726070431"><ele>170.33333333333334</ele><time>2026-04-29T09:07:27.999Z</time></trkpt><trkpt lat="43.32423757617991" lon="27.894191783276973"><ele>172.0</ele><time>2026-04-29T09:07:30.999Z</time></trkpt><trkpt lat="43.32431406235942" lon="27.894180874655927"><ele>172.83333333333334</ele><time>2026-04-29T09:07:33.999Z</time></trkpt><trkpt lat="43.324392682673306" lon="27.894176638901584"><ele>173.66666666666669</ele><time>2026-04-29T09:07:35.999Z</time></trkpt><trkpt lat="43.324485971720044" lon="27.8941904351068"><ele>174.5</ele><time>2026-04-29T09:07:37.999Z</time></trkpt><trkpt lat="43.32457626814808" lon="27.89418536998498"><ele>175.33333333333334</ele><time>2026-04-29T09:07:39.999Z</time></trkpt><trkpt lat="43.3246553345544" lon="27.89418093480274"><ele>176.16666666666666</ele><time>2026-04-29T09:07:41.999Z</time></trkpt><trkpt lat="43.324716014472045" lon="27.89415505465237"><ele>177.0</ele><time>2026-04-29T09:07:43.999Z</time></trkpt><trkpt lat="43.32479159704554" lon="27.894173111529003"><ele>178.5</ele><time>2026-04-29T09:07:47.999Z</time></trkpt><trkpt lat="43.32485575174262" lon="27.894165190291318"><ele>180.0</ele><time>2026-04-29T09:07:49.999Z</time></trkpt><trkpt lat="43.324934778217326" lon="27.894142013615234"><ele>181.5</ele><time>2026-04-29T09:07:52.999Z</time></trkpt><trkpt lat="43.325004079191295" lon="27.894121689447303"><ele>183.0</ele><time>2026-04-29T09:07:54.999Z</time></trkpt><trkpt lat="43.32509769494267" lon="27.894125152824046"><ele>184.5</ele><time>2026-04-29T09:07:57.999Z</time></trkpt><trkpt lat="43.32516739345188" lon="27.894102664559604"><ele>186.0</ele><time>2026-04-29T09:08:00.999Z</time></trkpt><trkpt lat="43.325240688338184" lon="27.894112047222983"><ele>186.0</ele><time>2026-04-29T09:08:02.999Z</time></trkpt><trkpt lat="43.325308918908156" lon="27.894084095478664"><ele>186.0</ele><time>2026-04-29T09:08:04.999Z</time></trkpt><trkpt lat="43.32537300275244" lon="27.894099196825326"><ele>186.0</ele><time>2026-04-29T09:08:06.999Z</time></trkpt><trkpt lat="43.32545980216039" lon="27.894325984732877"><ele>186.0</ele><time>2026-04-29T09:08:08.999Z</time></trkpt><trkpt lat="43.325530085349854" lon="27.894426811582527"><ele>186.0</ele><time>2026-04-29T09:08:09.999Z</time></trkpt><trkpt lat="43.325615809809555" lon="27.894523553019784"><ele>187.0</ele><time>2026-04-29T09:08:10.999Z</time></trkpt><trkpt lat="43.32571760595933" lon="27.89460729187854"><ele>188.0</ele><time>2026-04-29T09:08:11.998Z</time></trkpt><trkpt lat="43.32583130300033" lon="27.89468274652732"><ele>189.0</ele><time>2026-04-29T09:08:12.998Z</time></trkpt><trkpt lat="43.32596015105664" lon="27.89475008974464"><ele>190.0</ele><time>2026-04-29T09:08:13.998Z</time></trkpt><trkpt lat="43.326088127976874" lon="27.894819947276492"><ele>190.0</ele><time>2026-04-29T09:08:14.998Z</time></trkpt><trkpt lat="43.32621556664553" lon="27.89488391495543"><ele>190.0</ele><time>2026-04-29T09:08:15.998Z</time></trkpt><trkpt lat="43.3263453002189" lon="27.89495106332996"><ele>190.0</ele><time>2026-04-29T09:08:16.998Z</time></trkpt><trkpt lat="43.32647371739735" lon="27.895021717023695"><ele>190.0</ele><time>2026-04-29T09:08:17.998Z</time></trkpt><trkpt lat="43.326605184972685" lon="27.895087944885592"><ele>188.5</ele><time>2026-04-29T09:08:18.998Z</time></trkpt><trkpt lat="43.32673821838201" lon="27.89515107241218"><ele>187.0</ele><time>2026-04-29T09:08:19.998Z</time></trkpt><trkpt lat="43.32686742772754" lon="27.89521973063064"><ele>185.5</ele><time>2026-04-29T09:08:21Z</time></trkpt><trkpt lat="43.32699858076826" lon="27.895286278265242"><ele>184.0</ele><time>2026-04-29T09:08:22Z</time></trkpt><trkpt lat="43.32712971634761" lon="27.89535353241293"><ele>185.0</ele><time>2026-04-29T09:08:23Z</time></trkpt><trkpt lat="43.327261024404606" lon="27.895417812526567"><ele>186.0</ele><time>2026-04-29T09:08:24Z</time></trkpt><trkpt lat="43.327388197135704" lon="27.895482402792315"><ele>187.0</ele><time>2026-04-29T09:08:25Z</time></trkpt><trkpt lat="43.327511906814145" lon="27.895549347012693"><ele>188.0</ele><time>2026-04-29T09:08:26Z</time></trkpt><trkpt lat="43.32763697829441" lon="27.895614072518917"><ele>188.0</ele><time>2026-04-29T09:08:27Z</time></trkpt><trkpt lat="43.32776030871601" lon="27.895681651547857"><ele>188.0</ele><time>2026-04-29T09:08:28Z</time></trkpt><trkpt lat="43.327883683610665" lon="27.89574941430757"><ele>188.0</ele><time>2026-04-29T09:08:29Z</time></trkpt><trkpt lat="43.32801293038411" lon="27.895818149264574"><ele>188.0</ele><time>2026-04-29T09:08:30Z</time></trkpt><trkpt lat="43.328142597539674" lon="27.89588848818649"><ele>186.25</ele><time>2026-04-29T09:08:31Z</time></trkpt><trkpt lat="43.32827361414015" lon="27.895956957459465"><ele>184.5</ele><time>2026-04-29T09:08:32Z</time></trkpt><trkpt lat="43.32840323187743" lon="27.896031054746267"><ele>182.75</ele><time>2026-04-29T09:08:33Z</time></trkpt><trkpt lat="43.328532888736284" lon="27.896111235201282"><ele>181.0</ele><time>2026-04-29T09:08:34Z</time></trkpt><trkpt lat="43.32866185332078" lon="27.896194700136178"><ele>181.0</ele><time>2026-04-29T09:08:35Z</time></trkpt><trkpt lat="43.32878973883602" lon="27.896282485574975"><ele>181.0</ele><time>2026-04-29T09:08:36Z</time></trkpt><trkpt lat="43.328921873586054" lon="27.896370602098106"><ele>181.0</ele><time>2026-04-29T09:08:37Z</time></trkpt><trkpt lat="43.329053885868795" lon="27.896459534223748"><ele>181.0</ele><time>2026-04-29T09:08:38Z</time></trkpt><trkpt lat="43.329190395453004" lon="27.896543725719148"><ele>181.33333333333334</ele><time>2026-04-29T09:08:39Z</time></trkpt><trkpt lat="43.329325639161574" lon="27.89663013200089"><ele>181.66666666666666</ele><time>2026-04-29T09:08:40Z</time></trkpt><trkpt lat="43.32946256459725" lon="27.896719336935266"><ele>182.0</ele><time>2026-04-29T09:08:41Z</time></trkpt><trkpt lat="43.32960152957546" lon="27.89680934488392"><ele>181.0</ele><time>2026-04-29T09:08:42Z</time></trkpt><trkpt lat="43.32973889618964" lon="27.89690677851867"><ele>180.0</ele><time>2026-04-29T09:08:43Z</time></trkpt><trkpt lat="43.32988106545121" lon="27.89700270270771"><ele>179.0</ele><time>2026-04-29T09:08:44Z</time></trkpt><trkpt lat="43.330023415669764" lon="27.897101334862235"><ele>179.0</ele><time>2026-04-29T09:08:45Z</time></trkpt><trkpt lat="43.3301601351783" lon="27.8972042231467"><ele>179.0</ele><time>2026-04-29T09:08:46Z</time></trkpt><trkpt lat="43.33029094328339" lon="27.897309630768643"><ele>179.0</ele><time>2026-04-29T09:08:47Z</time></trkpt><trkpt lat="43.330420855640966" lon="27.89740318706038"><ele>179.0</ele><time>2026-04-29T09:08:48Z</time></trkpt><trkpt lat="43.33055105611825" lon="27.89749993937153"><ele>179.0</ele><time>2026-04-29T09:08:49Z</time></trkpt><trkpt lat="43.33068265447957" lon="27.89760362848212"><ele>179.0</ele><time>2026-04-29T09:08:50Z</time></trkpt><trkpt lat="43.330814058664245" lon="27.897701235900108"><ele>179.0</ele><time>2026-04-29T09:08:51Z</time></trkpt><trkpt lat="43.330939375922625" lon="27.89779474597774"><ele>177.5</ele><time>2026-04-29T09:08:52Z</time></trkpt><trkpt lat="43.33106358097509" lon="27.897883485624124"><ele>176.0</ele><time>2026-04-29T09:08:53Z</time></trkpt><trkpt lat="43.33118456926819" lon="27.89796888856126"><ele>174.5</ele><time>2026-04-29T09:08:54Z</time></trkpt><trkpt lat="43.33130059031649" lon="27.898054009265444"><ele>173.0</ele><time>2026-04-29T09:08:55Z</time></trkpt><trkpt lat="43.331418095569155" lon="27.898138903034752"><ele>172.5</ele><time>2026-04-29T09:08:56Z</time></trkpt><trkpt lat="43.33153698704695" lon="27.898227160468252"><ele>172.0</ele><time>2026-04-29T09:08:57Z</time></trkpt><trkpt lat="43.33165921857042" lon="27.89831463141315"><ele>171.5</ele><time>2026-04-29T09:08:58Z</time></trkpt><trkpt lat="43.33178230018586" lon="27.898405301039052"><ele>171.0</ele><time>2026-04-29T09:08:59Z</time></trkpt><trkpt lat="43.33190639402701" lon="27.89849473723973"><ele>168.75</ele><time>2026-04-29T09:08:59.999Z</time></trkpt><trkpt lat="43.33202623175753" lon="27.898581636500126"><ele>166.5</ele><time>2026-04-29T09:09:00.999Z</time></trkpt><trkpt lat="43.33214385948016" lon="27.898659284804264"><ele>164.25</ele><time>2026-04-29T09:09:01.999Z</time></trkpt><trkpt lat="43.332267467767636" lon="27.898716439099786"><ele>162.0</ele><time>2026-04-29T09:09:02.999Z</time></trkpt><trkpt lat="43.33239669074204" lon="27.89875271985898"><ele>160.5</ele><time>2026-04-29T09:09:03.999Z</time></trkpt><trkpt lat="43.33253093656625" lon="27.89877011136315"><ele>159.0</ele><time>2026-04-29T09:09:04.999Z</time></trkpt><trkpt lat="43.332660311008475" lon="27.898755831154677"><ele>157.5</ele><time>2026-04-29T09:09:05.999Z</time></trkpt><trkpt lat="43.33278643833987" lon="27.89873359511534"><ele>156.0</ele><time>2026-04-29T09:09:06.999Z</time></trkpt><trkpt lat="43.332912568790704" lon="27.89870190904545"><ele>156.0</ele><time>2026-04-29T09:09:07.999Z</time></trkpt><trkpt lat="43.33304069647945" lon="27.898670897012096"><ele>156.0</ele><time>2026-04-29T09:09:08.999Z</time></trkpt><trkpt lat="43.33316734010164" lon="27.89863787197519"><ele>156.0</ele><time>2026-04-29T09:09:09.999Z</time></trkpt><trkpt lat="43.33329410415639" lon="27.898604751938333"><ele>156.0</ele><time>2026-04-29T09:09:10.999Z</time></trkpt><trkpt lat="43.333419695805006" lon="27.89857134599144"><ele>154.25</ele><time>2026-04-29T09:09:11.999Z</time></trkpt><trkpt lat="43.33354596689866" lon="27.898539888212216"><ele>152.5</ele><time>2026-04-29T09:09:12.999Z</time></trkpt><trkpt lat="43.333674673644666" lon="27.8985070759616"><ele>150.75</ele><time>2026-04-29T09:09:13.999Z</time></trkpt><trkpt lat="43.33380679281136" lon="27.898472528577557"><ele>149.0</ele><time>2026-04-29T09:09:14.999Z</time></trkpt><trkpt lat="43.33394396669342" lon="27.89843191191637"><ele>151.25</ele><time>2026-04-29T09:09:15.999Z</time></trkpt><trkpt lat="43.33407505400298" lon="27.898388643618883"><ele>153.5</ele><time>2026-04-29T09:09:16.999Z</time></trkpt><trkpt lat="43.33420574094456" lon="27.898342376804507"><ele>155.75</ele><time>2026-04-29T09:09:17.999Z</time></trkpt><trkpt lat="43.334336044241525" lon="27.89829581293872"><ele>158.0</ele><time>2026-04-29T09:09:18.999Z</time></trkpt><trkpt lat="43.33446897174882" lon="27.8982483908825"><ele>158.0</ele><time>2026-04-29T09:09:19.999Z</time></trkpt><trkpt lat="43.33460255404751" lon="27.898198026004515"><ele>158.0</ele><time>2026-04-29T09:09:20.999Z</time></trkpt><trkpt lat="43.334738302763945" lon="27.898148616920686"><ele>158.0</ele><time>2026-04-29T09:09:21.999Z</time></trkpt><trkpt lat="43.33487396693744" lon="27.8981028207953"><ele>158.0</ele><time>2026-04-29T09:09:22.999Z</time></trkpt><trkpt lat="43.335006788710075" lon="27.89805507560212"><ele>154.75</ele><time>2026-04-29T09:09:23.999Z</time></trkpt><trkpt lat="43.33513503874363" lon="27.898008994957927"><ele>151.5</ele><time>2026-04-29T09:09:24.999Z</time></trkpt><trkpt lat="43.335256662115704" lon="27.897972859771684"><ele>148.25</ele><time>2026-04-29T09:09:25.999Z</time></trkpt><trkpt lat="43.33537229589757" lon="27.89793888026004"><ele>145.0</ele><time>2026-04-29T09:09:26.999Z</time></trkpt><trkpt lat="43.33548384093977" lon="27.89790589274382"><ele>143.8</ele><time>2026-04-29T09:09:27.999Z</time></trkpt><trkpt lat="43.33559564245901" lon="27.897875951574157"><ele>142.6</ele><time>2026-04-29T09:09:28.999Z</time></trkpt><trkpt lat="43.33570833414593" lon="27.897846605819502"><ele>141.4</ele><time>2026-04-29T09:09:29.999Z</time></trkpt><trkpt lat="43.335811702887746" lon="27.897804156241772"><ele>140.2</ele><time>2026-04-29T09:09:30.999Z</time></trkpt><trkpt lat="43.335918990718426" lon="27.89776426165223"><ele>139.0</ele><time>2026-04-29T09:09:31.999Z</time></trkpt><trkpt lat="43.33602202233185" lon="27.897735270335886"><ele>139.0</ele><time>2026-04-29T09:09:32.999Z</time></trkpt><trkpt lat="43.33611882914986" lon="27.897703220692073"><ele>139.0</ele><time>2026-04-29T09:09:33.999Z</time></trkpt><trkpt lat="43.33621163111134" lon="27.897665495626363"><ele>139.0</ele><time>2026-04-29T09:09:34.999Z</time></trkpt><trkpt lat="43.33629875419719" lon="27.89762503886244"><ele>139.0</ele><time>2026-04-29T09:09:35.999Z</time></trkpt><trkpt lat="43.33637653986669" lon="27.89756825050447"><ele>139.0</ele><time>2026-04-29T09:09:36.999Z</time></trkpt><trkpt lat="43.33644956402845" lon="27.897507266756577"><ele>138.33333333333334</ele><time>2026-04-29T09:09:37.999Z</time></trkpt><trkpt lat="43.33652374872116" lon="27.897432596144128"><ele>137.66666666666669</ele><time>2026-04-29T09:09:38.999Z</time></trkpt><trkpt lat="43.33659547350438" lon="27.897343166527513"><ele>137.0</ele><time>2026-04-29T09:09:39.999Z</time></trkpt><trkpt lat="43.336659470170154" lon="27.89724532909402"><ele>136.33333333333334</ele><time>2026-04-29T09:09:40.999Z</time></trkpt><trkpt lat="43.336714576072936" lon="27.897157881853715"><ele>135.66666666666666</ele><time>2026-04-29T09:09:41.999Z</time></trkpt><trkpt lat="43.33676187426316" lon="27.897071277318652"><ele>135.0</ele><time>2026-04-29T09:09:42.999Z</time></trkpt><trkpt lat="43.33679779912873" lon="27.896983345140512"><ele>135.0</ele><time>2026-04-29T09:09:43.999Z</time></trkpt><trkpt lat="43.336830144830195" lon="27.896888329641964"><ele>135.0</ele><time>2026-04-29T09:09:44.999Z</time></trkpt><trkpt lat="43.33685693920864" lon="27.896782940161135"><ele>135.0</ele><time>2026-04-29T09:09:45.999Z</time></trkpt><trkpt lat="43.33688127869224" lon="27.896665410987193"><ele>135.0</ele><time>2026-04-29T09:09:46.999Z</time></trkpt><trkpt lat="43.336904523579875" lon="27.89655968610998"><ele>135.0</ele><time>2026-04-29T09:09:47.999Z</time></trkpt><trkpt lat="43.336925130914125" lon="27.896449553744826"><ele>135.0</ele><time>2026-04-29T09:09:48.999Z</time></trkpt><trkpt lat="43.336938404147496" lon="27.896341470746208"><ele>135.0</ele><time>2026-04-29T09:09:49.999Z</time></trkpt><trkpt lat="43.33695644506714" lon="27.896237148231727"><ele>135.0</ele><time>2026-04-29T09:09:50.999Z</time></trkpt><trkpt lat="43.336974920644195" lon="27.896133318348625"><ele>135.0</ele><time>2026-04-29T09:09:51.999Z</time></trkpt><trkpt lat="43.33699225010434" lon="27.896032149434973"><ele>135.0</ele><time>2026-04-29T09:09:52.999Z</time></trkpt><trkpt lat="43.33701534406058" lon="27.895932142405144"><ele>135.0</ele><time>2026-04-29T09:09:53.999Z</time></trkpt><trkpt lat="43.33703634278584" lon="27.8958284292893"><ele>135.0</ele><time>2026-04-29T09:09:54.999Z</time></trkpt><trkpt lat="43.33705245445543" lon="27.895720506676312"><ele>134.66666666666666</ele><time>2026-04-29T09:09:55.999Z</time></trkpt><trkpt lat="43.337068649077224" lon="27.895612593949643"><ele>134.33333333333334</ele><time>2026-04-29T09:09:56.999Z</time></trkpt><trkpt lat="43.33708689498876" lon="27.895502933616516"><ele>134.0</ele><time>2026-04-29T09:09:57.999Z</time></trkpt><trkpt lat="43.33710725711974" lon="27.89539059012614"><ele>133.66666666666669</ele><time>2026-04-29T09:09:58.999Z</time></trkpt><trkpt lat="43.33712818685835" lon="27.895277528797077"><ele>133.33333333333334</ele><time>2026-04-29T09:09:59.999Z</time></trkpt><trkpt lat="43.337148180982695" lon="27.895161669242484"><ele>133.0</ele><time>2026-04-29T09:10:00.999Z</time></trkpt><trkpt lat="43.337166236145606" lon="27.89504649705012"><ele>132.8</ele><time>2026-04-29T09:10:01.999Z</time></trkpt><trkpt lat="43.33718480060275" lon="27.89493120016284"><ele>132.60000000000002</ele><time>2026-04-29T09:10:02.999Z</time></trkpt><trkpt lat="43.33720209384819" lon="27.894813082515235"><ele>132.39999999999998</ele><time>2026-04-29T09:10:03.999Z</time></trkpt><trkpt lat="43.33722489457416" lon="27.894691006868957"><ele>132.2</ele><time>2026-04-29T09:10:04.999Z</time></trkpt><trkpt lat="43.337249732853394" lon="27.894557674524986"><ele>132.0</ele><time>2026-04-29T09:10:05.999Z</time></trkpt><trkpt lat="43.33727476077588" lon="27.89441981031264"><ele>131.4</ele><time>2026-04-29T09:10:06.999Z</time></trkpt><trkpt lat="43.33729855311984" lon="27.894288003987004"><ele>130.79999999999998</ele><time>2026-04-29T09:10:07.999Z</time></trkpt><trkpt lat="43.33732234311739" lon="27.894162022249606"><ele>130.2</ele><time>2026-04-29T09:10:08.999Z</time></trkpt><trkpt lat="43.33734416445568" lon="27.89403397657161"><ele>129.6</ele><time>2026-04-29T09:10:09.999Z</time></trkpt><trkpt lat="43.33736431804687" lon="27.893906867829305"><ele>129.0</ele><time>2026-04-29T09:10:10.999Z</time></trkpt><trkpt lat="43.337391457306055" lon="27.893791018580202"><ele>128.83333333333334</ele><time>2026-04-29T09:10:11.999Z</time></trkpt><trkpt lat="43.337417278880224" lon="27.893678656582974"><ele>128.66666666666666</ele><time>2026-04-29T09:10:12.999Z</time></trkpt><trkpt lat="43.33749830449356" lon="27.89360567080591"><ele>128.5</ele><time>2026-04-29T09:10:13.999Z</time></trkpt><trkpt lat="43.337562403093095" lon="27.89355580980523"><ele>128.33333333333331</ele><time>2026-04-29T09:10:14.999Z</time></trkpt><trkpt lat="43.33763051497711" lon="27.893478858512072"><ele>128.16666666666666</ele><time>2026-04-29T09:10:16.999Z</time></trkpt><trkpt lat="43.33769868376591" lon="27.89341779235165"><ele>128.0</ele><time>2026-04-29T09:10:23.998Z</time></trkpt><trkpt lat="43.33786525674279" lon="27.893028756365506"><ele>130.0</ele><time>2026-04-29T09:10:25.998Z</time></trkpt><trkpt lat="43.337800346374365" lon="27.893305644212077"><ele>130.0</ele><time>2026-04-29T09:10:28Z</time></trkpt></trkseg><trkseg><trkpt lat="43.337841865732706" lon="27.893011666086807"><ele>130.0</ele><time>2026-04-29T09:54:05Z</time></trkpt><trkpt lat="43.3377647831394" lon="27.892997951048816"><ele>130.0</ele><time>2026-04-29T09:54:22Z</time></trkpt><trkpt lat="43.33769044695365" lon="27.893086667072414"><ele>130.0</ele><time>2026-04-29T09:54:24Z</time></trkpt><trkpt lat="43.33763877792479" lon="27.893211883868354"><ele>130.0</ele><time>2026-04-29T09:54:26Z</time></trkpt><trkpt lat="43.337660799276584" lon="27.893303747709457"><ele>130.0</ele><time>2026-04-29T09:54:28Z</time></trkpt><trkpt lat="43.33764262474437" lon="27.893436153310947"><ele>130.0</ele><time>2026-04-29T09:54:30Z</time></trkpt><trkpt lat="43.337595450228285" lon="27.89350618094269"><ele>129.6</ele><time>2026-04-29T09:54:31Z</time></trkpt><trkpt lat="43.337536659305925" lon="27.893545876261225"><ele>129.2</ele><time>2026-04-29T09:54:32Z</time></trkpt><trkpt lat="43.33746253807287" lon="27.89358399963172"><ele>128.8</ele><time>2026-04-29T09:54:33Z</time></trkpt><trkpt lat="43.337381780538806" lon="27.893670073552517"><ele>128.4</ele><time>2026-04-29T09:54:34Z</time></trkpt><trkpt lat="43.33731744434417" lon="27.893782528435892"><ele>128.0</ele><time>2026-04-29T09:54:35Z</time></trkpt><trkpt lat="43.33731382022551" lon="27.893939470815642"><ele>128.0</ele><time>2026-04-29T09:54:36Z</time></trkpt><trkpt lat="43.33729327695805" lon="27.894058708995722"><ele>128.0</ele><time>2026-04-29T09:54:37Z</time></trkpt><trkpt lat="43.33727291634421" lon="27.894177025309872"><ele>128.0</ele><time>2026-04-29T09:54:38Z</time></trkpt><trkpt lat="43.33725104093156" lon="27.894301389878294"><ele>128.0</ele><time>2026-04-29T09:54:39Z</time></trkpt><trkpt lat="43.33722725131964" lon="27.894437790844233"><ele>128.0</ele><time>2026-04-29T09:54:40Z</time></trkpt><trkpt lat="43.33720266864043" lon="27.894581073825076"><ele>128.8</ele><time>2026-04-29T09:54:41Z</time></trkpt><trkpt lat="43.33717776467879" lon="27.894726229430137"><ele>129.60000000000002</ele><time>2026-04-29T09:54:42Z</time></trkpt><trkpt lat="43.337152444735196" lon="27.894873809643816"><ele>130.39999999999998</ele><time>2026-04-29T09:54:43Z</time></trkpt><trkpt lat="43.33712731598193" lon="27.89502027547771"><ele>131.2</ele><time>2026-04-29T09:54:44Z</time></trkpt><trkpt lat="43.33710249666249" lon="27.895164893897146"><ele>132.0</ele><time>2026-04-29T09:54:45Z</time></trkpt><trkpt lat="43.337082213046656" lon="27.895282929872618"><ele>132.16666666666666</ele><time>2026-04-29T09:54:46Z</time></trkpt><trkpt lat="43.337067702487396" lon="27.895367370846294"><ele>132.33333333333334</ele><time>2026-04-29T09:54:47Z</time></trkpt><trkpt lat="43.33704510034032" lon="27.895499883463607"><ele>132.5</ele><time>2026-04-29T09:54:49Z</time></trkpt><trkpt lat="43.33703171679147" lon="27.895664168153065"><ele>132.66666666666669</ele><time>2026-04-29T09:54:51Z</time></trkpt><trkpt lat="43.337016625764385" lon="27.895763202991827"><ele>132.83333333333334</ele><time>2026-04-29T09:54:52Z</time></trkpt><trkpt lat="43.336997756511586" lon="27.895877625342383"><ele>133.0</ele><time>2026-04-29T09:54:53Z</time></trkpt><trkpt lat="43.33695829364112" lon="27.896011991638087"><ele>133.5</ele><time>2026-04-29T09:54:54Z</time></trkpt><trkpt lat="43.33693235477593" lon="27.89616501595373"><ele>134.0</ele><time>2026-04-29T09:54:55Z</time></trkpt><trkpt lat="43.33691043341621" lon="27.896347387543884"><ele>134.5</ele><time>2026-04-29T09:54:56Z</time></trkpt><trkpt lat="43.33687978771028" lon="27.896515550296403"><ele>135.0</ele><time>2026-04-29T09:54:57Z</time></trkpt><trkpt lat="43.336843634410826" lon="27.896660017245985"><ele>135.0</ele><time>2026-04-29T09:54:58Z</time></trkpt><trkpt lat="43.33681676215909" lon="27.89683957537237"><ele>135.0</ele><time>2026-04-29T09:54:59Z</time></trkpt><trkpt lat="43.3367475408302" lon="27.896987444040253"><ele>135.0</ele><time>2026-04-29T09:55:00Z</time></trkpt><trkpt lat="43.3366813152373" lon="27.89713391068194"><ele>135.0</ele><time>2026-04-29T09:55:01Z</time></trkpt><trkpt lat="43.33660649299733" lon="27.89726381378055"><ele>135.0</ele><time>2026-04-29T09:55:02Z</time></trkpt><trkpt lat="43.33652117425626" lon="27.897383460431172"><ele>135.0</ele><time>2026-04-29T09:55:02.999Z</time></trkpt><trkpt lat="43.33642460534887" lon="27.897480264229323"><ele>135.0</ele><time>2026-04-29T09:55:03.999Z</time></trkpt><trkpt lat="43.33632538816591" lon="27.897553761429442"><ele>135.0</ele><time>2026-04-29T09:55:04.999Z</time></trkpt><trkpt lat="43.336218471760226" lon="27.897622657003716"><ele>136.0</ele><time>2026-04-29T09:55:05.999Z</time></trkpt><trkpt lat="43.33611087719631" lon="27.89766004341407"><ele>137.0</ele><time>2026-04-29T09:55:06.999Z</time></trkpt><trkpt lat="43.33600195581951" lon="27.897699058135007"><ele>138.0</ele><time>2026-04-29T09:55:07.999Z</time></trkpt><trkpt lat="43.33589105181961" lon="27.897732420143996"><ele>139.0</ele><time>2026-04-29T09:55:08.999Z</time></trkpt><trkpt lat="43.335776969653615" lon="27.897766738206684"><ele>139.0</ele><time>2026-04-29T09:55:09.999Z</time></trkpt><trkpt lat="43.33566223315755" lon="27.897801253181477"><ele>139.0</ele><time>2026-04-29T09:55:10.999Z</time></trkpt><trkpt lat="43.335543194322675" lon="27.89783765052938"><ele>139.0</ele><time>2026-04-29T09:55:11.999Z</time></trkpt><trkpt lat="43.33542108437967" lon="27.897878684113525"><ele>139.0</ele><time>2026-04-29T09:55:12.999Z</time></trkpt><trkpt lat="43.33529628642514" lon="27.897922095103194"><ele>140.5</ele><time>2026-04-29T09:55:13.999Z</time></trkpt><trkpt lat="43.33516839552689" lon="27.897967769697864"><ele>142.0</ele><time>2026-04-29T09:55:14.999Z</time></trkpt><trkpt lat="43.33503609594669" lon="27.89801439552597"><ele>143.5</ele><time>2026-04-29T09:55:15.999Z</time></trkpt><trkpt lat="43.33490116606855" lon="27.898061551205743"><ele>145.0</ele><time>2026-04-29T09:55:16.999Z</time></trkpt><trkpt lat="43.33476326717253" lon="27.898109455918583"><ele>148.25</ele><time>2026-04-29T09:55:17.999Z</time></trkpt><trkpt lat="43.33462522934185" lon="27.89815732284424"><ele>151.5</ele><time>2026-04-29T09:55:18.999Z</time></trkpt><trkpt lat="43.3344819853299" lon="27.89820752321665"><ele>154.75</ele><time>2026-04-29T09:55:19.999Z</time></trkpt><trkpt lat="43.33433577867247" lon="27.898258377250933"><ele>158.0</ele><time>2026-04-29T09:55:20.999Z</time></trkpt><trkpt lat="43.33419115457326" lon="27.89830697898818"><ele>158.0</ele><time>2026-04-29T09:55:21.999Z</time></trkpt><trkpt lat="43.334046949883295" lon="27.898354378925657"><ele>158.0</ele><time>2026-04-29T09:55:22.999Z</time></trkpt><trkpt lat="43.33389616180533" lon="27.898404108839628"><ele>158.0</ele><time>2026-04-29T09:55:23.999Z</time></trkpt><trkpt lat="43.333746758698666" lon="27.898465332509346"><ele>155.75</ele><time>2026-04-29T09:55:24.999Z</time></trkpt><trkpt lat="43.33359550552827" lon="27.898508257039197"><ele>153.5</ele><time>2026-04-29T09:55:25.999Z</time></trkpt><trkpt lat="43.33345267394194" lon="27.898543957354097"><ele>151.25</ele><time>2026-04-29T09:55:26.999Z</time></trkpt><trkpt lat="43.333316513303934" lon="27.898576362026343"><ele>149.0</ele><time>2026-04-29T09:55:27.999Z</time></trkpt><trkpt lat="43.33318588203333" lon="27.89861189361406"><ele>149.0</ele><time>2026-04-29T09:55:28.999Z</time></trkpt><trkpt lat="43.33305919499546" lon="27.898648295881866"><ele>149.0</ele><time>2026-04-29T09:55:29.999Z</time></trkpt><trkpt lat="43.33293374038939" lon="27.89867883999161"><ele>149.0</ele><time>2026-04-29T09:55:30.999Z</time></trkpt><trkpt lat="43.33280320191663" lon="27.898688358544614"><ele>149.0</ele><time>2026-04-29T09:55:31.999Z</time></trkpt><trkpt lat="43.33267105021885" lon="27.898736807675448"><ele>150.75</ele><time>2026-04-29T09:55:32.999Z</time></trkpt><trkpt lat="43.33253218686589" lon="27.89875171455213"><ele>152.5</ele><time>2026-04-29T09:55:33.999Z</time></trkpt><trkpt lat="43.33239246365781" lon="27.89874204641209"><ele>154.25</ele><time>2026-04-29T09:55:34.999Z</time></trkpt><trkpt lat="43.332255071053005" lon="27.89868453712248"><ele>156.0</ele><time>2026-04-29T09:55:35.999Z</time></trkpt><trkpt lat="43.332117870543115" lon="27.89861462365725"><ele>157.5</ele><time>2026-04-29T09:55:36.999Z</time></trkpt><trkpt lat="43.33198297735338" lon="27.898550298665285"><ele>159.0</ele><time>2026-04-29T09:55:37.999Z</time></trkpt><trkpt lat="43.33185540003366" lon="27.898451166962822"><ele>160.5</ele><time>2026-04-29T09:55:38.999Z</time></trkpt><trkpt lat="43.33172471482801" lon="27.89835497239197"><ele>162.0</ele><time>2026-04-29T09:55:39.999Z</time></trkpt><trkpt lat="43.33159488168111" lon="27.89826236301139"><ele>164.25</ele><time>2026-04-29T09:55:40.999Z</time></trkpt><trkpt lat="43.33146487019098" lon="27.89816423961815"><ele>166.5</ele><time>2026-04-29T09:55:41.999Z</time></trkpt><trkpt lat="43.331335648179284" lon="27.898063289074887"><ele>168.75</ele><time>2026-04-29T09:55:42.999Z</time></trkpt><trkpt lat="43.331205189240166" lon="27.89796426188565"><ele>171.0</ele><time>2026-04-29T09:55:43.999Z</time></trkpt><trkpt lat="43.33107832019814" lon="27.897871584438853"><ele>171.5</ele><time>2026-04-29T09:55:44.999Z</time></trkpt><trkpt lat="43.330950634265406" lon="27.897778386364987"><ele>172.0</ele><time>2026-04-29T09:55:45.999Z</time></trkpt><trkpt lat="43.33082315100662" lon="27.897683531090024"><ele>172.5</ele><time>2026-04-29T09:55:46.999Z</time></trkpt><trkpt lat="43.330697453539386" lon="27.897590573808024"><ele>173.0</ele><time>2026-04-29T09:55:47.999Z</time></trkpt><trkpt lat="43.330571012663704" lon="27.897495868041116"><ele>174.5</ele><time>2026-04-29T09:55:48.999Z</time></trkpt><trkpt lat="43.33044384787641" lon="27.8974040486472"><ele>176.0</ele><time>2026-04-29T09:55:49.999Z</time></trkpt><trkpt lat="43.33031736709488" lon="27.897312764355735"><ele>177.5</ele><time>2026-04-29T09:55:50.999Z</time></trkpt><trkpt lat="43.33018948024543" lon="27.89721689563334"><ele>179.0</ele><time>2026-04-29T09:55:51.999Z</time></trkpt><trkpt lat="43.33005799069591" lon="27.897125440045297"><ele>179.0</ele><time>2026-04-29T09:55:52.999Z</time></trkpt><trkpt lat="43.32993016580563" lon="27.89703243527849"><ele>179.0</ele><time>2026-04-29T09:55:53.999Z</time></trkpt><trkpt lat="43.3298009407058" lon="27.896940387158498"><ele>179.0</ele><time>2026-04-29T09:55:54.999Z</time></trkpt><trkpt lat="43.329671704967886" lon="27.896849125135397"><ele>179.0</ele><time>2026-04-29T09:55:55.999Z</time></trkpt><trkpt lat="43.32954107194099" lon="27.896759201566482"><ele>180.66666666666666</ele><time>2026-04-29T09:55:56.999Z</time></trkpt><trkpt lat="43.32940880797221" lon="27.896666162645793"><ele>182.33333333333334</ele><time>2026-04-29T09:55:57.999Z</time></trkpt><trkpt lat="43.32927914735766" lon="27.896553166744198"><ele>184.0</ele><time>2026-04-29T09:55:58.999Z</time></trkpt><trkpt lat="43.32913838683709" lon="27.896456644853558"><ele>184.0</ele><time>2026-04-29T09:55:59.999Z</time></trkpt><trkpt lat="43.32899599170465" lon="27.896367284452044"><ele>184.0</ele><time>2026-04-29T09:56:00.999Z</time></trkpt><trkpt lat="43.32884918928839" lon="27.89627490963681"><ele>184.0</ele><time>2026-04-29T09:56:01.999Z</time></trkpt><trkpt lat="43.328701554632296" lon="27.89618213756528"><ele>183.0</ele><time>2026-04-29T09:56:02.999Z</time></trkpt><trkpt lat="43.32854691117944" lon="27.896108175751095"><ele>182.0</ele><time>2026-04-29T09:56:03.999Z</time></trkpt><trkpt lat="43.32839757507066" lon="27.89601305610339"><ele>181.0</ele><time>2026-04-29T09:56:04.999Z</time></trkpt><trkpt lat="43.32825169332171" lon="27.895899414575762"><ele>183.33333333333334</ele><time>2026-04-29T09:56:06Z</time></trkpt><trkpt lat="43.32809799634163" lon="27.895802626259467"><ele>185.66666666666666</ele><time>2026-04-29T09:56:07Z</time></trkpt><trkpt lat="43.32793908974504" lon="27.89571654433726"><ele>188.0</ele><time>2026-04-29T09:56:08Z</time></trkpt><trkpt lat="43.3277786079417" lon="27.895633666378902"><ele>188.0</ele><time>2026-04-29T09:56:09Z</time></trkpt><trkpt lat="43.327619022102965" lon="27.89555012510031"><ele>188.0</ele><time>2026-04-29T09:56:10Z</time></trkpt><trkpt lat="43.3274571895622" lon="27.895464149464498"><ele>188.0</ele><time>2026-04-29T09:56:11Z</time></trkpt><trkpt lat="43.32729657111575" lon="27.895378668206394"><ele>186.66666666666666</ele><time>2026-04-29T09:56:12Z</time></trkpt><trkpt lat="43.327136124980505" lon="27.895293584473443"><ele>185.33333333333334</ele><time>2026-04-29T09:56:13Z</time></trkpt><trkpt lat="43.32697131950144" lon="27.89520571509956"><ele>184.0</ele><time>2026-04-29T09:56:14Z</time></trkpt><trkpt lat="43.32680911938805" lon="27.895119512556132"><ele>186.0</ele><time>2026-04-29T09:56:15Z</time></trkpt><trkpt lat="43.32664585779994" lon="27.89503262060009"><ele>188.0</ele><time>2026-04-29T09:56:16Z</time></trkpt><trkpt lat="43.32648380064283" lon="27.894946940152778"><ele>190.0</ele><time>2026-04-29T09:56:17Z</time></trkpt><trkpt lat="43.32632381613524" lon="27.89486220620098"><ele>190.0</ele><time>2026-04-29T09:56:18Z</time></trkpt><trkpt lat="43.32616578549746" lon="27.89477858891797"><ele>190.0</ele><time>2026-04-29T09:56:19Z</time></trkpt><trkpt lat="43.326014265298255" lon="27.894688995603488"><ele>190.0</ele><time>2026-04-29T09:56:20Z</time></trkpt><trkpt lat="43.325869259321735" lon="27.894598666773074"><ele>190.0</ele><time>2026-04-29T09:56:21Z</time></trkpt><trkpt lat="43.32573658858856" lon="27.894516088115353"><ele>190.0</ele><time>2026-04-29T09:56:22Z</time></trkpt><trkpt lat="43.32562209168193" lon="27.894440136724686"><ele>190.0</ele><time>2026-04-29T09:56:23Z</time></trkpt><trkpt lat="43.32551511482361" lon="27.894376780301915"><ele>190.0</ele><time>2026-04-29T09:56:24Z</time></trkpt><trkpt lat="43.325459847285664" lon="27.894286103695638"><ele>189.33333333333334</ele><time>2026-04-29T09:56:25Z</time></trkpt><trkpt lat="43.32542759890983" lon="27.89420996407342"><ele>188.66666666666669</ele><time>2026-04-29T09:56:26Z</time></trkpt><trkpt lat="43.32538675223798" lon="27.894093070079368"><ele>188.0</ele><time>2026-04-29T09:56:28Z</time></trkpt><trkpt lat="43.325319036964814" lon="27.894060623228057"><ele>187.33333333333334</ele><time>2026-04-29T09:56:30Z</time></trkpt><trkpt lat="43.32525483788384" lon="27.894065994383897"><ele>186.66666666666666</ele><time>2026-04-29T09:56:33Z</time></trkpt><trkpt lat="43.32516880496283" lon="27.8940732045492"><ele>186.0</ele><time>2026-04-29T09:56:36Z</time></trkpt><trkpt lat="43.325080764391906" lon="27.894081294675853"><ele>186.00000000000003</ele><time>2026-04-29T09:56:39Z</time></trkpt><trkpt lat="43.32501863258415" lon="27.894100021040746"><ele>186.0</ele><time>2026-04-29T09:56:42Z</time></trkpt><trkpt lat="43.32495236547805" lon="27.894106873197043"><ele>186.0</ele><time>2026-04-29T09:56:46Z</time></trkpt><trkpt lat="43.32488077502765" lon="27.89412695717942"><ele>186.0</ele><time>2026-04-29T09:56:52Z</time></trkpt><trkpt lat="43.32480444746649" lon="27.894137513418098"><ele>186.0</ele><time>2026-04-29T09:56:56Z</time></trkpt><trkpt lat="43.32473706869043" lon="27.894130695264874"><ele>186.00000000000003</ele><time>2026-04-29T09:57:00.999Z</time></trkpt><trkpt lat="43.324676863274426" lon="27.89415666402614"><ele>186.0</ele><time>2026-04-29T09:57:03.999Z</time></trkpt><trkpt lat="43.32458670057825" lon="27.89415571253813"><ele>184.5</ele><time>2026-04-29T09:57:06.999Z</time></trkpt><trkpt lat="43.324507482603764" lon="27.894143573758136"><ele>183.0</ele><time>2026-04-29T09:57:08.999Z</time></trkpt><trkpt lat="43.32443913610799" lon="27.894147407607473"><ele>181.5</ele><time>2026-04-29T09:57:10.999Z</time></trkpt><trkpt lat="43.32434896553865" lon="27.894170030875138"><ele>180.0</ele><time>2026-04-29T09:57:12.999Z</time></trkpt><trkpt lat="43.32428457286572" lon="27.894175638308802"><ele>178.5</ele><time>2026-04-29T09:57:15.999Z</time></trkpt><trkpt lat="43.324189972069334" lon="27.894174942232787"><ele>177.0</ele><time>2026-04-29T09:57:18.999Z</time></trkpt><trkpt lat="43.324091310930314" lon="27.894205647975724"><ele>177.0</ele><time>2026-04-29T09:57:20.999Z</time></trkpt><trkpt lat="43.32395803203045" lon="27.894210892234252"><ele>177.0</ele><time>2026-04-29T09:57:22.999Z</time></trkpt><trkpt lat="43.32388809498147" lon="27.894221849034842"><ele>177.0</ele><time>2026-04-29T09:57:23.999Z</time></trkpt><trkpt lat="43.32379001895787" lon="27.894237547622254"><ele>177.0</ele><time>2026-04-29T09:57:25.999Z</time></trkpt><trkpt lat="43.32368374190035" lon="27.894254075969567"><ele>177.0</ele><time>2026-04-29T09:57:27.999Z</time></trkpt><trkpt lat="43.32361894796384" lon="27.894263562718958"><ele>174.5</ele><time>2026-04-29T09:57:28.999Z</time></trkpt><trkpt lat="43.32352854965399" lon="27.894285202547263"><ele>172.0</ele><time>2026-04-29T09:57:30.999Z</time></trkpt><trkpt lat="43.32345382565103" lon="27.894300083666938"><ele>169.5</ele><time>2026-04-29T09:57:32.999Z</time></trkpt><trkpt lat="43.323343981631055" lon="27.894305493661026"><ele>167.0</ele><time>2026-04-29T09:57:34.999Z</time></trkpt><trkpt lat="43.32324675981852" lon="27.89432043571253"><ele>164.5</ele><time>2026-04-29T09:57:36.999Z</time></trkpt><trkpt lat="43.323175061940454" lon="27.894331594103118"><ele>162.0</ele><time>2026-04-29T09:57:44.999Z</time></trkpt><trkpt lat="43.32308539988424" lon="27.894345531958606"><ele>160.66666666666666</ele><time>2026-04-29T09:57:47.999Z</time></trkpt><trkpt lat="43.32302237344938" lon="27.894372130258848"><ele>159.33333333333334</ele><time>2026-04-29T09:57:49.999Z</time></trkpt><trkpt lat="43.3229422888496" lon="27.894367725642052"><ele>158.0</ele><time>2026-04-29T09:57:52.999Z</time></trkpt><trkpt lat="43.32286371111152" lon="27.89439713520304"><ele>156.66666666666669</ele><time>2026-04-29T09:57:55.999Z</time></trkpt><trkpt lat="43.3227822570181" lon="27.894392625453644"><ele>155.33333333333334</ele><time>2026-04-29T09:57:57.999Z</time></trkpt><trkpt lat="43.322685022904196" lon="27.894407778194648"><ele>154.0</ele><time>2026-04-29T09:57:59.999Z</time></trkpt><trkpt lat="43.32262348414191" lon="27.894429392220527"><ele>154.0</ele><time>2026-04-29T09:58:02.999Z</time></trkpt><trkpt lat="43.322554537005914" lon="27.894452303656077"><ele>154.0</ele><time>2026-04-29T09:58:27Z</time></trkpt><trkpt lat="43.322491512361516" lon="27.89447324702783"><ele>154.0</ele><time>2026-04-29T09:59:27.999Z</time></trkpt><trkpt lat="43.32245555273773" lon="27.894967803156497"><ele>154.0</ele><time>2026-04-29T10:00:01.999Z</time></trkpt><trkpt lat="43.32240884103552" lon="27.895060774999912"><ele>154.0</ele><time>2026-04-29T10:00:03.999Z</time></trkpt><trkpt lat="43.322341768548476" lon="27.895084456879644"><ele>154.0</ele><time>2026-04-29T10:00:05.999Z</time></trkpt><trkpt lat="43.322255306891314" lon="27.89508533977081"><ele>154.0</ele><time>2026-04-29T10:00:08.999Z</time></trkpt><trkpt lat="43.32219374327906" lon="27.895066968127516"><ele>154.0</ele><time>2026-04-29T10:00:11.999Z</time></trkpt><trkpt lat="43.3221350782847" lon="27.895027768795586"><ele>154.0</ele><time>2026-04-29T10:00:14.999Z</time></trkpt><trkpt lat="43.32207030270717" lon="27.89496674597218"><ele>154.0</ele><time>2026-04-29T10:00:16.999Z</time></trkpt><trkpt lat="43.322002969470276" lon="27.894902774306452"><ele>154.66666666666669</ele><time>2026-04-29T10:00:19Z</time></trkpt><trkpt lat="43.32194289373808" lon="27.894845823029527"><ele>155.33333333333334</ele><time>2026-04-29T10:00:22Z</time></trkpt><trkpt lat="43.3218818725036" lon="27.89481563823581"><ele>156.0</ele><time>2026-04-29T10:00:25Z</time></trkpt><trkpt lat="43.32183020193484" lon="27.89475974773425"><ele>156.66666666666666</ele><time>2026-04-29T10:00:28Z</time></trkpt><trkpt lat="43.321778032983715" lon="27.894708910243942"><ele>157.33333333333331</ele><time>2026-04-29T10:00:31Z</time></trkpt><trkpt lat="43.32169694534041" lon="27.894613314239532"><ele>158.0</ele><time>2026-04-29T10:00:34Z</time></trkpt><trkpt lat="43.32158757047194" lon="27.89451647380688"><ele>158.0</ele><time>2026-04-29T10:00:36Z</time></trkpt><trkpt lat="43.32151593123941" lon="27.894453407355503"><ele>158.0</ele><time>2026-04-29T10:00:37Z</time></trkpt><trkpt lat="43.32145389544686" lon="27.894392437712376"><ele>158.0</ele><time>2026-04-29T10:00:38Z</time></trkpt><trkpt lat="43.32138166379013" lon="27.894309564741178"><ele>158.0</ele><time>2026-04-29T10:00:39Z</time></trkpt><trkpt lat="43.32131567115203" lon="27.8942315016409"><ele>158.0</ele><time>2026-04-29T10:00:40Z</time></trkpt><trkpt lat="43.321246202426146" lon="27.89415092767655"><ele>158.0</ele><time>2026-04-29T10:00:41Z</time></trkpt><trkpt lat="43.32118468559097" lon="27.894061878802404"><ele>158.83333333333331</ele><time>2026-04-29T10:00:42Z</time></trkpt><trkpt lat="43.32110098419305" lon="27.893981461124753"><ele>159.66666666666666</ele><time>2026-04-29T10:00:43Z</time></trkpt><trkpt lat="43.321033377165314" lon="27.893921652360117"><ele>160.5</ele><time>2026-04-29T10:00:44Z</time></trkpt><trkpt lat="43.320981249448785" lon="27.893846986365322"><ele>161.33333333333334</ele><time>2026-04-29T10:00:45Z</time></trkpt><trkpt lat="43.32092671990955" lon="27.893785803522434"><ele>162.16666666666669</ele><time>2026-04-29T10:00:46Z</time></trkpt><trkpt lat="43.320874336038656" lon="27.893726862115177"><ele>163.0</ele><time>2026-04-29T10:00:47Z</time></trkpt><trkpt lat="43.32075281135591" lon="27.893716584968505"><ele>163.0</ele><time>2026-04-29T10:00:48Z</time></trkpt><trkpt lat="43.32066969279287" lon="27.893714399698826"><ele>163.0</ele><time>2026-04-29T10:00:49Z</time></trkpt><trkpt lat="43.32060570754744" lon="27.8937234436607"><ele>163.0</ele><time>2026-04-29T10:00:50Z</time></trkpt><trkpt lat="43.32052117979002" lon="27.893712979871278"><ele>163.0</ele><time>2026-04-29T10:00:53Z</time></trkpt><trkpt lat="43.320428754309496" lon="27.89371452387238"><ele>163.0</ele><time>2026-04-29T10:00:56Z</time></trkpt><trkpt lat="43.32035927936018" lon="27.89371567468849"><ele>163.0</ele><time>2026-04-29T10:00:58Z</time></trkpt><trkpt lat="43.32029622470123" lon="27.89373121987197"><ele>162.8</ele><time>2026-04-29T10:00:59Z</time></trkpt><trkpt lat="43.32018222599622" lon="27.893760463409713"><ele>162.60000000000002</ele><time>2026-04-29T10:01:01Z</time></trkpt><trkpt lat="43.32011944423833" lon="27.893796234582663"><ele>162.39999999999998</ele><time>2026-04-29T10:01:02Z</time></trkpt><trkpt lat="43.319996462922155" lon="27.893859078596883"><ele>162.2</ele><time>2026-04-29T10:01:04Z</time></trkpt><trkpt lat="43.319925040543716" lon="27.893919071825238"><ele>162.0</ele><time>2026-04-29T10:01:05Z</time></trkpt><trkpt lat="43.31985137568764" lon="27.893977639253865"><ele>162.0</ele><time>2026-04-29T10:01:06Z</time></trkpt><trkpt lat="43.319776861437866" lon="27.894036882030207"><ele>162.0</ele><time>2026-04-29T10:01:07Z</time></trkpt><trkpt lat="43.31970098064405" lon="27.894097212068147"><ele>162.0</ele><time>2026-04-29T10:01:08Z</time></trkpt><trkpt lat="43.319621204934265" lon="27.894117059227593"><ele>162.0</ele><time>2026-04-29T10:01:09Z</time></trkpt><trkpt lat="43.3195421215478" lon="27.894153840491825"><ele>162.0</ele><time>2026-04-29T10:01:10Z</time></trkpt><trkpt lat="43.31943945433397" lon="27.8941821993223"><ele>162.0</ele><time>2026-04-29T10:01:12Z</time></trkpt><trkpt lat="43.31937255913225" lon="27.894170991411983"><ele>161.85714285714286</ele><time>2026-04-29T10:01:15Z</time></trkpt><trkpt lat="43.31929260225923" lon="27.894166174773204"><ele>161.71428571428572</ele><time>2026-04-29T10:01:18Z</time></trkpt><trkpt lat="43.31921440219019" lon="27.894150146068704"><ele>161.57142857142856</ele><time>2026-04-29T10:01:21Z</time></trkpt><trkpt lat="43.31914963156334" lon="27.894116840404994"><ele>161.42857142857144</ele><time>2026-04-29T10:01:22.999Z</time></trkpt><trkpt lat="43.31909800200338" lon="27.89405651469823"><ele>161.28571428571428</ele><time>2026-04-29T10:01:23.999Z</time></trkpt><trkpt lat="43.319047518021314" lon="27.89400058423754"><ele>161.14285714285714</ele><time>2026-04-29T10:01:24.999Z</time></trkpt><trkpt lat="43.31899424926239" lon="27.89394407876753"><ele>161.0</ele><time>2026-04-29T10:01:25.999Z</time></trkpt><trkpt lat="43.31894291821215" lon="27.89388947757506"><ele>161.4</ele><time>2026-04-29T10:01:26.999Z</time></trkpt><trkpt lat="43.31889231417444" lon="27.893837708243304"><ele>161.8</ele><time>2026-04-29T10:01:27.999Z</time></trkpt><trkpt lat="43.318797875188636" lon="27.893741094887766"><ele>162.20000000000002</ele><time>2026-04-29T10:01:29.999Z</time></trkpt><trkpt lat="43.318718399746125" lon="27.89370569352622"><ele>162.60000000000002</ele><time>2026-04-29T10:01:30.999Z</time></trkpt><trkpt lat="43.318616906547135" lon="27.893649723178967"><ele>163.0</ele><time>2026-04-29T10:01:31.999Z</time></trkpt><trkpt lat="43.31849585910103" lon="27.893654142874627"><ele>163.0</ele><time>2026-04-29T10:01:33.999Z</time></trkpt><trkpt lat="43.318387915629145" lon="27.893658084047654"><ele>163.0</ele><time>2026-04-29T10:01:35.999Z</time></trkpt><trkpt lat="43.318309480143284" lon="27.893703557564507"><ele>163.0</ele><time>2026-04-29T10:01:36.999Z</time></trkpt><trkpt lat="43.31824365885705" lon="27.893789142076162"><ele>163.0</ele><time>2026-04-29T10:01:37.999Z</time></trkpt><trkpt lat="43.31822612921139" lon="27.893881123536136"><ele>163.0</ele><time>2026-04-29T10:01:40.999Z</time></trkpt><trkpt lat="43.31815305490124" lon="27.89391258738387"><ele>163.0</ele><time>2026-04-29T10:01:43.999Z</time></trkpt><trkpt lat="43.31807510989079" lon="27.89392324107154"><ele>163.5</ele><time>2026-04-29T10:01:48.999Z</time></trkpt><trkpt lat="43.31798921606437" lon="27.893959260658093"><ele>164.0</ele><time>2026-04-29T10:01:51.999Z</time></trkpt><trkpt lat="43.31789317087463" lon="27.893965193572658"><ele>164.5</ele><time>2026-04-29T10:01:53.999Z</time></trkpt><trkpt lat="43.317830465230315" lon="27.893956304716077"><ele>165.0</ele><time>2026-04-29T10:01:54.999Z</time></trkpt><trkpt lat="43.317762012972636" lon="27.893949749156103"><ele>165.5</ele><time>2026-04-29T10:01:55.999Z</time></trkpt><trkpt lat="43.317634567257066" lon="27.893956333844322"><ele>166.0</ele><time>2026-04-29T10:01:57.999Z</time></trkpt><trkpt lat="43.31757148403246" lon="27.89396911082074"><ele>166.0</ele><time>2026-04-29T10:01:58.999Z</time></trkpt><trkpt lat="43.31747160508842" lon="27.894127991229112"><ele>166.0</ele><time>2026-04-29T10:02:00.999Z</time></trkpt><trkpt lat="43.3174225289407" lon="27.8942016537371"><ele>166.0</ele><time>2026-04-29T10:02:01.999Z</time></trkpt><trkpt lat="43.31734532403811" lon="27.894334536833544"><ele>166.0</ele><time>2026-04-29T10:02:03.999Z</time></trkpt><trkpt lat="43.31729126997458" lon="27.89442853525517"><ele>166.0</ele><time>2026-04-29T10:02:05.999Z</time></trkpt><trkpt lat="43.317214213937575" lon="27.894473783775275"><ele>166.5</ele><time>2026-04-29T10:02:09.999Z</time></trkpt><trkpt lat="43.317143643132106" lon="27.894517597820734"><ele>167.0</ele><time>2026-04-29T10:02:13.999Z</time></trkpt><trkpt lat="43.31707471095347" lon="27.894543208695932"><ele>167.5</ele><time>2026-04-29T10:02:16.999Z</time></trkpt><trkpt lat="43.31698736064761" lon="27.89457566262121"><ele>168.0</ele><time>2026-04-29T10:02:20.999Z</time></trkpt><trkpt lat="43.31688992020061" lon="27.894611865446794"><ele>168.5</ele><time>2026-04-29T10:02:24Z</time></trkpt><trkpt lat="43.31682061487326" lon="27.894593272803057"><ele>169.0</ele><time>2026-04-29T10:02:26Z</time></trkpt><trkpt lat="43.31675001477367" lon="27.89457540532818"><ele>169.0</ele><time>2026-04-29T10:02:27Z</time></trkpt><trkpt lat="43.316660494132634" lon="27.894524502301866"><ele>169.0</ele><time>2026-04-29T10:02:28Z</time></trkpt><trkpt lat="43.31656584868036" lon="27.894470632957496"><ele>169.0</ele><time>2026-04-29T10:02:29Z</time></trkpt><trkpt lat="43.316471302803315" lon="27.8944266070361"><ele>169.0</ele><time>2026-04-29T10:02:30Z</time></trkpt><trkpt lat="43.3163683451341" lon="27.89439638146041"><ele>169.0</ele><time>2026-04-29T10:02:31Z</time></trkpt><trkpt lat="43.31626693972362" lon="27.894362605268288"><ele>168.0</ele><time>2026-04-29T10:02:32Z</time></trkpt><trkpt lat="43.316179167842854" lon="27.894332388981365"><ele>167.0</ele><time>2026-04-29T10:02:33Z</time></trkpt><trkpt lat="43.31607472116081" lon="27.894288430373045"><ele>166.0</ele><time>2026-04-29T10:02:34Z</time></trkpt><trkpt lat="43.315964493470794" lon="27.894253708230746"><ele>165.0</ele><time>2026-04-29T10:02:35Z</time></trkpt><trkpt lat="43.31585490557888" lon="27.894219272520985"><ele>164.0</ele><time>2026-04-29T10:02:36Z</time></trkpt><trkpt lat="43.3157398452902" lon="27.89418311718376"><ele>164.0</ele><time>2026-04-29T10:02:37Z</time></trkpt><trkpt lat="43.315625117793545" lon="27.894147066586658"><ele>164.0</ele><time>2026-04-29T10:02:38Z</time></trkpt><trkpt lat="43.31551872405349" lon="27.894125098406363"><ele>164.0</ele><time>2026-04-29T10:02:39Z</time></trkpt><trkpt lat="43.3154478861168" lon="27.89407654470222"><ele>164.0</ele><time>2026-04-29T10:02:40Z</time></trkpt><trkpt lat="43.31538098196415" lon="27.89404673940762"><ele>164.0</ele><time>2026-04-29T10:02:41Z</time></trkpt><trkpt lat="43.31531215598391" lon="27.89400840017285"><ele>164.0</ele><time>2026-04-29T10:02:42Z</time></trkpt><trkpt lat="43.31524606730182" lon="27.893989617462836"><ele>164.66666666666666</ele><time>2026-04-29T10:02:43Z</time></trkpt><trkpt lat="43.31516920527824" lon="27.894025483393033"><ele>165.33333333333331</ele><time>2026-04-29T10:02:44Z</time></trkpt><trkpt lat="43.315096247562366" lon="27.89404447579642"><ele>166.0</ele><time>2026-04-29T10:02:45Z</time></trkpt><trkpt lat="43.3150144071413" lon="27.894065780314545"><ele>166.66666666666666</ele><time>2026-04-29T10:02:46Z</time></trkpt><trkpt lat="43.314937964061464" lon="27.89412655473651"><ele>167.33333333333334</ele><time>2026-04-29T10:02:47Z</time></trkpt><trkpt lat="43.31482608907606" lon="27.89419395565884"><ele>168.0</ele><time>2026-04-29T10:02:49Z</time></trkpt><trkpt lat="43.314752175642774" lon="27.89425868490421"><ele>169.33333333333334</ele><time>2026-04-29T10:02:50Z</time></trkpt><trkpt lat="43.3146723291424" lon="27.894298357510102"><ele>170.66666666666666</ele><time>2026-04-29T10:02:51Z</time></trkpt><trkpt lat="43.3145877079553" lon="27.89433067091572"><ele>172.0</ele><time>2026-04-29T10:02:52Z</time></trkpt><trkpt lat="43.314502399180945" lon="27.89432376864003"><ele>173.33333333333331</ele><time>2026-04-29T10:02:53Z</time></trkpt><trkpt lat="43.314438595160695" lon="27.894326864038284"><ele>174.66666666666666</ele><time>2026-04-29T10:02:54Z</time></trkpt><trkpt lat="43.31431933456922" lon="27.89431843316946"><ele>176.0</ele><time>2026-04-29T10:02:56Z</time></trkpt><trkpt lat="43.314216350027294" lon="27.8943320531946"><ele>176.0</ele><time>2026-04-29T10:02:58Z</time></trkpt><trkpt lat="43.31414168843024" lon="27.89430426915856"><ele>176.0</ele><time>2026-04-29T10:03:00Z</time></trkpt><trkpt lat="43.314015276948616" lon="27.894284998647226"><ele>176.0</ele><time>2026-04-29T10:03:02Z</time></trkpt><trkpt lat="43.31393010852263" lon="27.894250385440575"><ele>176.0</ele><time>2026-04-29T10:03:03Z</time></trkpt><trkpt lat="43.31384257265051" lon="27.894264008394615"><ele>176.0</ele><time>2026-04-29T10:03:04Z</time></trkpt><trkpt lat="43.31376000112495" lon="27.894248935887767"><ele>176.0</ele><time>2026-04-29T10:03:05Z</time></trkpt><trkpt lat="43.31368572616401" lon="27.894297854542437"><ele>176.0</ele><time>2026-04-29T10:03:06Z</time></trkpt><trkpt lat="43.31358657731329" lon="27.894357574262376"><ele>176.0</ele><time>2026-04-29T10:03:08Z</time></trkpt><trkpt lat="43.31351386462404" lon="27.894374457939154"><ele>176.0</ele><time>2026-04-29T10:03:09Z</time></trkpt><trkpt lat="43.3134087935239" lon="27.894471705551126"><ele>176.0</ele><time>2026-04-29T10:03:11Z</time></trkpt><trkpt lat="43.313327903233876" lon="27.89454659841126"><ele>176.0</ele><time>2026-04-29T10:03:13Z</time></trkpt><trkpt lat="43.3132383737899" lon="27.894637797106082"><ele>176.0</ele><time>2026-04-29T10:03:15Z</time></trkpt><trkpt lat="43.31318970356742" lon="27.894702923437734"><ele>176.0</ele><time>2026-04-29T10:03:17Z</time></trkpt><trkpt lat="43.31312980068738" lon="27.89478308036874"><ele>176.0</ele><time>2026-04-29T10:03:20Z</time></trkpt><trkpt lat="43.31308345714188" lon="27.8948450925755"><ele>176.0</ele><time>2026-04-29T10:03:22Z</time></trkpt><trkpt lat="43.31305234681909" lon="27.8949289279968"><ele>176.0</ele><time>2026-04-29T10:03:23Z</time></trkpt><trkpt lat="43.31302754861608" lon="27.895064706099113"><ele>176.83333333333331</ele><time>2026-04-29T10:03:23.999Z</time></trkpt><trkpt lat="43.313025679546705" lon="27.89518056645102"><ele>177.66666666666666</ele><time>2026-04-29T10:03:24.999Z</time></trkpt><trkpt lat="43.31304125013643" lon="27.895278030489067"><ele>178.5</ele><time>2026-04-29T10:03:25.999Z</time></trkpt><trkpt lat="43.3130597989392" lon="27.89539413715838"><ele>179.33333333333334</ele><time>2026-04-29T10:03:26.999Z</time></trkpt><trkpt lat="43.3130719624356" lon="27.89548747466216"><ele>180.16666666666669</ele><time>2026-04-29T10:03:27.999Z</time></trkpt><trkpt lat="43.31308001387691" lon="27.895599741673642"><ele>181.0</ele><time>2026-04-29T10:03:28.999Z</time></trkpt><trkpt lat="43.31308726918795" lon="27.895700907638535"><ele>181.0</ele><time>2026-04-29T10:03:29.999Z</time></trkpt><trkpt lat="43.31309974861768" lon="27.895837213667516"><ele>181.0</ele><time>2026-04-29T10:03:31.999Z</time></trkpt><trkpt lat="43.31309974861691" lon="27.895932340164517"><ele>181.0</ele><time>2026-04-29T10:03:33.999Z</time></trkpt><trkpt lat="43.31304118889951" lon="27.896011174062373"><ele>181.0</ele><time>2026-04-29T10:03:36.999Z</time></trkpt><trkpt lat="43.312985174477106" lon="27.896078727064584"><ele>181.0</ele><time>2026-04-29T10:03:38.999Z</time></trkpt><trkpt lat="43.31292826619312" lon="27.89614736173625"><ele>181.0</ele><time>2026-04-29T10:03:40.999Z</time></trkpt><trkpt lat="43.31285430796498" lon="27.896163670132925"><ele>180.20000000000002</ele><time>2026-04-29T10:03:42.999Z</time></trkpt><trkpt lat="43.31274800378826" lon="27.896165667096763"><ele>179.4</ele><time>2026-04-29T10:03:44.999Z</time></trkpt><trkpt lat="43.31264062100435" lon="27.896176432639514"><ele>178.6</ele><time>2026-04-29T10:03:46.999Z</time></trkpt><trkpt lat="43.312527499350075" lon="27.896172148029894"><ele>177.8</ele><time>2026-04-29T10:03:48.999Z</time></trkpt><trkpt lat="43.312457271998966" lon="27.896180113508343"><ele>177.0</ele><time>2026-04-29T10:03:50.999Z</time></trkpt><trkpt lat="43.31239350364295" lon="27.89619206194398"><ele>177.0</ele><time>2026-04-29T10:03:55.999Z</time></trkpt><trkpt lat="43.312318534949966" lon="27.896206108852642"><ele>177.0</ele><time>2026-04-29T10:04:00.999Z</time></trkpt><trkpt lat="43.31222491315129" lon="27.8962475974588"><ele>177.0</ele><time>2026-04-29T10:04:02.999Z</time></trkpt><trkpt lat="43.31217186174422" lon="27.896301160206527"><ele>177.0</ele><time>2026-04-29T10:04:04.999Z</time></trkpt><trkpt lat="43.31214737766746" lon="27.89641199090894"><ele>177.0</ele><time>2026-04-29T10:04:05.999Z</time></trkpt><trkpt lat="43.31213379961884" lon="27.89652143891706"><ele>177.0</ele><time>2026-04-29T10:04:07.999Z</time></trkpt><trkpt lat="43.31219505572742" lon="27.896630748085464"><ele>178.66666666666666</ele><time>2026-04-29T10:04:10.999Z</time></trkpt><trkpt lat="43.312174629160566" lon="27.896758828815905"><ele>180.33333333333334</ele><time>2026-04-29T10:04:12.999Z</time></trkpt><trkpt lat="43.31218579348365" lon="27.896866987311686"><ele>182.0</ele><time>2026-04-29T10:04:15.999Z</time></trkpt><trkpt lat="43.312184009974395" lon="27.896971625339418"><ele>183.66666666666669</ele><time>2026-04-29T10:04:17.999Z</time></trkpt><trkpt lat="43.31218131093288" lon="27.89706890302554"><ele>185.33333333333334</ele><time>2026-04-29T10:04:19.999Z</time></trkpt><trkpt lat="43.31220754173254" lon="27.897178717163225"><ele>187.0</ele><time>2026-04-29T10:04:21.999Z</time></trkpt><trkpt lat="43.31222494738666" lon="27.8973153368803"><ele>186.16666666666669</ele><time>2026-04-29T10:04:23.999Z</time></trkpt><trkpt lat="43.312248412790204" lon="27.89743035470468"><ele>185.33333333333334</ele><time>2026-04-29T10:04:25.999Z</time></trkpt><trkpt lat="43.31227490958426" lon="27.89754670931459"><ele>184.5</ele><time>2026-04-29T10:04:27.999Z</time></trkpt><trkpt lat="43.31227265205843" lon="27.897650086480542"><ele>183.66666666666666</ele><time>2026-04-29T10:04:31Z</time></trkpt><trkpt lat="43.31227416261202" lon="27.897750590977676"><ele>182.83333333333331</ele><time>2026-04-29T10:04:33Z</time></trkpt><trkpt lat="43.312260858110356" lon="27.897892635761817"><ele>182.0</ele><time>2026-04-29T10:04:35Z</time></trkpt><trkpt lat="43.31219106601507" lon="27.898038941484888"><ele>181.71428571428572</ele><time>2026-04-29T10:04:37Z</time></trkpt><trkpt lat="43.31210205023493" lon="27.89802428926593"><ele>181.42857142857144</ele><time>2026-04-29T10:04:38Z</time></trkpt><trkpt lat="43.31204324915616" lon="27.898073639923126"><ele>181.14285714285714</ele><time>2026-04-29T10:04:39Z</time></trkpt><trkpt lat="43.311979012166724" lon="27.898100850991764"><ele>180.85714285714286</ele><time>2026-04-29T10:04:40Z</time></trkpt><trkpt lat="43.31191550875946" lon="27.898133207542223"><ele>180.57142857142858</ele><time>2026-04-29T10:04:41Z</time></trkpt><trkpt lat="43.31183490779568" lon="27.89814989024129"><ele>180.28571428571428</ele><time>2026-04-29T10:04:43Z</time></trkpt><trkpt lat="43.31176689037037" lon="27.89815455086881"><ele>180.0</ele><time>2026-04-29T10:04:57Z</time></trkpt><trkpt lat="43.311691966104746" lon="27.898159684755985"><ele>180.0</ele><time>2026-04-29T10:05:05Z</time></trkpt><trkpt lat="43.31162781238471" lon="27.898164080634047"><ele>180.0</ele><time>2026-04-29T10:05:09Z</time></trkpt><trkpt lat="43.31154661219745" lon="27.898185453541334"><ele>180.0</ele><time>2026-04-29T10:05:16Z</time></trkpt><trkpt lat="43.31148178583965" lon="27.898189182961186"><ele>180.0</ele><time>2026-04-29T10:05:19Z</time></trkpt><trkpt lat="43.31140552809461" lon="27.898176342360653"><ele>180.0</ele><time>2026-04-29T10:05:45.999Z</time></trkpt><trkpt lat="43.31132906997605" lon="27.89816568189338"><ele>180.0</ele><time>2026-04-29T10:05:50.999Z</time></trkpt><trkpt lat="43.31126699897269" lon="27.898189209396694"><ele>180.0</ele><time>2026-04-29T10:05:54.999Z</time></trkpt><trkpt lat="43.31118862097188" lon="27.898165652649283"><ele>180.28571428571428</ele><time>2026-04-29T10:05:57.999Z</time></trkpt><trkpt lat="43.31111627274226" lon="27.89814585092256"><ele>180.57142857142858</ele><time>2026-04-29T10:06:00.999Z</time></trkpt><trkpt lat="43.31103819016689" lon="27.89812447983334"><ele>180.85714285714286</ele><time>2026-04-29T10:06:03.999Z</time></trkpt><trkpt lat="43.311006372486005" lon="27.89801251434598"><ele>181.14285714285714</ele><time>2026-04-29T10:06:04.999Z</time></trkpt><trkpt lat="43.310937742243226" lon="27.89800447326893"><ele>181.42857142857144</ele><time>2026-04-29T10:06:14.999Z</time></trkpt><trkpt lat="43.31087365963395" lon="27.89799696495321"><ele>181.71428571428572</ele><time>2026-04-29T10:06:24.999Z</time></trkpt><trkpt lat="43.31080658417791" lon="27.89798910597395"><ele>182.0</ele><time>2026-04-29T10:06:27.999Z</time></trkpt><trkpt lat="43.310734683043066" lon="27.897992947627394"><ele>182.0</ele><time>2026-04-29T10:06:29.999Z</time></trkpt><trkpt lat="43.310652655720304" lon="27.898004718034578"><ele>182.0</ele><time>2026-04-29T10:06:31.999Z</time></trkpt><trkpt lat="43.31058062408031" lon="27.89801505412678"><ele>182.0</ele><time>2026-04-29T10:06:33.999Z</time></trkpt><trkpt lat="43.310509003459565" lon="27.89802533116191"><ele>182.0</ele><time>2026-04-29T10:06:36Z</time></trkpt><trkpt lat="43.310469077950444" lon="27.898115111900303"><ele>182.0</ele><time>2026-04-29T10:06:37Z</time></trkpt><trkpt lat="43.31037215988974" lon="27.898121661425265"><ele>182.0</ele><time>2026-04-29T10:06:39Z</time></trkpt><trkpt lat="43.310298062065634" lon="27.898097053640804"><ele>181.66666666666666</ele><time>2026-04-29T10:06:41Z</time></trkpt><trkpt lat="43.310221488448946" lon="27.898091999135183"><ele>181.33333333333331</ele><time>2026-04-29T10:06:43Z</time></trkpt><trkpt lat="43.31015369161486" lon="27.8980694940362"><ele>181.0</ele><time>2026-04-29T10:06:44Z</time></trkpt><trkpt lat="43.3100639438192" lon="27.898115544877985"><ele>180.66666666666666</ele><time>2026-04-29T10:06:47Z</time></trkpt><trkpt lat="43.309993556837746" lon="27.898152075326028"><ele>180.33333333333334</ele><time>2026-04-29T10:06:49Z</time></trkpt><trkpt lat="43.30991194103449" lon="27.898146131500052"><ele>180.0</ele><time>2026-04-29T10:06:52Z</time></trkpt><trkpt lat="43.30983459023515" lon="27.898131637018796"><ele>180.0</ele><time>2026-04-29T10:06:54Z</time></trkpt><trkpt lat="43.309747702004444" lon="27.898132404424768"><ele>180.0</ele><time>2026-04-29T10:06:57Z</time></trkpt><trkpt lat="43.309666158418146" lon="27.898141142039673"><ele>180.0</ele><time>2026-04-29T10:06:59Z</time></trkpt><trkpt lat="43.30959623774446" lon="27.898151299751827"><ele>180.0</ele><time>2026-04-29T10:07:01Z</time></trkpt><trkpt lat="43.30953328399947" lon="27.89815527354259"><ele>180.0</ele><time>2026-04-29T10:07:03Z</time></trkpt><trkpt lat="43.309455322158975" lon="27.898152566889276"><ele>180.0</ele><time>2026-04-29T10:07:05Z</time></trkpt><trkpt lat="43.309394034612886" lon="27.898176635353842"><ele>180.0</ele><time>2026-04-29T10:07:06Z</time></trkpt><trkpt lat="43.30932452397737" lon="27.89820682141642"><ele>179.83333333333334</ele><time>2026-04-29T10:07:09Z</time></trkpt><trkpt lat="43.3092604122882" lon="27.898241218124138"><ele>179.66666666666666</ele><time>2026-04-29T10:07:13Z</time></trkpt><trkpt lat="43.309187075613075" lon="27.898285498431452"><ele>179.5</ele><time>2026-04-29T10:07:20Z</time></trkpt><trkpt lat="43.30911841076767" lon="27.898331757486172"><ele>179.33333333333331</ele><time>2026-04-29T10:07:26Z</time></trkpt><trkpt lat="43.30903245418578" lon="27.8983966217294"><ele>179.16666666666666</ele><time>2026-04-29T10:07:28Z</time></trkpt><trkpt lat="43.30897947660126" lon="27.898457908881944"><ele>179.0</ele><time>2026-04-29T10:07:30Z</time></trkpt><trkpt lat="43.308896013103066" lon="27.898511469310137"><ele>180.16666666666666</ele><time>2026-04-29T10:07:32Z</time></trkpt><trkpt lat="43.30883421808544" lon="27.8985286944803"><ele>181.33333333333331</ele><time>2026-04-29T10:07:33Z</time></trkpt><trkpt lat="43.308720978156444" lon="27.898603109467945"><ele>182.5</ele><time>2026-04-29T10:07:35Z</time></trkpt><trkpt lat="43.30866982970339" lon="27.89865604874265"><ele>183.66666666666666</ele><time>2026-04-29T10:07:35.999Z</time></trkpt><trkpt lat="43.308618987757285" lon="27.898714941046514"><ele>184.83333333333334</ele><time>2026-04-29T10:07:36.999Z</time></trkpt><trkpt lat="43.30856344174516" lon="27.89877878174767"><ele>186.0</ele><time>2026-04-29T10:07:37.999Z</time></trkpt><trkpt lat="43.308510367019295" lon="27.89883875788524"><ele>186.0</ele><time>2026-04-29T10:07:38.999Z</time></trkpt><trkpt lat="43.308425868189566" lon="27.898893194685904"><ele>186.0</ele><time>2026-04-29T10:07:40.999Z</time></trkpt><trkpt lat="43.30834040828117" lon="27.898884979198296"><ele>186.0</ele><time>2026-04-29T10:07:42.999Z</time></trkpt><trkpt lat="43.30822877646018" lon="27.89895142486526"><ele>186.0</ele><time>2026-04-29T10:07:44.999Z</time></trkpt><trkpt lat="43.308169457092475" lon="27.89901706832289"><ele>186.0</ele><time>2026-04-29T10:07:46.999Z</time></trkpt><trkpt lat="43.308114179905346" lon="27.89908262081289"><ele>186.66666666666666</ele><time>2026-04-29T10:07:48.999Z</time></trkpt><trkpt lat="43.308035005735874" lon="27.899106578977772"><ele>187.33333333333334</ele><time>2026-04-29T10:07:51.999Z</time></trkpt><trkpt lat="43.30796302453083" lon="27.899158346277815"><ele>188.0</ele><time>2026-04-29T10:07:54.999Z</time></trkpt><trkpt lat="43.30786600284487" lon="27.899209468353245"><ele>188.66666666666669</ele><time>2026-04-29T10:07:56.999Z</time></trkpt><trkpt lat="43.30778926555147" lon="27.89925486440793"><ele>189.33333333333334</ele><time>2026-04-29T10:07:57.999Z</time></trkpt><trkpt lat="43.307736267558255" lon="27.89931695848039"><ele>190.0</ele><time>2026-04-29T10:07:58.999Z</time></trkpt><trkpt lat="43.307714044497615" lon="27.899422430942447"><ele>190.0</ele><time>2026-04-29T10:07:59.999Z</time></trkpt><trkpt lat="43.30774719078004" lon="27.899623555296838"><ele>190.0</ele><time>2026-04-29T10:08:01.999Z</time></trkpt><trkpt lat="43.30776970202023" lon="27.899715697823947"><ele>190.0</ele><time>2026-04-29T10:08:02.999Z</time></trkpt><trkpt lat="43.30772551213823" lon="27.899839616003113"><ele>190.0</ele><time>2026-04-29T10:08:04.999Z</time></trkpt><trkpt lat="43.30769531994482" lon="27.899943417110528"><ele>190.0</ele><time>2026-04-29T10:08:05.999Z</time></trkpt><trkpt lat="43.3076668184792" lon="27.900043316582302"><ele>190.0</ele><time>2026-04-29T10:08:06.999Z</time></trkpt><trkpt lat="43.30763976379225" lon="27.90013605720467"><ele>190.0</ele><time>2026-04-29T10:08:07.999Z</time></trkpt><trkpt lat="43.30761029530013" lon="27.90021375466703"><ele>190.0</ele><time>2026-04-29T10:08:08.999Z</time></trkpt><trkpt lat="43.30755846064904" lon="27.900333759165655"><ele>190.0</ele><time>2026-04-29T10:08:10.999Z</time></trkpt><trkpt lat="43.30751853946632" lon="27.900404376036178"><ele>190.0</ele><time>2026-04-29T10:08:11.999Z</time></trkpt><trkpt lat="43.30747518865851" lon="27.900479669407144"><ele>190.0</ele><time>2026-04-29T10:08:12.999Z</time></trkpt><trkpt lat="43.3074328673602" lon="27.900550164460824"><ele>190.0</ele><time>2026-04-29T10:08:13.999Z</time></trkpt><trkpt lat="43.307382501278845" lon="27.900628193476393"><ele>190.0</ele><time>2026-04-29T10:08:14.999Z</time></trkpt><trkpt lat="43.30732395802952" lon="27.900718523031973"><ele>190.0</ele><time>2026-04-29T10:08:15.999Z</time></trkpt><trkpt lat="43.3072706853482" lon="27.90079988337486"><ele>190.0</ele><time>2026-04-29T10:08:16.999Z</time></trkpt><trkpt lat="43.30721957673858" lon="27.900876891191196"><ele>190.0</ele><time>2026-04-29T10:08:17.999Z</time></trkpt><trkpt lat="43.30717152327756" lon="27.900946918745852"><ele>190.0</ele><time>2026-04-29T10:08:18.999Z</time></trkpt><trkpt lat="43.307116746817904" lon="27.901013149697974"><ele>190.0</ele><time>2026-04-29T10:08:19.999Z</time></trkpt><trkpt lat="43.30706336818528" lon="27.901074861360517"><ele>189.4</ele><time>2026-04-29T10:08:20.999Z</time></trkpt><trkpt lat="43.306985623465756" lon="27.90114357262237"><ele>188.8</ele><time>2026-04-29T10:08:21.999Z</time></trkpt><trkpt lat="43.30689500188294" lon="27.901192282525496"><ele>188.2</ele><time>2026-04-29T10:08:22.999Z</time></trkpt><trkpt lat="43.306779610677516" lon="27.90124248155071"><ele>187.6</ele><time>2026-04-29T10:08:23.999Z</time></trkpt><trkpt lat="43.306658331973026" lon="27.901291467590173"><ele>187.0</ele><time>2026-04-29T10:08:24.999Z</time></trkpt><trkpt lat="43.30653153014161" lon="27.901342933723512"><ele>187.0</ele><time>2026-04-29T10:08:25.999Z</time></trkpt><trkpt lat="43.30641261800429" lon="27.90138149694246"><ele>187.0</ele><time>2026-04-29T10:08:26.999Z</time></trkpt><trkpt lat="43.30629504032942" lon="27.901418693695977"><ele>187.0</ele><time>2026-04-29T10:08:27.999Z</time></trkpt><trkpt lat="43.306178135551015" lon="27.901454821151923"><ele>187.0</ele><time>2026-04-29T10:08:28.999Z</time></trkpt><trkpt lat="43.3060649579593" lon="27.901490720527423"><ele>186.39999999999998</ele><time>2026-04-29T10:08:29.999Z</time></trkpt><trkpt lat="43.305958717305124" lon="27.901528486358785"><ele>185.79999999999998</ele><time>2026-04-29T10:08:30.999Z</time></trkpt><trkpt lat="43.30585689534821" lon="27.90156648275048"><ele>185.2</ele><time>2026-04-29T10:08:31.999Z</time></trkpt><trkpt lat="43.305754017899474" lon="27.90160457303634"><ele>184.6</ele><time>2026-04-29T10:08:32.999Z</time></trkpt><trkpt lat="43.305661962329616" lon="27.90163948499954"><ele>184.0</ele><time>2026-04-29T10:08:33.999Z</time></trkpt><trkpt lat="43.30557356331893" lon="27.901672747385582"><ele>184.0</ele><time>2026-04-29T10:08:34.999Z</time></trkpt><trkpt lat="43.305483791420585" lon="27.901706526355163"><ele>184.0</ele><time>2026-04-29T10:08:35.999Z</time></trkpt><trkpt lat="43.305394612761525" lon="27.901740081972186"><ele>184.0</ele><time>2026-04-29T10:08:36.999Z</time></trkpt><trkpt lat="43.305309217017516" lon="27.90176071163293"><ele>184.0</ele><time>2026-04-29T10:08:37.999Z</time></trkpt><trkpt lat="43.305221821960814" lon="27.901786739122883"><ele>184.0</ele><time>2026-04-29T10:08:38.999Z</time></trkpt><trkpt lat="43.30514654804524" lon="27.901826209637147"><ele>184.0</ele><time>2026-04-29T10:08:39.999Z</time></trkpt><trkpt lat="43.30507507222575" lon="27.901827273573975"><ele>185.83333333333334</ele><time>2026-04-29T10:08:40.999Z</time></trkpt><trkpt lat="43.30500718240395" lon="27.901838320135266"><ele>187.66666666666669</ele><time>2026-04-29T10:08:46Z</time></trkpt><trkpt lat="43.304918805125716" lon="27.901835310815304"><ele>189.5</ele><time>2026-04-29T10:08:50Z</time></trkpt><trkpt lat="43.30482165976693" lon="27.901794457569974"><ele>191.33333333333334</ele><time>2026-04-29T10:08:53Z</time></trkpt><trkpt lat="43.3047486995453" lon="27.901777496824813"><ele>193.16666666666666</ele><time>2026-04-29T10:08:56Z</time></trkpt><trkpt lat="43.30468063509695" lon="27.901761674221202"><ele>195.0</ele><time>2026-04-29T10:08:59Z</time></trkpt><trkpt lat="43.304615932926055" lon="27.90187283340217"><ele>195.0</ele><time>2026-04-29T10:09:01Z</time></trkpt><trkpt lat="43.304518893199" lon="27.9024739861899"><ele>195.0</ele><time>2026-04-29T10:09:04Z</time></trkpt><trkpt lat="43.30458654859107" lon="27.902549472675908"><ele>195.0</ele><time>2026-04-29T10:09:06Z</time></trkpt><trkpt lat="43.30470150428706" lon="27.902568740745174"><ele>195.0</ele><time>2026-04-29T10:09:08Z</time></trkpt><trkpt lat="43.30476862502522" lon="27.902519033536834"><ele>195.0</ele><time>2026-04-29T10:09:14Z</time></trkpt><trkpt lat="43.304840145481336" lon="27.902481609311863"><ele>195.0</ele><time>2026-04-29T10:09:21Z</time></trkpt><trkpt lat="43.304913188356366" lon="27.902479151185137"><ele>195.0</ele><time>2026-04-29T10:09:23Z</time></trkpt><trkpt lat="43.30497998485895" lon="27.902453208655004"><ele>195.0</ele><time>2026-04-29T10:09:26Z</time></trkpt><trkpt lat="43.30507488882958" lon="27.90245235639553"><ele>195.8</ele><time>2026-04-29T10:09:28Z</time></trkpt><trkpt lat="43.30514116034284" lon="27.902472577856802"><ele>196.6</ele><time>2026-04-29T10:09:29Z</time></trkpt><trkpt lat="43.30520801448196" lon="27.902486795047775"><ele>197.39999999999998</ele><time>2026-04-29T10:09:30Z</time></trkpt><trkpt lat="43.30530192270177" lon="27.90252832585991"><ele>198.2</ele><time>2026-04-29T10:09:32Z</time></trkpt><trkpt lat="43.30540144424471" lon="27.902586332771993"><ele>199.0</ele><time>2026-04-29T10:09:35Z</time></trkpt><trkpt lat="43.305517962455205" lon="27.902610820751867"><ele>204.2</ele><time>2026-04-29T10:09:37Z</time></trkpt><trkpt lat="43.30563087731281" lon="27.902668294387023"><ele>209.39999999999998</ele><time>2026-04-29T10:09:38.999Z</time></trkpt><trkpt lat="43.30572608735741" lon="27.9027454886381"><ele>214.6</ele><time>2026-04-29T10:09:40.999Z</time></trkpt><trkpt lat="43.30582568984008" lon="27.902758198141758"><ele>219.8</ele><time>2026-04-29T10:09:42.999Z</time></trkpt><trkpt lat="43.30588723192153" lon="27.902791599412932"><ele>225.0</ele><time>2026-04-29T10:09:43.999Z</time></trkpt><trkpt lat="43.305951136550085" lon="27.90279289674143"><ele>225.0</ele><time>2026-04-29T10:09:44.999Z</time></trkpt><trkpt lat="43.306051056651256" lon="27.90286070766911"><ele>225.0</ele><time>2026-04-29T10:09:46.999Z</time></trkpt><trkpt lat="43.30615428244791" lon="27.902869195558974"><ele>225.0</ele><time>2026-04-29T10:09:48.999Z</time></trkpt><trkpt lat="43.306218168576024" lon="27.902910260600027"><ele>225.0</ele><time>2026-04-29T10:09:50.999Z</time></trkpt><trkpt lat="43.30617886626099" lon="27.903018433436387"><ele>225.0</ele><time>2026-04-29T10:09:53.999Z</time></trkpt><trkpt lat="43.306051891880806" lon="27.903033345024575"><ele>225.0</ele><time>2026-04-29T10:09:55.999Z</time></trkpt><trkpt lat="43.305977606780345" lon="27.903036783875688"><ele>225.0</ele><time>2026-04-29T10:09:56.999Z</time></trkpt><trkpt lat="43.30590396737503" lon="27.903054740848148"><ele>225.0</ele><time>2026-04-29T10:09:57.999Z</time></trkpt><trkpt lat="43.305826799295666" lon="27.903070483444246"><ele>225.0</ele><time>2026-04-29T10:09:58.999Z</time></trkpt><trkpt lat="43.30574821902478" lon="27.903074406553756"><ele>225.0</ele><time>2026-04-29T10:09:59.999Z</time></trkpt><trkpt lat="43.30567471071936" lon="27.903111841750526"><ele>225.0</ele><time>2026-04-29T10:10:00.999Z</time></trkpt><trkpt lat="43.30560923572857" lon="27.903112792308857"><ele>223.66666666666666</ele><time>2026-04-29T10:10:01.999Z</time></trkpt><trkpt lat="43.305484994033066" lon="27.90313735077057"><ele>222.33333333333331</ele><time>2026-04-29T10:10:03.999Z</time></trkpt><trkpt lat="43.30539313882748" lon="27.903124960967165"><ele>221.0</ele><time>2026-04-29T10:10:05.999Z</time></trkpt><trkpt lat="43.305319382365504" lon="27.90316557057627"><ele>219.66666666666666</ele><time>2026-04-29T10:10:09.999Z</time></trkpt><trkpt lat="43.30525858896953" lon="27.90319301535428"><ele>218.33333333333331</ele><time>2026-04-29T10:10:11.999Z</time></trkpt><trkpt lat="43.30517913386792" lon="27.903219337386822"><ele>217.0</ele><time>2026-04-29T10:10:14.999Z</time></trkpt><trkpt lat="43.30510025903482" lon="27.903250590057645"><ele>216.99999999999997</ele><time>2026-04-29T10:10:16.999Z</time></trkpt><trkpt lat="43.30499880716127" lon="27.903261657323952"><ele>217.0</ele><time>2026-04-29T10:10:18.999Z</time></trkpt><trkpt lat="43.30488793592376" lon="27.903297798216933"><ele>217.0</ele><time>2026-04-29T10:10:20.999Z</time></trkpt><trkpt lat="43.30481035367261" lon="27.9033259060826"><ele>217.0</ele><time>2026-04-29T10:10:22.999Z</time></trkpt><trkpt lat="43.30475149248268" lon="27.903361776591737"><ele>216.99999999999997</ele><time>2026-04-29T10:10:24.999Z</time></trkpt><trkpt lat="43.3046794028558" lon="27.90336594769982"><ele>217.0</ele><time>2026-04-29T10:10:27.999Z</time></trkpt><trkpt lat="43.304747441089134" lon="27.903477521739926"><ele>218.33333333333331</ele><time>2026-04-29T10:10:28.999Z</time></trkpt><trkpt lat="43.304730009018854" lon="27.903589624330444"><ele>219.66666666666666</ele><time>2026-04-29T10:10:30.998Z</time></trkpt><trkpt lat="43.30471445065433" lon="27.903697108580996"><ele>221.0</ele><time>2026-04-29T10:10:32.998Z</time></trkpt><trkpt lat="43.30469620485885" lon="27.903828242687595"><ele>222.33333333333331</ele><time>2026-04-29T10:10:34.998Z</time></trkpt><trkpt lat="43.30468343706867" lon="27.903916502305044"><ele>223.66666666666666</ele><time>2026-04-29T10:10:36.998Z</time></trkpt><trkpt lat="43.304669519276224" lon="27.904012711235897"><ele>225.0</ele><time>2026-04-29T10:10:39.998Z</time></trkpt><trkpt lat="43.30457574993629" lon="27.903992743736346"><ele>225.0</ele><time>2026-04-29T10:10:41.998Z</time></trkpt><trkpt lat="43.30452171699101" lon="27.904052880927804"><ele>225.0</ele><time>2026-04-29T10:10:45.998Z</time></trkpt><trkpt lat="43.30446742877148" lon="27.90410972669031"><ele>225.0</ele><time>2026-04-29T10:10:51Z</time></trkpt><trkpt lat="43.30438419056109" lon="27.90397282360933"><ele>225.0</ele><time>2026-04-29T10:10:55Z</time></trkpt><trkpt lat="43.30432411638843" lon="27.90391594004825"><ele>225.0</ele><time>2026-04-29T10:10:57Z</time></trkpt><trkpt lat="43.30426705812633" lon="27.903861912196177"><ele>225.0</ele><time>2026-04-29T10:10:59Z</time></trkpt><trkpt lat="43.304209124998515" lon="27.90381571228879"><ele>225.0</ele><time>2026-04-29T10:11:02Z</time></trkpt><trkpt lat="43.304111912372726" lon="27.903768043943412"><ele>225.0</ele><time>2026-04-29T10:11:04Z</time></trkpt><trkpt lat="43.304021668563074" lon="27.903720836739062"><ele>225.0</ele><time>2026-04-29T10:11:06Z</time></trkpt><trkpt lat="43.3039359511796" lon="27.903731149859016"><ele>225.0</ele><time>2026-04-29T10:11:08Z</time></trkpt><trkpt lat="43.303865052153995" lon="27.90377222092142"><ele>225.0</ele><time>2026-04-29T10:11:10Z</time></trkpt><trkpt lat="43.30380081251878" lon="27.90376837111323"><ele>225.0</ele><time>2026-04-29T10:11:11Z</time></trkpt><trkpt lat="43.30367924865467" lon="27.90376957816487"><ele>225.33333333333334</ele><time>2026-04-29T10:11:13Z</time></trkpt><trkpt lat="43.30360688200735" lon="27.90375705683668"><ele>225.66666666666669</ele><time>2026-04-29T10:11:14Z</time></trkpt><trkpt lat="43.30354046042401" lon="27.90380872461825"><ele>226.0</ele><time>2026-04-29T10:11:15Z</time></trkpt><trkpt lat="43.30347568458767" lon="27.90383902683066"><ele>226.33333333333334</ele><time>2026-04-29T10:11:16Z</time></trkpt><trkpt lat="43.3033554470723" lon="27.90386950832208"><ele>226.66666666666669</ele><time>2026-04-29T10:11:18Z</time></trkpt><trkpt lat="43.30328496763249" lon="27.903897470802423"><ele>227.0</ele><time>2026-04-29T10:11:19Z</time></trkpt><trkpt lat="43.30321633253051" lon="27.903947966529632"><ele>227.00000000000003</ele><time>2026-04-29T10:11:20Z</time></trkpt><trkpt lat="43.3031605943161" lon="27.903997021993135"><ele>227.0</ele><time>2026-04-29T10:11:21Z</time></trkpt><trkpt lat="43.30310389722882" lon="27.90403863726098"><ele>227.0</ele><time>2026-04-29T10:11:22Z</time></trkpt><trkpt lat="43.30302306276135" lon="27.90411339406901"><ele>227.0</ele><time>2026-04-29T10:11:24Z</time></trkpt><trkpt lat="43.30295305854587" lon="27.9041725996258"><ele>227.00000000000003</ele><time>2026-04-29T10:11:26Z</time></trkpt><trkpt lat="43.30288928686014" lon="27.90425206066046"><ele>227.0</ele><time>2026-04-29T10:11:28Z</time></trkpt><trkpt lat="43.302827411450956" lon="27.904346107273"><ele>228.39999999999998</ele><time>2026-04-29T10:11:30Z</time></trkpt><trkpt lat="43.3027730267103" lon="27.90443199510461"><ele>229.79999999999998</ele><time>2026-04-29T10:11:31Z</time></trkpt><trkpt lat="43.30269507124768" lon="27.904498584928206"><ele>231.2</ele><time>2026-04-29T10:11:32Z</time></trkpt><trkpt lat="43.30262702330414" lon="27.904586294811406"><ele>232.6</ele><time>2026-04-29T10:11:33Z</time></trkpt><trkpt lat="43.302570723965616" lon="27.90467364792316"><ele>234.0</ele><time>2026-04-29T10:11:34Z</time></trkpt><trkpt lat="43.30248773361901" lon="27.904764088034874"><ele>234.0</ele><time>2026-04-29T10:11:36Z</time></trkpt><trkpt lat="43.30243816406555" lon="27.904818128558112"><ele>233.99999999999997</ele><time>2026-04-29T10:11:37.999Z</time></trkpt><trkpt lat="43.30236145074161" lon="27.904901331849953"><ele>233.99999999999997</ele><time>2026-04-29T10:11:39.999Z</time></trkpt><trkpt lat="43.302279120461975" lon="27.904958322276794"><ele>234.0</ele><time>2026-04-29T10:11:41.999Z</time></trkpt><trkpt lat="43.30219100310099" lon="27.90504410362821"><ele>234.0</ele><time>2026-04-29T10:11:43.999Z</time></trkpt><trkpt lat="43.30208206642743" lon="27.90509467055146"><ele>236.39999999999998</ele><time>2026-04-29T10:11:45.999Z</time></trkpt><trkpt lat="43.30202303966444" lon="27.905127505556607"><ele>238.79999999999998</ele><time>2026-04-29T10:11:46.999Z</time></trkpt><trkpt lat="43.30192986563717" lon="27.90521097729276"><ele>241.20000000000002</ele><time>2026-04-29T10:11:48.999Z</time></trkpt><trkpt lat="43.30181152402968" lon="27.905270986031802"><ele>243.60000000000002</ele><time>2026-04-29T10:11:50.999Z</time></trkpt><trkpt lat="43.3017660866229" lon="27.90534727274358"><ele>246.0</ele><time>2026-04-29T10:11:51.999Z</time></trkpt><trkpt lat="43.30169034531704" lon="27.90541151902297"><ele>246.0</ele><time>2026-04-29T10:11:53.999Z</time></trkpt><trkpt lat="43.30161355325901" lon="27.905481051307195"><ele>246.00000000000003</ele><time>2026-04-29T10:11:56.999Z</time></trkpt><trkpt lat="43.301543069265215" lon="27.905564215133616"><ele>246.00000000000003</ele><time>2026-04-29T10:11:58.999Z</time></trkpt><trkpt lat="43.301454154683114" lon="27.90565063176157"><ele>246.0</ele><time>2026-04-29T10:12:00.999Z</time></trkpt><trkpt lat="43.301380298129956" lon="27.905763627035373"><ele>246.0</ele><time>2026-04-29T10:12:02.999Z</time></trkpt><trkpt lat="43.30131029819938" lon="27.905874830275938"><ele>246.0</ele><time>2026-04-29T10:12:04.999Z</time></trkpt><trkpt lat="43.30119785566781" lon="27.90599147649329"><ele>246.00000000000003</ele><time>2026-04-29T10:12:06.999Z</time></trkpt><trkpt lat="43.30114007556735" lon="27.906058414030714"><ele>246.00000000000003</ele><time>2026-04-29T10:12:07.999Z</time></trkpt><trkpt lat="43.3010993778197" lon="27.906134452809663"><ele>246.0</ele><time>2026-04-29T10:12:08.999Z</time></trkpt><trkpt lat="43.30102589947522" lon="27.90620360938973"><ele>246.0</ele><time>2026-04-29T10:12:10.999Z</time></trkpt><trkpt lat="43.30095217594717" lon="27.906295038951342"><ele>246.0</ele><time>2026-04-29T10:12:12.999Z</time></trkpt><trkpt lat="43.30085380827235" lon="27.90639699492482"><ele>246.00000000000003</ele><time>2026-04-29T10:12:14.999Z</time></trkpt><trkpt lat="43.300792734022124" lon="27.906442670424628"><ele>246.00000000000003</ele><time>2026-04-29T10:12:15.999Z</time></trkpt><trkpt lat="43.30073362854435" lon="27.90649432998136"><ele>246.0</ele><time>2026-04-29T10:12:16.999Z</time></trkpt><trkpt lat="43.300638337762784" lon="27.906609126960138"><ele>246.0</ele><time>2026-04-29T10:12:18.999Z</time></trkpt><trkpt lat="43.300584560778034" lon="27.906683642287483"><ele>245.0</ele><time>2026-04-29T10:12:19.999Z</time></trkpt><trkpt lat="43.30055386694667" lon="27.9067799699978"><ele>244.0</ele><time>2026-04-29T10:12:20.999Z</time></trkpt><trkpt lat="43.3005359774601" lon="27.906879472987203"><ele>243.0</ele><time>2026-04-29T10:12:21.999Z</time></trkpt><trkpt lat="43.30051215666168" lon="27.906969980587846"><ele>242.0</ele><time>2026-04-29T10:12:22.999Z</time></trkpt><trkpt lat="43.30049955542984" lon="27.907077852749477"><ele>241.0</ele><time>2026-04-29T10:12:23.999Z</time></trkpt><trkpt lat="43.30047596425988" lon="27.9071786443109"><ele>240.0</ele><time>2026-04-29T10:12:24.999Z</time></trkpt><trkpt lat="43.30043829814244" lon="27.907282219267564"><ele>240.0</ele><time>2026-04-29T10:12:25.999Z</time></trkpt><trkpt lat="43.300393121124195" lon="27.90738254586394"><ele>240.0</ele><time>2026-04-29T10:12:26.999Z</time></trkpt><trkpt lat="43.300315684024014" lon="27.907450888531116"><ele>240.0</ele><time>2026-04-29T10:12:27.999Z</time></trkpt><trkpt lat="43.300254215549174" lon="27.90752802529351"><ele>240.0</ele><time>2026-04-29T10:12:28.999Z</time></trkpt><trkpt lat="43.30020137857302" lon="27.9075959726142"><ele>240.0</ele><time>2026-04-29T10:12:29.999Z</time></trkpt><trkpt lat="43.30016958945492" lon="27.90773394386411"><ele>240.0</ele><time>2026-04-29T10:12:31.999Z</time></trkpt><trkpt lat="43.30012129394295" lon="27.90783264834679"><ele>243.2</ele><time>2026-04-29T10:12:33.999Z</time></trkpt><trkpt lat="43.300066033440366" lon="27.907923672054903"><ele>246.4</ele><time>2026-04-29T10:12:36.998Z</time></trkpt><trkpt lat="43.30002126286742" lon="27.90798681989067"><ele>249.60000000000002</ele><time>2026-04-29T10:12:41.998Z</time></trkpt><trkpt lat="43.29994796934918" lon="27.908070810941968"><ele>252.8</ele><time>2026-04-29T10:13:07Z</time></trkpt><trkpt lat="43.29988800591651" lon="27.908179596214666"><ele>256.0</ele><time>2026-04-29T10:13:09Z</time></trkpt><trkpt lat="43.29989876697806" lon="27.90834766940166"><ele>254.66666666666666</ele><time>2026-04-29T10:13:10Z</time></trkpt><trkpt lat="43.299846963122256" lon="27.90842967756446"><ele>253.33333333333331</ele><time>2026-04-29T10:13:11Z</time></trkpt><trkpt lat="43.29979847488501" lon="27.908509068210755"><ele>252.0</ele><time>2026-04-29T10:13:12Z</time></trkpt><trkpt lat="43.29975722475979" lon="27.90859382558582"><ele>250.66666666666669</ele><time>2026-04-29T10:13:13Z</time></trkpt><trkpt lat="43.29971874709422" lon="27.908679954126562"><ele>249.33333333333334</ele><time>2026-04-29T10:13:14Z</time></trkpt><trkpt lat="43.299689929387306" lon="27.90877297590103"><ele>248.0</ele><time>2026-04-29T10:13:15Z</time></trkpt><trkpt lat="43.29966871349352" lon="27.908881668775184"><ele>248.0</ele><time>2026-04-29T10:13:16Z</time></trkpt><trkpt lat="43.299646902313235" lon="27.90901495232292"><ele>248.0</ele><time>2026-04-29T10:13:17Z</time></trkpt><trkpt lat="43.29962356185162" lon="27.909157778655022"><ele>248.0</ele><time>2026-04-29T10:13:18Z</time></trkpt><trkpt lat="43.29959980339777" lon="27.909309998812606"><ele>248.0</ele><time>2026-04-29T10:13:19Z</time></trkpt><trkpt lat="43.29957130155833" lon="27.90947128348688"><ele>248.0</ele><time>2026-04-29T10:13:20Z</time></trkpt><trkpt lat="43.29953789566273" lon="27.90963412588338"><ele>249.25</ele><time>2026-04-29T10:13:21Z</time></trkpt><trkpt lat="43.2994802519154" lon="27.909777452503004"><ele>250.5</ele><time>2026-04-29T10:13:22Z</time></trkpt><trkpt lat="43.29942451340528" lon="27.90992377287924"><ele>251.75</ele><time>2026-04-29T10:13:23Z</time></trkpt><trkpt lat="43.299361017354975" lon="27.910066957206933"><ele>253.0</ele><time>2026-04-29T10:13:24Z</time></trkpt><trkpt lat="43.29930705655914" lon="27.910214841870804"><ele>254.66666666666666</ele><time>2026-04-29T10:13:25Z</time></trkpt><trkpt lat="43.29925530794343" lon="27.91035409659426"><ele>256.3333333333333</ele><time>2026-04-29T10:13:26Z</time></trkpt><trkpt lat="43.29924110024246" lon="27.910480794674097"><ele>258.0</ele><time>2026-04-29T10:13:27Z</time></trkpt><trkpt lat="43.299243524540294" lon="27.91059079832395"><ele>259.6666666666667</ele><time>2026-04-29T10:13:28Z</time></trkpt><trkpt lat="43.299244316345245" lon="27.91069214273464"><ele>261.33333333333337</ele><time>2026-04-29T10:13:29Z</time></trkpt><trkpt lat="43.29928342739615" lon="27.910775625670734"><ele>263.0</ele><time>2026-04-29T10:13:30Z</time></trkpt><trkpt lat="43.29935501778353" lon="27.910814263787024"><ele>263.0</ele><time>2026-04-29T10:13:31Z</time></trkpt><trkpt lat="43.29945363100506" lon="27.91088093283289"><ele>263.0</ele><time>2026-04-29T10:13:33Z</time></trkpt><trkpt lat="43.29950950980495" lon="27.91094012542076"><ele>263.0</ele><time>2026-04-29T10:13:35.999Z</time></trkpt><trkpt lat="43.2995960882898" lon="27.910962756411735"><ele>263.0</ele><time>2026-04-29T10:13:37.999Z</time></trkpt><trkpt lat="43.29964565196846" lon="27.911129327074324"><ele>263.0</ele><time>2026-04-29T10:13:39.999Z</time></trkpt><trkpt lat="43.29962797962941" lon="27.91124737015976"><ele>264.1666666666667</ele><time>2026-04-29T10:13:40.999Z</time></trkpt><trkpt lat="43.29960464936543" lon="27.911375119319175"><ele>265.33333333333337</ele><time>2026-04-29T10:13:41.999Z</time></trkpt><trkpt lat="43.299597827560994" lon="27.911508085978852"><ele>266.5</ele><time>2026-04-29T10:13:42.999Z</time></trkpt><trkpt lat="43.299598680301614" lon="27.911607618722524"><ele>267.6666666666667</ele><time>2026-04-29T10:13:43.999Z</time></trkpt><trkpt lat="43.29958301432282" lon="27.91171595694084"><ele>268.8333333333333</ele><time>2026-04-29T10:13:44.999Z</time></trkpt><trkpt lat="43.29956432825987" lon="27.911846248204615"><ele>270.0</ele><time>2026-04-29T10:13:46.999Z</time></trkpt><trkpt lat="43.299543390276654" lon="27.911929688959557"><ele>270.8333333333333</ele><time>2026-04-29T10:13:48.999Z</time></trkpt><trkpt lat="43.29948873386364" lon="27.912060708866058"><ele>271.6666666666667</ele><time>2026-04-29T10:13:50.999Z</time></trkpt><trkpt lat="43.29945905684212" lon="27.912149745112394"><ele>272.5</ele><time>2026-04-29T10:13:51.999Z</time></trkpt><trkpt lat="43.29940844090515" lon="27.91223100365952"><ele>273.33333333333337</ele><time>2026-04-29T10:13:52.999Z</time></trkpt><trkpt lat="43.299366566325865" lon="27.91233077067576"><ele>274.1666666666667</ele><time>2026-04-29T10:13:53.999Z</time></trkpt><trkpt lat="43.29932300575563" lon="27.912434554575157"><ele>275.0</ele><time>2026-04-29T10:13:54.999Z</time></trkpt><trkpt lat="43.299277774254726" lon="27.912541440507578"><ele>276.0</ele><time>2026-04-29T10:13:55.999Z</time></trkpt><trkpt lat="43.29923220514359" lon="27.912647915440505"><ele>277.0</ele><time>2026-04-29T10:13:56.999Z</time></trkpt><trkpt lat="43.29920635447783" lon="27.912771964889483"><ele>278.0</ele><time>2026-04-29T10:13:57.999Z</time></trkpt><trkpt lat="43.299161220452866" lon="27.91288278230876"><ele>279.0</ele><time>2026-04-29T10:13:58.999Z</time></trkpt><trkpt lat="43.29911990541433" lon="27.912993490898383"><ele>280.0</ele><time>2026-04-29T10:13:59.999Z</time></trkpt><trkpt lat="43.29907713322707" lon="27.91310582930861"><ele>280.0</ele><time>2026-04-29T10:14:00.999Z</time></trkpt><trkpt lat="43.29903276577612" lon="27.913206992080713"><ele>280.0</ele><time>2026-04-29T10:14:01.999Z</time></trkpt><trkpt lat="43.29899814094038" lon="27.91328516237974"><ele>280.0</ele><time>2026-04-29T10:14:02.999Z</time></trkpt><trkpt lat="43.29900489340152" lon="27.9134489911883"><ele>280.0</ele><time>2026-04-29T10:14:04.999Z</time></trkpt><trkpt lat="43.29902664871117" lon="27.91353699604585"><ele>280.0</ele><time>2026-04-29T10:14:05.999Z</time></trkpt><trkpt lat="43.29906999322209" lon="27.913643003335277"><ele>280.0</ele><time>2026-04-29T10:14:06.999Z</time></trkpt><trkpt lat="43.29909812081935" lon="27.913748673084925"><ele>280.3333333333333</ele><time>2026-04-29T10:14:07.999Z</time></trkpt><trkpt lat="43.29912429791635" lon="27.91384701531012"><ele>280.66666666666663</ele><time>2026-04-29T10:14:08.999Z</time></trkpt><trkpt lat="43.299172307479985" lon="27.913936626030335"><ele>281.0</ele><time>2026-04-29T10:14:09.999Z</time></trkpt><trkpt lat="43.29921698456181" lon="27.914003329932832"><ele>281.3333333333333</ele><time>2026-04-29T10:14:12.999Z</time></trkpt><trkpt lat="43.299256350789705" lon="27.914073541564132"><ele>281.6666666666667</ele><time>2026-04-29T10:14:43.998Z</time></trkpt><trkpt lat="43.299349100552966" lon="27.914166152738506"><ele>282.0</ele><time>2026-04-29T10:14:45.998Z</time></trkpt><trkpt lat="43.29944536532002" lon="27.914237103654564"><ele>282.0</ele><time>2026-04-29T10:14:47.998Z</time></trkpt><trkpt lat="43.299506614469465" lon="27.914282202956983"><ele>282.0</ele><time>2026-04-29T10:14:48.998Z</time></trkpt><trkpt lat="43.299573742710585" lon="27.914331608660564"><ele>282.0</ele><time>2026-04-29T10:14:49.998Z</time></trkpt><trkpt lat="43.299652325717766" lon="27.91438943417682"><ele>282.0</ele><time>2026-04-29T10:14:50.998Z</time></trkpt><trkpt lat="43.29973571878715" lon="27.914450799179637"><ele>282.0</ele><time>2026-04-29T10:14:51.998Z</time></trkpt><trkpt lat="43.29981366172325" lon="27.914508153706137"><ele>282.0</ele><time>2026-04-29T10:14:52.998Z</time></trkpt><trkpt lat="43.299889719362845" lon="27.91456412092314"><ele>282.8333333333333</ele><time>2026-04-29T10:14:53.998Z</time></trkpt><trkpt lat="43.29996388232828" lon="27.914618693933583"><ele>283.6666666666667</ele><time>2026-04-29T10:14:54.998Z</time></trkpt><trkpt lat="43.300035024462005" lon="27.914671044059173"><ele>284.5</ele><time>2026-04-29T10:14:55.998Z</time></trkpt><trkpt lat="43.300110899331834" lon="27.914704868850915"><ele>285.33333333333337</ele><time>2026-04-29T10:14:56.998Z</time></trkpt><trkpt lat="43.30018079761516" lon="27.91475900239006"><ele>286.1666666666667</ele><time>2026-04-29T10:14:57.998Z</time></trkpt><trkpt lat="43.30025502973328" lon="27.914817266326946"><ele>287.0</ele><time>2026-04-29T10:14:58.998Z</time></trkpt><trkpt lat="43.300336381947645" lon="27.914881284730644"><ele>287.0</ele><time>2026-04-29T10:15:00Z</time></trkpt><trkpt lat="43.30041546810549" lon="27.91495733873534"><ele>287.0</ele><time>2026-04-29T10:15:01Z</time></trkpt><trkpt lat="43.30046167506395" lon="27.915069895136646"><ele>287.0</ele><time>2026-04-29T10:15:02Z</time></trkpt><trkpt lat="43.30051919300824" lon="27.915165387700238"><ele>287.0</ele><time>2026-04-29T10:15:03Z</time></trkpt><trkpt lat="43.300559804691886" lon="27.915232812123165"><ele>287.0</ele><time>2026-04-29T10:15:04Z</time></trkpt><trkpt lat="43.30060935019112" lon="27.915315068687224"><ele>287.0</ele><time>2026-04-29T10:15:06Z</time></trkpt><trkpt lat="43.300666718630055" lon="27.9154103130114"><ele>287.33333333333337</ele><time>2026-04-29T10:15:08Z</time></trkpt><trkpt lat="43.30073538578585" lon="27.915524315755718"><ele>287.6666666666667</ele><time>2026-04-29T10:15:10Z</time></trkpt><trkpt lat="43.300776488433655" lon="27.915592555292907"><ele>288.0</ele><time>2026-04-29T10:15:11Z</time></trkpt><trkpt lat="43.30082934211675" lon="27.915680304246177"><ele>288.3333333333333</ele><time>2026-04-29T10:15:12Z</time></trkpt><trkpt lat="43.30089029098287" lon="27.915776407426172"><ele>288.66666666666663</ele><time>2026-04-29T10:15:13Z</time></trkpt><trkpt lat="43.30095081039226" lon="27.91587292342782"><ele>289.0</ele><time>2026-04-29T10:15:14Z</time></trkpt><trkpt lat="43.30100846992938" lon="27.915964464870566"><ele>289.2</ele><time>2026-04-29T10:15:15Z</time></trkpt><trkpt lat="43.301066631913685" lon="27.916056804011127"><ele>289.4</ele><time>2026-04-29T10:15:16Z</time></trkpt><trkpt lat="43.30112573889433" lon="27.916150643451296"><ele>289.6</ele><time>2026-04-29T10:15:17Z</time></trkpt><trkpt lat="43.301184605696" lon="27.91624416271158"><ele>289.8</ele><time>2026-04-29T10:15:18Z</time></trkpt><trkpt lat="43.30124410746727" lon="27.916339633320224"><ele>290.0</ele><time>2026-04-29T10:15:19Z</time></trkpt><trkpt lat="43.301317059772984" lon="27.91642116338913"><ele>290.0</ele><time>2026-04-29T10:15:20Z</time></trkpt><trkpt lat="43.301379729129664" lon="27.91652485958941"><ele>290.0</ele><time>2026-04-29T10:15:21Z</time></trkpt><trkpt lat="43.30144079951004" lon="27.916651823327424"><ele>290.0</ele><time>2026-04-29T10:15:22Z</time></trkpt><trkpt lat="43.30151122462088" lon="27.916770454737595"><ele>290.0</ele><time>2026-04-29T10:15:23Z</time></trkpt><trkpt lat="43.30158482164328" lon="27.916895429578986"><ele>290.0</ele><time>2026-04-29T10:15:24Z</time></trkpt><trkpt lat="43.30166021769418" lon="27.917022854580722"><ele>291.8</ele><time>2026-04-29T10:15:25Z</time></trkpt><trkpt lat="43.30173614393287" lon="27.91715050405668"><ele>293.6</ele><time>2026-04-29T10:15:26Z</time></trkpt><trkpt lat="43.30180494553991" lon="27.91726617536962"><ele>295.4</ele><time>2026-04-29T10:15:27Z</time></trkpt><trkpt lat="43.30187620468079" lon="27.917385978391103"><ele>297.2</ele><time>2026-04-29T10:15:28Z</time></trkpt><trkpt lat="43.301943846811064" lon="27.917499700376347"><ele>299.0</ele><time>2026-04-29T10:15:29Z</time></trkpt><trkpt lat="43.30201150412038" lon="27.917613447877866"><ele>299.0</ele><time>2026-04-29T10:15:30Z</time></trkpt><trkpt lat="43.302073312194146" lon="27.917717361466135"><ele>299.0</ele><time>2026-04-29T10:15:31Z</time></trkpt><trkpt lat="43.30212728241802" lon="27.917808218370517"><ele>299.0</ele><time>2026-04-29T10:15:32Z</time></trkpt><trkpt lat="43.302180150362254" lon="27.917878415907165"><ele>299.0</ele><time>2026-04-29T10:15:33Z</time></trkpt><trkpt lat="43.302229377153544" lon="27.91794131119873"><ele>299.0</ele><time>2026-04-29T10:15:35Z</time></trkpt><trkpt lat="43.30228681678582" lon="27.918014700002956"><ele>299.0</ele><time>2026-04-29T10:15:37Z</time></trkpt><trkpt lat="43.30238633855275" lon="27.918091584126806"><ele>299.5</ele><time>2026-04-29T10:15:39Z</time></trkpt><trkpt lat="43.30241234338737" lon="27.91817572906197"><ele>300.0</ele><time>2026-04-29T10:15:40Z</time></trkpt><trkpt lat="43.3024466470937" lon="27.918273058430877"><ele>300.5</ele><time>2026-04-29T10:15:40.999Z</time></trkpt><trkpt lat="43.30248525744378" lon="27.91838080496719"><ele>301.0</ele><time>2026-04-29T10:15:41.999Z</time></trkpt><trkpt lat="43.30253038197496" lon="27.918500906825546"><ele>301.5</ele><time>2026-04-29T10:15:42.999Z</time></trkpt><trkpt lat="43.302578129334385" lon="27.918628861752996"><ele>302.0</ele><time>2026-04-29T10:15:43.999Z</time></trkpt><trkpt lat="43.30262649777884" lon="27.91875482041371"><ele>302.0</ele><time>2026-04-29T10:15:44.999Z</time></trkpt><trkpt lat="43.30267417248193" lon="27.9188820012299"><ele>302.0</ele><time>2026-04-29T10:15:45.999Z</time></trkpt><trkpt lat="43.30272412881784" lon="27.919014634708795"><ele>302.0</ele><time>2026-04-29T10:15:46.999Z</time></trkpt><trkpt lat="43.30277741770325" lon="27.919162302510777"><ele>302.0</ele><time>2026-04-29T10:15:47.999Z</time></trkpt><trkpt lat="43.30280494701701" lon="27.919341967400502"><ele>302.0</ele><time>2026-04-29T10:15:48.999Z</time></trkpt><trkpt lat="43.302856037907176" lon="27.919510764512257"><ele>302.0</ele><time>2026-04-29T10:15:49.999Z</time></trkpt><trkpt lat="43.30290548657117" lon="27.919674363414426"><ele>302.0</ele><time>2026-04-29T10:15:50.999Z</time></trkpt><trkpt lat="43.3029536790402" lon="27.91983429300445"><ele>302.0</ele><time>2026-04-29T10:15:51.999Z</time></trkpt><trkpt lat="43.30299782856968" lon="27.919980805838243"><ele>301.6666666666667</ele><time>2026-04-29T10:15:52.999Z</time></trkpt><trkpt lat="43.30303869570129" lon="27.92011603591757"><ele>301.33333333333337</ele><time>2026-04-29T10:15:53.999Z</time></trkpt><trkpt lat="43.303074942729786" lon="27.92023597389242"><ele>301.0</ele><time>2026-04-29T10:15:54.999Z</time></trkpt><trkpt lat="43.30310607745773" lon="27.920338995728166"><ele>300.6666666666667</ele><time>2026-04-29T10:15:55.999Z</time></trkpt><trkpt lat="43.30313082110924" lon="27.920420870187417"><ele>300.3333333333333</ele><time>2026-04-29T10:15:56.999Z</time></trkpt><trkpt lat="43.3031598263488" lon="27.92052062513026"><ele>300.0</ele><time>2026-04-29T10:15:58.999Z</time></trkpt><trkpt lat="43.303187911015435" lon="27.92064852331995"><ele>301.3333333333333</ele><time>2026-04-29T10:16:00.999Z</time></trkpt><trkpt lat="43.303188228148635" lon="27.92083385190651"><ele>302.6666666666667</ele><time>2026-04-29T10:16:02.999Z</time></trkpt><trkpt lat="43.303192112585045" lon="27.920928963993752"><ele>304.0</ele><time>2026-04-29T10:16:03.999Z</time></trkpt><trkpt lat="43.30322757076647" lon="27.921023384457943"><ele>305.33333333333337</ele><time>2026-04-29T10:16:04.999Z</time></trkpt><trkpt lat="43.30323065673084" lon="27.92112910743897"><ele>306.6666666666667</ele><time>2026-04-29T10:16:05.999Z</time></trkpt><trkpt lat="43.30322465860557" lon="27.921242755224213"><ele>308.0</ele><time>2026-04-29T10:16:06.999Z</time></trkpt><trkpt lat="43.303214416234404" lon="27.92135500858061"><ele>308.0</ele><time>2026-04-29T10:16:07.999Z</time></trkpt><trkpt lat="43.30315424078817" lon="27.921444433634445"><ele>308.0</ele><time>2026-04-29T10:16:08.999Z</time></trkpt><trkpt lat="43.30313086564994" lon="27.921550452238833"><ele>308.0</ele><time>2026-04-29T10:16:09.999Z</time></trkpt><trkpt lat="43.3031067842582" lon="27.921661211339863"><ele>308.0</ele><time>2026-04-29T10:16:10.999Z</time></trkpt><trkpt lat="43.30311086060111" lon="27.921790521871802"><ele>308.0</ele><time>2026-04-29T10:16:11.999Z</time></trkpt><trkpt lat="43.303080331697885" lon="27.921910669832414"><ele>308.0</ele><time>2026-04-29T10:16:12.999Z</time></trkpt><trkpt lat="43.30306469398817" lon="27.922037589217794"><ele>307.6666666666667</ele><time>2026-04-29T10:16:13.999Z</time></trkpt><trkpt lat="43.30304986954999" lon="27.92216191264779"><ele>307.33333333333337</ele><time>2026-04-29T10:16:14.999Z</time></trkpt><trkpt lat="43.30304478588555" lon="27.92227130483552"><ele>307.0</ele><time>2026-04-29T10:16:15.999Z</time></trkpt><trkpt lat="43.30303616584145" lon="27.92237532910473"><ele>306.6666666666667</ele><time>2026-04-29T10:16:16.999Z</time></trkpt><trkpt lat="43.30302778754762" lon="27.92249082430487"><ele>306.3333333333333</ele><time>2026-04-29T10:16:17.999Z</time></trkpt><trkpt lat="43.30302137614272" lon="27.92261373848765"><ele>306.0</ele><time>2026-04-29T10:16:18.999Z</time></trkpt><trkpt lat="43.303008397709036" lon="27.922752282290393"><ele>306.0</ele><time>2026-04-29T10:16:19.999Z</time></trkpt><trkpt lat="43.302991148871236" lon="27.922900730071785"><ele>306.0</ele><time>2026-04-29T10:16:20.999Z</time></trkpt><trkpt lat="43.302976052565725" lon="27.923029422701465"><ele>306.0</ele><time>2026-04-29T10:16:21.999Z</time></trkpt><trkpt lat="43.302959695183155" lon="27.923150337221028"><ele>306.0</ele><time>2026-04-29T10:16:22.999Z</time></trkpt><trkpt lat="43.302942496629186" lon="27.923277469723583"><ele>306.0</ele><time>2026-04-29T10:16:23.999Z</time></trkpt><trkpt lat="43.30292559894699" lon="27.923406198858693"><ele>306.5</ele><time>2026-04-29T10:16:24.999Z</time></trkpt><trkpt lat="43.30291520843947" lon="27.923529513180974"><ele>307.0</ele><time>2026-04-29T10:16:25.999Z</time></trkpt><trkpt lat="43.302923876313095" lon="27.923647245333893"><ele>307.5</ele><time>2026-04-29T10:16:26.999Z</time></trkpt><trkpt lat="43.302908365059" lon="27.92375682404246"><ele>308.0</ele><time>2026-04-29T10:16:27.999Z</time></trkpt><trkpt lat="43.30288670009865" lon="27.92386391596693"><ele>308.5</ele><time>2026-04-29T10:16:28.999Z</time></trkpt><trkpt lat="43.302864289294455" lon="27.923954562164667"><ele>309.0</ele><time>2026-04-29T10:16:29.999Z</time></trkpt><trkpt lat="43.302810865702064" lon="27.924060465896904"><ele>309.0</ele><time>2026-04-29T10:16:31.999Z</time></trkpt><trkpt lat="43.302779590743285" lon="27.92414025519391"><ele>309.0</ele><time>2026-04-29T10:16:34.999Z</time></trkpt><trkpt lat="43.30274492393285" lon="27.924228697838267"><ele>309.0</ele><time>2026-04-29T10:16:46.998Z</time></trkpt><trkpt lat="43.302693928425384" lon="27.92435790487859"><ele>309.0</ele><time>2026-04-29T10:16:48.998Z</time></trkpt><trkpt lat="43.302658954828374" lon="27.924445317513776"><ele>309.0</ele><time>2026-04-29T10:16:49.998Z</time></trkpt><trkpt lat="43.30262468605989" lon="27.924541103470492"><ele>309.0</ele><time>2026-04-29T10:16:50.998Z</time></trkpt><trkpt lat="43.30259526186703" lon="27.92462331012058"><ele>309.59999999999997</ele><time>2026-04-29T10:16:51.998Z</time></trkpt><trkpt lat="43.302554907583655" lon="27.92473591836161"><ele>310.2</ele><time>2026-04-29T10:16:52.998Z</time></trkpt><trkpt lat="43.30251437441262" lon="27.924849579369514"><ele>310.79999999999995</ele><time>2026-04-29T10:16:53.998Z</time></trkpt><trkpt lat="43.30247342193158" lon="27.92496489847139"><ele>311.4</ele><time>2026-04-29T10:16:54.998Z</time></trkpt><trkpt lat="43.302431445882036" lon="27.925082978898693"><ele>312.0</ele><time>2026-04-29T10:16:55.998Z</time></trkpt><trkpt lat="43.302388642228834" lon="27.925202862254835"><ele>312.3333333333333</ele><time>2026-04-29T10:16:56.998Z</time></trkpt><trkpt lat="43.302336846939895" lon="27.9253079330132"><ele>312.6666666666667</ele><time>2026-04-29T10:16:57.998Z</time></trkpt><trkpt lat="43.30228463118672" lon="27.925410853590577"><ele>313.0</ele><time>2026-04-29T10:16:58.998Z</time></trkpt><trkpt lat="43.30223216761409" lon="27.925505441918904"><ele>313.33333333333337</ele><time>2026-04-29T10:16:59.998Z</time></trkpt><trkpt lat="43.302178618236" lon="27.925599848641163"><ele>313.6666666666667</ele><time>2026-04-29T10:17:00.998Z</time></trkpt><trkpt lat="43.30212246259833" lon="27.92569816257854"><ele>314.0</ele><time>2026-04-29T10:17:01.998Z</time></trkpt><trkpt lat="43.30206165270847" lon="27.925790634105823"><ele>313.83333333333337</ele><time>2026-04-29T10:17:02.998Z</time></trkpt><trkpt lat="43.30199896127758" lon="27.92588478166649"><ele>313.6666666666667</ele><time>2026-04-29T10:17:03.998Z</time></trkpt><trkpt lat="43.30193606680411" lon="27.9259792221788"><ele>313.5</ele><time>2026-04-29T10:17:04.998Z</time></trkpt><trkpt lat="43.301877835340164" lon="27.926070514900054"><ele>313.3333333333333</ele><time>2026-04-29T10:17:06Z</time></trkpt><trkpt lat="43.301829087304725" lon="27.926161637792397"><ele>313.16666666666663</ele><time>2026-04-29T10:17:07Z</time></trkpt><trkpt lat="43.30178951806148" lon="27.926258135837738"><ele>313.0</ele><time>2026-04-29T10:17:08Z</time></trkpt><trkpt lat="43.30173795427685" lon="27.926344949183882"><ele>313.0</ele><time>2026-04-29T10:17:09Z</time></trkpt><trkpt lat="43.30169065950684" lon="27.926426472217116"><ele>313.0</ele><time>2026-04-29T10:17:10Z</time></trkpt><trkpt lat="43.30162991781" lon="27.926493399571733"><ele>313.0</ele><time>2026-04-29T10:17:11Z</time></trkpt><trkpt lat="43.30156347297736" lon="27.92655579922904"><ele>313.0</ele><time>2026-04-29T10:17:12Z</time></trkpt><trkpt lat="43.30149828544324" lon="27.926631716338715"><ele>313.0</ele><time>2026-04-29T10:17:13Z</time></trkpt><trkpt lat="43.301434163447404" lon="27.926731775579135"><ele>313.0</ele><time>2026-04-29T10:17:14Z</time></trkpt><trkpt lat="43.30136792839781" lon="27.92678372570018"><ele>312.66666666666663</ele><time>2026-04-29T10:17:15Z</time></trkpt><trkpt lat="43.301320767197254" lon="27.926862971236137"><ele>312.3333333333333</ele><time>2026-04-29T10:17:16Z</time></trkpt><trkpt lat="43.301256144480725" lon="27.926932450570707"><ele>312.0</ele><time>2026-04-29T10:17:17Z</time></trkpt><trkpt lat="43.301194385835856" lon="27.927016520534163"><ele>311.6666666666667</ele><time>2026-04-29T10:17:18Z</time></trkpt><trkpt lat="43.30113963277623" lon="27.927109923208953"><ele>311.33333333333337</ele><time>2026-04-29T10:17:19Z</time></trkpt><trkpt lat="43.30108771231365" lon="27.927168386217623"><ele>311.0</ele><time>2026-04-29T10:17:20Z</time></trkpt><trkpt lat="43.301027092997685" lon="27.92728456503349"><ele>311.0</ele><time>2026-04-29T10:17:22Z</time></trkpt><trkpt lat="43.30093810805599" lon="27.92739081213608"><ele>311.0</ele><time>2026-04-29T10:17:24Z</time></trkpt><trkpt lat="43.300864758931866" lon="27.927533469247084"><ele>311.0</ele><time>2026-04-29T10:17:26Z</time></trkpt><trkpt lat="43.30076967187453" lon="27.927638078865474"><ele>311.0</ele><time>2026-04-29T10:17:28Z</time></trkpt><trkpt lat="43.3007055184347" lon="27.927752496792618"><ele>311.5</ele><time>2026-04-29T10:17:30Z</time></trkpt><trkpt lat="43.30065473712639" lon="27.92780699207461"><ele>312.0</ele><time>2026-04-29T10:17:31Z</time></trkpt><trkpt lat="43.300576627894884" lon="27.927906063289928"><ele>312.5</ele><time>2026-04-29T10:17:33Z</time></trkpt><trkpt lat="43.30053194782272" lon="27.927967637924887"><ele>313.0</ele><time>2026-04-29T10:17:36Z</time></trkpt><trkpt lat="43.300437776369996" lon="27.92799653789378"><ele>313.5</ele><time>2026-04-29T10:17:39Z</time></trkpt><trkpt lat="43.300330607777106" lon="27.928015863454537"><ele>314.0</ele><time>2026-04-29T10:17:41Z</time></trkpt><trkpt lat="43.300223125165225" lon="27.92803503030353"><ele>314.0</ele><time>2026-04-29T10:17:44Z</time></trkpt><trkpt lat="43.3001533022435" lon="27.92804748152255"><ele>314.0</ele><time>2026-04-29T10:17:45Z</time></trkpt><trkpt lat="43.300083414359804" lon="27.92803228877709"><ele>314.0</ele><time>2026-04-29T10:17:46Z</time></trkpt><trkpt lat="43.29999442608342" lon="27.928029774983116"><ele>314.0</ele><time>2026-04-29T10:17:47Z</time></trkpt><trkpt lat="43.2999225239558" lon="27.9280029401894"><ele>314.0</ele><time>2026-04-29T10:17:48Z</time></trkpt><trkpt lat="43.299828681065385" lon="27.92797977214934"><ele>314.0</ele><time>2026-04-29T10:17:49Z</time></trkpt><trkpt lat="43.29973934184686" lon="27.927953414823108"><ele>314.0</ele><time>2026-04-29T10:17:50Z</time></trkpt><trkpt lat="43.299642276932005" lon="27.927922318910156"><ele>314.0</ele><time>2026-04-29T10:17:50.999Z</time></trkpt><trkpt lat="43.29954391846598" lon="27.927890808596693"><ele>314.0</ele><time>2026-04-29T10:17:51.999Z</time></trkpt><trkpt lat="43.299442726440546" lon="27.927858390519816"><ele>314.0</ele><time>2026-04-29T10:17:52.999Z</time></trkpt><trkpt lat="43.29934339649602" lon="27.92782656898062"><ele>314.0</ele><time>2026-04-29T10:17:53.999Z</time></trkpt><trkpt lat="43.299240110012846" lon="27.92779371708554"><ele>314.0</ele><time>2026-04-29T10:17:54.999Z</time></trkpt><trkpt lat="43.29913621783418" lon="27.9277649659972"><ele>314.0</ele><time>2026-04-29T10:17:55.999Z</time></trkpt><trkpt lat="43.29902800157931" lon="27.927735018262897"><ele>314.0</ele><time>2026-04-29T10:17:56.999Z</time></trkpt><trkpt lat="43.2989039811221" lon="27.92770654355524"><ele>314.0</ele><time>2026-04-29T10:17:57.999Z</time></trkpt><trkpt lat="43.29879725144493" lon="27.927697970875894"><ele>314.0</ele><time>2026-04-29T10:17:58.999Z</time></trkpt><trkpt lat="43.29868589750368" lon="27.927742727581816"><ele>314.2</ele><time>2026-04-29T10:17:59.999Z</time></trkpt><trkpt lat="43.29858106255603" lon="27.927736118595135"><ele>314.4</ele><time>2026-04-29T10:18:00.999Z</time></trkpt><trkpt lat="43.29847829242828" lon="27.927729639782974"><ele>314.6</ele><time>2026-04-29T10:18:01.999Z</time></trkpt><trkpt lat="43.298398534223544" lon="27.927701332233628"><ele>314.8</ele><time>2026-04-29T10:18:02.999Z</time></trkpt><trkpt lat="43.298309166515274" lon="27.92766933300496"><ele>315.0</ele><time>2026-04-29T10:18:03.999Z</time></trkpt><trkpt lat="43.29820340344642" lon="27.927641103520457"><ele>315.0</ele><time>2026-04-29T10:18:04.999Z</time></trkpt><trkpt lat="43.29810527233096" lon="27.927569668592106"><ele>315.0</ele><time>2026-04-29T10:18:05.999Z</time></trkpt><trkpt lat="43.2980021468158" lon="27.927509544571706"><ele>315.0</ele><time>2026-04-29T10:18:06.999Z</time></trkpt><trkpt lat="43.29790018303106" lon="27.927446097718846"><ele>315.0</ele><time>2026-04-29T10:18:07.999Z</time></trkpt><trkpt lat="43.29780023597251" lon="27.927380619630014"><ele>315.0</ele><time>2026-04-29T10:18:08.999Z</time></trkpt><trkpt lat="43.29770034931051" lon="27.92730534055246"><ele>314.6</ele><time>2026-04-29T10:18:09.999Z</time></trkpt><trkpt lat="43.29761069215453" lon="27.92722642854874"><ele>314.2</ele><time>2026-04-29T10:18:10.999Z</time></trkpt><trkpt lat="43.297515105153046" lon="27.9271486673182"><ele>313.8</ele><time>2026-04-29T10:18:11.999Z</time></trkpt><trkpt lat="43.29743268575758" lon="27.92704501485271"><ele>313.4</ele><time>2026-04-29T10:18:12.999Z</time></trkpt><trkpt lat="43.29737102563356" lon="27.926917118788793"><ele>313.0</ele><time>2026-04-29T10:18:13.999Z</time></trkpt><trkpt lat="43.297295923104286" lon="27.92681046560293"><ele>312.4</ele><time>2026-04-29T10:18:14.999Z</time></trkpt><trkpt lat="43.29722833441378" lon="27.926692181432923"><ele>311.8</ele><time>2026-04-29T10:18:15.999Z</time></trkpt><trkpt lat="43.29715171527905" lon="27.92658854025245"><ele>311.2</ele><time>2026-04-29T10:18:16.999Z</time></trkpt><trkpt lat="43.297098986471426" lon="27.926454320627215"><ele>310.6</ele><time>2026-04-29T10:18:17.999Z</time></trkpt><trkpt lat="43.29702927484771" lon="27.92635056238328"><ele>310.0</ele><time>2026-04-29T10:18:18.999Z</time></trkpt><trkpt lat="43.29698121846126" lon="27.92623787575442"><ele>310.0</ele><time>2026-04-29T10:18:19.999Z</time></trkpt><trkpt lat="43.29694301975145" lon="27.926167860922007"><ele>310.0</ele><time>2026-04-29T10:18:20.999Z</time></trkpt><trkpt lat="43.296896296923684" lon="27.926082221805366"><ele>310.0</ele><time>2026-04-29T10:18:22.999Z</time></trkpt><trkpt lat="43.29671159430054" lon="27.92618031782425"><ele>310.0</ele><time>2026-04-29T10:18:24.999Z</time></trkpt><trkpt lat="43.29667146068694" lon="27.926287369949826"><ele>310.0</ele><time>2026-04-29T10:18:25.999Z</time></trkpt><trkpt lat="43.29662297105851" lon="27.926389657881458"><ele>310.0</ele><time>2026-04-29T10:18:26.999Z</time></trkpt><trkpt lat="43.29657468748799" lon="27.92650454214468"><ele>310.0</ele><time>2026-04-29T10:18:27.999Z</time></trkpt><trkpt lat="43.2965093731253" lon="27.926620129573706"><ele>310.0</ele><time>2026-04-29T10:18:28.999Z</time></trkpt><trkpt lat="43.29644216648179" lon="27.926743159618656"><ele>310.0</ele><time>2026-04-29T10:18:29.999Z</time></trkpt><trkpt lat="43.296378244463334" lon="27.926862683331457"><ele>310.0</ele><time>2026-04-29T10:18:30.999Z</time></trkpt><trkpt lat="43.296310625119425" lon="27.926969500942132"><ele>309.8</ele><time>2026-04-29T10:18:31.999Z</time></trkpt><trkpt lat="43.296252000509945" lon="27.927079206603594"><ele>309.6</ele><time>2026-04-29T10:18:32.999Z</time></trkpt><trkpt lat="43.296180962487256" lon="27.92717437484176"><ele>309.4</ele><time>2026-04-29T10:18:33.999Z</time></trkpt><trkpt lat="43.29613597171489" lon="27.92728798003995"><ele>309.2</ele><time>2026-04-29T10:18:34.999Z</time></trkpt><trkpt lat="43.2960730235109" lon="27.927363764722504"><ele>309.0</ele><time>2026-04-29T10:18:35.999Z</time></trkpt><trkpt lat="43.29601992334366" lon="27.9274532652915"><ele>309.0</ele><time>2026-04-29T10:18:36.999Z</time></trkpt><trkpt lat="43.295966179608314" lon="27.927543850641754"><ele>309.0</ele><time>2026-04-29T10:18:37.999Z</time></trkpt><trkpt lat="43.29590697231583" lon="27.92764323294121"><ele>309.0</ele><time>2026-04-29T10:18:38.999Z</time></trkpt><trkpt lat="43.29584903327907" lon="27.92776850210115"><ele>309.0</ele><time>2026-04-29T10:18:39.999Z</time></trkpt><trkpt lat="43.29577981352863" lon="27.927884201925316"><ele>309.0</ele><time>2026-04-29T10:18:40.999Z</time></trkpt><trkpt lat="43.29572044294583" lon="27.92799985695328"><ele>309.0</ele><time>2026-04-29T10:18:41.999Z</time></trkpt><trkpt lat="43.29565325031756" lon="27.928086936439875"><ele>309.0</ele><time>2026-04-29T10:18:42.999Z</time></trkpt><trkpt lat="43.29559013925093" lon="27.928176241354375"><ele>309.0</ele><time>2026-04-29T10:18:43.999Z</time></trkpt><trkpt lat="43.29551693759334" lon="27.92826424574827"><ele>309.0</ele><time>2026-04-29T10:18:44.999Z</time></trkpt><trkpt lat="43.295445816541076" lon="27.928350261649648"><ele>309.0</ele><time>2026-04-29T10:18:45.999Z</time></trkpt><trkpt lat="43.29539272767682" lon="27.928440070132336"><ele>309.0</ele><time>2026-04-29T10:18:46.999Z</time></trkpt><trkpt lat="43.295330328532316" lon="27.92847084343172"><ele>309.0</ele><time>2026-04-29T10:18:47.999Z</time></trkpt><trkpt lat="43.29526132414309" lon="27.92850556897796"><ele>309.0</ele><time>2026-04-29T10:18:48.999Z</time></trkpt><trkpt lat="43.29519390939867" lon="27.92855829694429"><ele>309.0</ele><time>2026-04-29T10:18:49.999Z</time></trkpt><trkpt lat="43.29511269021647" lon="27.92848331758933"><ele>309.0</ele><time>2026-04-29T10:18:50.999Z</time></trkpt><trkpt lat="43.29502891360841" lon="27.928473728433488"><ele>309.0</ele><time>2026-04-29T10:18:51.999Z</time></trkpt><trkpt lat="43.294940474564825" lon="27.92842419300757"><ele>309.0</ele><time>2026-04-29T10:18:52.998Z</time></trkpt><trkpt lat="43.294840758112706" lon="27.92840049842359"><ele>309.0</ele><time>2026-04-29T10:18:53.998Z</time></trkpt><trkpt lat="43.2947569392315" lon="27.9283641585319"><ele>309.0</ele><time>2026-04-29T10:18:54.998Z</time></trkpt><trkpt lat="43.29467660342819" lon="27.928333259653126"><ele>309.0</ele><time>2026-04-29T10:18:55.998Z</time></trkpt><trkpt lat="43.294600178296015" lon="27.92828243632151"><ele>309.0</ele><time>2026-04-29T10:18:56.998Z</time></trkpt><trkpt lat="43.29451954008317" lon="27.92824829012985"><ele>309.0</ele><time>2026-04-29T10:18:57.998Z</time></trkpt><trkpt lat="43.29443190183681" lon="27.928226523704154"><ele>308.1666666666667</ele><time>2026-04-29T10:18:58.998Z</time></trkpt><trkpt lat="43.29435073258704" lon="27.928193582487662"><ele>307.3333333333333</ele><time>2026-04-29T10:18:59.998Z</time></trkpt><trkpt lat="43.294282898907376" lon="27.928144695699206"><ele>306.5</ele><time>2026-04-29T10:19:00.998Z</time></trkpt><trkpt lat="43.29420349600508" lon="27.928104214062497"><ele>305.66666666666663</ele><time>2026-04-29T10:19:01.998Z</time></trkpt><trkpt lat="43.294135299645056" lon="27.928069045004595"><ele>304.8333333333333</ele><time>2026-04-29T10:19:02.998Z</time></trkpt><trkpt lat="43.29406691873007" lon="27.928033780759492"><ele>304.0</ele><time>2026-04-29T10:19:03.998Z</time></trkpt><trkpt lat="43.29396670593715" lon="27.927982100714736"><ele>303.4285714285714</ele><time>2026-04-29T10:19:05.998Z</time></trkpt><trkpt lat="43.293906092737245" lon="27.927950842312672"><ele>302.8571428571429</ele><time>2026-04-29T10:19:06.998Z</time></trkpt><trkpt lat="43.29383971532218" lon="27.927941819259885"><ele>302.2857142857143</ele><time>2026-04-29T10:19:07.998Z</time></trkpt><trkpt lat="43.293765781110636" lon="27.92790346111388"><ele>301.71428571428567</ele><time>2026-04-29T10:19:08.998Z</time></trkpt><trkpt lat="43.29368892418182" lon="27.927864723776754"><ele>301.1428571428571</ele><time>2026-04-29T10:19:09.998Z</time></trkpt><trkpt lat="43.2936159715788" lon="27.927819534390945"><ele>300.57142857142856</ele><time>2026-04-29T10:19:10.998Z</time></trkpt><trkpt lat="43.29354941204423" lon="27.927786687753173"><ele>300.0</ele><time>2026-04-29T10:19:12Z</time></trkpt><trkpt lat="43.293481726529194" lon="27.927730826748515"><ele>300.0</ele><time>2026-04-29T10:19:13Z</time></trkpt><trkpt lat="43.29340482135025" lon="27.92769880297655"><ele>300.0</ele><time>2026-04-29T10:19:14Z</time></trkpt><trkpt lat="43.293327036332386" lon="27.927657860928566"><ele>300.0</ele><time>2026-04-29T10:19:15Z</time></trkpt><trkpt lat="43.293247089381" lon="27.927618866036834"><ele>300.0</ele><time>2026-04-29T10:19:16Z</time></trkpt><trkpt lat="43.29316206967734" lon="27.927607742267057"><ele>300.0</ele><time>2026-04-29T10:19:17Z</time></trkpt><trkpt lat="43.29308284105983" lon="27.92756918575916"><ele>300.0</ele><time>2026-04-29T10:19:18Z</time></trkpt><trkpt lat="43.293002100670634" lon="27.92757039086063"><ele>299.6</ele><time>2026-04-29T10:19:19Z</time></trkpt><trkpt lat="43.29292553064315" lon="27.92754541667074"><ele>299.2</ele><time>2026-04-29T10:19:20Z</time></trkpt><trkpt lat="43.29280791667198" lon="27.927456563976712"><ele>298.8</ele><time>2026-04-29T10:19:22Z</time></trkpt><trkpt lat="43.29273467464799" lon="27.9273784167571"><ele>298.4</ele><time>2026-04-29T10:19:23Z</time></trkpt><trkpt lat="43.292619291470835" lon="27.92740692408997"><ele>298.0</ele><time>2026-04-29T10:19:24Z</time></trkpt><trkpt lat="43.29251812661148" lon="27.927414285011707"><ele>298.0</ele><time>2026-04-29T10:19:25Z</time></trkpt><trkpt lat="43.29243447091033" lon="27.927431256194634"><ele>298.0</ele><time>2026-04-29T10:19:26Z</time></trkpt><trkpt lat="43.29234868718855" lon="27.927463751463364"><ele>298.0</ele><time>2026-04-29T10:19:27Z</time></trkpt><trkpt lat="43.292251966629834" lon="27.927507849975154"><ele>298.0</ele><time>2026-04-29T10:19:28Z</time></trkpt><trkpt lat="43.292168053280314" lon="27.927541716085408"><ele>298.0</ele><time>2026-04-29T10:19:29Z</time></trkpt><trkpt lat="43.292114380287785" lon="27.92760708712335"><ele>298.0</ele><time>2026-04-29T10:19:30Z</time></trkpt><trkpt lat="43.29205917600494" lon="27.927665772674867"><ele>298.5</ele><time>2026-04-29T10:19:31Z</time></trkpt><trkpt lat="43.291951703813055" lon="27.927746716163966"><ele>299.0</ele><time>2026-04-29T10:19:33Z</time></trkpt><trkpt lat="43.29189493910118" lon="27.92778537938203"><ele>299.5</ele><time>2026-04-29T10:19:34Z</time></trkpt><trkpt lat="43.291841796002075" lon="27.92784340628608"><ele>300.0</ele><time>2026-04-29T10:19:35Z</time></trkpt><trkpt lat="43.29179461641228" lon="27.927954214312543"><ele>300.5</ele><time>2026-04-29T10:19:37Z</time></trkpt><trkpt lat="43.29174294699273" lon="27.928043726918425"><ele>301.0</ele><time>2026-04-29T10:19:38Z</time></trkpt><trkpt lat="43.291625308578155" lon="27.928290987227474"><ele>301.0</ele><time>2026-04-29T10:19:40Z</time></trkpt><trkpt lat="43.29156302367201" lon="27.928357705535404"><ele>301.0</ele><time>2026-04-29T10:19:41Z</time></trkpt><trkpt lat="43.29149151629778" lon="27.92843416777315"><ele>301.0</ele><time>2026-04-29T10:19:42Z</time></trkpt><trkpt lat="43.29142132148878" lon="27.9285090378842"><ele>301.0</ele><time>2026-04-29T10:19:43Z</time></trkpt><trkpt lat="43.29124132726165" lon="27.928600807778032"><ele>300.8333333333333</ele><time>2026-04-29T10:19:44Z</time></trkpt><trkpt lat="43.291174130921995" lon="27.928644339986253"><ele>300.66666666666663</ele><time>2026-04-29T10:19:45Z</time></trkpt><trkpt lat="43.29107918215109" lon="27.928713576267157"><ele>300.5</ele><time>2026-04-29T10:19:48Z</time></trkpt><trkpt lat="43.290976986219846" lon="27.928685968483933"><ele>300.3333333333333</ele><time>2026-04-29T10:19:51Z</time></trkpt><trkpt lat="43.2909645478635" lon="27.928799439812632"><ele>300.1666666666667</ele><time>2026-04-29T10:19:52Z</time></trkpt><trkpt lat="43.29093419835061" lon="27.92888525946618"><ele>300.0</ele><time>2026-04-29T10:19:53Z</time></trkpt><trkpt lat="43.290900391879404" lon="27.928960818021768"><ele>300.0</ele><time>2026-04-29T10:19:54Z</time></trkpt><trkpt lat="43.29077238334632" lon="27.929029478430333"><ele>300.0</ele><time>2026-04-29T10:19:56Z</time></trkpt><trkpt lat="43.290681385716724" lon="27.92916247661949"><ele>300.0</ele><time>2026-04-29T10:19:58Z</time></trkpt><trkpt lat="43.290614616155175" lon="27.929239822525467"><ele>300.0</ele><time>2026-04-29T10:19:58.999Z</time></trkpt><trkpt lat="43.29054947778975" lon="27.929329337302416"><ele>300.0</ele><time>2026-04-29T10:19:59.999Z</time></trkpt><trkpt lat="43.29048625328904" lon="27.929416371669983"><ele>300.0</ele><time>2026-04-29T10:20:00.999Z</time></trkpt><trkpt lat="43.29042460793331" lon="27.929501879687766"><ele>300.0</ele><time>2026-04-29T10:20:01.999Z</time></trkpt><trkpt lat="43.290361636178154" lon="27.929589066292305"><ele>300.0</ele><time>2026-04-29T10:20:02.999Z</time></trkpt><trkpt lat="43.29031249130966" lon="27.929680626595406"><ele>300.0</ele><time>2026-04-29T10:20:03.999Z</time></trkpt><trkpt lat="43.29025130302499" lon="27.929764808576934"><ele>300.0</ele><time>2026-04-29T10:20:04.999Z</time></trkpt><trkpt lat="43.290192958444095" lon="27.929847296632868"><ele>300.0</ele><time>2026-04-29T10:20:05.999Z</time></trkpt><trkpt lat="43.29013014861832" lon="27.92993502029182"><ele>300.0</ele><time>2026-04-29T10:20:06.999Z</time></trkpt><trkpt lat="43.29006603074577" lon="27.930019528095396"><ele>300.0</ele><time>2026-04-29T10:20:07.999Z</time></trkpt><trkpt lat="43.28999339960773" lon="27.930078467217175"><ele>300.0</ele><time>2026-04-29T10:20:08.999Z</time></trkpt><trkpt lat="43.28991825147168" lon="27.93013128212643"><ele>300.0</ele><time>2026-04-29T10:20:09.999Z</time></trkpt><trkpt lat="43.28984950855565" lon="27.930202947848237"><ele>300.0</ele><time>2026-04-29T10:20:10.999Z</time></trkpt><trkpt lat="43.28978445426314" lon="27.930273195468363"><ele>298.8</ele><time>2026-04-29T10:20:11.999Z</time></trkpt><trkpt lat="43.289697180139505" lon="27.93030537451551"><ele>297.6</ele><time>2026-04-29T10:20:12.999Z</time></trkpt><trkpt lat="43.289617611643145" lon="27.93035749049442"><ele>296.4</ele><time>2026-04-29T10:20:13.999Z</time></trkpt><trkpt lat="43.289532254732066" lon="27.93042174536811"><ele>295.2</ele><time>2026-04-29T10:20:14.999Z</time></trkpt><trkpt lat="43.28945874248869" lon="27.93048326714308"><ele>294.0</ele><time>2026-04-29T10:20:15.999Z</time></trkpt><trkpt lat="43.289386408954734" lon="27.93057191834616"><ele>294.0</ele><time>2026-04-29T10:20:16.999Z</time></trkpt><trkpt lat="43.289342454704396" lon="27.930726774496943"><ele>294.0</ele><time>2026-04-29T10:20:17.999Z</time></trkpt><trkpt lat="43.28931249507592" lon="27.930855562568023"><ele>294.0</ele><time>2026-04-29T10:20:18.999Z</time></trkpt><trkpt lat="43.289286100139584" lon="27.93097282039871"><ele>294.0</ele><time>2026-04-29T10:20:19.999Z</time></trkpt><trkpt lat="43.28927981841847" lon="27.931064109363046"><ele>294.0</ele><time>2026-04-29T10:20:20.999Z</time></trkpt><trkpt lat="43.28925598596855" lon="27.931224761512304"><ele>294.3333333333333</ele><time>2026-04-29T10:20:22.999Z</time></trkpt><trkpt lat="43.289232122116225" lon="27.931403724962323"><ele>294.6666666666667</ele><time>2026-04-29T10:20:24.999Z</time></trkpt><trkpt lat="43.2892200133229" lon="27.93149585069781"><ele>295.0</ele><time>2026-04-29T10:20:25.999Z</time></trkpt><trkpt lat="43.28919414037768" lon="27.931598764557354"><ele>295.33333333333337</ele><time>2026-04-29T10:20:26.999Z</time></trkpt><trkpt lat="43.28916268259403" lon="27.9317084083646"><ele>295.6666666666667</ele><time>2026-04-29T10:20:27.999Z</time></trkpt><trkpt lat="43.289148945458365" lon="27.93181469228587"><ele>296.0</ele><time>2026-04-29T10:20:28.999Z</time></trkpt><trkpt lat="43.289125898812756" lon="27.931926306717155"><ele>295.8</ele><time>2026-04-29T10:20:29.999Z</time></trkpt><trkpt lat="43.28907777864762" lon="27.932030952267844"><ele>295.6</ele><time>2026-04-29T10:20:30.999Z</time></trkpt><trkpt lat="43.28903149913333" lon="27.93215650957178"><ele>295.4</ele><time>2026-04-29T10:20:31.999Z</time></trkpt><trkpt lat="43.28897373589742" lon="27.9322705787568"><ele>295.2</ele><time>2026-04-29T10:20:32.999Z</time></trkpt><trkpt lat="43.28891808798216" lon="27.9323820645018"><ele>295.0</ele><time>2026-04-29T10:20:33.999Z</time></trkpt><trkpt lat="43.28886243281727" lon="27.932466327906365"><ele>295.0</ele><time>2026-04-29T10:20:34.999Z</time></trkpt><trkpt lat="43.28881234508436" lon="27.932542075961905"><ele>295.0</ele><time>2026-04-29T10:20:35.999Z</time></trkpt><trkpt lat="43.28876379435023" lon="27.93261549954161"><ele>295.0</ele><time>2026-04-29T10:20:36.999Z</time></trkpt><trkpt lat="43.28871179309493" lon="27.932689011741722"><ele>295.0</ele><time>2026-04-29T10:20:37.999Z</time></trkpt><trkpt lat="43.28865540968356" lon="27.932765373389874"><ele>295.0</ele><time>2026-04-29T10:20:38.999Z</time></trkpt><trkpt lat="43.28859877105379" lon="27.932842080514988"><ele>295.0</ele><time>2026-04-29T10:20:39.999Z</time></trkpt><trkpt lat="43.28853886725762" lon="27.932923209847257"><ele>295.3333333333333</ele><time>2026-04-29T10:20:40.999Z</time></trkpt><trkpt lat="43.28848696460317" lon="27.933018246028475"><ele>295.66666666666663</ele><time>2026-04-29T10:20:41.999Z</time></trkpt><trkpt lat="43.28843587508395" lon="27.933099086553305"><ele>296.0</ele><time>2026-04-29T10:20:42.999Z</time></trkpt><trkpt lat="43.2883856488149" lon="27.933179425863884"><ele>296.3333333333333</ele><time>2026-04-29T10:20:43.999Z</time></trkpt><trkpt lat="43.28834683916896" lon="27.933257707938512"><ele>296.6666666666667</ele><time>2026-04-29T10:20:44.999Z</time></trkpt><trkpt lat="43.28829795683131" lon="27.93331989055736"><ele>297.0</ele><time>2026-04-29T10:20:45.999Z</time></trkpt><trkpt lat="43.28824829705036" lon="27.93340776711972"><ele>297.6666666666667</ele><time>2026-04-29T10:20:46.999Z</time></trkpt><trkpt lat="43.28821103613847" lon="27.933503065566608"><ele>298.3333333333333</ele><time>2026-04-29T10:20:47.999Z</time></trkpt><trkpt lat="43.28816361363132" lon="27.933589697611026"><ele>299.0</ele><time>2026-04-29T10:20:48.999Z</time></trkpt><trkpt lat="43.28812376523037" lon="27.93366529758649"><ele>299.66666666666663</ele><time>2026-04-29T10:20:49.999Z</time></trkpt><trkpt lat="43.288046772854095" lon="27.9338056582431"><ele>300.3333333333333</ele><time>2026-04-29T10:20:51.999Z</time></trkpt><trkpt lat="43.28797867998504" lon="27.93389723142299"><ele>301.0</ele><time>2026-04-29T10:20:53.999Z</time></trkpt><trkpt lat="43.28782202257455" lon="27.933739519739934"><ele>301.2</ele><time>2026-04-29T10:20:54.999Z</time></trkpt><trkpt lat="43.28775550454959" lon="27.93365874040964"><ele>301.40000000000003</ele><time>2026-04-29T10:20:55.999Z</time></trkpt><trkpt lat="43.28768520349089" lon="27.933551666577703"><ele>301.6</ele><time>2026-04-29T10:20:56.999Z</time></trkpt><trkpt lat="43.28759643458331" lon="27.93346734994244"><ele>301.8</ele><time>2026-04-29T10:20:57.999Z</time></trkpt><trkpt lat="43.28750997012935" lon="27.933363567328513"><ele>302.0</ele><time>2026-04-29T10:20:58.998Z</time></trkpt><trkpt lat="43.28741448514273" lon="27.9332494376847"><ele>302.0</ele><time>2026-04-29T10:20:59.998Z</time></trkpt><trkpt lat="43.28733000688335" lon="27.93314636093179"><ele>302.0</ele><time>2026-04-29T10:21:00.998Z</time></trkpt><trkpt lat="43.28725725092361" lon="27.933058466222352"><ele>302.0</ele><time>2026-04-29T10:21:01.998Z</time></trkpt><trkpt lat="43.28719144430442" lon="27.932978966923777"><ele>302.0</ele><time>2026-04-29T10:21:02.998Z</time></trkpt><trkpt lat="43.287133011381584" lon="27.93290902710003"><ele>302.0</ele><time>2026-04-29T10:21:03.998Z</time></trkpt><trkpt lat="43.28701683862382" lon="27.932788429221237"><ele>301.8</ele><time>2026-04-29T10:21:05.998Z</time></trkpt><trkpt lat="43.286941784062286" lon="27.932694129237778"><ele>301.6</ele><time>2026-04-29T10:21:06.998Z</time></trkpt><trkpt lat="43.286857676861416" lon="27.93259720300186"><ele>301.40000000000003</ele><time>2026-04-29T10:21:07.998Z</time></trkpt><trkpt lat="43.28677476660344" lon="27.932494455562"><ele>301.2</ele><time>2026-04-29T10:21:08.998Z</time></trkpt><trkpt lat="43.28670172500897" lon="27.93240842967592"><ele>301.0</ele><time>2026-04-29T10:21:09.998Z</time></trkpt><trkpt lat="43.286624658657225" lon="27.932322716186775"><ele>301.0</ele><time>2026-04-29T10:21:10.998Z</time></trkpt><trkpt lat="43.28656184036092" lon="27.932237910394768"><ele>301.0</ele><time>2026-04-29T10:21:11.998Z</time></trkpt><trkpt lat="43.28649117767703" lon="27.9321531244035"><ele>301.0</ele><time>2026-04-29T10:21:12.998Z</time></trkpt><trkpt lat="43.28641667443085" lon="27.93207085718397"><ele>301.0</ele><time>2026-04-29T10:21:13.998Z</time></trkpt><trkpt lat="43.28635211796733" lon="27.931975601623275"><ele>301.0</ele><time>2026-04-29T10:21:14.998Z</time></trkpt><trkpt lat="43.286269586003556" lon="27.93190424612314"><ele>300.8</ele><time>2026-04-29T10:21:15.998Z</time></trkpt><trkpt lat="43.286199299861345" lon="27.931832150906043"><ele>300.6</ele><time>2026-04-29T10:21:16.998Z</time></trkpt><trkpt lat="43.28612829193718" lon="27.931740208896855"><ele>300.4</ele><time>2026-04-29T10:21:18Z</time></trkpt><trkpt lat="43.28605035396831" lon="27.93167350470698"><ele>300.2</ele><time>2026-04-29T10:21:19Z</time></trkpt><trkpt lat="43.28597762331775" lon="27.931600185191066"><ele>300.0</ele><time>2026-04-29T10:21:20Z</time></trkpt><trkpt lat="43.28592491447317" lon="27.93150236947491"><ele>298.8</ele><time>2026-04-29T10:21:21Z</time></trkpt><trkpt lat="43.285836049432994" lon="27.931640377853196"><ele>297.6</ele><time>2026-04-29T10:21:22Z</time></trkpt><trkpt lat="43.28575442669069" lon="27.931686328503773"><ele>296.4</ele><time>2026-04-29T10:21:24Z</time></trkpt><trkpt lat="43.28568848246142" lon="27.931689077638552"><ele>295.2</ele><time>2026-04-29T10:21:25Z</time></trkpt><trkpt lat="43.28553497295227" lon="27.931729054688635"><ele>294.0</ele><time>2026-04-29T10:21:27Z</time></trkpt><trkpt lat="43.2854121524013" lon="27.931720287617864"><ele>293.3333333333333</ele><time>2026-04-29T10:21:29Z</time></trkpt><trkpt lat="43.285343640726296" lon="27.931718985354415"><ele>292.6666666666667</ele><time>2026-04-29T10:21:30Z</time></trkpt><trkpt lat="43.28527380076461" lon="27.931713648670282"><ele>292.0</ele><time>2026-04-29T10:21:31Z</time></trkpt><trkpt lat="43.28519861428672" lon="27.931706745918905"><ele>291.33333333333337</ele><time>2026-04-29T10:21:32Z</time></trkpt><trkpt lat="43.2851206002299" lon="27.93170128180532"><ele>290.6666666666667</ele><time>2026-04-29T10:21:33Z</time></trkpt><trkpt lat="43.285042285398326" lon="27.931695521661656"><ele>290.0</ele><time>2026-04-29T10:21:34Z</time></trkpt><trkpt lat="43.284962877961334" lon="27.931689511499076"><ele>290.0</ele><time>2026-04-29T10:21:35Z</time></trkpt><trkpt lat="43.28489358792469" lon="27.93166184306954"><ele>290.0</ele><time>2026-04-29T10:21:36Z</time></trkpt><trkpt lat="43.284840251045736" lon="27.931615213955432"><ele>290.0</ele><time>2026-04-29T10:21:37Z</time></trkpt><trkpt lat="43.28478341370979" lon="27.93156565605527"><ele>290.0</ele><time>2026-04-29T10:21:38Z</time></trkpt><trkpt lat="43.28472341219015" lon="27.93151612995342"><ele>290.0</ele><time>2026-04-29T10:21:39Z</time></trkpt><trkpt lat="43.28454588973964" lon="27.93156628056628"><ele>289.1666666666667</ele><time>2026-04-29T10:21:41Z</time></trkpt><trkpt lat="43.28448969299954" lon="27.931615634201872"><ele>288.33333333333337</ele><time>2026-04-29T10:21:42Z</time></trkpt><trkpt lat="43.28443795858207" lon="27.931735514174314"><ele>287.5</ele><time>2026-04-29T10:21:43Z</time></trkpt><trkpt lat="43.28440765629125" lon="27.93181160274956"><ele>286.6666666666667</ele><time>2026-04-29T10:21:44Z</time></trkpt><trkpt lat="43.28436400409934" lon="27.931948089601352"><ele>285.8333333333333</ele><time>2026-04-29T10:21:46Z</time></trkpt><trkpt lat="43.28431638136189" lon="27.93204907453882"><ele>285.0</ele><time>2026-04-29T10:21:48Z</time></trkpt><trkpt lat="43.28425513348746" lon="27.932150650005664"><ele>285.0</ele><time>2026-04-29T10:21:50Z</time></trkpt><trkpt lat="43.28420980079253" lon="27.932223830975875"><ele>285.0</ele><time>2026-04-29T10:21:52Z</time></trkpt><trkpt lat="43.284162331741705" lon="27.932292260063107"><ele>285.0</ele><time>2026-04-29T10:21:54Z</time></trkpt><trkpt lat="43.284120936805" lon="27.932416250998614"><ele>285.0</ele><time>2026-04-29T10:21:57Z</time></trkpt><trkpt lat="43.284088529821176" lon="27.93250571624562"><ele>285.0</ele><time>2026-04-29T10:21:59Z</time></trkpt><trkpt lat="43.28405452103004" lon="27.932589267519187"><ele>285.0</ele><time>2026-04-29T10:22:01Z</time></trkpt><trkpt lat="43.2839893579485" lon="27.932690830372938"><ele>285.1666666666667</ele><time>2026-04-29T10:22:03Z</time></trkpt><trkpt lat="43.28392449439219" lon="27.93281161070425"><ele>285.3333333333333</ele><time>2026-04-29T10:22:05Z</time></trkpt><trkpt lat="43.28391115764364" lon="27.932937518616775"><ele>285.5</ele><time>2026-04-29T10:22:06.999Z</time></trkpt><trkpt lat="43.28389877181299" lon="27.933042693134986"><ele>285.66666666666663</ele><time>2026-04-29T10:22:09.999Z</time></trkpt><trkpt lat="43.28395331355974" lon="27.933137570445172"><ele>285.8333333333333</ele><time>2026-04-29T10:22:11.999Z</time></trkpt><trkpt lat="43.28398742024236" lon="27.933220295206898"><ele>286.0</ele><time>2026-04-29T10:22:13.999Z</time></trkpt><trkpt lat="43.28402254945869" lon="27.933338631200186"><ele>285.8333333333333</ele><time>2026-04-29T10:22:15.999Z</time></trkpt><trkpt lat="43.28403919465009" lon="27.933441690446667"><ele>285.66666666666663</ele><time>2026-04-29T10:22:18.999Z</time></trkpt><trkpt lat="43.28405650865565" lon="27.933553822255867"><ele>285.5</ele><time>2026-04-29T10:22:20.999Z</time></trkpt><trkpt lat="43.28407632915832" lon="27.933681922524247"><ele>285.3333333333333</ele><time>2026-04-29T10:22:22.999Z</time></trkpt><trkpt lat="43.28406385357288" lon="27.933788227293732"><ele>285.1666666666667</ele><time>2026-04-29T10:22:24.999Z</time></trkpt><trkpt lat="43.284036203551004" lon="27.933883272459152"><ele>285.0</ele><time>2026-04-29T10:22:28.999Z</time></trkpt><trkpt lat="43.2839805732225" lon="27.933968904872586"><ele>285.2</ele><time>2026-04-29T10:22:31.999Z</time></trkpt><trkpt lat="43.283904324177996" lon="27.934005005642792"><ele>285.4</ele><time>2026-04-29T10:22:34.999Z</time></trkpt><trkpt lat="43.28381829280109" lon="27.934019413339954"><ele>285.6</ele><time>2026-04-29T10:22:36.999Z</time></trkpt><trkpt lat="43.283756275540135" lon="27.933953066010787"><ele>285.8</ele><time>2026-04-29T10:22:38.999Z</time></trkpt><trkpt lat="43.2836904497725" lon="27.933857193520957"><ele>286.0</ele><time>2026-04-29T10:22:41.999Z</time></trkpt><trkpt lat="43.283592718932645" lon="27.933750117564703"><ele>286.0</ele><time>2026-04-29T10:22:43.999Z</time></trkpt><trkpt lat="43.28351676880867" lon="27.933625737910326"><ele>286.0</ele><time>2026-04-29T10:22:45.999Z</time></trkpt><trkpt lat="43.283473969097564" lon="27.933542927678104"><ele>286.0</ele><time>2026-04-29T10:22:46.999Z</time></trkpt><trkpt lat="43.28343982616225" lon="27.93346248534432"><ele>286.0</ele><time>2026-04-29T10:22:47.999Z</time></trkpt><trkpt lat="43.28338736642935" lon="27.933334880650396"><ele>286.0</ele><time>2026-04-29T10:22:49.999Z</time></trkpt><trkpt lat="43.28335617282023" lon="27.933255720860203"><ele>286.0</ele><time>2026-04-29T10:22:51.999Z</time></trkpt><trkpt lat="43.28336098370825" lon="27.933091474074956"><ele>285.57142857142856</ele><time>2026-04-29T10:22:53.999Z</time></trkpt><trkpt lat="43.28336143760368" lon="27.932984628073488"><ele>285.1428571428571</ele><time>2026-04-29T10:22:54.999Z</time></trkpt><trkpt lat="43.28336397009843" lon="27.932879665932"><ele>284.7142857142857</ele><time>2026-04-29T10:22:55.999Z</time></trkpt><trkpt lat="43.28335710463285" lon="27.93277462255257"><ele>284.2857142857143</ele><time>2026-04-29T10:22:56.999Z</time></trkpt><trkpt lat="43.283359500761385" lon="27.932664660314202"><ele>283.8571428571429</ele><time>2026-04-29T10:22:57.999Z</time></trkpt><trkpt lat="43.28337684877274" lon="27.932576602976575"><ele>283.42857142857144</ele><time>2026-04-29T10:22:58.999Z</time></trkpt><trkpt lat="43.28338043317352" lon="27.93248637918988"><ele>283.0</ele><time>2026-04-29T10:22:59.999Z</time></trkpt><trkpt lat="43.28338578739928" lon="27.93235160682562"><ele>283.0</ele><time>2026-04-29T10:23:01.999Z</time></trkpt><trkpt lat="43.283390921302754" lon="27.932222379357587"><ele>283.0</ele><time>2026-04-29T10:23:05.998Z</time></trkpt><trkpt lat="43.28337707647121" lon="27.93203339224305"><ele>283.0</ele><time>2026-04-29T10:23:07.998Z</time></trkpt><trkpt lat="43.28335856662884" lon="27.931912201120827"><ele>283.0</ele><time>2026-04-29T10:23:08.998Z</time></trkpt><trkpt lat="43.283358743509254" lon="27.93179112674169"><ele>283.0</ele><time>2026-04-29T10:23:09.998Z</time></trkpt><trkpt lat="43.28334570136765" lon="27.931662076152293"><ele>282.4</ele><time>2026-04-29T10:23:10.998Z</time></trkpt><trkpt lat="43.28333159830796" lon="27.931535992387346"><ele>281.8</ele><time>2026-04-29T10:23:11.998Z</time></trkpt><trkpt lat="43.283318395092984" lon="27.93141795156811"><ele>281.2</ele><time>2026-04-29T10:23:12.998Z</time></trkpt><trkpt lat="43.283254909724135" lon="27.93131184376629"><ele>280.6</ele><time>2026-04-29T10:23:13.998Z</time></trkpt><trkpt lat="43.28318254065559" lon="27.931219655803307"><ele>280.0</ele><time>2026-04-29T10:23:14.998Z</time></trkpt><trkpt lat="43.283134274719885" lon="27.93112935585255"><ele>280.3333333333333</ele><time>2026-04-29T10:23:15.998Z</time></trkpt><trkpt lat="43.28308937146322" lon="27.93103527166422"><ele>280.66666666666663</ele><time>2026-04-29T10:23:16.998Z</time></trkpt><trkpt lat="43.28304644759464" lon="27.930940363840374"><ele>281.0</ele><time>2026-04-29T10:23:17.998Z</time></trkpt><trkpt lat="43.28300039018765" lon="27.93085481512277"><ele>281.3333333333333</ele><time>2026-04-29T10:23:18.998Z</time></trkpt><trkpt lat="43.282949077456706" lon="27.93075697032503"><ele>281.6666666666667</ele><time>2026-04-29T10:23:19.998Z</time></trkpt><trkpt lat="43.28287181748327" lon="27.930683259689527"><ele>282.0</ele><time>2026-04-29T10:23:20.998Z</time></trkpt><trkpt lat="43.28281615501627" lon="27.930608065113226"><ele>280.8333333333333</ele><time>2026-04-29T10:23:21.998Z</time></trkpt><trkpt lat="43.28275409451389" lon="27.93054016852588"><ele>279.6666666666667</ele><time>2026-04-29T10:23:22.998Z</time></trkpt><trkpt lat="43.282699321538104" lon="27.930463580517486"><ele>278.5</ele><time>2026-04-29T10:23:24Z</time></trkpt><trkpt lat="43.282638056971045" lon="27.930371269131083"><ele>277.33333333333337</ele><time>2026-04-29T10:23:25Z</time></trkpt><trkpt lat="43.282589760436075" lon="27.93026191713704"><ele>276.1666666666667</ele><time>2026-04-29T10:23:26Z</time></trkpt><trkpt lat="43.28252092147496" lon="27.930171510949286"><ele>275.0</ele><time>2026-04-29T10:23:27Z</time></trkpt><trkpt lat="43.282439722355846" lon="27.93007310524838"><ele>274.0</ele><time>2026-04-29T10:23:28Z</time></trkpt><trkpt lat="43.28235753905763" lon="27.929983402201607"><ele>273.0</ele><time>2026-04-29T10:23:29Z</time></trkpt><trkpt lat="43.28225043256125" lon="27.92993987885793"><ele>272.0</ele><time>2026-04-29T10:23:30Z</time></trkpt><trkpt lat="43.282151983084056" lon="27.92988386790262"><ele>271.0</ele><time>2026-04-29T10:23:31Z</time></trkpt><trkpt lat="43.282058826137444" lon="27.929854516545163"><ele>270.0</ele><time>2026-04-29T10:23:32Z</time></trkpt><trkpt lat="43.28196160401664" lon="27.929862316873795"><ele>269.6</ele><time>2026-04-29T10:23:33Z</time></trkpt><trkpt lat="43.28187056086915" lon="27.929877828056142"><ele>269.2</ele><time>2026-04-29T10:23:34Z</time></trkpt><trkpt lat="43.28177666333706" lon="27.929903724685115"><ele>268.8</ele><time>2026-04-29T10:23:35Z</time></trkpt><trkpt lat="43.28168751076317" lon="27.929998722493703"><ele>268.4</ele><time>2026-04-29T10:23:36Z</time></trkpt><trkpt lat="43.28157865510545" lon="27.930057555352462"><ele>268.0</ele><time>2026-04-29T10:23:37Z</time></trkpt><trkpt lat="43.281471725976886" lon="27.93013501255113"><ele>269.0</ele><time>2026-04-29T10:23:38Z</time></trkpt><trkpt lat="43.28136968036141" lon="27.93020519148489"><ele>270.0</ele><time>2026-04-29T10:23:39Z</time></trkpt><trkpt lat="43.281264673063404" lon="27.930275779195515"><ele>271.0</ele><time>2026-04-29T10:23:40Z</time></trkpt><trkpt lat="43.281154673646625" lon="27.930350026355395"><ele>272.0</ele><time>2026-04-29T10:23:41Z</time></trkpt><trkpt lat="43.28104329346879" lon="27.9304170994635"><ele>272.0</ele><time>2026-04-29T10:23:42Z</time></trkpt><trkpt lat="43.28093723930582" lon="27.93049773464539"><ele>272.0</ele><time>2026-04-29T10:23:43Z</time></trkpt><trkpt lat="43.280833380480736" lon="27.930541849750075"><ele>272.0</ele><time>2026-04-29T10:23:44Z</time></trkpt><trkpt lat="43.28072736112654" lon="27.930608560033654"><ele>272.0</ele><time>2026-04-29T10:23:45Z</time></trkpt><trkpt lat="43.280612707683446" lon="27.93066580059125"><ele>271.8</ele><time>2026-04-29T10:23:46Z</time></trkpt><trkpt lat="43.280522089152285" lon="27.93074521977392"><ele>271.6</ele><time>2026-04-29T10:23:47Z</time></trkpt><trkpt lat="43.28042274430328" lon="27.930801087823756"><ele>271.40000000000003</ele><time>2026-04-29T10:23:48Z</time></trkpt><trkpt lat="43.28031699167428" lon="27.93084448470562"><ele>271.2</ele><time>2026-04-29T10:23:49Z</time></trkpt><trkpt lat="43.28022439434042" lon="27.930925378226217"><ele>271.0</ele><time>2026-04-29T10:23:50Z</time></trkpt><trkpt lat="43.28012686988495" lon="27.93096136334219"><ele>271.0</ele><time>2026-04-29T10:23:51Z</time></trkpt><trkpt lat="43.280034437903204" lon="27.9310425589168"><ele>271.0</ele><time>2026-04-29T10:23:52Z</time></trkpt><trkpt lat="43.279926224736336" lon="27.93108519941991"><ele>271.0</ele><time>2026-04-29T10:23:53Z</time></trkpt><trkpt lat="43.279841139942405" lon="27.931152354462725"><ele>271.0</ele><time>2026-04-29T10:23:54Z</time></trkpt><trkpt lat="43.27977264268088" lon="27.931213357021658"><ele>271.0</ele><time>2026-04-29T10:23:55Z</time></trkpt><trkpt lat="43.27969652337354" lon="27.931270962486238"><ele>271.0</ele><time>2026-04-29T10:23:56Z</time></trkpt><trkpt lat="43.27960837347703" lon="27.931323748191666"><ele>271.0</ele><time>2026-04-29T10:23:57Z</time></trkpt><trkpt lat="43.27951705799327" lon="27.93139687308044"><ele>271.0</ele><time>2026-04-29T10:23:58Z</time></trkpt><trkpt lat="43.279422401402044" lon="27.93147060384052"><ele>271.0</ele><time>2026-04-29T10:23:59Z</time></trkpt><trkpt lat="43.279326739174294" lon="27.931546643198175"><ele>271.0</ele><time>2026-04-29T10:24:00Z</time></trkpt><trkpt lat="43.27925785728286" lon="27.93160231297541"><ele>271.0</ele><time>2026-04-29T10:24:00.999Z</time></trkpt><trkpt lat="43.27918565401317" lon="27.931653601214556"><ele>271.0</ele><time>2026-04-29T10:24:01.999Z</time></trkpt><trkpt lat="43.27912307452942" lon="27.93172223231601"><ele>271.0</ele><time>2026-04-29T10:24:02.999Z</time></trkpt><trkpt lat="43.27905441857453" lon="27.931787366100412"><ele>271.0</ele><time>2026-04-29T10:24:03.999Z</time></trkpt><trkpt lat="43.27898279501139" lon="27.93185557287644"><ele>271.0</ele><time>2026-04-29T10:24:04.999Z</time></trkpt><trkpt lat="43.278923127497684" lon="27.931915085546258"><ele>271.0</ele><time>2026-04-29T10:24:05.999Z</time></trkpt><trkpt lat="43.27887116735579" lon="27.931965646051207"><ele>271.6</ele><time>2026-04-29T10:24:06.999Z</time></trkpt><trkpt lat="43.27877124462542" lon="27.932064380947075"><ele>272.20000000000005</ele><time>2026-04-29T10:24:08.999Z</time></trkpt><trkpt lat="43.27871110317722" lon="27.932120662753952"><ele>272.79999999999995</ele><time>2026-04-29T10:24:09.999Z</time></trkpt><trkpt lat="43.27865038030378" lon="27.932181063911205"><ele>273.4</ele><time>2026-04-29T10:24:10.999Z</time></trkpt><trkpt lat="43.27856700910813" lon="27.932228052734956"><ele>274.0</ele><time>2026-04-29T10:24:11.999Z</time></trkpt><trkpt lat="43.27849221823679" lon="27.932293651049125"><ele>274.0</ele><time>2026-04-29T10:24:12.999Z</time></trkpt><trkpt lat="43.27841823081343" lon="27.93235853841602"><ele>274.0</ele><time>2026-04-29T10:24:13.999Z</time></trkpt><trkpt lat="43.27835334328878" lon="27.93244159748122"><ele>274.0</ele><time>2026-04-29T10:24:14.999Z</time></trkpt><trkpt lat="43.27827301786903" lon="27.932490659417528"><ele>274.0</ele><time>2026-04-29T10:24:15.999Z</time></trkpt><trkpt lat="43.278204768853215" lon="27.932560563441147"><ele>274.0</ele><time>2026-04-29T10:24:16.999Z</time></trkpt><trkpt lat="43.278133319919185" lon="27.932629910114297"><ele>274.0</ele><time>2026-04-29T10:24:17.999Z</time></trkpt><trkpt lat="43.278050038367645" lon="27.932701166259072"><ele>274.4</ele><time>2026-04-29T10:24:18.999Z</time></trkpt><trkpt lat="43.27797001133145" lon="27.932772684938556"><ele>274.79999999999995</ele><time>2026-04-29T10:24:19.999Z</time></trkpt><trkpt lat="43.27788199629842" lon="27.93284282458995"><ele>275.20000000000005</ele><time>2026-04-29T10:24:20.999Z</time></trkpt><trkpt lat="43.27780653618271" lon="27.93292782469551"><ele>275.6</ele><time>2026-04-29T10:24:21.999Z</time></trkpt><trkpt lat="43.2777254359176" lon="27.933012328282373"><ele>276.0</ele><time>2026-04-29T10:24:22.999Z</time></trkpt><trkpt lat="43.27765231524842" lon="27.93309482436342"><ele>276.0</ele><time>2026-04-29T10:24:23.999Z</time></trkpt><trkpt lat="43.2775781839191" lon="27.933193303243414"><ele>276.0</ele><time>2026-04-29T10:24:24.999Z</time></trkpt><trkpt lat="43.27751213809076" lon="27.933290177288875"><ele>276.0</ele><time>2026-04-29T10:24:25.999Z</time></trkpt><trkpt lat="43.277449692474306" lon="27.933354506332215"><ele>276.0</ele><time>2026-04-29T10:24:26.999Z</time></trkpt><trkpt lat="43.27739673711314" lon="27.93342576804067"><ele>276.0</ele><time>2026-04-29T10:24:27.999Z</time></trkpt><trkpt lat="43.27733005551447" lon="27.933488129782976"><ele>276.0</ele><time>2026-04-29T10:24:28.999Z</time></trkpt><trkpt lat="43.27726433081172" lon="27.933575341979044"><ele>276.0</ele><time>2026-04-29T10:24:29.999Z</time></trkpt><trkpt lat="43.27719078046816" lon="27.933654279294892"><ele>276.0</ele><time>2026-04-29T10:24:30.999Z</time></trkpt><trkpt lat="43.27711704568738" lon="27.9337571249544"><ele>276.0</ele><time>2026-04-29T10:24:31.999Z</time></trkpt><trkpt lat="43.27702635462849" lon="27.93382700891592"><ele>276.0</ele><time>2026-04-29T10:24:32.999Z</time></trkpt><trkpt lat="43.27693117964597" lon="27.93391053845321"><ele>276.0</ele><time>2026-04-29T10:24:33.999Z</time></trkpt><trkpt lat="43.27682616272533" lon="27.93396808997193"><ele>276.0</ele><time>2026-04-29T10:24:34.999Z</time></trkpt><trkpt lat="43.276728566018626" lon="27.93403543220677"><ele>276.0</ele><time>2026-04-29T10:24:35.999Z</time></trkpt><trkpt lat="43.27665323760231" lon="27.934113170347423"><ele>276.0</ele><time>2026-04-29T10:24:36.999Z</time></trkpt><trkpt lat="43.27657881356193" lon="27.934162283322827"><ele>276.0</ele><time>2026-04-29T10:24:37.999Z</time></trkpt><trkpt lat="43.27650240112234" lon="27.93421598763566"><ele>276.0</ele><time>2026-04-29T10:24:38.999Z</time></trkpt><trkpt lat="43.276427698483715" lon="27.934286370397736"><ele>276.1666666666667</ele><time>2026-04-29T10:24:39.999Z</time></trkpt><trkpt lat="43.276367836412106" lon="27.93431531893573"><ele>276.3333333333333</ele><time>2026-04-29T10:24:40.999Z</time></trkpt><trkpt lat="43.276275182473036" lon="27.9343448818245"><ele>276.5</ele><time>2026-04-29T10:24:42.999Z</time></trkpt><trkpt lat="43.2762379061938" lon="27.934270863079526"><ele>276.66666666666663</ele><time>2026-04-29T10:24:43.999Z</time></trkpt><trkpt lat="43.27616333274676" lon="27.93421939383125"><ele>276.8333333333333</ele><time>2026-04-29T10:24:45.999Z</time></trkpt><trkpt lat="43.27612259363346" lon="27.934152640341367"><ele>277.0</ele><time>2026-04-29T10:24:49.999Z</time></trkpt><trkpt lat="43.27605326236649" lon="27.934016463154286"><ele>277.0</ele><time>2026-04-29T10:24:51.999Z</time></trkpt><trkpt lat="43.27604005299082" lon="27.933878135609003"><ele>277.0</ele><time>2026-04-29T10:24:52.999Z</time></trkpt><trkpt lat="43.27602144285622" lon="27.933725760667205"><ele>277.0</ele><time>2026-04-29T10:24:53.999Z</time></trkpt><trkpt lat="43.27599826704053" lon="27.933569901724688"><ele>277.0</ele><time>2026-04-29T10:24:54.998Z</time></trkpt><trkpt lat="43.275968207921146" lon="27.93342086282373"><ele>277.0</ele><time>2026-04-29T10:24:55.998Z</time></trkpt><trkpt lat="43.275935482860966" lon="27.933281222437152"><ele>275.75</ele><time>2026-04-29T10:24:56.998Z</time></trkpt><trkpt lat="43.27590394684981" lon="27.93313380280108"><ele>274.5</ele><time>2026-04-29T10:24:57.998Z</time></trkpt><trkpt lat="43.27586119854193" lon="27.93297780382677"><ele>273.25</ele><time>2026-04-29T10:24:58.998Z</time></trkpt><trkpt lat="43.27581866615264" lon="27.932826454954117"><ele>272.0</ele><time>2026-04-29T10:24:59.998Z</time></trkpt><trkpt lat="43.27577825376214" lon="27.932683390307528"><ele>271.83333333333337</ele><time>2026-04-29T10:25:00.998Z</time></trkpt><trkpt lat="43.27573777302164" lon="27.93255610102706"><ele>271.6666666666667</ele><time>2026-04-29T10:25:01.998Z</time></trkpt><trkpt lat="43.27570062623527" lon="27.9324451506301"><ele>271.5</ele><time>2026-04-29T10:25:02.998Z</time></trkpt><trkpt lat="43.27566518968179" lon="27.93234083927623"><ele>271.3333333333333</ele><time>2026-04-29T10:25:03.998Z</time></trkpt><trkpt lat="43.27562782141738" lon="27.932232038719768"><ele>271.16666666666663</ele><time>2026-04-29T10:25:04.998Z</time></trkpt><trkpt lat="43.27559188804074" lon="27.932121953465302"><ele>271.0</ele><time>2026-04-29T10:25:05.998Z</time></trkpt><trkpt lat="43.275552575424264" lon="27.932004322213185"><ele>271.0</ele><time>2026-04-29T10:25:06.998Z</time></trkpt><trkpt lat="43.27551888361313" lon="27.931903687972323"><ele>271.0</ele><time>2026-04-29T10:25:07.998Z</time></trkpt><trkpt lat="43.2754897326404" lon="27.93181975133781"><ele>271.0</ele><time>2026-04-29T10:25:08.998Z</time></trkpt><trkpt lat="43.275433545553945" lon="27.93165991757006"><ele>271.0</ele><time>2026-04-29T10:25:10.998Z</time></trkpt><trkpt lat="43.27538096965839" lon="27.93154028567806"><ele>271.0</ele><time>2026-04-29T10:25:12.998Z</time></trkpt><trkpt lat="43.27520368420884" lon="27.931687503591075"><ele>271.0</ele><time>2026-04-29T10:25:25.998Z</time></trkpt><trkpt lat="43.27514221452764" lon="27.93178206188516"><ele>271.0</ele><time>2026-04-29T10:25:28.998Z</time></trkpt><trkpt lat="43.27511069810725" lon="27.931899753697532"><ele>271.0</ele><time>2026-04-29T10:25:31Z</time></trkpt><trkpt lat="43.275072180448134" lon="27.93198060631272"><ele>271.0</ele><time>2026-04-29T10:25:33Z</time></trkpt><trkpt lat="43.27503666685662" lon="27.932071009623805"><ele>271.0</ele><time>2026-04-29T10:25:35Z</time></trkpt><trkpt lat="43.27498915222488" lon="27.932191277792814"><ele>271.0</ele><time>2026-04-29T10:25:37Z</time></trkpt><trkpt lat="43.274933875727484" lon="27.93232732176865"><ele>271.0</ele><time>2026-04-29T10:25:39Z</time></trkpt><trkpt lat="43.274905541252245" lon="27.93242095274889"><ele>271.0</ele><time>2026-04-29T10:25:42Z</time></trkpt><trkpt lat="43.274878819010766" lon="27.932512844980682"><ele>271.0</ele><time>2026-04-29T10:25:44Z</time></trkpt><trkpt lat="43.27480802171435" lon="27.93253024093891"><ele>271.0</ele><time>2026-04-29T10:25:45Z</time></trkpt><trkpt lat="43.27475421460114" lon="27.932637943225053"><ele>271.0</ele><time>2026-04-29T10:25:47Z</time></trkpt><trkpt lat="43.27469115572613" lon="27.93273864577536"><ele>271.0</ele><time>2026-04-29T10:25:49Z</time></trkpt><trkpt lat="43.27460370411183" lon="27.932834279009587"><ele>271.40000000000003</ele><time>2026-04-29T10:25:51Z</time></trkpt><trkpt lat="43.27448214649292" lon="27.93291103483338"><ele>271.8</ele><time>2026-04-29T10:25:53Z</time></trkpt><trkpt lat="43.27441147002598" lon="27.932962542605388"><ele>272.20000000000005</ele><time>2026-04-29T10:25:54Z</time></trkpt><trkpt lat="43.274332923401964" lon="27.933010978936"><ele>272.6</ele><time>2026-04-29T10:25:55Z</time></trkpt><trkpt lat="43.27424911689832" lon="27.933056640843784"><ele>273.0</ele><time>2026-04-29T10:25:56Z</time></trkpt><trkpt lat="43.27416671069793" lon="27.933101248251575"><ele>273.0</ele><time>2026-04-29T10:25:57Z</time></trkpt><trkpt lat="43.2740904472049" lon="27.933142357050222"><ele>273.0</ele><time>2026-04-29T10:25:58Z</time></trkpt><trkpt lat="43.274014817976806" lon="27.93318312401412"><ele>273.0</ele><time>2026-04-29T10:25:59Z</time></trkpt><trkpt lat="43.27393214868188" lon="27.933228120956894"><ele>273.0</ele><time>2026-04-29T10:26:00Z</time></trkpt><trkpt lat="43.27384544411788" lon="27.93327539112264"><ele>273.0</ele><time>2026-04-29T10:26:01Z</time></trkpt><trkpt lat="43.27376175334583" lon="27.933393440266013"><ele>273.4</ele><time>2026-04-29T10:26:02Z</time></trkpt><trkpt lat="43.27369240199014" lon="27.933506946557422"><ele>273.8</ele><time>2026-04-29T10:26:03Z</time></trkpt><trkpt lat="43.27362590826139" lon="27.933612396409533"><ele>274.2</ele><time>2026-04-29T10:26:04Z</time></trkpt><trkpt lat="43.27357767787979" lon="27.933720581820836"><ele>274.6</ele><time>2026-04-29T10:26:05Z</time></trkpt><trkpt lat="43.27352057335686" lon="27.933824172642982"><ele>275.0</ele><time>2026-04-29T10:26:06Z</time></trkpt><trkpt lat="43.27345040834839" lon="27.933914704631977"><ele>275.0</ele><time>2026-04-29T10:26:07Z</time></trkpt><trkpt lat="43.27340109294982" lon="27.934005129350766"><ele>275.0</ele><time>2026-04-29T10:26:08Z</time></trkpt><trkpt lat="43.273352047793246" lon="27.934096071445076"><ele>275.0</ele><time>2026-04-29T10:26:09Z</time></trkpt><trkpt lat="43.27332051976545" lon="27.934220290061614"><ele>275.0</ele><time>2026-04-29T10:26:10Z</time></trkpt><trkpt lat="43.27327478238054" lon="27.93433562854891"><ele>275.0</ele><time>2026-04-29T10:26:11Z</time></trkpt><trkpt lat="43.27322723076879" lon="27.934452826646428"><ele>275.4</ele><time>2026-04-29T10:26:12Z</time></trkpt><trkpt lat="43.27317760949876" lon="27.934575102313154"><ele>275.8</ele><time>2026-04-29T10:26:13Z</time></trkpt><trkpt lat="43.273133582248775" lon="27.934705273462896"><ele>276.2</ele><time>2026-04-29T10:26:14Z</time></trkpt><trkpt lat="43.273084781573566" lon="27.934813735623123"><ele>276.6</ele><time>2026-04-29T10:26:14.999Z</time></trkpt><trkpt lat="43.27306875124734" lon="27.934916460472014"><ele>277.0</ele><time>2026-04-29T10:26:15.999Z</time></trkpt><trkpt lat="43.27302486358528" lon="27.934998482634455"><ele>276.42857142857144</ele><time>2026-04-29T10:26:16.999Z</time></trkpt><trkpt lat="43.272997634861746" lon="27.935082388594164"><ele>275.85714285714283</ele><time>2026-04-29T10:26:17.999Z</time></trkpt><trkpt lat="43.272968697778026" lon="27.93516612682452"><ele>275.2857142857143</ele><time>2026-04-29T10:26:18.999Z</time></trkpt><trkpt lat="43.27296406747205" lon="27.9352738401734"><ele>274.7142857142857</ele><time>2026-04-29T10:26:19.999Z</time></trkpt><trkpt lat="43.27292914559503" lon="27.935384057106738"><ele>274.1428571428571</ele><time>2026-04-29T10:26:20.999Z</time></trkpt><trkpt lat="43.272885936501275" lon="27.935462944384362"><ele>273.57142857142856</ele><time>2026-04-29T10:26:21.999Z</time></trkpt><trkpt lat="43.27284550989078" lon="27.93554793870044"><ele>273.0</ele><time>2026-04-29T10:26:23.999Z</time></trkpt><trkpt lat="43.272899660156234" lon="27.935609126420164"><ele>273.0</ele><time>2026-04-29T10:26:26.999Z</time></trkpt><trkpt lat="43.27296519297565" lon="27.935712014711623"><ele>273.0</ele><time>2026-04-29T10:26:33.999Z</time></trkpt><trkpt lat="43.27300288241919" lon="27.93583488738916"><ele>273.0</ele><time>2026-04-29T10:26:35.999Z</time></trkpt><trkpt lat="43.2729424487798" lon="27.93592260904752"><ele>273.0</ele><time>2026-04-29T10:26:37.999Z</time></trkpt><trkpt lat="43.27286704601634" lon="27.93598226104969"><ele>273.0</ele><time>2026-04-29T10:26:39.999Z</time></trkpt><trkpt lat="43.2727640647073" lon="27.936032413881378"><ele>273.2</ele><time>2026-04-29T10:26:41.999Z</time></trkpt><trkpt lat="43.272694938986696" lon="27.936101078012896"><ele>273.4</ele><time>2026-04-29T10:26:42.999Z</time></trkpt><trkpt lat="43.2726430563975" lon="27.936156417100083"><ele>273.59999999999997</ele><time>2026-04-29T10:26:43.999Z</time></trkpt><trkpt lat="43.272526815244206" lon="27.936157943995862"><ele>273.8</ele><time>2026-04-29T10:26:45.999Z</time></trkpt><trkpt lat="43.272404105962146" lon="27.936276568050424"><ele>274.0</ele><time>2026-04-29T10:26:47.999Z</time></trkpt><trkpt lat="43.27238863623052" lon="27.936419463014165"><ele>274.0</ele><time>2026-04-29T10:26:48.999Z</time></trkpt><trkpt lat="43.272364933874336" lon="27.936511313694016"><ele>274.0</ele><time>2026-04-29T10:26:49.999Z</time></trkpt><trkpt lat="43.27233948294422" lon="27.936609936404295"><ele>274.0</ele><time>2026-04-29T10:26:50.999Z</time></trkpt><trkpt lat="43.272278976235754" lon="27.936667776309008"><ele>274.0</ele><time>2026-04-29T10:26:51.999Z</time></trkpt><trkpt lat="43.272227880030194" lon="27.936756436912678"><ele>274.0</ele><time>2026-04-29T10:26:52.999Z</time></trkpt><trkpt lat="43.27216854632265" lon="27.936842663594916"><ele>274.0</ele><time>2026-04-29T10:26:53.999Z</time></trkpt><trkpt lat="43.27210472245219" lon="27.936932667064347"><ele>274.66666666666663</ele><time>2026-04-29T10:26:54.999Z</time></trkpt><trkpt lat="43.27204193194241" lon="27.936988622225087"><ele>275.3333333333333</ele><time>2026-04-29T10:26:55.999Z</time></trkpt><trkpt lat="43.27197166417974" lon="27.936988218655856"><ele>276.0</ele><time>2026-04-29T10:26:56.999Z</time></trkpt><trkpt lat="43.27188663041395" lon="27.936982837337148"><ele>276.6666666666667</ele><time>2026-04-29T10:26:57.999Z</time></trkpt><trkpt lat="43.27179212104778" lon="27.937008478557082"><ele>277.33333333333337</ele><time>2026-04-29T10:26:58.999Z</time></trkpt><trkpt lat="43.27171747202943" lon="27.93703959390616"><ele>278.0</ele><time>2026-04-29T10:26:59.999Z</time></trkpt><trkpt lat="43.27165515996089" lon="27.937107395629216"><ele>278.0</ele><time>2026-04-29T10:27:00.999Z</time></trkpt><trkpt lat="43.271610525610754" lon="27.93717696991059"><ele>278.0</ele><time>2026-04-29T10:27:01.999Z</time></trkpt><trkpt lat="43.27157900023321" lon="27.93736682849797"><ele>278.0</ele><time>2026-04-29T10:27:03.999Z</time></trkpt><trkpt lat="43.27156541085643" lon="27.937469844055304"><ele>278.0</ele><time>2026-04-29T10:27:04.999Z</time></trkpt><trkpt lat="43.271494900467275" lon="27.937640877851976"><ele>278.0</ele><time>2026-04-29T10:27:06.999Z</time></trkpt><trkpt lat="43.271453173442524" lon="27.937730990095634"><ele>278.6666666666667</ele><time>2026-04-29T10:27:07.999Z</time></trkpt><trkpt lat="43.27141070497883" lon="27.9378230262343"><ele>279.33333333333337</ele><time>2026-04-29T10:27:08.999Z</time></trkpt><trkpt lat="43.271365395882015" lon="27.937921218566135"><ele>280.0</ele><time>2026-04-29T10:27:09.999Z</time></trkpt><trkpt lat="43.271320762712094" lon="27.938017945862747"><ele>280.6666666666667</ele><time>2026-04-29T10:27:10.998Z</time></trkpt><trkpt lat="43.271287313818796" lon="27.938130263907226"><ele>281.3333333333333</ele><time>2026-04-29T10:27:11.998Z</time></trkpt><trkpt lat="43.27123908136621" lon="27.938234768762907"><ele>282.0</ele><time>2026-04-29T10:27:12.998Z</time></trkpt><trkpt lat="43.27118927926104" lon="27.93833180684504"><ele>281.6</ele><time>2026-04-29T10:27:13.998Z</time></trkpt><trkpt lat="43.271138417664254" lon="27.938435236304763"><ele>281.2</ele><time>2026-04-29T10:27:14.998Z</time></trkpt><trkpt lat="43.271072108357174" lon="27.938524150836177"><ele>280.8</ele><time>2026-04-29T10:27:15.998Z</time></trkpt><trkpt lat="43.27101736333604" lon="27.93862946125078"><ele>280.4</ele><time>2026-04-29T10:27:16.998Z</time></trkpt><trkpt lat="43.27097052160673" lon="27.93871956908155"><ele>280.0</ele><time>2026-04-29T10:27:17.998Z</time></trkpt><trkpt lat="43.27089640600922" lon="27.938838845036788"><ele>280.0</ele><time>2026-04-29T10:27:19.998Z</time></trkpt><trkpt lat="43.27081609264212" lon="27.938944113052642"><ele>280.0</ele><time>2026-04-29T10:27:21.998Z</time></trkpt><trkpt lat="43.27075212771946" lon="27.93903739663867"><ele>280.0</ele><time>2026-04-29T10:27:23.998Z</time></trkpt><trkpt lat="43.270693193700524" lon="27.939073571820348"><ele>280.0</ele><time>2026-04-29T10:27:25.998Z</time></trkpt><trkpt lat="43.27073543582279" lon="27.93924724186001"><ele>280.0</ele><time>2026-04-29T10:27:27.998Z</time></trkpt><trkpt lat="43.270769909166894" lon="27.939321346262943"><ele>280.0</ele><time>2026-04-29T10:27:28.998Z</time></trkpt><trkpt lat="43.270802033173915" lon="27.939401505875963"><ele>280.0</ele><time>2026-04-29T10:27:29.998Z</time></trkpt><trkpt lat="43.27087199717054" lon="27.93944689464539"><ele>280.0</ele><time>2026-04-29T10:27:30.998Z</time></trkpt><trkpt lat="43.27093059919051" lon="27.939515858775174"><ele>280.0</ele><time>2026-04-29T10:27:31.998Z</time></trkpt><trkpt lat="43.27098900195907" lon="27.93958292976199"><ele>280.0</ele><time>2026-04-29T10:27:32.998Z</time></trkpt><trkpt lat="43.27104398185097" lon="27.93965107723572"><ele>280.0</ele><time>2026-04-29T10:27:33.998Z</time></trkpt><trkpt lat="43.27109142302821" lon="27.93978441638139"><ele>280.0</ele><time>2026-04-29T10:27:36Z</time></trkpt><trkpt lat="43.27105844372671" lon="27.939863927327995"><ele>280.0</ele><time>2026-04-29T10:27:38Z</time></trkpt><trkpt lat="43.27103032687758" lon="27.94001123832869"><ele>280.0</ele><time>2026-04-29T10:27:45Z</time></trkpt><trkpt lat="43.27098061476504" lon="27.940099314547776"><ele>280.0</ele><time>2026-04-29T10:27:46Z</time></trkpt><trkpt lat="43.270901033456205" lon="27.94017675496846"><ele>280.0</ele><time>2026-04-29T10:27:47Z</time></trkpt><trkpt lat="43.27082928310841" lon="27.940290750628108"><ele>280.0</ele><time>2026-04-29T10:27:48Z</time></trkpt><trkpt lat="43.27075314550453" lon="27.940411879151668"><ele>280.0</ele><time>2026-04-29T10:27:49Z</time></trkpt><trkpt lat="43.27067636070216" lon="27.940534513280777"><ele>280.0</ele><time>2026-04-29T10:27:50Z</time></trkpt><trkpt lat="43.27062301202222" lon="27.940619104023767"><ele>280.0</ele><time>2026-04-29T10:27:51Z</time></trkpt><trkpt lat="43.270554370640056" lon="27.94072794297414"><ele>280.0</ele><time>2026-04-29T10:27:52Z</time></trkpt><trkpt lat="43.27048485868609" lon="27.940838178317787"><ele>280.0</ele><time>2026-04-29T10:27:53Z</time></trkpt><trkpt lat="43.27041546081018" lon="27.940924454793297"><ele>280.0</ele><time>2026-04-29T10:27:54Z</time></trkpt><trkpt lat="43.27034401576388" lon="27.94100757322069"><ele>280.0</ele><time>2026-04-29T10:27:55Z</time></trkpt><trkpt lat="43.27029422184084" lon="27.941065502913407"><ele>280.0</ele><time>2026-04-29T10:27:56Z</time></trkpt><trkpt lat="43.27023614362438" lon="27.94113310909196"><ele>280.0</ele><time>2026-04-29T10:27:58Z</time></trkpt><trkpt lat="43.27015756948745" lon="27.941224810756488"><ele>280.0</ele><time>2026-04-29T10:29:07.999Z</time></trkpt><trkpt lat="43.27010494270406" lon="27.941285951004232"><ele>280.0</ele><time>2026-04-29T10:29:08.999Z</time></trkpt><trkpt lat="43.27000745759745" lon="27.94139940943593"><ele>280.0</ele><time>2026-04-29T10:29:10.999Z</time></trkpt><trkpt lat="43.26991101897532" lon="27.941511651321953"><ele>280.0</ele><time>2026-04-29T10:29:12.999Z</time></trkpt><trkpt lat="43.269827070466114" lon="27.94160066216176"><ele>280.0</ele><time>2026-04-29T10:29:14.998Z</time></trkpt><trkpt lat="43.26974637803571" lon="27.941702077269053"><ele>280.2</ele><time>2026-04-29T10:29:16.998Z</time></trkpt><trkpt lat="43.26968760204207" lon="27.94184803913753"><ele>280.4</ele><time>2026-04-29T10:29:18.998Z</time></trkpt><trkpt lat="43.26967720840324" lon="27.94196485836365"><ele>280.6</ele><time>2026-04-29T10:29:19.998Z</time></trkpt><trkpt lat="43.26965891948594" lon="27.942065944991274"><ele>280.8</ele><time>2026-04-29T10:29:20.998Z</time></trkpt><trkpt lat="43.26963892002697" lon="27.942176485927675"><ele>281.0</ele><time>2026-04-29T10:29:21.998Z</time></trkpt><trkpt lat="43.26961562591097" lon="27.94230477223215"><ele>281.0</ele><time>2026-04-29T10:29:22.998Z</time></trkpt><trkpt lat="43.26959032311928" lon="27.94244332543319"><ele>281.0</ele><time>2026-04-29T10:29:23.998Z</time></trkpt><trkpt lat="43.26956551748867" lon="27.94257924195861"><ele>281.0</ele><time>2026-04-29T10:29:24.998Z</time></trkpt><trkpt lat="43.26954258966622" lon="27.942704869763332"><ele>281.0</ele><time>2026-04-29T10:29:25.998Z</time></trkpt><trkpt lat="43.26952036595049" lon="27.94282663940709"><ele>281.0</ele><time>2026-04-29T10:29:26.998Z</time></trkpt><trkpt lat="43.269503076207315" lon="27.94294483249478"><ele>281.0</ele><time>2026-04-29T10:29:27.998Z</time></trkpt><trkpt lat="43.269488599041864" lon="27.943061097078584"><ele>281.0</ele><time>2026-04-29T10:29:28.998Z</time></trkpt><trkpt lat="43.269472178123245" lon="27.94317006949114"><ele>281.0</ele><time>2026-04-29T10:29:29.998Z</time></trkpt><trkpt lat="43.26943818685933" lon="27.943270317347867"><ele>281.0</ele><time>2026-04-29T10:29:30.998Z</time></trkpt><trkpt lat="43.26938923383967" lon="27.943425973909914"><ele>281.0</ele><time>2026-04-29T10:29:32.998Z</time></trkpt><trkpt lat="43.26933948191654" lon="27.943530640289516"><ele>281.0</ele><time>2026-04-29T10:29:34.998Z</time></trkpt><trkpt lat="43.26929469595153" lon="27.94368230523537"><ele>281.0</ele><time>2026-04-29T10:29:36.998Z</time></trkpt><trkpt lat="43.269281230429165" lon="27.94378645446845"><ele>281.0</ele><time>2026-04-29T10:29:38.998Z</time></trkpt><trkpt lat="43.26926112501931" lon="27.943881217504487"><ele>281.0</ele><time>2026-04-29T10:29:40.998Z</time></trkpt><trkpt lat="43.26923124913151" lon="27.943989902019325"><ele>281.0</ele><time>2026-04-29T10:29:44Z</time></trkpt><trkpt lat="43.26919710402731" lon="27.944071567929043"><ele>281.0</ele><time>2026-04-29T10:29:47Z</time></trkpt><trkpt lat="43.269176046016696" lon="27.94416983656559"><ele>281.8</ele><time>2026-04-29T10:29:49Z</time></trkpt><trkpt lat="43.26922547156961" lon="27.944308479175326"><ele>282.6</ele><time>2026-04-29T10:29:51Z</time></trkpt><trkpt lat="43.26929028471922" lon="27.94435719943467"><ele>283.4</ele><time>2026-04-29T10:29:52Z</time></trkpt><trkpt lat="43.26936206001408" lon="27.944395040207652"><ele>284.2</ele><time>2026-04-29T10:29:53Z</time></trkpt><trkpt lat="43.269481721926226" lon="27.944434902342632"><ele>285.0</ele><time>2026-04-29T10:29:55Z</time></trkpt><trkpt lat="43.2696034208213" lon="27.944499525344497"><ele>285.0</ele><time>2026-04-29T10:29:57Z</time></trkpt><trkpt lat="43.26967636960743" lon="27.944513887388304"><ele>285.0</ele><time>2026-04-29T10:29:58Z</time></trkpt><trkpt lat="43.269742100757476" lon="27.94453724275259"><ele>285.0</ele><time>2026-04-29T10:29:59Z</time></trkpt><trkpt lat="43.26980952287745" lon="27.944569927168217"><ele>285.0</ele><time>2026-04-29T10:30:00Z</time></trkpt><trkpt lat="43.26985704154135" lon="27.944639673158793"><ele>285.0</ele><time>2026-04-29T10:30:01Z</time></trkpt><trkpt lat="43.26995409382185" lon="27.944716721811837"><ele>285.0</ele><time>2026-04-29T10:30:03Z</time></trkpt><trkpt lat="43.27005777126063" lon="27.94476922608258"><ele>285.1666666666667</ele><time>2026-04-29T10:30:05Z</time></trkpt><trkpt lat="43.2701166942899" lon="27.94482486098195"><ele>285.3333333333333</ele><time>2026-04-29T10:30:07Z</time></trkpt><trkpt lat="43.27020972149752" lon="27.944898499272206"><ele>285.5</ele><time>2026-04-29T10:30:09Z</time></trkpt><trkpt lat="43.270231809510406" lon="27.944979996102308"><ele>285.66666666666663</ele><time>2026-04-29T10:30:10Z</time></trkpt><trkpt lat="43.270273026424796" lon="27.945094232174903"><ele>285.8333333333333</ele><time>2026-04-29T10:30:12Z</time></trkpt><trkpt lat="43.27026981492617" lon="27.945186216535916"><ele>286.0</ele><time>2026-04-29T10:30:19Z</time></trkpt><trkpt lat="43.270274069034215" lon="27.94533462022972"><ele>286.66666666666663</ele><time>2026-04-29T10:30:21Z</time></trkpt><trkpt lat="43.27024402459693" lon="27.945433782640343"><ele>287.3333333333333</ele><time>2026-04-29T10:30:22Z</time></trkpt><trkpt lat="43.27025400057051" lon="27.94553575378602"><ele>288.0</ele><time>2026-04-29T10:30:23Z</time></trkpt><trkpt lat="43.27026301607745" lon="27.945627906954396"><ele>288.6666666666667</ele><time>2026-04-29T10:30:23.999Z</time></trkpt><trkpt lat="43.270288621396375" lon="27.94574541422739"><ele>289.33333333333337</ele><time>2026-04-29T10:30:24.999Z</time></trkpt><trkpt lat="43.2703103787117" lon="27.94583977499524"><ele>290.0</ele><time>2026-04-29T10:30:25.999Z</time></trkpt><trkpt lat="43.27034100455197" lon="27.94593882018651"><ele>290.5</ele><time>2026-04-29T10:30:26.999Z</time></trkpt><trkpt lat="43.27036896327865" lon="27.94603497912774"><ele>291.0</ele><time>2026-04-29T10:30:27.999Z</time></trkpt><trkpt lat="43.27039617177557" lon="27.94613218833744"><ele>291.5</ele><time>2026-04-29T10:30:28.999Z</time></trkpt><trkpt lat="43.27042373284261" lon="27.946240157420064"><ele>292.0</ele><time>2026-04-29T10:30:29.999Z</time></trkpt><trkpt lat="43.270441949875966" lon="27.946343707879823"><ele>292.5</ele><time>2026-04-29T10:30:30.999Z</time></trkpt><trkpt lat="43.270464503168625" lon="27.946451402243436"><ele>293.0</ele><time>2026-04-29T10:30:31.999Z</time></trkpt><trkpt lat="43.27047112074415" lon="27.946543638419897"><ele>293.0</ele><time>2026-04-29T10:30:32.999Z</time></trkpt><trkpt lat="43.27048981801105" lon="27.94670762609802"><ele>293.0</ele><time>2026-04-29T10:30:34.999Z</time></trkpt><trkpt lat="43.27048170089408" lon="27.94682371994981"><ele>293.0</ele><time>2026-04-29T10:30:36.999Z</time></trkpt><trkpt lat="43.2705053181816" lon="27.946988596252414"><ele>293.0</ele><time>2026-04-29T10:30:38.999Z</time></trkpt><trkpt lat="43.27051851405105" lon="27.947081516267538"><ele>293.0</ele><time>2026-04-29T10:30:39.999Z</time></trkpt><trkpt lat="43.27054088988458" lon="27.947176084101198"><ele>293.4</ele><time>2026-04-29T10:30:40.999Z</time></trkpt><trkpt lat="43.27057433233825" lon="27.94727355604019"><ele>293.8</ele><time>2026-04-29T10:30:41.999Z</time></trkpt><trkpt lat="43.27059064979474" lon="27.94737236200789"><ele>294.2</ele><time>2026-04-29T10:30:42.999Z</time></trkpt><trkpt lat="43.270584805539535" lon="27.94753511248029"><ele>294.6</ele><time>2026-04-29T10:30:44.999Z</time></trkpt><trkpt lat="43.27058356488252" lon="27.947712349519794"><ele>295.0</ele><time>2026-04-29T10:30:46.999Z</time></trkpt><trkpt lat="43.27058324881001" lon="27.947809098295185"><ele>295.0</ele><time>2026-04-29T10:30:47.999Z</time></trkpt><trkpt lat="43.27058324880706" lon="27.94791689294291"><ele>295.0</ele><time>2026-04-29T10:30:49.999Z</time></trkpt><trkpt lat="43.2705866703912" lon="27.948049789329065"><ele>295.0</ele><time>2026-04-29T10:30:52.999Z</time></trkpt><trkpt lat="43.27059277186062" lon="27.94814227255647"><ele>295.0</ele><time>2026-04-29T10:30:53.999Z</time></trkpt><trkpt lat="43.27059882180915" lon="27.948233975401948"><ele>295.0</ele><time>2026-04-29T10:30:54.999Z</time></trkpt><trkpt lat="43.27062702356301" lon="27.948360939935522"><ele>295.0</ele><time>2026-04-29T10:30:56.999Z</time></trkpt><trkpt lat="43.27065702952194" lon="27.948484338855742"><ele>294.8</ele><time>2026-04-29T10:30:58.999Z</time></trkpt><trkpt lat="43.2707020513439" lon="27.948622368931577"><ele>294.6</ele><time>2026-04-29T10:31:00.999Z</time></trkpt><trkpt lat="43.27073255219419" lon="27.948736098968862"><ele>294.4</ele><time>2026-04-29T10:31:02.999Z</time></trkpt><trkpt lat="43.27075679971842" lon="27.948881395138343"><ele>294.2</ele><time>2026-04-29T10:31:04.999Z</time></trkpt><trkpt lat="43.27079261747597" lon="27.948969207268544"><ele>294.0</ele><time>2026-04-29T10:31:05.999Z</time></trkpt><trkpt lat="43.27080461221293" lon="27.949081871777977"><ele>294.0</ele><time>2026-04-29T10:31:06.999Z</time></trkpt><trkpt lat="43.27083682814127" lon="27.94919234564842"><ele>294.0</ele><time>2026-04-29T10:31:07.999Z</time></trkpt><trkpt lat="43.27085864869023" lon="27.949307593612293"><ele>294.0</ele><time>2026-04-29T10:31:08.999Z</time></trkpt><trkpt lat="43.27089652830425" lon="27.9494157924288"><ele>294.0</ele><time>2026-04-29T10:31:09.999Z</time></trkpt><trkpt lat="43.27091066283266" lon="27.949548829371412"><ele>294.0</ele><time>2026-04-29T10:31:10.999Z</time></trkpt><trkpt lat="43.270947679812664" lon="27.94966177621642"><ele>294.0</ele><time>2026-04-29T10:31:11.999Z</time></trkpt><trkpt lat="43.27098388893583" lon="27.949772258453667"><ele>294.2</ele><time>2026-04-29T10:31:12.999Z</time></trkpt><trkpt lat="43.27102058673107" lon="27.949879756507556"><ele>294.4</ele><time>2026-04-29T10:31:13.999Z</time></trkpt><trkpt lat="43.27106106544209" lon="27.949988726977928"><ele>294.6</ele><time>2026-04-29T10:31:14.999Z</time></trkpt><trkpt lat="43.27110405789438" lon="27.95009578857213"><ele>294.8</ele><time>2026-04-29T10:31:15.999Z</time></trkpt><trkpt lat="43.27114311479803" lon="27.95020931422718"><ele>295.0</ele><time>2026-04-29T10:31:16.999Z</time></trkpt><trkpt lat="43.27119834754445" lon="27.950322646333934"><ele>295.3333333333333</ele><time>2026-04-29T10:31:17.998Z</time></trkpt><trkpt lat="43.27122787724653" lon="27.950443162601108"><ele>295.66666666666663</ele><time>2026-04-29T10:31:18.998Z</time></trkpt><trkpt lat="43.271269977568544" lon="27.950561531540913"><ele>296.0</ele><time>2026-04-29T10:31:19.998Z</time></trkpt><trkpt lat="43.271311096477085" lon="27.950677123429056"><ele>296.3333333333333</ele><time>2026-04-29T10:31:20.998Z</time></trkpt><trkpt lat="43.271335877630214" lon="27.950776258618234"><ele>296.6666666666667</ele><time>2026-04-29T10:31:21.998Z</time></trkpt><trkpt lat="43.271363221814056" lon="27.95087265983648"><ele>297.0</ele><time>2026-04-29T10:31:22.998Z</time></trkpt><trkpt lat="43.271351826355" lon="27.950962120486135"><ele>297.6666666666667</ele><time>2026-04-29T10:31:23.998Z</time></trkpt><trkpt lat="43.27135936238102" lon="27.951054772626335"><ele>298.3333333333333</ele><time>2026-04-29T10:31:24.998Z</time></trkpt><trkpt lat="43.27136788183452" lon="27.95116124028643"><ele>299.0</ele><time>2026-04-29T10:31:25.998Z</time></trkpt><trkpt lat="43.27138244278073" lon="27.95127630574728"><ele>299.66666666666663</ele><time>2026-04-29T10:31:26.998Z</time></trkpt><trkpt lat="43.27140013687059" lon="27.951404960908757"><ele>300.3333333333333</ele><time>2026-04-29T10:31:27.998Z</time></trkpt><trkpt lat="43.27142189357536" lon="27.951533354666783"><ele>301.0</ele><time>2026-04-29T10:31:28.998Z</time></trkpt><trkpt lat="43.27144453836592" lon="27.95166348639913"><ele>301.40000000000003</ele><time>2026-04-29T10:31:29.998Z</time></trkpt><trkpt lat="43.271467369969216" lon="27.951792865497964"><ele>301.8</ele><time>2026-04-29T10:31:30.998Z</time></trkpt><trkpt lat="43.271497862745385" lon="27.95192930511869"><ele>302.20000000000005</ele><time>2026-04-29T10:31:31.998Z</time></trkpt><trkpt lat="43.27151057178294" lon="27.952066541498137"><ele>302.6</ele><time>2026-04-29T10:31:32.998Z</time></trkpt><trkpt lat="43.271527463914005" lon="27.95220326105094"><ele>303.0</ele><time>2026-04-29T10:31:33.998Z</time></trkpt><trkpt lat="43.27154300190022" lon="27.952329020584845"><ele>303.0</ele><time>2026-04-29T10:31:34.998Z</time></trkpt><trkpt lat="43.271572714708554" lon="27.9524519782517"><ele>303.0</ele><time>2026-04-29T10:31:35.998Z</time></trkpt><trkpt lat="43.27159654041663" lon="27.952567829201946"><ele>303.0</ele><time>2026-04-29T10:31:36.998Z</time></trkpt><trkpt lat="43.271597887698526" lon="27.952677144496043"><ele>303.0</ele><time>2026-04-29T10:31:37.998Z</time></trkpt><trkpt lat="43.27161832639798" lon="27.95279679421747"><ele>303.0</ele><time>2026-04-29T10:31:38.998Z</time></trkpt><trkpt lat="43.271638658995826" lon="27.952913784776193"><ele>303.0</ele><time>2026-04-29T10:31:39.998Z</time></trkpt><trkpt lat="43.27165957892243" lon="27.95303415478134"><ele>303.4</ele><time>2026-04-29T10:31:40.998Z</time></trkpt><trkpt lat="43.27168083461011" lon="27.953156609957627"><ele>303.8</ele><time>2026-04-29T10:31:41.998Z</time></trkpt><trkpt lat="43.27170113644096" lon="27.95327603098267"><ele>304.2</ele><time>2026-04-29T10:31:42.998Z</time></trkpt><trkpt lat="43.27173868610296" lon="27.953395620984544"><ele>304.6</ele><time>2026-04-29T10:31:43.998Z</time></trkpt><trkpt lat="43.27174481454696" lon="27.953524991061705"><ele>305.0</ele><time>2026-04-29T10:31:44.998Z</time></trkpt><trkpt lat="43.27176645796618" lon="27.953649706134847"><ele>305.4</ele><time>2026-04-29T10:31:45.998Z</time></trkpt><trkpt lat="43.271789265802774" lon="27.95378114683451"><ele>305.8</ele><time>2026-04-29T10:31:46.998Z</time></trkpt><trkpt lat="43.27181294622549" lon="27.953917616007615"><ele>306.2</ele><time>2026-04-29T10:31:48Z</time></trkpt><trkpt lat="43.271848134670265" lon="27.95404923479378"><ele>306.6</ele><time>2026-04-29T10:31:49Z</time></trkpt><trkpt lat="43.27186470794926" lon="27.95418332452794"><ele>307.0</ele><time>2026-04-29T10:31:50Z</time></trkpt><trkpt lat="43.27190171664783" lon="27.954315813508256"><ele>307.6</ele><time>2026-04-29T10:31:51Z</time></trkpt><trkpt lat="43.271931942872214" lon="27.954455242739073"><ele>308.2</ele><time>2026-04-29T10:31:52Z</time></trkpt><trkpt lat="43.27195589601502" lon="27.95460562323012"><ele>308.8</ele><time>2026-04-29T10:31:53Z</time></trkpt><trkpt lat="43.271988052315734" lon="27.954748275778922"><ele>309.4</ele><time>2026-04-29T10:31:54Z</time></trkpt><trkpt lat="43.27202050368099" lon="27.954892237129098"><ele>310.0</ele><time>2026-04-29T10:31:55Z</time></trkpt><trkpt lat="43.27206663318621" lon="27.95502766905057"><ele>310.8</ele><time>2026-04-29T10:31:56Z</time></trkpt><trkpt lat="43.27209421400079" lon="27.95517935467054"><ele>311.6</ele><time>2026-04-29T10:31:57Z</time></trkpt><trkpt lat="43.27213288447934" lon="27.95530745796782"><ele>312.4</ele><time>2026-04-29T10:31:58Z</time></trkpt><trkpt lat="43.272166203668384" lon="27.955447417293954"><ele>313.2</ele><time>2026-04-29T10:31:59Z</time></trkpt><trkpt lat="43.272194502629965" lon="27.955572981154795"><ele>314.0</ele><time>2026-04-29T10:32:00Z</time></trkpt><trkpt lat="43.27223226222098" lon="27.955706221636028"><ele>314.0</ele><time>2026-04-29T10:32:01Z</time></trkpt><trkpt lat="43.27226264839219" lon="27.955847812717614"><ele>314.0</ele><time>2026-04-29T10:32:02Z</time></trkpt><trkpt lat="43.27230247921946" lon="27.955986300841857"><ele>314.0</ele><time>2026-04-29T10:32:03Z</time></trkpt><trkpt lat="43.27233736290796" lon="27.956128400019175"><ele>314.0</ele><time>2026-04-29T10:32:04Z</time></trkpt><trkpt lat="43.27237293717592" lon="27.95626831969731"><ele>314.0</ele><time>2026-04-29T10:32:05Z</time></trkpt><trkpt lat="43.27240748210066" lon="27.95641331700379"><ele>315.4</ele><time>2026-04-29T10:32:06Z</time></trkpt><trkpt lat="43.27244042600674" lon="27.95654572576854"><ele>316.79999999999995</ele><time>2026-04-29T10:32:07Z</time></trkpt><trkpt lat="43.27247108068797" lon="27.956696026254548"><ele>318.20000000000005</ele><time>2026-04-29T10:32:08Z</time></trkpt><trkpt lat="43.27250944448191" lon="27.956813784010073"><ele>319.6</ele><time>2026-04-29T10:32:09Z</time></trkpt><trkpt lat="43.27254915601359" lon="27.956954967779502"><ele>321.0</ele><time>2026-04-29T10:32:10Z</time></trkpt><trkpt lat="43.272588277007074" lon="27.957092659388223"><ele>321.8</ele><time>2026-04-29T10:32:11Z</time></trkpt><trkpt lat="43.272632660204586" lon="27.957227480142638"><ele>322.6</ele><time>2026-04-29T10:32:12Z</time></trkpt><trkpt lat="43.272674894417015" lon="27.957361593065635"><ele>323.4</ele><time>2026-04-29T10:32:13Z</time></trkpt><trkpt lat="43.27272405505418" lon="27.957491755240298"><ele>324.2</ele><time>2026-04-29T10:32:14Z</time></trkpt><trkpt lat="43.272765685412075" lon="27.9576070564055"><ele>325.0</ele><time>2026-04-29T10:32:15Z</time></trkpt><trkpt lat="43.27282050155603" lon="27.957722969286557"><ele>325.2</ele><time>2026-04-29T10:32:16Z</time></trkpt><trkpt lat="43.272876989397574" lon="27.957841859823894"><ele>325.4</ele><time>2026-04-29T10:32:17Z</time></trkpt><trkpt lat="43.27293843844538" lon="27.957965211776582"><ele>325.6</ele><time>2026-04-29T10:32:18Z</time></trkpt><trkpt lat="43.27299783595747" lon="27.958084445442484"><ele>325.8</ele><time>2026-04-29T10:32:19Z</time></trkpt><trkpt lat="43.27305274846372" lon="27.95819467577271"><ele>326.0</ele><time>2026-04-29T10:32:20Z</time></trkpt><trkpt lat="43.27311297131635" lon="27.958292269264742"><ele>327.20000000000005</ele><time>2026-04-29T10:32:21Z</time></trkpt><trkpt lat="43.27317525164944" lon="27.958396205727727"><ele>328.40000000000003</ele><time>2026-04-29T10:32:22Z</time></trkpt><trkpt lat="43.273243784324414" lon="27.95851057650022"><ele>329.6</ele><time>2026-04-29T10:32:23Z</time></trkpt><trkpt lat="43.27331515820949" lon="27.958628519640133"><ele>330.8</ele><time>2026-04-29T10:32:23.999Z</time></trkpt><trkpt lat="43.27338141465053" lon="27.958729064656154"><ele>332.0</ele><time>2026-04-29T10:32:24.999Z</time></trkpt><trkpt lat="43.27344316601508" lon="27.958835625456743"><ele>332.0</ele><time>2026-04-29T10:32:25.999Z</time></trkpt><trkpt lat="43.27350602090112" lon="27.958937584459346"><ele>332.0</ele><time>2026-04-29T10:32:26.999Z</time></trkpt><trkpt lat="43.273577541398225" lon="27.959032259562292"><ele>332.0</ele><time>2026-04-29T10:32:27.999Z</time></trkpt><trkpt lat="43.27363237651058" lon="27.95914768179141"><ele>332.0</ele><time>2026-04-29T10:32:28.999Z</time></trkpt><trkpt lat="43.27370400185809" lon="27.95927716900332"><ele>332.0</ele><time>2026-04-29T10:32:29.999Z</time></trkpt><trkpt lat="43.27377870808129" lon="27.95941202951077"><ele>332.5</ele><time>2026-04-29T10:32:30.999Z</time></trkpt><trkpt lat="43.27385804037099" lon="27.959555241352437"><ele>333.0</ele><time>2026-04-29T10:32:31.999Z</time></trkpt><trkpt lat="43.2739241719089" lon="27.959696597026582"><ele>333.5</ele><time>2026-04-29T10:32:32.999Z</time></trkpt><trkpt lat="43.27399321881893" lon="27.959809675198315"><ele>334.0</ele><time>2026-04-29T10:32:33.999Z</time></trkpt><trkpt lat="43.274051811374626" lon="27.95995981811905"><ele>333.79999999999995</ele><time>2026-04-29T10:32:34.999Z</time></trkpt><trkpt lat="43.27412107953274" lon="27.96009712993201"><ele>333.59999999999997</ele><time>2026-04-29T10:32:35.999Z</time></trkpt><trkpt lat="43.27418142748399" lon="27.96022663113443"><ele>333.4</ele><time>2026-04-29T10:32:36.999Z</time></trkpt><trkpt lat="43.27422471232881" lon="27.96035728763456"><ele>333.2</ele><time>2026-04-29T10:32:37.999Z</time></trkpt><trkpt lat="43.27428007525305" lon="27.960446915552275"><ele>333.0</ele><time>2026-04-29T10:32:38.999Z</time></trkpt><trkpt lat="43.27431830627125" lon="27.960569217578662"><ele>333.0</ele><time>2026-04-29T10:32:40.999Z</time></trkpt><trkpt lat="43.274373661357615" lon="27.960672894121124"><ele>333.0</ele><time>2026-04-29T10:32:51.999Z</time></trkpt><trkpt lat="43.274435333218925" lon="27.96087407949507"><ele>333.0</ele><time>2026-04-29T10:32:53.999Z</time></trkpt><trkpt lat="43.274486382758155" lon="27.96100960088332"><ele>333.0</ele><time>2026-04-29T10:32:54.999Z</time></trkpt><trkpt lat="43.27453754340151" lon="27.96114600982121"><ele>332.25</ele><time>2026-04-29T10:32:55.999Z</time></trkpt><trkpt lat="43.2745895815582" lon="27.9612847585839"><ele>331.5</ele><time>2026-04-29T10:32:56.999Z</time></trkpt><trkpt lat="43.274659061582284" lon="27.961429915627324"><ele>330.75</ele><time>2026-04-29T10:32:57.999Z</time></trkpt><trkpt lat="43.274703551381506" lon="27.96158501472588"><ele>330.0</ele><time>2026-04-29T10:32:58.999Z</time></trkpt><trkpt lat="43.274758950282504" lon="27.961728207758856"><ele>328.5</ele><time>2026-04-29T10:32:59.999Z</time></trkpt><trkpt lat="43.27482390609135" lon="27.96186638502551"><ele>327.0</ele><time>2026-04-29T10:33:00.999Z</time></trkpt><trkpt lat="43.274867262356025" lon="27.962024416639036"><ele>325.5</ele><time>2026-04-29T10:33:01.999Z</time></trkpt><trkpt lat="43.27491919918345" lon="27.96216236675764"><ele>324.0</ele><time>2026-04-29T10:33:02.999Z</time></trkpt><trkpt lat="43.27496349000562" lon="27.962280009686477"><ele>324.0</ele><time>2026-04-29T10:33:03.999Z</time></trkpt><trkpt lat="43.27502079881733" lon="27.962385762454453"><ele>324.0</ele><time>2026-04-29T10:33:04.999Z</time></trkpt><trkpt lat="43.27507095927025" lon="27.962484203918947"><ele>324.0</ele><time>2026-04-29T10:33:05.999Z</time></trkpt><trkpt lat="43.275121290790636" lon="27.9625829807733"><ele>324.0</ele><time>2026-04-29T10:33:06.999Z</time></trkpt><trkpt lat="43.27517260534707" lon="27.962683687228346"><ele>324.0</ele><time>2026-04-29T10:33:07.999Z</time></trkpt><trkpt lat="43.27522422243295" lon="27.962784987284802"><ele>323.2</ele><time>2026-04-29T10:33:08.999Z</time></trkpt><trkpt lat="43.27527586486579" lon="27.962886337138215"><ele>322.4</ele><time>2026-04-29T10:33:09.999Z</time></trkpt><trkpt lat="43.27533937622079" lon="27.962975104829642"><ele>321.6</ele><time>2026-04-29T10:33:10.999Z</time></trkpt><trkpt lat="43.27538129795271" lon="27.963081853546196"><ele>320.8</ele><time>2026-04-29T10:33:11.999Z</time></trkpt><trkpt lat="43.2754309172021" lon="27.96318936638199"><ele>320.0</ele><time>2026-04-29T10:33:12.999Z</time></trkpt><trkpt lat="43.27548936072778" lon="27.96330785495978"><ele>318.8</ele><time>2026-04-29T10:33:13.999Z</time></trkpt><trkpt lat="43.27554596603184" lon="27.963423799471357"><ele>317.6</ele><time>2026-04-29T10:33:14.999Z</time></trkpt><trkpt lat="43.27561087999587" lon="27.963542383144173"><ele>316.4</ele><time>2026-04-29T10:33:15.999Z</time></trkpt><trkpt lat="43.2756728711714" lon="27.963664492851876"><ele>315.2</ele><time>2026-04-29T10:33:16.999Z</time></trkpt><trkpt lat="43.27573798716132" lon="27.96378831992237"><ele>314.0</ele><time>2026-04-29T10:33:17.999Z</time></trkpt><trkpt lat="43.2758011403041" lon="27.963918096382248"><ele>313.8</ele><time>2026-04-29T10:33:18.999Z</time></trkpt><trkpt lat="43.27586433751521" lon="27.964049611942542"><ele>313.59999999999997</ele><time>2026-04-29T10:33:19.998Z</time></trkpt><trkpt lat="43.27592584964785" lon="27.964176785800312"><ele>313.4</ele><time>2026-04-29T10:33:20.998Z</time></trkpt><trkpt lat="43.27598023888062" lon="27.96429282077674"><ele>313.2</ele><time>2026-04-29T10:33:21.998Z</time></trkpt><trkpt lat="43.27601657098032" lon="27.964384055749978"><ele>313.0</ele><time>2026-04-29T10:33:22.998Z</time></trkpt><trkpt lat="43.27604623762687" lon="27.964523483723188"><ele>312.4</ele><time>2026-04-29T10:33:24.998Z</time></trkpt><trkpt lat="43.27598265529279" lon="27.9645947016281"><ele>311.8</ele><time>2026-04-29T10:33:26.998Z</time></trkpt><trkpt lat="43.27585565133396" lon="27.96463022763757"><ele>311.2</ele><time>2026-04-29T10:33:28.998Z</time></trkpt><trkpt lat="43.27574575455099" lon="27.96466253268003"><ele>310.6</ele><time>2026-04-29T10:33:30.998Z</time></trkpt><trkpt lat="43.27568320935074" lon="27.964627175990653"><ele>310.0</ele><time>2026-04-29T10:33:31.998Z</time></trkpt><trkpt lat="43.27560212247056" lon="27.96458615037364"><ele>309.0</ele><time>2026-04-29T10:33:32.998Z</time></trkpt><trkpt lat="43.2755174812289" lon="27.96456667877658"><ele>308.0</ele><time>2026-04-29T10:33:33.998Z</time></trkpt><trkpt lat="43.275445567879245" lon="27.964550135141142"><ele>307.0</ele><time>2026-04-29T10:33:34.998Z</time></trkpt><trkpt lat="43.27536825787912" lon="27.964532349932146"><ele>306.0</ele><time>2026-04-29T10:33:36.998Z</time></trkpt><trkpt lat="43.27529603326644" lon="27.96471662183197"><ele>305.0</ele><time>2026-04-29T10:33:40.998Z</time></trkpt><trkpt lat="43.275280369031115" lon="27.964806793196804"><ele>305.0</ele><time>2026-04-29T10:34:54.999Z</time></trkpt><trkpt lat="43.27527315322109" lon="27.96492798180462"><ele>305.0</ele><time>2026-04-29T10:35:01.999Z</time></trkpt><trkpt lat="43.27527016405764" lon="27.965025034353868"><ele>305.0</ele><time>2026-04-29T10:35:02.999Z</time></trkpt><trkpt lat="43.27527849316154" lon="27.965128745350242"><ele>305.0</ele><time>2026-04-29T10:35:03.999Z</time></trkpt><trkpt lat="43.275276124734944" lon="27.96522622560741"><ele>305.0</ele><time>2026-04-29T10:35:04.999Z</time></trkpt><trkpt lat="43.27527472600713" lon="27.965317936769086"><ele>305.0</ele><time>2026-04-29T10:35:05.999Z</time></trkpt><trkpt lat="43.275256891357245" lon="27.965469329852898"><ele>303.83333333333337</ele><time>2026-04-29T10:35:07.999Z</time></trkpt><trkpt lat="43.275254148839736" lon="27.96559237204595"><ele>302.6666666666667</ele><time>2026-04-29T10:35:09.999Z</time></trkpt><trkpt lat="43.275263904308055" lon="27.96571195040644"><ele>301.5</ele><time>2026-04-29T10:35:13.999Z</time></trkpt><trkpt lat="43.27531021752949" lon="27.965838168118236"><ele>300.3333333333333</ele><time>2026-04-29T10:35:15.999Z</time></trkpt><trkpt lat="43.275323379339554" lon="27.965958337475918"><ele>299.16666666666663</ele><time>2026-04-29T10:35:17.999Z</time></trkpt><trkpt lat="43.27534287052665" lon="27.966040734859504"><ele>298.0</ele><time>2026-04-29T10:35:19.999Z</time></trkpt><trkpt lat="43.27535561166462" lon="27.966150582995525"><ele>297.0</ele><time>2026-04-29T10:35:22.999Z</time></trkpt><trkpt lat="43.27525637324575" lon="27.966181436768466"><ele>296.0</ele><time>2026-04-29T10:35:24.999Z</time></trkpt><trkpt lat="43.275179743812664" lon="27.966287519182995"><ele>295.0</ele><time>2026-04-29T10:35:26.999Z</time></trkpt><trkpt lat="43.27512317953296" lon="27.966380858887813"><ele>294.0</ele><time>2026-04-29T10:35:28.998Z</time></trkpt><trkpt lat="43.275052440888835" lon="27.96643509091814"><ele>293.0</ele><time>2026-04-29T10:35:30.998Z</time></trkpt><trkpt lat="43.27498977234765" lon="27.96648258296843"><ele>293.0</ele><time>2026-04-29T10:35:32.998Z</time></trkpt><trkpt lat="43.274921888244116" lon="27.96645951772541"><ele>293.0</ele><time>2026-04-29T10:35:34.998Z</time></trkpt><trkpt lat="43.27484916697706" lon="27.966443901947716"><ele>293.0</ele><time>2026-04-29T10:35:38.998Z</time></trkpt><trkpt lat="43.274760482777396" lon="27.96649565034759"><ele>293.0</ele><time>2026-04-29T10:36:11Z</time></trkpt><trkpt lat="43.274725361443224" lon="27.966573794570525"><ele>293.0</ele><time>2026-04-29T10:36:14Z</time></trkpt><trkpt lat="43.274620815525125" lon="27.96656485668161"><ele>293.0</ele><time>2026-04-29T10:36:16Z</time></trkpt><trkpt lat="43.27454305623399" lon="27.96661102266496"><ele>293.0</ele><time>2026-04-29T10:36:18Z</time></trkpt><trkpt lat="43.27445696156374" lon="27.966640218423404"><ele>293.0</ele><time>2026-04-29T10:36:20Z</time></trkpt><trkpt lat="43.2743526771831" lon="27.966712831781184"><ele>293.0</ele><time>2026-04-29T10:36:22Z</time></trkpt><trkpt lat="43.27423521330844" lon="27.966777660719387"><ele>293.0</ele><time>2026-04-29T10:36:24Z</time></trkpt><trkpt lat="43.27418145562511" lon="27.966827709296204"><ele>293.0</ele><time>2026-04-29T10:36:25Z</time></trkpt><trkpt lat="43.27411200890183" lon="27.966835157339208"><ele>293.1428571428571</ele><time>2026-04-29T10:36:26Z</time></trkpt><trkpt lat="43.274044083585224" lon="27.96680549776852"><ele>293.2857142857143</ele><time>2026-04-29T10:36:27Z</time></trkpt><trkpt lat="43.273978462070836" lon="27.966813708502396"><ele>293.42857142857144</ele><time>2026-04-29T10:36:28Z</time></trkpt><trkpt lat="43.27390421329288" lon="27.966822958471663"><ele>293.57142857142856</ele><time>2026-04-29T10:36:29Z</time></trkpt><trkpt lat="43.27382003746687" lon="27.96683344516496"><ele>293.7142857142857</ele><time>2026-04-29T10:36:30Z</time></trkpt><trkpt lat="43.273747041059906" lon="27.966842539131058"><ele>293.85714285714283</ele><time>2026-04-29T10:36:31Z</time></trkpt><trkpt lat="43.27367648995436" lon="27.966851328461434"><ele>294.0</ele><time>2026-04-29T10:36:32Z</time></trkpt><trkpt lat="43.27360844285999" lon="27.96685980581684"><ele>294.0</ele><time>2026-04-29T10:36:33Z</time></trkpt><trkpt lat="43.27353753176357" lon="27.966900003163687"><ele>294.0</ele><time>2026-04-29T10:36:34Z</time></trkpt><trkpt lat="43.27346028567095" lon="27.96689837339903"><ele>294.0</ele><time>2026-04-29T10:36:35Z</time></trkpt><trkpt lat="43.27337310179302" lon="27.96692268117061"><ele>294.0</ele><time>2026-04-29T10:36:36Z</time></trkpt><trkpt lat="43.273277872347215" lon="27.96694923213529"><ele>294.0</ele><time>2026-04-29T10:36:37Z</time></trkpt><trkpt lat="43.273172336162894" lon="27.966978656727704"><ele>294.0</ele><time>2026-04-29T10:36:38Z</time></trkpt><trkpt lat="43.273078438844365" lon="27.967004836307723"><ele>295.0</ele><time>2026-04-29T10:36:39Z</time></trkpt><trkpt lat="43.2729731072778" lon="27.9670342035635"><ele>296.0</ele><time>2026-04-29T10:36:41Z</time></trkpt><trkpt lat="43.27287088916434" lon="27.967039445483763"><ele>297.0</ele><time>2026-04-29T10:36:42.999Z</time></trkpt><trkpt lat="43.272850990107266" lon="27.966857887907263"><ele>298.0</ele><time>2026-04-29T10:36:43.999Z</time></trkpt><trkpt lat="43.272780352174436" lon="27.966781675346994"><ele>299.0</ele><time>2026-04-29T10:36:44.999Z</time></trkpt><trkpt lat="43.27270332936383" lon="27.966698574412376"><ele>300.4</ele><time>2026-04-29T10:36:45.999Z</time></trkpt><trkpt lat="43.27262905122844" lon="27.966618434400683"><ele>301.79999999999995</ele><time>2026-04-29T10:36:46.999Z</time></trkpt><trkpt lat="43.27255041873625" lon="27.96653359695621"><ele>303.20000000000005</ele><time>2026-04-29T10:36:47.999Z</time></trkpt><trkpt lat="43.27246702830349" lon="27.96644505253107"><ele>304.6</ele><time>2026-04-29T10:36:48.999Z</time></trkpt><trkpt lat="43.272380907035036" lon="27.966353543730452"><ele>306.0</ele><time>2026-04-29T10:36:49.999Z</time></trkpt><trkpt lat="43.27229469749117" lon="27.96626247507789"><ele>306.6</ele><time>2026-04-29T10:36:50.999Z</time></trkpt><trkpt lat="43.27221210954026" lon="27.966175269645056"><ele>307.20000000000005</ele><time>2026-04-29T10:36:51.999Z</time></trkpt><trkpt lat="43.27214441426427" lon="27.966103856464862"><ele>307.79999999999995</ele><time>2026-04-29T10:36:52.999Z</time></trkpt><trkpt lat="43.27208910449977" lon="27.966045509081013"><ele>308.4</ele><time>2026-04-29T10:36:53.999Z</time></trkpt><trkpt lat="43.272034461336226" lon="27.965987864832872"><ele>309.0</ele><time>2026-04-29T10:36:55.999Z</time></trkpt><trkpt lat="43.271926579867895" lon="27.966132092354847"><ele>309.0</ele><time>2026-04-29T10:36:59.999Z</time></trkpt><trkpt lat="43.27186317309228" lon="27.966254099798938"><ele>309.0</ele><time>2026-04-29T10:37:00.999Z</time></trkpt><trkpt lat="43.2718076525558" lon="27.966383005576493"><ele>309.0</ele><time>2026-04-29T10:37:01.999Z</time></trkpt><trkpt lat="43.271752172713285" lon="27.966511833939265"><ele>309.0</ele><time>2026-04-29T10:37:02.999Z</time></trkpt><trkpt lat="43.27169317418678" lon="27.966651772610827"><ele>309.0</ele><time>2026-04-29T10:37:03.999Z</time></trkpt><trkpt lat="43.271631973374944" lon="27.966794383537806"><ele>308.8</ele><time>2026-04-29T10:37:04.999Z</time></trkpt><trkpt lat="43.271576933812966" lon="27.966922971610696"><ele>308.59999999999997</ele><time>2026-04-29T10:37:05.999Z</time></trkpt><trkpt lat="43.27152063550558" lon="27.967053901494005"><ele>308.4</ele><time>2026-04-29T10:37:06.999Z</time></trkpt><trkpt lat="43.271467536778985" lon="27.96717712745957"><ele>308.2</ele><time>2026-04-29T10:37:07.999Z</time></trkpt><trkpt lat="43.271423713551165" lon="27.967279440180295"><ele>308.0</ele><time>2026-04-29T10:37:08.999Z</time></trkpt><trkpt lat="43.27138752636944" lon="27.967364177831083"><ele>308.0</ele><time>2026-04-29T10:37:09.999Z</time></trkpt><trkpt lat="43.27133836481048" lon="27.96747916775019"><ele>308.0</ele><time>2026-04-29T10:37:11.999Z</time></trkpt><trkpt lat="43.271241608115915" lon="27.967529059191357"><ele>308.0</ele><time>2026-04-29T10:37:14.999Z</time></trkpt><trkpt lat="43.271189108417865" lon="27.96758305697252"><ele>308.0</ele><time>2026-04-29T10:37:15.999Z</time></trkpt><trkpt lat="43.27112921531528" lon="27.967645756796877"><ele>308.0</ele><time>2026-04-29T10:37:16.999Z</time></trkpt><trkpt lat="43.27105517964698" lon="27.967703898989246"><ele>308.0</ele><time>2026-04-29T10:37:17.999Z</time></trkpt><trkpt lat="43.27097803183212" lon="27.967767022249177"><ele>308.0</ele><time>2026-04-29T10:37:18.999Z</time></trkpt><trkpt lat="43.270909026711394" lon="27.967840939753"><ele>308.0</ele><time>2026-04-29T10:37:19.999Z</time></trkpt><trkpt lat="43.27083952287284" lon="27.96791589396018"><ele>308.0</ele><time>2026-04-29T10:37:20.999Z</time></trkpt><trkpt lat="43.27077227781228" lon="27.96798844793872"><ele>308.0</ele><time>2026-04-29T10:37:21.999Z</time></trkpt><trkpt lat="43.27070009691836" lon="27.968066444595493"><ele>308.0</ele><time>2026-04-29T10:37:22.999Z</time></trkpt><trkpt lat="43.270628824404255" lon="27.96814300699358"><ele>308.0</ele><time>2026-04-29T10:37:23.999Z</time></trkpt><trkpt lat="43.27055917920513" lon="27.968219327355776"><ele>308.0</ele><time>2026-04-29T10:37:24.999Z</time></trkpt><trkpt lat="43.270482462615334" lon="27.968304259350074"><ele>308.0</ele><time>2026-04-29T10:37:25.999Z</time></trkpt><trkpt lat="43.270412833384036" lon="27.96838144935738"><ele>308.0</ele><time>2026-04-29T10:37:26.999Z</time></trkpt><trkpt lat="43.27034720820793" lon="27.96845422573973"><ele>308.0</ele><time>2026-04-29T10:37:27.999Z</time></trkpt><trkpt lat="43.27028142772384" lon="27.96853692523633"><ele>308.0</ele><time>2026-04-29T10:37:28.999Z</time></trkpt><trkpt lat="43.270215704986576" lon="27.968610122969796"><ele>308.0</ele><time>2026-04-29T10:37:29.999Z</time></trkpt><trkpt lat="43.270164881128665" lon="27.96866898662311"><ele>307.0</ele><time>2026-04-29T10:37:30.999Z</time></trkpt><trkpt lat="43.27006826302582" lon="27.96877995535023"><ele>306.0</ele><time>2026-04-29T10:37:32.999Z</time></trkpt><trkpt lat="43.270013589642836" lon="27.96882452846779"><ele>305.0</ele><time>2026-04-29T10:37:33.999Z</time></trkpt><trkpt lat="43.269942178441276" lon="27.968881892005818"><ele>304.0</ele><time>2026-04-29T10:37:35.999Z</time></trkpt><trkpt lat="43.269874116195346" lon="27.96893550945054"><ele>303.0</ele><time>2026-04-29T10:37:38.999Z</time></trkpt><trkpt lat="43.26994495394256" lon="27.968905961839656"><ele>302.0</ele><time>2026-04-29T10:37:58.998Z</time></trkpt><trkpt lat="43.270030824568515" lon="27.96885156742797"><ele>302.0</ele><time>2026-04-29T10:38:00.998Z</time></trkpt><trkpt lat="43.270103123759775" lon="27.96874843016404"><ele>302.0</ele><time>2026-04-29T10:38:02.998Z</time></trkpt><trkpt lat="43.270202750290146" lon="27.968638867241296"><ele>302.0</ele><time>2026-04-29T10:38:04.998Z</time></trkpt><trkpt lat="43.27026019299845" lon="27.968568173826302"><ele>302.0</ele><time>2026-04-29T10:38:06Z</time></trkpt><trkpt lat="43.270325196186825" lon="27.96848652320738"><ele>302.0</ele><time>2026-04-29T10:38:07Z</time></trkpt><trkpt lat="43.27038466529485" lon="27.96842473185465"><ele>302.0</ele><time>2026-04-29T10:38:08Z</time></trkpt><trkpt lat="43.27045142681743" lon="27.968364262388626"><ele>302.0</ele><time>2026-04-29T10:38:09Z</time></trkpt><trkpt lat="43.27052149793415" lon="27.968300781626713"><ele>302.0</ele><time>2026-04-29T10:38:10Z</time></trkpt><trkpt lat="43.27058566382158" lon="27.968225308584667"><ele>302.0</ele><time>2026-04-29T10:38:11Z</time></trkpt><trkpt lat="43.27065295779705" lon="27.968150321455635"><ele>302.0</ele><time>2026-04-29T10:38:12Z</time></trkpt><trkpt lat="43.27072414994799" lon="27.96807489296523"><ele>302.0</ele><time>2026-04-29T10:38:13Z</time></trkpt><trkpt lat="43.2707908751723" lon="27.967998731917266"><ele>302.0</ele><time>2026-04-29T10:38:14Z</time></trkpt><trkpt lat="43.27086052443719" lon="27.96792481585995"><ele>302.0</ele><time>2026-04-29T10:38:15Z</time></trkpt><trkpt lat="43.27092760337083" lon="27.967855807884863"><ele>302.0</ele><time>2026-04-29T10:38:16Z</time></trkpt><trkpt lat="43.270992705728005" lon="27.96779362609813"><ele>302.0</ele><time>2026-04-29T10:38:17Z</time></trkpt><trkpt lat="43.27105477949102" lon="27.967718942559596"><ele>302.0</ele><time>2026-04-29T10:38:18Z</time></trkpt><trkpt lat="43.27111167192058" lon="27.96765449702485"><ele>302.0</ele><time>2026-04-29T10:38:19Z</time></trkpt><trkpt lat="43.27117078044425" lon="27.967607315042056"><ele>302.0</ele><time>2026-04-29T10:38:20Z</time></trkpt><trkpt lat="43.271255019312754" lon="27.96754479393468"><ele>302.0</ele><time>2026-04-29T10:38:22Z</time></trkpt><trkpt lat="43.27128140757487" lon="27.967451713842728"><ele>302.0</ele><time>2026-04-29T10:38:25Z</time></trkpt><trkpt lat="43.271239463644605" lon="27.967310625381888"><ele>302.0</ele><time>2026-04-29T10:38:27Z</time></trkpt><trkpt lat="43.27119042936101" lon="27.96722963641942"><ele>302.0</ele><time>2026-04-29T10:38:28Z</time></trkpt><trkpt lat="43.271135049431095" lon="27.96713334111094"><ele>302.0</ele><time>2026-04-29T10:38:29Z</time></trkpt><trkpt lat="43.2710824216431" lon="27.967028059971106"><ele>303.2</ele><time>2026-04-29T10:38:30Z</time></trkpt><trkpt lat="43.27102469514791" lon="27.96691556893175"><ele>304.4</ele><time>2026-04-29T10:38:31Z</time></trkpt><trkpt lat="43.27096165522848" lon="27.966805505353182"><ele>305.6</ele><time>2026-04-29T10:38:32Z</time></trkpt><trkpt lat="43.27091406865886" lon="27.966691445605232"><ele>306.8</ele><time>2026-04-29T10:38:33Z</time></trkpt><trkpt lat="43.2708603300754" lon="27.96659991095674"><ele>308.0</ele><time>2026-04-29T10:38:34Z</time></trkpt><trkpt lat="43.27081639332025" lon="27.96650792065921"><ele>309.0</ele><time>2026-04-29T10:38:35Z</time></trkpt><trkpt lat="43.2707761765557" lon="27.966424858371244"><ele>310.0</ele><time>2026-04-29T10:38:36Z</time></trkpt><trkpt lat="43.27073731454276" lon="27.96634491910015"><ele>311.0</ele><time>2026-04-29T10:38:37Z</time></trkpt><trkpt lat="43.270679438562155" lon="27.966233042499724"><ele>312.0</ele><time>2026-04-29T10:38:39Z</time></trkpt><trkpt lat="43.27053147511184" lon="27.96627747999839"><ele>313.0</ele><time>2026-04-29T10:38:44Z</time></trkpt><trkpt lat="43.27047684169289" lon="27.966345594870415"><ele>313.0</ele><time>2026-04-29T10:38:45Z</time></trkpt><trkpt lat="43.27040885398585" lon="27.966393173085255"><ele>313.0</ele><time>2026-04-29T10:38:46Z</time></trkpt><trkpt lat="43.27036103509002" lon="27.966469659164083"><ele>313.0</ele><time>2026-04-29T10:38:47Z</time></trkpt><trkpt lat="43.27030143640285" lon="27.966538596606703"><ele>313.0</ele><time>2026-04-29T10:38:48Z</time></trkpt><trkpt lat="43.270241563329414" lon="27.966584064780818"><ele>313.0</ele><time>2026-04-29T10:38:48.999Z</time></trkpt><trkpt lat="43.27015482578163" lon="27.966678245118505"><ele>313.0</ele><time>2026-04-29T10:38:50.999Z</time></trkpt><trkpt lat="43.27003980957512" lon="27.966708007380582"><ele>313.0</ele><time>2026-04-29T10:38:52.999Z</time></trkpt><trkpt lat="43.269925032083286" lon="27.96670014991017"><ele>313.0</ele><time>2026-04-29T10:38:54.999Z</time></trkpt><trkpt lat="43.269861553988314" lon="27.966707443515954"><ele>313.0</ele><time>2026-04-29T10:38:56.999Z</time></trkpt><trkpt lat="43.26977390978953" lon="27.966886729804827"><ele>313.0</ele><time>2026-04-29T10:38:58.999Z</time></trkpt><trkpt lat="43.26971364493363" lon="27.96694727091064"><ele>313.0</ele><time>2026-04-29T10:38:59.999Z</time></trkpt><trkpt lat="43.269649514673766" lon="27.967006916165975"><ele>313.16666666666663</ele><time>2026-04-29T10:39:00.999Z</time></trkpt><trkpt lat="43.26958162442495" lon="27.967061381453004"><ele>313.3333333333333</ele><time>2026-04-29T10:39:01.999Z</time></trkpt><trkpt lat="43.269522127828125" lon="27.96713349173038"><ele>313.5</ele><time>2026-04-29T10:39:02.999Z</time></trkpt><trkpt lat="43.26945450830975" lon="27.967198209970384"><ele>313.6666666666667</ele><time>2026-04-29T10:39:03.999Z</time></trkpt><trkpt lat="43.26938113678346" lon="27.96726434063361"><ele>313.83333333333337</ele><time>2026-04-29T10:39:04.999Z</time></trkpt><trkpt lat="43.269313565705716" lon="27.96733855119238"><ele>314.0</ele><time>2026-04-29T10:39:05.999Z</time></trkpt><trkpt lat="43.26924273086845" lon="27.967399755377524"><ele>313.99999999999994</ele><time>2026-04-29T10:39:06.999Z</time></trkpt><trkpt lat="43.269184777982446" lon="27.967466985481227"><ele>314.0</ele><time>2026-04-29T10:39:07.999Z</time></trkpt><trkpt lat="43.26912578047272" lon="27.96752490953575"><ele>314.0</ele><time>2026-04-29T10:39:08.999Z</time></trkpt><trkpt lat="43.269073924187246" lon="27.967593391194235"><ele>314.0</ele><time>2026-04-29T10:39:09.999Z</time></trkpt><trkpt lat="43.269021958244835" lon="27.967647434734875"><ele>314.0</ele><time>2026-04-29T10:39:10.999Z</time></trkpt><trkpt lat="43.26896410412243" lon="27.9677145275518"><ele>313.99999999999994</ele><time>2026-04-29T10:39:11.999Z</time></trkpt><trkpt lat="43.26890822282908" lon="27.96778215129896"><ele>314.0</ele><time>2026-04-29T10:39:12.999Z</time></trkpt><trkpt lat="43.26885137638035" lon="27.96784609302185"><ele>313.59999999999997</ele><time>2026-04-29T10:39:13.999Z</time></trkpt><trkpt lat="43.26878399497799" lon="27.967927306376733"><ele>313.2</ele><time>2026-04-29T10:39:14.999Z</time></trkpt><trkpt lat="43.268705097749944" lon="27.96800305487131"><ele>312.79999999999995</ele><time>2026-04-29T10:39:15.999Z</time></trkpt><trkpt lat="43.26862704664906" lon="27.968085787689027"><ele>312.4</ele><time>2026-04-29T10:39:16.999Z</time></trkpt><trkpt lat="43.268539886266375" lon="27.968174309063816"><ele>312.0</ele><time>2026-04-29T10:39:17.999Z</time></trkpt><trkpt lat="43.26845760430013" lon="27.96826788768334"><ele>312.0</ele><time>2026-04-29T10:39:18.999Z</time></trkpt><trkpt lat="43.268381022744016" lon="27.96835601047825"><ele>312.0</ele><time>2026-04-29T10:39:19.999Z</time></trkpt><trkpt lat="43.26831116329619" lon="27.968461839139827"><ele>312.0</ele><time>2026-04-29T10:39:20.999Z</time></trkpt><trkpt lat="43.26822261527842" lon="27.96852653668316"><ele>312.0</ele><time>2026-04-29T10:39:21.999Z</time></trkpt><trkpt lat="43.26814204819822" lon="27.96860961001012"><ele>312.0</ele><time>2026-04-29T10:39:22.999Z</time></trkpt><trkpt lat="43.26806318424291" lon="27.968690927282818"><ele>312.5</ele><time>2026-04-29T10:39:23.999Z</time></trkpt><trkpt lat="43.2679871314776" lon="27.968769157223324"><ele>313.0</ele><time>2026-04-29T10:39:24.999Z</time></trkpt><trkpt lat="43.267932856034676" lon="27.96883065952489"><ele>313.5</ele><time>2026-04-29T10:39:25.999Z</time></trkpt><trkpt lat="43.267872202934775" lon="27.968905555689165"><ele>314.0</ele><time>2026-04-29T10:39:26.999Z</time></trkpt><trkpt lat="43.267791180957104" lon="27.968969773233393"><ele>314.5</ele><time>2026-04-29T10:39:27.999Z</time></trkpt><trkpt lat="43.267714402871896" lon="27.96904826801907"><ele>315.0</ele><time>2026-04-29T10:39:28.999Z</time></trkpt><trkpt lat="43.267645357094885" lon="27.96915063756182"><ele>315.0</ele><time>2026-04-29T10:39:29.999Z</time></trkpt><trkpt lat="43.267579511631574" lon="27.969221155278493"><ele>315.0</ele><time>2026-04-29T10:39:30.999Z</time></trkpt><trkpt lat="43.267527759036106" lon="27.969271031609185"><ele>315.0</ele><time>2026-04-29T10:39:31.999Z</time></trkpt><trkpt lat="43.26745205668811" lon="27.969338793990005"><ele>315.0</ele><time>2026-04-29T10:39:33.999Z</time></trkpt><trkpt lat="43.267404764410806" lon="27.969408292045628"><ele>315.0</ele><time>2026-04-29T10:39:35.999Z</time></trkpt><trkpt lat="43.26734631891688" lon="27.969475887159092"><ele>315.0</ele><time>2026-04-29T10:39:38.999Z</time></trkpt><trkpt lat="43.26727726514444" lon="27.969536418251597"><ele>315.0</ele><time>2026-04-29T10:39:50.998Z</time></trkpt><trkpt lat="43.26721092958315" lon="27.96959927792199"><ele>315.0</ele><time>2026-04-29T10:39:52.998Z</time></trkpt><trkpt lat="43.26712564916647" lon="27.96970598821589"><ele>315.0</ele><time>2026-04-29T10:39:55.998Z</time></trkpt><trkpt lat="43.267071420048815" lon="27.96977000117271"><ele>315.0</ele><time>2026-04-29T10:39:56.998Z</time></trkpt><trkpt lat="43.267012244284125" lon="27.96984301135135"><ele>315.0</ele><time>2026-04-29T10:39:57.998Z</time></trkpt><trkpt lat="43.26693889636775" lon="27.96993509621728"><ele>315.0</ele><time>2026-04-29T10:39:58.998Z</time></trkpt><trkpt lat="43.26685752004288" lon="27.9700372605698"><ele>315.0</ele><time>2026-04-29T10:39:59.998Z</time></trkpt><trkpt lat="43.26678021771227" lon="27.970134310059603"><ele>315.0</ele><time>2026-04-29T10:40:00.998Z</time></trkpt><trkpt lat="43.26669968634672" lon="27.970235811852522"><ele>315.0</ele><time>2026-04-29T10:40:01.998Z</time></trkpt><trkpt lat="43.26661691445047" lon="27.970340239146008"><ele>315.0</ele><time>2026-04-29T10:40:02.998Z</time></trkpt><trkpt lat="43.2665324473735" lon="27.97044644963331"><ele>315.0</ele><time>2026-04-29T10:40:03.998Z</time></trkpt><trkpt lat="43.26644426154815" lon="27.970556670714114"><ele>315.0</ele><time>2026-04-29T10:40:04.998Z</time></trkpt><trkpt lat="43.26635908768615" lon="27.970663126686947"><ele>315.0</ele><time>2026-04-29T10:40:05.998Z</time></trkpt><trkpt lat="43.26626428233284" lon="27.970775062292812"><ele>315.0</ele><time>2026-04-29T10:40:06.998Z</time></trkpt><trkpt lat="43.26617036540735" lon="27.970886659052773"><ele>315.0</ele><time>2026-04-29T10:40:07.998Z</time></trkpt><trkpt lat="43.26606360484861" lon="27.97101351703101"><ele>314.0</ele><time>2026-04-29T10:40:08.998Z</time></trkpt><trkpt lat="43.26596767085529" lon="27.97112751035679"><ele>313.0</ele><time>2026-04-29T10:40:09.998Z</time></trkpt><trkpt lat="43.26587750709401" lon="27.97123455916009"><ele>312.0</ele><time>2026-04-29T10:40:10.998Z</time></trkpt><trkpt lat="43.26577826432059" lon="27.971352312243077"><ele>311.0</ele><time>2026-04-29T10:40:12Z</time></trkpt><trkpt lat="43.2656824636347" lon="27.97146598095785"><ele>311.0</ele><time>2026-04-29T10:40:13Z</time></trkpt><trkpt lat="43.26557901750298" lon="27.971587093147157"><ele>311.0</ele><time>2026-04-29T10:40:14Z</time></trkpt><trkpt lat="43.265469552078116" lon="27.97171034621853"><ele>311.0</ele><time>2026-04-29T10:40:15Z</time></trkpt><trkpt lat="43.26535385561137" lon="27.971841504045504"><ele>311.0</ele><time>2026-04-29T10:40:16Z</time></trkpt><trkpt lat="43.26525606860869" lon="27.97195776228193"><ele>311.0</ele><time>2026-04-29T10:40:17Z</time></trkpt><trkpt lat="43.26516715832083" lon="27.972065630709235"><ele>311.0</ele><time>2026-04-29T10:40:18Z</time></trkpt><trkpt lat="43.26506973930937" lon="27.972183822633394"><ele>311.0</ele><time>2026-04-29T10:40:19Z</time></trkpt><trkpt lat="43.264972493591635" lon="27.97230180423759"><ele>311.0</ele><time>2026-04-29T10:40:20Z</time></trkpt><trkpt lat="43.26487356610027" lon="27.972421378115406"><ele>310.5</ele><time>2026-04-29T10:40:21Z</time></trkpt><trkpt lat="43.264789912577065" lon="27.972524309940095"><ele>310.0</ele><time>2026-04-29T10:40:22Z</time></trkpt><trkpt lat="43.264702504810074" lon="27.972634790623758"><ele>309.5</ele><time>2026-04-29T10:40:23Z</time></trkpt><trkpt lat="43.26461625810926" lon="27.972743803764676"><ele>309.0</ele><time>2026-04-29T10:40:24Z</time></trkpt><trkpt lat="43.26453436411999" lon="27.97284731521523"><ele>308.75</ele><time>2026-04-29T10:40:25Z</time></trkpt><trkpt lat="43.2644464396186" lon="27.972954948064068"><ele>308.5</ele><time>2026-04-29T10:40:26Z</time></trkpt><trkpt lat="43.26435689067623" lon="27.97306287271349"><ele>308.25</ele><time>2026-04-29T10:40:27Z</time></trkpt><trkpt lat="43.26426358928164" lon="27.97317477949523"><ele>308.0</ele><time>2026-04-29T10:40:28Z</time></trkpt><trkpt lat="43.2641729041696" lon="27.973284873325362"><ele>307.75</ele><time>2026-04-29T10:40:29Z</time></trkpt><trkpt lat="43.26407536774974" lon="27.97337475432929"><ele>307.5</ele><time>2026-04-29T10:40:30Z</time></trkpt><trkpt lat="43.26398937668467" lon="27.97345913670334"><ele>307.25</ele><time>2026-04-29T10:40:31Z</time></trkpt><trkpt lat="43.26389007841079" lon="27.973548034190035"><ele>307.0</ele><time>2026-04-29T10:40:32Z</time></trkpt><trkpt lat="43.26378871536265" lon="27.973629539206787"><ele>306.25</ele><time>2026-04-29T10:40:33Z</time></trkpt><trkpt lat="43.26367625076744" lon="27.973681625249814"><ele>305.5</ele><time>2026-04-29T10:40:34Z</time></trkpt><trkpt lat="43.26355474812255" lon="27.973658824092876"><ele>304.75</ele><time>2026-04-29T10:40:35Z</time></trkpt><trkpt lat="43.26343132461557" lon="27.97368974688528"><ele>304.0</ele><time>2026-04-29T10:40:36Z</time></trkpt><trkpt lat="43.26330101569976" lon="27.973704686575864"><ele>304.0</ele><time>2026-04-29T10:40:37Z</time></trkpt><trkpt lat="43.263173046334934" lon="27.973720355154974"><ele>304.0</ele><time>2026-04-29T10:40:38Z</time></trkpt><trkpt lat="43.263051631677094" lon="27.973735972481382"><ele>304.0</ele><time>2026-04-29T10:40:39Z</time></trkpt><trkpt lat="43.2629212344249" lon="27.97373480390538"><ele>304.0</ele><time>2026-04-29T10:40:40Z</time></trkpt><trkpt lat="43.26281125633419" lon="27.97377104425602"><ele>303.25</ele><time>2026-04-29T10:40:41Z</time></trkpt><trkpt lat="43.262690798444034" lon="27.973787184772586"><ele>302.5</ele><time>2026-04-29T10:40:42Z</time></trkpt><trkpt lat="43.262562572153605" lon="27.973815890226767"><ele>301.75</ele><time>2026-04-29T10:40:43Z</time></trkpt><trkpt lat="43.26244786580421" lon="27.973844774201176"><ele>301.0</ele><time>2026-04-29T10:40:44Z</time></trkpt><trkpt lat="43.26233026651276" lon="27.973881829299625"><ele>300.8</ele><time>2026-04-29T10:40:45Z</time></trkpt><trkpt lat="43.262240073991215" lon="27.973943331607778"><ele>300.6</ele><time>2026-04-29T10:40:46Z</time></trkpt><trkpt lat="43.26216731785001" lon="27.97400311522107"><ele>300.4</ele><time>2026-04-29T10:40:47Z</time></trkpt><trkpt lat="43.26208917397181" lon="27.974108433031127"><ele>300.2</ele><time>2026-04-29T10:40:48Z</time></trkpt><trkpt lat="43.26199890713812" lon="27.97416733133464"><ele>300.0</ele><time>2026-04-29T10:40:49Z</time></trkpt><trkpt lat="43.261908164868736" lon="27.97423130591379"><ele>300.0</ele><time>2026-04-29T10:40:50Z</time></trkpt><trkpt lat="43.261806401789066" lon="27.97423644035842"><ele>300.0</ele><time>2026-04-29T10:40:51Z</time></trkpt><trkpt lat="43.26170921643272" lon="27.974265584084616"><ele>300.0</ele><time>2026-04-29T10:40:52Z</time></trkpt><trkpt lat="43.2615974684368" lon="27.9743008909796"><ele>300.0</ele><time>2026-04-29T10:40:53Z</time></trkpt><trkpt lat="43.26150200370041" lon="27.974357108335287"><ele>300.0</ele><time>2026-04-29T10:40:54Z</time></trkpt><trkpt lat="43.261414358547206" lon="27.97440872030024"><ele>299.1666666666667</ele><time>2026-04-29T10:40:54.999Z</time></trkpt><trkpt lat="43.261344711588464" lon="27.974490160118517"><ele>298.3333333333333</ele><time>2026-04-29T10:40:55.999Z</time></trkpt><trkpt lat="43.26128099861884" lon="27.974522562386635"><ele>297.5</ele><time>2026-04-29T10:40:56.999Z</time></trkpt><trkpt lat="43.26119881716021" lon="27.97452615974204"><ele>296.66666666666663</ele><time>2026-04-29T10:40:58.999Z</time></trkpt><trkpt lat="43.26110901401201" lon="27.974521497299186"><ele>295.8333333333333</ele><time>2026-04-29T10:41:05.999Z</time></trkpt><trkpt lat="43.26103577813013" lon="27.97455084052035"><ele>295.0</ele><time>2026-04-29T10:41:08.999Z</time></trkpt><trkpt lat="43.26092892568773" lon="27.974608803614267"><ele>295.0</ele><time>2026-04-29T10:41:10.999Z</time></trkpt><trkpt lat="43.26086351592964" lon="27.974634635663563"><ele>295.0</ele><time>2026-04-29T10:41:11.999Z</time></trkpt><trkpt lat="43.260738172029114" lon="27.974674134300013"><ele>295.0</ele><time>2026-04-29T10:41:13.999Z</time></trkpt><trkpt lat="43.26067559396804" lon="27.974692478205892"><ele>295.0</ele><time>2026-04-29T10:41:14.999Z</time></trkpt><trkpt lat="43.26060573405863" lon="27.974747399580284"><ele>295.0</ele><time>2026-04-29T10:41:15.999Z</time></trkpt><trkpt lat="43.26054275428895" lon="27.97482759994632"><ele>295.0</ele><time>2026-04-29T10:41:16.999Z</time></trkpt><trkpt lat="43.26042488291595" lon="27.974914844376613"><ele>294.14285714285717</ele><time>2026-04-29T10:41:18.999Z</time></trkpt><trkpt lat="43.26036524781385" lon="27.974983520318204"><ele>293.2857142857143</ele><time>2026-04-29T10:41:19.999Z</time></trkpt><trkpt lat="43.26029632457508" lon="27.975024940189773"><ele>292.42857142857144</ele><time>2026-04-29T10:41:20.999Z</time></trkpt><trkpt lat="43.26023165890612" lon="27.975059139997555"><ele>291.57142857142856</ele><time>2026-04-29T10:41:21.999Z</time></trkpt><trkpt lat="43.260160417570056" lon="27.975115029878857"><ele>290.7142857142857</ele><time>2026-04-29T10:41:22.999Z</time></trkpt><trkpt lat="43.260100095222214" lon="27.975174953385277"><ele>289.8571428571429</ele><time>2026-04-29T10:41:23.999Z</time></trkpt><trkpt lat="43.26003747969304" lon="27.975204773315614"><ele>289.0</ele><time>2026-04-29T10:41:24.999Z</time></trkpt><trkpt lat="43.25998691547783" lon="27.9752690287682"><ele>289.0</ele><time>2026-04-29T10:41:25.999Z</time></trkpt><trkpt lat="43.25994817206045" lon="27.975346796426223"><ele>289.0</ele><time>2026-04-29T10:41:26.999Z</time></trkpt><trkpt lat="43.25989832588339" lon="27.97545044430994"><ele>289.0</ele><time>2026-04-29T10:41:27.999Z</time></trkpt><trkpt lat="43.25983695221187" lon="27.975518091219865"><ele>289.0</ele><time>2026-04-29T10:41:28.999Z</time></trkpt><trkpt lat="43.25978129123905" lon="27.975595793294012"><ele>289.0</ele><time>2026-04-29T10:41:29.999Z</time></trkpt><trkpt lat="43.25974042835515" lon="27.975681496327805"><ele>289.0</ele><time>2026-04-29T10:41:30.999Z</time></trkpt><trkpt lat="43.25969137539905" lon="27.97573960513765"><ele>287.8</ele><time>2026-04-29T10:41:31.999Z</time></trkpt><trkpt lat="43.259616051052994" lon="27.9758490337397"><ele>286.59999999999997</ele><time>2026-04-29T10:41:33.999Z</time></trkpt><trkpt lat="43.25954603632409" lon="27.97583413290897"><ele>285.4</ele><time>2026-04-29T10:41:34.999Z</time></trkpt><trkpt lat="43.25945588425228" lon="27.975907466886472"><ele>284.2</ele><time>2026-04-29T10:41:36.999Z</time></trkpt><trkpt lat="43.25934498374628" lon="27.975966931510257"><ele>283.0</ele><time>2026-04-29T10:41:38.999Z</time></trkpt><trkpt lat="43.2592802243754" lon="27.975994183939118"><ele>282.6</ele><time>2026-04-29T10:41:39.999Z</time></trkpt><trkpt lat="43.25917183614874" lon="27.97607274606166"><ele>282.20000000000005</ele><time>2026-04-29T10:41:41.999Z</time></trkpt><trkpt lat="43.25908755411458" lon="27.97613271329137"><ele>281.8</ele><time>2026-04-29T10:41:43.999Z</time></trkpt><trkpt lat="43.25898605887387" lon="27.976215905141693"><ele>281.40000000000003</ele><time>2026-04-29T10:41:45.999Z</time></trkpt><trkpt lat="43.25892678272764" lon="27.976264527741915"><ele>281.0</ele><time>2026-04-29T10:41:46.999Z</time></trkpt><trkpt lat="43.258864989601356" lon="27.97631541156423"><ele>280.5</ele><time>2026-04-29T10:41:47.999Z</time></trkpt><trkpt lat="43.258804363595175" lon="27.976375450089833"><ele>280.0</ele><time>2026-04-29T10:41:48.999Z</time></trkpt><trkpt lat="43.25874449680778" lon="27.976437466165766"><ele>279.5</ele><time>2026-04-29T10:41:49.998Z</time></trkpt><trkpt lat="43.25867546299928" lon="27.976482424127994"><ele>279.0</ele><time>2026-04-29T10:41:50.998Z</time></trkpt><trkpt lat="43.25857777734064" lon="27.976573697890682"><ele>278.5</ele><time>2026-04-29T10:41:52.998Z</time></trkpt><trkpt lat="43.258525579528644" lon="27.97662844239393"><ele>278.0</ele><time>2026-04-29T10:41:53.998Z</time></trkpt><trkpt lat="43.258462872747764" lon="27.97669401027608"><ele>277.57142857142856</ele><time>2026-04-29T10:41:54.998Z</time></trkpt><trkpt lat="43.25839989067776" lon="27.976750045249304"><ele>277.14285714285717</ele><time>2026-04-29T10:41:55.998Z</time></trkpt><trkpt lat="43.25833898264049" lon="27.976810830502664"><ele>276.7142857142857</ele><time>2026-04-29T10:41:56.998Z</time></trkpt><trkpt lat="43.25828175135184" lon="27.976875370822274"><ele>276.2857142857143</ele><time>2026-04-29T10:41:57.998Z</time></trkpt><trkpt lat="43.25822617646449" lon="27.97691607497481"><ele>275.85714285714283</ele><time>2026-04-29T10:41:58.998Z</time></trkpt><trkpt lat="43.258166892464764" lon="27.976947169943568"><ele>275.42857142857144</ele><time>2026-04-29T10:42:00.998Z</time></trkpt><trkpt lat="43.258122109588996" lon="27.97684973104568"><ele>275.0</ele><time>2026-04-29T10:42:01.998Z</time></trkpt><trkpt lat="43.25807692573593" lon="27.97678394827289"><ele>274.8</ele><time>2026-04-29T10:42:02.998Z</time></trkpt><trkpt lat="43.25802221474826" lon="27.97670429503971"><ele>274.6</ele><time>2026-04-29T10:42:03.998Z</time></trkpt><trkpt lat="43.25795694663773" lon="27.976615339944857"><ele>274.4</ele><time>2026-04-29T10:42:04.998Z</time></trkpt><trkpt lat="43.257889045874684" lon="27.976504120449405"><ele>274.2</ele><time>2026-04-29T10:42:05.998Z</time></trkpt><trkpt lat="43.25781668480629" lon="27.976379422253796"><ele>274.0</ele><time>2026-04-29T10:42:06.998Z</time></trkpt><trkpt lat="43.25777092553956" lon="27.976225481194344"><ele>275.0</ele><time>2026-04-29T10:42:07.998Z</time></trkpt><trkpt lat="43.257715031631314" lon="27.97607471758752"><ele>276.0</ele><time>2026-04-29T10:42:08.998Z</time></trkpt><trkpt lat="43.25765684827812" lon="27.975917551427223"><ele>277.0</ele><time>2026-04-29T10:42:09.998Z</time></trkpt><trkpt lat="43.25759849299984" lon="27.97576086162875"><ele>278.0</ele><time>2026-04-29T10:42:10.998Z</time></trkpt><trkpt lat="43.25754189938681" lon="27.975608902048187"><ele>278.4</ele><time>2026-04-29T10:42:11.998Z</time></trkpt><trkpt lat="43.25748660825748" lon="27.975460439891574"><ele>278.8</ele><time>2026-04-29T10:42:12.998Z</time></trkpt><trkpt lat="43.257438974260346" lon="27.975332400791885"><ele>279.2</ele><time>2026-04-29T10:42:13.998Z</time></trkpt><trkpt lat="43.25736329143696" lon="27.975232710243212"><ele>279.6</ele><time>2026-04-29T10:42:14.998Z</time></trkpt><trkpt lat="43.257284516164454" lon="27.975116361335893"><ele>280.0</ele><time>2026-04-29T10:42:15.998Z</time></trkpt><trkpt lat="43.25720282292385" lon="27.975001696722885"><ele>281.0</ele><time>2026-04-29T10:42:16.998Z</time></trkpt><trkpt lat="43.257134605045664" lon="27.974869344871127"><ele>282.0</ele><time>2026-04-29T10:42:18Z</time></trkpt><trkpt lat="43.25705493441338" lon="27.97474034649852"><ele>283.0</ele><time>2026-04-29T10:42:19Z</time></trkpt><trkpt lat="43.2569715381222" lon="27.974606246427193"><ele>284.0</ele><time>2026-04-29T10:42:20Z</time></trkpt><trkpt lat="43.256881149467254" lon="27.97447009048543"><ele>284.0</ele><time>2026-04-29T10:42:21Z</time></trkpt><trkpt lat="43.25678266979193" lon="27.97433472437565"><ele>284.0</ele><time>2026-04-29T10:42:22Z</time></trkpt><trkpt lat="43.25668452416503" lon="27.97420912570098"><ele>284.0</ele><time>2026-04-29T10:42:23Z</time></trkpt><trkpt lat="43.25658557471876" lon="27.974083772318256"><ele>284.0</ele><time>2026-04-29T10:42:24Z</time></trkpt><trkpt lat="43.256484355101044" lon="27.97395488778251"><ele>284.5</ele><time>2026-04-29T10:42:25Z</time></trkpt><trkpt lat="43.256379416373214" lon="27.973821014980413"><ele>285.0</ele><time>2026-04-29T10:42:26Z</time></trkpt><trkpt lat="43.256271212805544" lon="27.97368297716546"><ele>285.5</ele><time>2026-04-29T10:42:27Z</time></trkpt><trkpt lat="43.256159092252794" lon="27.973539942815098"><ele>286.0</ele><time>2026-04-29T10:42:28Z</time></trkpt><trkpt lat="43.256044287754925" lon="27.97339181146419"><ele>285.3333333333333</ele><time>2026-04-29T10:42:29Z</time></trkpt><trkpt lat="43.25591716159486" lon="27.973253675768177"><ele>284.6666666666667</ele><time>2026-04-29T10:42:30Z</time></trkpt><trkpt lat="43.25580587868601" lon="27.973091142212983"><ele>284.0</ele><time>2026-04-29T10:42:31Z</time></trkpt><trkpt lat="43.255689802524046" lon="27.97293213619407"><ele>284.6666666666667</ele><time>2026-04-29T10:42:32Z</time></trkpt><trkpt lat="43.25557791845535" lon="27.972775848499623"><ele>285.3333333333333</ele><time>2026-04-29T10:42:33Z</time></trkpt><trkpt lat="43.25548143079672" lon="27.972605460241923"><ele>286.0</ele><time>2026-04-29T10:42:34Z</time></trkpt><trkpt lat="43.25537587068712" lon="27.972451069378156"><ele>286.0</ele><time>2026-04-29T10:42:35Z</time></trkpt><trkpt lat="43.2552722324221" lon="27.97229948931763"><ele>286.0</ele><time>2026-04-29T10:42:36Z</time></trkpt><trkpt lat="43.25516903514986" lon="27.972148424460016"><ele>286.0</ele><time>2026-04-29T10:42:37Z</time></trkpt><trkpt lat="43.2550675283158" lon="27.971999463560174"><ele>286.0</ele><time>2026-04-29T10:42:38Z</time></trkpt><trkpt lat="43.254964301091995" lon="27.971850456245274"><ele>286.0</ele><time>2026-04-29T10:42:39Z</time></trkpt><trkpt lat="43.2548615679872" lon="27.971704118016227"><ele>286.0</ele><time>2026-04-29T10:42:40Z</time></trkpt><trkpt lat="43.25476019308088" lon="27.971559448841642"><ele>286.0</ele><time>2026-04-29T10:42:41Z</time></trkpt><trkpt lat="43.254660593590096" lon="27.971416924922686"><ele>286.75</ele><time>2026-04-29T10:42:42Z</time></trkpt><trkpt lat="43.25456162511068" lon="27.97127534841461"><ele>287.5</ele><time>2026-04-29T10:42:43Z</time></trkpt><trkpt lat="43.254463634241006" lon="27.971136219499556"><ele>288.25</ele><time>2026-04-29T10:42:44Z</time></trkpt><trkpt lat="43.25436684772437" lon="27.97099815439482"><ele>289.0</ele><time>2026-04-29T10:42:45Z</time></trkpt><trkpt lat="43.25425883761267" lon="27.970874457246115"><ele>290.25</ele><time>2026-04-29T10:42:46Z</time></trkpt><trkpt lat="43.25420223111861" lon="27.970700773642605"><ele>291.5</ele><time>2026-04-29T10:42:47Z</time></trkpt><trkpt lat="43.254135451487414" lon="27.970536653751136"><ele>292.75</ele><time>2026-04-29T10:42:48Z</time></trkpt><trkpt lat="43.25406879491946" lon="27.97037283624714"><ele>294.0</ele><time>2026-04-29T10:42:49Z</time></trkpt><trkpt lat="43.25398968747179" lon="27.970213589863064"><ele>294.0</ele><time>2026-04-29T10:42:50Z</time></trkpt><trkpt lat="43.253927820812514" lon="27.9700393789825"><ele>294.0</ele><time>2026-04-29T10:42:51Z</time></trkpt><trkpt lat="43.25388570573008" lon="27.969861217506534"><ele>294.0</ele><time>2026-04-29T10:42:52Z</time></trkpt><trkpt lat="43.25378698804211" lon="27.969724487589765"><ele>294.0</ele><time>2026-04-29T10:42:53Z</time></trkpt><trkpt lat="43.25368685944691" lon="27.96960679869574"><ele>294.0</ele><time>2026-04-29T10:42:54Z</time></trkpt><trkpt lat="43.25357946757802" lon="27.96948946510252"><ele>294.0</ele><time>2026-04-29T10:42:55Z</time></trkpt><trkpt lat="43.25348497931691" lon="27.969344558809386"><ele>294.0</ele><time>2026-04-29T10:42:56Z</time></trkpt><trkpt lat="43.2533799057155" lon="27.969216608855515"><ele>294.0</ele><time>2026-04-29T10:42:57Z</time></trkpt><trkpt lat="43.253275116160715" lon="27.969087400136516"><ele>293.5</ele><time>2026-04-29T10:42:58Z</time></trkpt><trkpt lat="43.253167570249396" lon="27.968956964164217"><ele>293.0</ele><time>2026-04-29T10:42:59Z</time></trkpt><trkpt lat="43.25305983335621" lon="27.968824923680426"><ele>292.5</ele><time>2026-04-29T10:43:00Z</time></trkpt><trkpt lat="43.252951420665795" lon="27.968692054945752"><ele>292.0</ele><time>2026-04-29T10:43:01Z</time></trkpt><trkpt lat="43.25284297701892" lon="27.96855928186182"><ele>292.0</ele><time>2026-04-29T10:43:01.999Z</time></trkpt><trkpt lat="43.25273336129243" lon="27.968425001483816"><ele>292.0</ele><time>2026-04-29T10:43:02.999Z</time></trkpt><trkpt lat="43.25261866517555" lon="27.968297269472945"><ele>292.0</ele><time>2026-04-29T10:43:03.999Z</time></trkpt><trkpt lat="43.252530800371304" lon="27.96814798773213"><ele>292.0</ele><time>2026-04-29T10:43:04.999Z</time></trkpt><trkpt lat="43.25245502385453" lon="27.9680006656311"><ele>293.0</ele><time>2026-04-29T10:43:05.999Z</time></trkpt><trkpt lat="43.25239456707598" lon="27.96784361323292"><ele>294.0</ele><time>2026-04-29T10:43:06.999Z</time></trkpt><trkpt lat="43.25236945943981" lon="27.96767032787952"><ele>295.0</ele><time>2026-04-29T10:43:07.999Z</time></trkpt><trkpt lat="43.25234178501652" lon="27.96749398744372"><ele>296.0</ele><time>2026-04-29T10:43:08.999Z</time></trkpt><trkpt lat="43.252324065720586" lon="27.967315851086383"><ele>295.75</ele><time>2026-04-29T10:43:09.999Z</time></trkpt><trkpt lat="43.25230617220957" lon="27.967138920733873"><ele>295.5</ele><time>2026-04-29T10:43:10.999Z</time></trkpt><trkpt lat="43.25227484518632" lon="27.966968073533376"><ele>295.25</ele><time>2026-04-29T10:43:11.999Z</time></trkpt><trkpt lat="43.252271933674436" lon="27.96680037134644"><ele>295.0</ele><time>2026-04-29T10:43:12.999Z</time></trkpt><trkpt lat="43.25225625567588" lon="27.966644426832016"><ele>295.0</ele><time>2026-04-29T10:43:13.999Z</time></trkpt><trkpt lat="43.25223109165435" lon="27.966502220313366"><ele>295.0</ele><time>2026-04-29T10:43:14.999Z</time></trkpt><trkpt lat="43.252221317289845" lon="27.966376403812237"><ele>295.0</ele><time>2026-04-29T10:43:15.999Z</time></trkpt><trkpt lat="43.25221960113381" lon="27.96626718704379"><ele>295.0</ele><time>2026-04-29T10:43:16.999Z</time></trkpt><trkpt lat="43.25224172805241" lon="27.966178427554237"><ele>295.0</ele><time>2026-04-29T10:43:17.999Z</time></trkpt><trkpt lat="43.25224115356304" lon="27.966019348568494"><ele>295.0</ele><time>2026-04-29T10:43:19.999Z</time></trkpt><trkpt lat="43.252217649062665" lon="27.965930675824076"><ele>295.0</ele><time>2026-04-29T10:43:20.999Z</time></trkpt><trkpt lat="43.252147799334" lon="27.965855073122913"><ele>295.0</ele><time>2026-04-29T10:43:21.999Z</time></trkpt><trkpt lat="43.252077239224015" lon="27.965761447398265"><ele>295.0</ele><time>2026-04-29T10:43:22.999Z</time></trkpt><trkpt lat="43.251991876877156" lon="27.965648180644987"><ele>295.0</ele><time>2026-04-29T10:43:23.999Z</time></trkpt><trkpt lat="43.251900753104714" lon="27.96552763300622"><ele>295.25</ele><time>2026-04-29T10:43:24.999Z</time></trkpt><trkpt lat="43.251790528528595" lon="27.965410650381553"><ele>295.5</ele><time>2026-04-29T10:43:25.999Z</time></trkpt><trkpt lat="43.25167644484999" lon="27.9652979881309"><ele>295.75</ele><time>2026-04-29T10:43:26.999Z</time></trkpt><trkpt lat="43.25155805073442" lon="27.965181165615082"><ele>296.0</ele><time>2026-04-29T10:43:27.999Z</time></trkpt><trkpt lat="43.25143807917426" lon="27.965062984170345"><ele>298.0</ele><time>2026-04-29T10:43:28.999Z</time></trkpt><trkpt lat="43.25130749293234" lon="27.96496193224877"><ele>300.0</ele><time>2026-04-29T10:43:29.999Z</time></trkpt><trkpt lat="43.25119495211072" lon="27.9648218864267"><ele>302.0</ele><time>2026-04-29T10:43:30.999Z</time></trkpt><trkpt lat="43.25106282961107" lon="27.964717094111876"><ele>302.0</ele><time>2026-04-29T10:43:31.999Z</time></trkpt><trkpt lat="43.250946787711335" lon="27.964593632966317"><ele>302.0</ele><time>2026-04-29T10:43:32.999Z</time></trkpt><trkpt lat="43.25083788586205" lon="27.96448553119925"><ele>302.0</ele><time>2026-04-29T10:43:33.999Z</time></trkpt><trkpt lat="43.25072508831456" lon="27.96438555573941"><ele>302.0</ele><time>2026-04-29T10:43:34.999Z</time></trkpt><trkpt lat="43.250606854693814" lon="27.964294973936287"><ele>302.5</ele><time>2026-04-29T10:43:35.999Z</time></trkpt><trkpt lat="43.250481917798986" lon="27.964220429356644"><ele>303.0</ele><time>2026-04-29T10:43:36.999Z</time></trkpt><trkpt lat="43.250353145645406" lon="27.964157592729883"><ele>303.5</ele><time>2026-04-29T10:43:37.999Z</time></trkpt><trkpt lat="43.25022917247097" lon="27.96409039164807"><ele>304.0</ele><time>2026-04-29T10:43:38.999Z</time></trkpt><trkpt lat="43.2501048519168" lon="27.964029760148964"><ele>304.0</ele><time>2026-04-29T10:43:39.999Z</time></trkpt><trkpt lat="43.2499772628828" lon="27.963981256888637"><ele>304.0</ele><time>2026-04-29T10:43:40.999Z</time></trkpt><trkpt lat="43.249850419790114" lon="27.963921785333177"><ele>304.0</ele><time>2026-04-29T10:43:41.999Z</time></trkpt><trkpt lat="43.249721133147986" lon="27.96386001712003"><ele>304.0</ele><time>2026-04-29T10:43:42.999Z</time></trkpt><trkpt lat="43.249590882307984" lon="27.963799281998146"><ele>304.0</ele><time>2026-04-29T10:43:43.999Z</time></trkpt><trkpt lat="43.24945895527032" lon="27.963736987555336"><ele>304.0</ele><time>2026-04-29T10:43:44.999Z</time></trkpt><trkpt lat="43.249323484879156" lon="27.96367569636608"><ele>304.0</ele><time>2026-04-29T10:43:45.999Z</time></trkpt><trkpt lat="43.24919627760936" lon="27.963586798725025"><ele>304.0</ele><time>2026-04-29T10:43:46.999Z</time></trkpt><trkpt lat="43.24905937296499" lon="27.963521599998046"><ele>303.75</ele><time>2026-04-29T10:43:47.999Z</time></trkpt><trkpt lat="43.248927113663136" lon="27.96344477114327"><ele>303.5</ele><time>2026-04-29T10:43:48.999Z</time></trkpt><trkpt lat="43.24879418033476" lon="27.963361595864686"><ele>303.25</ele><time>2026-04-29T10:43:49.999Z</time></trkpt><trkpt lat="43.24867049088451" lon="27.963263047155817"><ele>303.0</ele><time>2026-04-29T10:43:50.999Z</time></trkpt><trkpt lat="43.2485481403218" lon="27.963148113137404"><ele>303.5</ele><time>2026-04-29T10:43:51.999Z</time></trkpt><trkpt lat="43.248429874297045" lon="27.963037016324446"><ele>304.0</ele><time>2026-04-29T10:43:52.999Z</time></trkpt><trkpt lat="43.248313287275124" lon="27.96294323312031"><ele>304.5</ele><time>2026-04-29T10:43:53.999Z</time></trkpt><trkpt lat="43.2482123294726" lon="27.962862160124445"><ele>305.0</ele><time>2026-04-29T10:43:54.999Z</time></trkpt><trkpt lat="43.248150402960576" lon="27.962773629920267"><ele>305.0</ele><time>2026-04-29T10:43:55.998Z</time></trkpt><trkpt lat="43.24809240672892" lon="27.962732543533463"><ele>305.0</ele><time>2026-04-29T10:43:56.998Z</time></trkpt><trkpt lat="43.24801755291899" lon="27.962670206640276"><ele>305.0</ele><time>2026-04-29T10:43:58.998Z</time></trkpt><trkpt lat="43.2480078922868" lon="27.962544910317426"><ele>305.0</ele><time>2026-04-29T10:43:59.998Z</time></trkpt><trkpt lat="43.24792649342594" lon="27.962536847853688"><ele>305.0</ele><time>2026-04-29T10:44:00.998Z</time></trkpt><trkpt lat="43.24784121167345" lon="27.962507864700456"><ele>305.0</ele><time>2026-04-29T10:44:01.998Z</time></trkpt><trkpt lat="43.24774293620717" lon="27.962476015097717"><ele>305.0</ele><time>2026-04-29T10:44:02.998Z</time></trkpt><trkpt lat="43.24763169732245" lon="27.962434753092804"><ele>305.0</ele><time>2026-04-29T10:44:03.998Z</time></trkpt><trkpt lat="43.24750948558561" lon="27.96238791200374"><ele>305.0</ele><time>2026-04-29T10:44:04.998Z</time></trkpt><trkpt lat="43.247387497930234" lon="27.962315924064875"><ele>305.0</ele><time>2026-04-29T10:44:05.998Z</time></trkpt><trkpt lat="43.24725875145271" lon="27.962260246709626"><ele>304.5</ele><time>2026-04-29T10:44:06.998Z</time></trkpt><trkpt lat="43.24711913410059" lon="27.962211920598655"><ele>304.0</ele><time>2026-04-29T10:44:07.998Z</time></trkpt><trkpt lat="43.24697558943565" lon="27.962170242047506"><ele>303.5</ele><time>2026-04-29T10:44:08.998Z</time></trkpt><trkpt lat="43.24683136494406" lon="27.962129412785494"><ele>303.0</ele><time>2026-04-29T10:44:09.998Z</time></trkpt><trkpt lat="43.24668634283313" lon="27.962090158386538"><ele>303.0</ele><time>2026-04-29T10:44:10.998Z</time></trkpt><trkpt lat="43.24653801390393" lon="27.96204962384966"><ele>303.0</ele><time>2026-04-29T10:44:11.998Z</time></trkpt><trkpt lat="43.24638855798435" lon="27.9620328813095"><ele>303.0</ele><time>2026-04-29T10:44:12.998Z</time></trkpt><trkpt lat="43.246243549599555" lon="27.961992628514803"><ele>303.0</ele><time>2026-04-29T10:44:13.998Z</time></trkpt><trkpt lat="43.246101409188725" lon="27.96192461859269"><ele>303.0</ele><time>2026-04-29T10:44:14.998Z</time></trkpt><trkpt lat="43.24595375315188" lon="27.96187906572187"><ele>303.0</ele><time>2026-04-29T10:44:15.998Z</time></trkpt><trkpt lat="43.24580558262093" lon="27.96183316102466"><ele>303.0</ele><time>2026-04-29T10:44:16.998Z</time></trkpt><trkpt lat="43.24565515974431" lon="27.961795228773315"><ele>303.0</ele><time>2026-04-29T10:44:17.998Z</time></trkpt><trkpt lat="43.24550715718856" lon="27.96177771684714"><ele>303.0</ele><time>2026-04-29T10:44:18.998Z</time></trkpt><trkpt lat="43.24536503916506" lon="27.961742237001666"><ele>303.0</ele><time>2026-04-29T10:44:19.998Z</time></trkpt><trkpt lat="43.245236329679685" lon="27.961706343787608"><ele>303.0</ele><time>2026-04-29T10:44:20.998Z</time></trkpt><trkpt lat="43.24511685331135" lon="27.96167233875043"><ele>303.0</ele><time>2026-04-29T10:44:21.998Z</time></trkpt><trkpt lat="43.24501675195655" lon="27.961643864331492"><ele>303.0</ele><time>2026-04-29T10:44:22.998Z</time></trkpt><trkpt lat="43.24493714728027" lon="27.961621215824422"><ele>303.0</ele><time>2026-04-29T10:44:24Z</time></trkpt><trkpt lat="43.24483544223787" lon="27.96159958676277"><ele>303.0</ele><time>2026-04-29T10:44:26Z</time></trkpt><trkpt lat="43.24474481462232" lon="27.961536365782763"><ele>303.0</ele><time>2026-04-29T10:44:30Z</time></trkpt><trkpt lat="43.244683553165025" lon="27.96150772463785"><ele>301.8</ele><time>2026-04-29T10:44:31Z</time></trkpt><trkpt lat="43.244631687801764" lon="27.961410941937256"><ele>300.6</ele><time>2026-04-29T10:44:32Z</time></trkpt><trkpt lat="43.24454542603017" lon="27.961345782083477"><ele>299.4</ele><time>2026-04-29T10:44:33Z</time></trkpt><trkpt lat="43.24445079805302" lon="27.9612740084148"><ele>298.2</ele><time>2026-04-29T10:44:34Z</time></trkpt><trkpt lat="43.24434219444668" lon="27.961205926399074"><ele>297.0</ele><time>2026-04-29T10:44:35Z</time></trkpt><trkpt lat="43.244237534783835" lon="27.961105641627505"><ele>297.0</ele><time>2026-04-29T10:44:36Z</time></trkpt><trkpt lat="43.24412567459637" lon="27.9610084831615"><ele>297.0</ele><time>2026-04-29T10:44:37Z</time></trkpt><trkpt lat="43.244015447094256" lon="27.960915092585836"><ele>297.0</ele><time>2026-04-29T10:44:38Z</time></trkpt><trkpt lat="43.243911337032436" lon="27.960833705221656"><ele>297.0</ele><time>2026-04-29T10:44:39Z</time></trkpt><trkpt lat="43.24381462976295" lon="27.960759816259813"><ele>296.4</ele><time>2026-04-29T10:44:40Z</time></trkpt><trkpt lat="43.2437337782801" lon="27.960698546802913"><ele>295.79999999999995</ele><time>2026-04-29T10:44:41Z</time></trkpt><trkpt lat="43.243671991691755" lon="27.960650876616768"><ele>295.2</ele><time>2026-04-29T10:44:42Z</time></trkpt><trkpt lat="43.243591589669364" lon="27.960573978801584"><ele>294.59999999999997</ele><time>2026-04-29T10:44:44Z</time></trkpt><trkpt lat="43.243498608295546" lon="27.960686871582446"><ele>294.0</ele><time>2026-04-29T10:44:46Z</time></trkpt><trkpt lat="43.24347778050299" lon="27.960776679229966"><ele>294.0</ele><time>2026-04-29T10:44:47Z</time></trkpt><trkpt lat="43.24343370371103" lon="27.960862170174607"><ele>294.0</ele><time>2026-04-29T10:44:48Z</time></trkpt><trkpt lat="43.243384451274274" lon="27.96095857260996"><ele>294.0</ele><time>2026-04-29T10:44:49Z</time></trkpt><trkpt lat="43.24333140342051" lon="27.96106474184878"><ele>294.0</ele><time>2026-04-29T10:44:50Z</time></trkpt><trkpt lat="43.243276294113855" lon="27.96117325133405"><ele>294.0</ele><time>2026-04-29T10:44:51Z</time></trkpt><trkpt lat="43.24321770121018" lon="27.96127682125767"><ele>294.0</ele><time>2026-04-29T10:44:52Z</time></trkpt><trkpt lat="43.243154360173065" lon="27.961364129262332"><ele>293.2</ele><time>2026-04-29T10:44:53Z</time></trkpt><trkpt lat="43.243097146001546" lon="27.96144631607202"><ele>292.4</ele><time>2026-04-29T10:44:54Z</time></trkpt><trkpt lat="43.24304483625491" lon="27.96150362383879"><ele>291.6</ele><time>2026-04-29T10:44:55Z</time></trkpt><trkpt lat="43.24296231604037" lon="27.96158305204771"><ele>290.8</ele><time>2026-04-29T10:44:57Z</time></trkpt><trkpt lat="43.24296294361469" lon="27.96170208584299"><ele>290.0</ele><time>2026-04-29T10:44:59Z</time></trkpt><trkpt lat="43.243001706996495" lon="27.961867400669302"><ele>290.0</ele><time>2026-04-29T10:45:01Z</time></trkpt><trkpt lat="43.24299726097062" lon="27.961973426709207"><ele>290.0</ele><time>2026-04-29T10:45:02Z</time></trkpt><trkpt lat="43.243006375213824" lon="27.96208219432733"><ele>290.0</ele><time>2026-04-29T10:45:03Z</time></trkpt><trkpt lat="43.243084204317704" lon="27.96219701450196"><ele>290.0</ele><time>2026-04-29T10:45:04Z</time></trkpt><trkpt lat="43.243110262948974" lon="27.96233873709331"><ele>290.0</ele><time>2026-04-29T10:45:05Z</time></trkpt><trkpt lat="43.24316025835384" lon="27.962436039847752"><ele>290.0</ele><time>2026-04-29T10:45:06Z</time></trkpt><trkpt lat="43.243200077710966" lon="27.962528295360197"><ele>290.0</ele><time>2026-04-29T10:45:07Z</time></trkpt><trkpt lat="43.24323750930882" lon="27.962609979657746"><ele>290.0</ele><time>2026-04-29T10:45:07.999Z</time></trkpt><trkpt lat="43.243301572589104" lon="27.962748520357255"><ele>290.0</ele><time>2026-04-29T10:45:09.999Z</time></trkpt><trkpt lat="43.243364621557895" lon="27.96287665136206"><ele>290.0</ele><time>2026-04-29T10:45:11.999Z</time></trkpt><trkpt lat="43.24344710901636" lon="27.962994557393827"><ele>289.4</ele><time>2026-04-29T10:45:13.999Z</time></trkpt><trkpt lat="43.24351577462537" lon="27.96312190153034"><ele>288.8</ele><time>2026-04-29T10:45:15.999Z</time></trkpt><trkpt lat="43.24357279238274" lon="27.96323868848429"><ele>288.2</ele><time>2026-04-29T10:45:17.999Z</time></trkpt><trkpt lat="43.24363300883814" lon="27.96334250509298"><ele>287.6</ele><time>2026-04-29T10:45:19.999Z</time></trkpt><trkpt lat="43.243681833467726" lon="27.9634374349822"><ele>287.0</ele><time>2026-04-29T10:45:21.999Z</time></trkpt><trkpt lat="43.243728206929156" lon="27.963519962095894"><ele>285.83333333333337</ele><time>2026-04-29T10:45:23.999Z</time></trkpt><trkpt lat="43.24377466091629" lon="27.963597638060996"><ele>284.6666666666667</ele><time>2026-04-29T10:45:25.999Z</time></trkpt><trkpt lat="43.2438075535966" lon="27.96368445326432"><ele>283.5</ele><time>2026-04-29T10:45:27.999Z</time></trkpt><trkpt lat="43.24378397874207" lon="27.963806295253647"><ele>282.3333333333333</ele><time>2026-04-29T10:45:30.999Z</time></trkpt><trkpt lat="43.24375159238901" lon="27.96392115408446"><ele>281.16666666666663</ele><time>2026-04-29T10:45:32.999Z</time></trkpt><trkpt lat="43.24370351964553" lon="27.96400899613821"><ele>280.0</ele><time>2026-04-29T10:45:34.999Z</time></trkpt><trkpt lat="43.24365459676136" lon="27.964080384330515"><ele>280.0</ele><time>2026-04-29T10:45:36.999Z</time></trkpt><trkpt lat="43.24359494707965" lon="27.964167424966487"><ele>280.0</ele><time>2026-04-29T10:45:38.999Z</time></trkpt><trkpt lat="43.243562060627475" lon="27.96424157851293"><ele>280.0</ele><time>2026-04-29T10:45:39.999Z</time></trkpt><trkpt lat="43.24352100060833" lon="27.96436566449077"><ele>280.0</ele><time>2026-04-29T10:45:42.999Z</time></trkpt><trkpt lat="43.24348956996856" lon="27.9644696936745"><ele>280.0</ele><time>2026-04-29T10:45:44.999Z</time></trkpt><trkpt lat="43.24346024228629" lon="27.964560875990905"><ele>280.0</ele><time>2026-04-29T10:45:46.999Z</time></trkpt><trkpt lat="43.24343493830046" lon="27.96468761951156"><ele>278.7142857142857</ele><time>2026-04-29T10:45:49.999Z</time></trkpt><trkpt lat="43.2434359401603" lon="27.964777094422235"><ele>277.42857142857144</ele><time>2026-04-29T10:45:50.999Z</time></trkpt><trkpt lat="43.24344182392857" lon="27.964870365553185"><ele>276.1428571428571</ele><time>2026-04-29T10:45:52.999Z</time></trkpt><trkpt lat="43.24344763907722" lon="27.964962548743273"><ele>274.8571428571429</ele><time>2026-04-29T10:45:54.999Z</time></trkpt><trkpt lat="43.24345383505836" lon="27.965060768977203"><ele>273.57142857142856</ele><time>2026-04-29T10:45:56.999Z</time></trkpt><trkpt lat="43.243426565279506" lon="27.965146856660958"><ele>272.2857142857143</ele><time>2026-04-29T10:45:59.999Z</time></trkpt><trkpt lat="43.243398920664674" lon="27.965248620714096"><ele>271.0</ele><time>2026-04-29T10:46:01.998Z</time></trkpt><trkpt lat="43.243394079397554" lon="27.9653354700351"><ele>269.75</ele><time>2026-04-29T10:46:03.998Z</time></trkpt><trkpt lat="43.24336690144008" lon="27.965496570685037"><ele>268.5</ele><time>2026-04-29T10:46:05.998Z</time></trkpt><trkpt lat="43.243385742482026" lon="27.96565749375421"><ele>267.25</ele><time>2026-04-29T10:46:07.998Z</time></trkpt><trkpt lat="43.243462550044136" lon="27.96584996570826"><ele>266.0</ele><time>2026-04-29T10:46:09.998Z</time></trkpt><trkpt lat="43.243500356180604" lon="27.96593597267645"><ele>263.5</ele><time>2026-04-29T10:46:10.998Z</time></trkpt><trkpt lat="43.24356593715346" lon="27.966068442099182"><ele>261.0</ele><time>2026-04-29T10:46:12.998Z</time></trkpt><trkpt lat="43.24360345663167" lon="27.96621591823615"><ele>258.5</ele><time>2026-04-29T10:46:14.998Z</time></trkpt><trkpt lat="43.24365693870341" lon="27.96628268712113"><ele>256.0</ele><time>2026-04-29T10:46:15.998Z</time></trkpt><trkpt lat="43.24370739639716" lon="27.966342935440792"><ele>253.50000000000003</ele><time>2026-04-29T10:46:16.998Z</time></trkpt><trkpt lat="43.24376449430843" lon="27.96639263729796"><ele>251.0</ele><time>2026-04-29T10:46:17.998Z</time></trkpt><trkpt lat="43.24380581360891" lon="27.966464829350784"><ele>251.00000000000003</ele><time>2026-04-29T10:46:18.998Z</time></trkpt><trkpt lat="43.24385194282514" lon="27.966525605157397"><ele>251.0</ele><time>2026-04-29T10:46:19.998Z</time></trkpt><trkpt lat="43.24391414158269" lon="27.966577352562805"><ele>251.0</ele><time>2026-04-29T10:46:20.998Z</time></trkpt><trkpt lat="43.243955801100526" lon="27.966658370836882"><ele>251.0</ele><time>2026-04-29T10:46:21.998Z</time></trkpt><trkpt lat="43.24401900493543" lon="27.966735097262543"><ele>251.00000000000003</ele><time>2026-04-29T10:46:22.998Z</time></trkpt><trkpt lat="43.24407789801466" lon="27.966827012658953"><ele>251.0</ele><time>2026-04-29T10:46:23.998Z</time></trkpt><trkpt lat="43.24414244358945" lon="27.966879676139644"><ele>250.16666666666669</ele><time>2026-04-29T10:46:24.998Z</time></trkpt><trkpt lat="43.24420559519782" lon="27.96693932012499"><ele>249.33333333333334</ele><time>2026-04-29T10:46:26.998Z</time></trkpt><trkpt lat="43.24424916022582" lon="27.96701378458014"><ele>248.5</ele><time>2026-04-29T10:46:28.998Z</time></trkpt><trkpt lat="43.244355466637565" lon="27.96712000134037"><ele>247.66666666666669</ele><time>2026-04-29T10:46:31Z</time></trkpt><trkpt lat="43.24439844538712" lon="27.967184825082953"><ele>246.83333333333334</ele><time>2026-04-29T10:46:32Z</time></trkpt><trkpt lat="43.24445816599759" lon="27.96723400419573"><ele>246.0</ele><time>2026-04-29T10:46:33Z</time></trkpt><trkpt lat="43.24450621776719" lon="27.967300185806405"><ele>246.0</ele><time>2026-04-29T10:46:34Z</time></trkpt><trkpt lat="43.2445648239606" lon="27.96735080260525"><ele>246.0</ele><time>2026-04-29T10:46:35Z</time></trkpt><trkpt lat="43.24462810251455" lon="27.96740612375018"><ele>246.0</ele><time>2026-04-29T10:46:36Z</time></trkpt><trkpt lat="43.2447019859416" lon="27.96746178590463"><ele>246.0</ele><time>2026-04-29T10:46:37Z</time></trkpt><trkpt lat="43.244763471740896" lon="27.96749059108256"><ele>246.0</ele><time>2026-04-29T10:46:38Z</time></trkpt><trkpt lat="43.2448490213758" lon="27.967570871043367"><ele>246.0</ele><time>2026-04-29T10:46:40Z</time></trkpt><trkpt lat="43.24496269535215" lon="27.96763250653862"><ele>244.33333333333334</ele><time>2026-04-29T10:46:42Z</time></trkpt><trkpt lat="43.24504599341924" lon="27.967635631505576"><ele>242.66666666666669</ele><time>2026-04-29T10:46:43Z</time></trkpt><trkpt lat="43.245107756916" lon="27.96767261143953"><ele>241.0</ele><time>2026-04-29T10:46:44Z</time></trkpt><trkpt lat="43.24517504724103" lon="27.967690333228024"><ele>239.33333333333334</ele><time>2026-04-29T10:46:45Z</time></trkpt><trkpt lat="43.245262190001704" lon="27.967750268329937"><ele>237.66666666666669</ele><time>2026-04-29T10:46:47Z</time></trkpt><trkpt lat="43.245337272252456" lon="27.967806222264386"><ele>236.0</ele><time>2026-04-29T10:46:50Z</time></trkpt><trkpt lat="43.245425187605576" lon="27.96792279473426"><ele>236.0</ele><time>2026-04-29T10:46:52Z</time></trkpt><trkpt lat="43.245460019680245" lon="27.96800424289209"><ele>236.0</ele><time>2026-04-29T10:46:53Z</time></trkpt><trkpt lat="43.245486469906375" lon="27.96808375829564"><ele>236.0</ele><time>2026-04-29T10:46:54Z</time></trkpt><trkpt lat="43.24550627014126" lon="27.968169521277197"><ele>236.0</ele><time>2026-04-29T10:46:55Z</time></trkpt><trkpt lat="43.245564658063266" lon="27.96821794335914"><ele>236.0</ele><time>2026-04-29T10:46:56Z</time></trkpt><trkpt lat="43.24561092181167" lon="27.96828542624086"><ele>236.0</ele><time>2026-04-29T10:46:56.999Z</time></trkpt><trkpt lat="43.2456667106593" lon="27.968327674610478"><ele>236.0</ele><time>2026-04-29T10:46:57.999Z</time></trkpt><trkpt lat="43.245724928071475" lon="27.968389662355545"><ele>235.66666666666669</ele><time>2026-04-29T10:46:58.999Z</time></trkpt><trkpt lat="43.24578145663029" lon="27.96844430845521"><ele>235.33333333333334</ele><time>2026-04-29T10:46:59.999Z</time></trkpt><trkpt lat="43.245832830109435" lon="27.968494695780542"><ele>235.0</ele><time>2026-04-29T10:47:00.999Z</time></trkpt><trkpt lat="43.24587451525082" lon="27.968562498144458"><ele>234.66666666666669</ele><time>2026-04-29T10:47:01.999Z</time></trkpt><trkpt lat="43.24595179997372" lon="27.968653842998663"><ele>234.33333333333334</ele><time>2026-04-29T10:47:03.999Z</time></trkpt><trkpt lat="43.24604103823585" lon="27.968734369794053"><ele>234.0</ele><time>2026-04-29T10:47:05.999Z</time></trkpt><trkpt lat="43.24612616882103" lon="27.968872253520747"><ele>234.0</ele><time>2026-04-29T10:47:07.999Z</time></trkpt><trkpt lat="43.246064150519224" lon="27.96912917888086"><ele>233.99999999999997</ele><time>2026-04-29T10:47:12.999Z</time></trkpt><trkpt lat="43.245994759283676" lon="27.96916797572704"><ele>233.99999999999997</ele><time>2026-04-29T10:47:13.999Z</time></trkpt><trkpt lat="43.24594075362046" lon="27.969225561193777"><ele>234.0</ele><time>2026-04-29T10:47:15.999Z</time></trkpt><trkpt lat="43.24587132163498" lon="27.969183871378153"><ele>234.0</ele><time>2026-04-29T10:47:16.999Z</time></trkpt><trkpt lat="43.245753572902" lon="27.96918729815443"><ele>234.0</ele><time>2026-04-29T10:47:18.999Z</time></trkpt><trkpt lat="43.24568901153453" lon="27.969189468486"><ele>234.0</ele><time>2026-04-29T10:47:19.999Z</time></trkpt><trkpt lat="43.24560930853796" lon="27.96920995786685"><ele>234.0</ele><time>2026-04-29T10:47:21.999Z</time></trkpt><trkpt lat="43.24553769659375" lon="27.96919108907825"><ele>234.0</ele><time>2026-04-29T10:47:23.999Z</time></trkpt><trkpt lat="43.24543157850169" lon="27.96919885399052"><ele>234.0</ele><time>2026-04-29T10:47:25.999Z</time></trkpt><trkpt lat="43.24532186224299" lon="27.969213116691567"><ele>234.0</ele><time>2026-04-29T10:47:27.999Z</time></trkpt><trkpt lat="43.24525691458579" lon="27.969218516948168"><ele>233.39999999999998</ele><time>2026-04-29T10:47:28.999Z</time></trkpt><trkpt lat="43.24516591267291" lon="27.96920845754684"><ele>232.79999999999998</ele><time>2026-04-29T10:47:29.999Z</time></trkpt><trkpt lat="43.24507164422254" lon="27.96917764740818"><ele>232.20000000000002</ele><time>2026-04-29T10:47:30.999Z</time></trkpt><trkpt lat="43.244973633916885" lon="27.96912243399116"><ele>231.60000000000002</ele><time>2026-04-29T10:47:31.999Z</time></trkpt><trkpt lat="43.24485657481289" lon="27.969096910705996"><ele>231.0</ele><time>2026-04-29T10:47:32.999Z</time></trkpt><trkpt lat="43.24474267616176" lon="27.96908668101623"><ele>229.8</ele><time>2026-04-29T10:47:33.999Z</time></trkpt><trkpt lat="43.24463367614658" lon="27.969094082384917"><ele>228.60000000000002</ele><time>2026-04-29T10:47:34.999Z</time></trkpt><trkpt lat="43.24452733419391" lon="27.969079952998868"><ele>227.4</ele><time>2026-04-29T10:47:35.999Z</time></trkpt><trkpt lat="43.24441782076003" lon="27.969075860000437"><ele>226.2</ele><time>2026-04-29T10:47:36.998Z</time></trkpt><trkpt lat="43.2443017293793" lon="27.969087413145804"><ele>225.0</ele><time>2026-04-29T10:47:37.998Z</time></trkpt><trkpt lat="43.24418281581084" lon="27.969087120328364"><ele>225.0</ele><time>2026-04-29T10:47:38.998Z</time></trkpt><trkpt lat="43.244065508145184" lon="27.96909724113236"><ele>225.0</ele><time>2026-04-29T10:47:39.998Z</time></trkpt><trkpt lat="43.243958453171786" lon="27.96909519797225"><ele>225.0</ele><time>2026-04-29T10:47:40.998Z</time></trkpt><trkpt lat="43.24386348879296" lon="27.969118290004484"><ele>225.0</ele><time>2026-04-29T10:47:41.998Z</time></trkpt><trkpt lat="43.243768619880775" lon="27.96914274061776"><ele>225.0</ele><time>2026-04-29T10:47:42.998Z</time></trkpt><trkpt lat="43.243689044661274" lon="27.969238694574965"><ele>223.0</ele><time>2026-04-29T10:47:43.998Z</time></trkpt><trkpt lat="43.24362575768379" lon="27.969315376277407"><ele>221.0</ele><time>2026-04-29T10:47:44.998Z</time></trkpt><trkpt lat="43.243587131143656" lon="27.969450345961942"><ele>219.0</ele><time>2026-04-29T10:47:45.998Z</time></trkpt><trkpt lat="43.24355035769051" lon="27.969582774195242"><ele>217.0</ele><time>2026-04-29T10:47:46.998Z</time></trkpt><trkpt lat="43.24351023203932" lon="27.969712651397078"><ele>215.0</ele><time>2026-04-29T10:47:47.998Z</time></trkpt><trkpt lat="43.243481197768716" lon="27.969851121480865"><ele>215.0</ele><time>2026-04-29T10:47:48.998Z</time></trkpt><trkpt lat="43.24345333710034" lon="27.969983963097594"><ele>215.0</ele><time>2026-04-29T10:47:49.998Z</time></trkpt><trkpt lat="43.2434419407249" lon="27.9701172747511"><ele>215.0</ele><time>2026-04-29T10:47:50.998Z</time></trkpt><trkpt lat="43.24343836738389" lon="27.970212882440944"><ele>215.0</ele><time>2026-04-29T10:47:51.998Z</time></trkpt><trkpt lat="43.24344670742739" lon="27.970386142239455"><ele>215.0</ele><time>2026-04-29T10:47:53.998Z</time></trkpt><trkpt lat="43.243341412511775" lon="27.970456880230614"><ele>215.00000000000003</ele><time>2026-04-29T10:47:55.998Z</time></trkpt><trkpt lat="43.24323817661081" lon="27.970532110637798"><ele>215.0</ele><time>2026-04-29T10:47:57.998Z</time></trkpt><trkpt lat="43.24316976873985" lon="27.970592839412333"><ele>215.0</ele><time>2026-04-29T10:47:58.998Z</time></trkpt><trkpt lat="43.24311222702137" lon="27.970662121665928"><ele>215.0</ele><time>2026-04-29T10:47:59.998Z</time></trkpt><trkpt lat="43.243052002171204" lon="27.970732327432664"><ele>215.00000000000003</ele><time>2026-04-29T10:48:00.998Z</time></trkpt><trkpt lat="43.24299093935333" lon="27.970808543946497"><ele>215.0</ele><time>2026-04-29T10:48:01.998Z</time></trkpt><trkpt lat="43.24293577903033" lon="27.970893151950186"><ele>213.33333333333334</ele><time>2026-04-29T10:48:02.998Z</time></trkpt><trkpt lat="43.24289539781358" lon="27.970986311433627"><ele>211.66666666666669</ele><time>2026-04-29T10:48:03.998Z</time></trkpt><trkpt lat="43.24285721052955" lon="27.97108542383292"><ele>210.0</ele><time>2026-04-29T10:48:04.998Z</time></trkpt><trkpt lat="43.24282673199502" lon="27.971183429934797"><ele>208.33333333333331</ele><time>2026-04-29T10:48:05.998Z</time></trkpt><trkpt lat="43.24279073978548" lon="27.971279259363797"><ele>206.66666666666666</ele><time>2026-04-29T10:48:06.998Z</time></trkpt><trkpt lat="43.242748145109964" lon="27.97136007746231"><ele>205.0</ele><time>2026-04-29T10:48:07.998Z</time></trkpt><trkpt lat="43.24271510961843" lon="27.971455015066944"><ele>204.99999999999997</ele><time>2026-04-29T10:48:08.998Z</time></trkpt><trkpt lat="43.2426731531164" lon="27.971549477632948"><ele>205.0</ele><time>2026-04-29T10:48:09.998Z</time></trkpt><trkpt lat="43.24262650692122" lon="27.971648865138086"><ele>205.0</ele><time>2026-04-29T10:48:10.998Z</time></trkpt><trkpt lat="43.24256792316731" lon="27.97172788948894"><ele>205.0</ele><time>2026-04-29T10:48:11.998Z</time></trkpt><trkpt lat="43.24252794129951" lon="27.971821494422613"><ele>204.99999999999997</ele><time>2026-04-29T10:48:12.998Z</time></trkpt><trkpt lat="43.24246876752174" lon="27.971894659840363"><ele>205.0</ele><time>2026-04-29T10:48:13.998Z</time></trkpt><trkpt lat="43.242417628645775" lon="27.971980153604434"><ele>205.83333333333331</ele><time>2026-04-29T10:48:14.998Z</time></trkpt><trkpt lat="43.24237521685658" lon="27.972051133964722"><ele>206.66666666666666</ele><time>2026-04-29T10:48:15.998Z</time></trkpt><trkpt lat="43.242291111348315" lon="27.972161825846765"><ele>207.5</ele><time>2026-04-29T10:48:17.998Z</time></trkpt><trkpt lat="43.24223127438768" lon="27.972240705617722"><ele>208.33333333333331</ele><time>2026-04-29T10:48:18.998Z</time></trkpt><trkpt lat="43.24218490849002" lon="27.972315393191803"><ele>209.16666666666666</ele><time>2026-04-29T10:48:19.998Z</time></trkpt><trkpt lat="43.242135168218326" lon="27.97239617752612"><ele>210.0</ele><time>2026-04-29T10:48:20.998Z</time></trkpt><trkpt lat="43.24209144096016" lon="27.97246719598943"><ele>207.0</ele><time>2026-04-29T10:48:21.998Z</time></trkpt><trkpt lat="43.2420075763214" lon="27.972603402515812"><ele>204.0</ele><time>2026-04-29T10:48:23.998Z</time></trkpt><trkpt lat="43.24196507385904" lon="27.972672431697028"><ele>201.0</ele><time>2026-04-29T10:48:24.998Z</time></trkpt><trkpt lat="43.24188099465009" lon="27.972789782003023"><ele>198.0</ele><time>2026-04-29T10:48:26.998Z</time></trkpt><trkpt lat="43.24179964089764" lon="27.972904086211837"><ele>195.0</ele><time>2026-04-29T10:48:28.997Z</time></trkpt><trkpt lat="43.241793580662296" lon="27.973024593173935"><ele>195.0</ele><time>2026-04-29T10:48:29.997Z</time></trkpt><trkpt lat="43.24173882995023" lon="27.973154853322246"><ele>195.0</ele><time>2026-04-29T10:48:31.997Z</time></trkpt><trkpt lat="43.24166215084797" lon="27.973245539878345"><ele>195.0</ele><time>2026-04-29T10:48:33.997Z</time></trkpt><trkpt lat="43.24155782485315" lon="27.973288999526464"><ele>195.0</ele><time>2026-04-29T10:48:35.999Z</time></trkpt><trkpt lat="43.2415494541031" lon="27.973413955148825"><ele>195.0</ele><time>2026-04-29T10:48:37Z</time></trkpt><trkpt lat="43.241541009973325" lon="27.97357447718097"><ele>193.66666666666666</ele><time>2026-04-29T10:48:39Z</time></trkpt><trkpt lat="43.241502151167076" lon="27.97370002579436"><ele>192.33333333333334</ele><time>2026-04-29T10:48:41Z</time></trkpt><trkpt lat="43.24156772878117" lon="27.973786541293926"><ele>191.0</ele><time>2026-04-29T10:48:42Z</time></trkpt><trkpt lat="43.241592362728575" lon="27.97386813482371"><ele>189.66666666666669</ele><time>2026-04-29T10:48:43Z</time></trkpt><trkpt lat="43.241613621656406" lon="27.973965311854627"><ele>188.33333333333334</ele><time>2026-04-29T10:48:44Z</time></trkpt><trkpt lat="43.24162918027899" lon="27.97405315400279"><ele>187.0</ele><time>2026-04-29T10:48:45Z</time></trkpt><trkpt lat="43.241641633266745" lon="27.9741996912793"><ele>185.66666666666669</ele><time>2026-04-29T10:48:47Z</time></trkpt><trkpt lat="43.24162044480032" lon="27.974338083987444"><ele>184.33333333333334</ele><time>2026-04-29T10:48:49Z</time></trkpt><trkpt lat="43.241537524707155" lon="27.97439552310749"><ele>183.0</ele><time>2026-04-29T10:48:51Z</time></trkpt><trkpt lat="43.24147633566532" lon="27.97444281573639"><ele>181.66666666666666</ele><time>2026-04-29T10:48:53Z</time></trkpt><trkpt lat="43.24141805029846" lon="27.97440108937848"><ele>180.33333333333331</ele><time>2026-04-29T10:48:54Z</time></trkpt><trkpt lat="43.24136197436031" lon="27.974325876685995"><ele>179.0</ele><time>2026-04-29T10:48:56Z</time></trkpt><trkpt lat="43.24125956261878" lon="27.974264907793422"><ele>178.83333333333331</ele><time>2026-04-29T10:48:58Z</time></trkpt><trkpt lat="43.24113477362441" lon="27.974182953774505"><ele>178.66666666666666</ele><time>2026-04-29T10:49:00Z</time></trkpt><trkpt lat="43.24106899191498" lon="27.974129842546468"><ele>178.5</ele><time>2026-04-29T10:49:01Z</time></trkpt><trkpt lat="43.241001842610984" lon="27.97412437938629"><ele>178.33333333333334</ele><time>2026-04-29T10:49:02Z</time></trkpt><trkpt lat="43.24090915637152" lon="27.97407557104953"><ele>178.16666666666669</ele><time>2026-04-29T10:49:04Z</time></trkpt><trkpt lat="43.24084864142068" lon="27.9740364289299"><ele>178.0</ele><time>2026-04-29T10:49:05Z</time></trkpt><trkpt lat="43.24075313728596" lon="27.973938733166218"><ele>178.0</ele><time>2026-04-29T10:49:07Z</time></trkpt><trkpt lat="43.240694299898706" lon="27.973830049886914"><ele>178.0</ele><time>2026-04-29T10:49:09Z</time></trkpt><trkpt lat="43.24058838749457" lon="27.973847631180433"><ele>178.0</ele><time>2026-04-29T10:49:12Z</time></trkpt><trkpt lat="43.240513356534244" lon="27.973867624023168"><ele>178.0</ele><time>2026-04-29T10:49:14Z</time></trkpt><trkpt lat="43.24046161150448" lon="27.973923486092843"><ele>178.0</ele><time>2026-04-29T10:49:17.999Z</time></trkpt><trkpt lat="43.240411527104534" lon="27.97398661803995"><ele>178.0</ele><time>2026-04-29T10:49:20.999Z</time></trkpt><trkpt lat="43.2403316835414" lon="27.974064796019746"><ele>175.4</ele><time>2026-04-29T10:49:23.999Z</time></trkpt><trkpt lat="43.24024532751198" lon="27.974149564778767"><ele>172.8</ele><time>2026-04-29T10:49:25.999Z</time></trkpt><trkpt lat="43.24014880810466" lon="27.974233781839807"><ele>170.2</ele><time>2026-04-29T10:49:27.999Z</time></trkpt><trkpt lat="43.240056526722476" lon="27.974311792925203"><ele>167.6</ele><time>2026-04-29T10:49:29.999Z</time></trkpt><trkpt lat="43.239968921677864" lon="27.974370455696786"><ele>165.0</ele><time>2026-04-29T10:49:44.999Z</time></trkpt><trkpt lat="43.239992993168535" lon="27.974544990101755"><ele>164.0</ele><time>2026-04-29T10:49:46.999Z</time></trkpt><trkpt lat="43.24002520478763" lon="27.974661663195327"><ele>163.0</ele><time>2026-04-29T10:49:47.999Z</time></trkpt><trkpt lat="43.24006083001652" lon="27.974794706078008"><ele>162.0</ele><time>2026-04-29T10:49:48.999Z</time></trkpt><trkpt lat="43.24009697734668" lon="27.974920672577586"><ele>161.0</ele><time>2026-04-29T10:49:49.999Z</time></trkpt><trkpt lat="43.24013716955987" lon="27.97504044611172"><ele>160.0</ele><time>2026-04-29T10:49:50.999Z</time></trkpt><trkpt lat="43.2401840627089" lon="27.975169114562338"><ele>159.6</ele><time>2026-04-29T10:49:51.999Z</time></trkpt><trkpt lat="43.24023128654601" lon="27.975294346133573"><ele>159.2</ele><time>2026-04-29T10:49:52.999Z</time></trkpt><trkpt lat="43.24027358400548" lon="27.975417376207496"><ele>158.8</ele><time>2026-04-29T10:49:53.999Z</time></trkpt><trkpt lat="43.24031776860737" lon="27.975522081055775"><ele>158.4</ele><time>2026-04-29T10:49:54.999Z</time></trkpt><trkpt lat="43.24033021431781" lon="27.97567032824326"><ele>158.0</ele><time>2026-04-29T10:49:56.999Z</time></trkpt><trkpt lat="43.24026371651343" lon="27.97578270306068"><ele>158.0</ele><time>2026-04-29T10:49:58.999Z</time></trkpt><trkpt lat="43.24019061067762" lon="27.975886013687116"><ele>158.0</ele><time>2026-04-29T10:50:00.999Z</time></trkpt><trkpt lat="43.24014314563904" lon="27.97594758077642"><ele>158.0</ele><time>2026-04-29T10:50:01.999Z</time></trkpt><trkpt lat="43.240091469978346" lon="27.976009437806418"><ele>158.0</ele><time>2026-04-29T10:50:02.999Z</time></trkpt><trkpt lat="43.240037997965814" lon="27.976076008558977"><ele>158.0</ele><time>2026-04-29T10:50:03.999Z</time></trkpt><trkpt lat="43.23996539332905" lon="27.976132545918162"><ele>158.0</ele><time>2026-04-29T10:50:05.999Z</time></trkpt><trkpt lat="43.239870203705316" lon="27.97620507372675"><ele>156.8</ele><time>2026-04-29T10:50:09.998Z</time></trkpt><trkpt lat="43.239762765951475" lon="27.976246560959062"><ele>155.60000000000002</ele><time>2026-04-29T10:50:11.998Z</time></trkpt><trkpt lat="43.23964758025439" lon="27.976284366048322"><ele>154.39999999999998</ele><time>2026-04-29T10:50:13.998Z</time></trkpt><trkpt lat="43.23953443520987" lon="27.976296255458134"><ele>153.2</ele><time>2026-04-29T10:50:15.998Z</time></trkpt><trkpt lat="43.239456717529144" lon="27.976338862437807"><ele>152.0</ele><time>2026-04-29T10:50:17.998Z</time></trkpt><trkpt lat="43.23935459684568" lon="27.97640856492502"><ele>152.0</ele><time>2026-04-29T10:50:19.998Z</time></trkpt><trkpt lat="43.239264948022466" lon="27.97644458145092"><ele>152.0</ele><time>2026-04-29T10:50:21.998Z</time></trkpt><trkpt lat="43.2392681330004" lon="27.97667385702033"><ele>152.0</ele><time>2026-04-29T10:50:23.998Z</time></trkpt><trkpt lat="43.23929424969522" lon="27.976759178440556"><ele>152.0</ele><time>2026-04-29T10:50:24.998Z</time></trkpt><trkpt lat="43.23932017189314" lon="27.97684283024261"><ele>152.0</ele><time>2026-04-29T10:50:25.998Z</time></trkpt><trkpt lat="43.23935042393083" lon="27.976932666007652"><ele>151.7142857142857</ele><time>2026-04-29T10:50:26.998Z</time></trkpt><trkpt lat="43.239406556901116" lon="27.977007818308035"><ele>151.42857142857144</ele><time>2026-04-29T10:50:27.998Z</time></trkpt><trkpt lat="43.23945921715882" lon="27.97707682413658"><ele>151.14285714285714</ele><time>2026-04-29T10:50:28.998Z</time></trkpt><trkpt lat="43.23950708152128" lon="27.977149932281733"><ele>150.85714285714283</ele><time>2026-04-29T10:50:29.998Z</time></trkpt><trkpt lat="43.239551702136374" lon="27.977228730238483"><ele>150.57142857142856</ele><time>2026-04-29T10:50:30.998Z</time></trkpt><trkpt lat="43.23960958413166" lon="27.977297508625195"><ele>150.28571428571428</ele><time>2026-04-29T10:50:31.998Z</time></trkpt><trkpt lat="43.23966143013167" lon="27.9773548994774"><ele>150.0</ele><time>2026-04-29T10:50:32.998Z</time></trkpt><trkpt lat="43.239690584593134" lon="27.97748471929752"><ele>149.0</ele><time>2026-04-29T10:50:34.998Z</time></trkpt><trkpt lat="43.23960340466361" lon="27.97761728579968"><ele>148.0</ele><time>2026-04-29T10:50:36.998Z</time></trkpt><trkpt lat="43.239550559605654" lon="27.97770525253347"><ele>147.0</ele><time>2026-04-29T10:50:37.998Z</time></trkpt><trkpt lat="43.2394919202068" lon="27.977804712302962"><ele>146.0</ele><time>2026-04-29T10:50:38.998Z</time></trkpt><trkpt lat="43.239437986222434" lon="27.977912326252476"><ele>145.0</ele><time>2026-04-29T10:50:39.998Z</time></trkpt><trkpt lat="43.23938719281092" lon="27.9780058834637"><ele>145.0</ele><time>2026-04-29T10:50:40.998Z</time></trkpt><trkpt lat="43.23933509815505" lon="27.97809797690437"><ele>145.0</ele><time>2026-04-29T10:50:42Z</time></trkpt><trkpt lat="43.239282564776886" lon="27.978192011087966"><ele>145.0</ele><time>2026-04-29T10:50:43Z</time></trkpt><trkpt lat="43.239232382519674" lon="27.978303755346673"><ele>145.0</ele><time>2026-04-29T10:50:44Z</time></trkpt><trkpt lat="43.23917493896437" lon="27.978396349079265"><ele>145.0</ele><time>2026-04-29T10:50:45Z</time></trkpt><trkpt lat="43.239140160176426" lon="27.97848735566083"><ele>145.0</ele><time>2026-04-29T10:50:46Z</time></trkpt><trkpt lat="43.23910137118899" lon="27.978577169308753"><ele>144.83333333333334</ele><time>2026-04-29T10:50:47Z</time></trkpt><trkpt lat="43.23906539239346" lon="27.97868136900052"><ele>144.66666666666669</ele><time>2026-04-29T10:50:48Z</time></trkpt><trkpt lat="43.23903594664782" lon="27.978792339480744"><ele>144.5</ele><time>2026-04-29T10:50:49Z</time></trkpt><trkpt lat="43.23900570619482" lon="27.97889292554883"><ele>144.33333333333334</ele><time>2026-04-29T10:50:50Z</time></trkpt><trkpt lat="43.238987238697156" lon="27.97899591052496"><ele>144.16666666666666</ele><time>2026-04-29T10:50:51Z</time></trkpt><trkpt lat="43.23896477065662" lon="27.97911896233685"><ele>144.0</ele><time>2026-04-29T10:50:52Z</time></trkpt><trkpt lat="43.238923213637094" lon="27.979219376351157"><ele>143.33333333333334</ele><time>2026-04-29T10:50:53Z</time></trkpt><trkpt lat="43.23889881822809" lon="27.979319291049787"><ele>142.66666666666666</ele><time>2026-04-29T10:50:54Z</time></trkpt><trkpt lat="43.238892365614035" lon="27.979409204179717"><ele>142.0</ele><time>2026-04-29T10:50:55Z</time></trkpt><trkpt lat="43.23885378558607" lon="27.979502432449724"><ele>141.33333333333331</ele><time>2026-04-29T10:50:56Z</time></trkpt><trkpt lat="43.23882937316948" lon="27.979601428998425"><ele>140.66666666666666</ele><time>2026-04-29T10:50:57Z</time></trkpt><trkpt lat="43.23880933002171" lon="27.9797050609503"><ele>140.0</ele><time>2026-04-29T10:50:58Z</time></trkpt><trkpt lat="43.238779814131604" lon="27.979811013990325"><ele>140.0</ele><time>2026-04-29T10:50:59Z</time></trkpt><trkpt lat="43.23870593608494" lon="27.97985122081381"><ele>140.0</ele><time>2026-04-29T10:51:00Z</time></trkpt><trkpt lat="43.238684374280076" lon="27.979985169718585"><ele>140.0</ele><time>2026-04-29T10:51:01Z</time></trkpt><trkpt lat="43.23866221072526" lon="27.980092297208245"><ele>140.0</ele><time>2026-04-29T10:51:02Z</time></trkpt><trkpt lat="43.238617941097786" lon="27.98019141830769"><ele>140.0</ele><time>2026-04-29T10:51:03Z</time></trkpt><trkpt lat="43.23858814181796" lon="27.980302288598818"><ele>140.0</ele><time>2026-04-29T10:51:04Z</time></trkpt><trkpt lat="43.23855770345958" lon="27.98042045622213"><ele>139.66666666666666</ele><time>2026-04-29T10:51:05Z</time></trkpt><trkpt lat="43.23852754791855" lon="27.98053633177751"><ele>139.33333333333331</ele><time>2026-04-29T10:51:06Z</time></trkpt><trkpt lat="43.23851634418228" lon="27.98065596628258"><ele>139.0</ele><time>2026-04-29T10:51:07Z</time></trkpt><trkpt lat="43.23850733223294" lon="27.98077584514712"><ele>138.66666666666666</ele><time>2026-04-29T10:51:08Z</time></trkpt><trkpt lat="43.23847203545505" lon="27.98089139146365"><ele>138.33333333333334</ele><time>2026-04-29T10:51:09Z</time></trkpt><trkpt lat="43.23845920685868" lon="27.981013202763346"><ele>138.0</ele><time>2026-04-29T10:51:10Z</time></trkpt><trkpt lat="43.2384626283564" lon="27.98114174986555"><ele>137.33333333333334</ele><time>2026-04-29T10:51:11Z</time></trkpt><trkpt lat="43.23844376200823" lon="27.981268733005912"><ele>136.66666666666666</ele><time>2026-04-29T10:51:12Z</time></trkpt><trkpt lat="43.238426371818" lon="27.981381621347094"><ele>136.0</ele><time>2026-04-29T10:51:13Z</time></trkpt><trkpt lat="43.23841410592768" lon="27.981497598530073"><ele>135.33333333333331</ele><time>2026-04-29T10:51:14Z</time></trkpt><trkpt lat="43.23840997342039" lon="27.98161905997251"><ele>134.66666666666666</ele><time>2026-04-29T10:51:15Z</time></trkpt><trkpt lat="43.23840735721974" lon="27.981720450628938"><ele>134.0</ele><time>2026-04-29T10:51:16Z</time></trkpt><trkpt lat="43.23837763392163" lon="27.981809007995754"><ele>133.2</ele><time>2026-04-29T10:51:17Z</time></trkpt><trkpt lat="43.238343573389436" lon="27.981892566586808"><ele>132.4</ele><time>2026-04-29T10:51:18Z</time></trkpt><trkpt lat="43.23829096993452" lon="27.98202830414519"><ele>131.6</ele><time>2026-04-29T10:51:20Z</time></trkpt><trkpt lat="43.238353572230075" lon="27.98211338035741"><ele>130.8</ele><time>2026-04-29T10:51:22.999Z</time></trkpt><trkpt lat="43.23844519935983" lon="27.982121779140915"><ele>130.0</ele><time>2026-04-29T10:51:24.999Z</time></trkpt><trkpt lat="43.23853862110032" lon="27.98211965193968"><ele>130.0</ele><time>2026-04-29T10:51:26.999Z</time></trkpt><trkpt lat="43.23867864756991" lon="27.982076397231335"><ele>130.0</ele><time>2026-04-29T10:51:28.999Z</time></trkpt><trkpt lat="43.238761391253355" lon="27.98205171599124"><ele>130.0</ele><time>2026-04-29T10:51:29.999Z</time></trkpt><trkpt lat="43.23886827020965" lon="27.982019889454506"><ele>130.0</ele><time>2026-04-29T10:51:31.999Z</time></trkpt><trkpt lat="43.23894078969374" lon="27.981964747251745"><ele>130.0</ele><time>2026-04-29T10:51:32.999Z</time></trkpt><trkpt lat="43.23901387203179" lon="27.981916743783422"><ele>130.83333333333334</ele><time>2026-04-29T10:51:33.999Z</time></trkpt><trkpt lat="43.23909310464155" lon="27.98186470056047"><ele>131.66666666666669</ele><time>2026-04-29T10:51:34.999Z</time></trkpt><trkpt lat="43.23916788399227" lon="27.98180603901666"><ele>132.5</ele><time>2026-04-29T10:51:35.999Z</time></trkpt><trkpt lat="43.23924666727342" lon="27.98176667208646"><ele>133.33333333333334</ele><time>2026-04-29T10:51:36.999Z</time></trkpt><trkpt lat="43.23932399036995" lon="27.981750858516495"><ele>134.16666666666666</ele><time>2026-04-29T10:51:37.999Z</time></trkpt><trkpt lat="43.2393867865167" lon="27.98172376106278"><ele>135.0</ele><time>2026-04-29T10:51:38.999Z</time></trkpt><trkpt lat="43.23947601520076" lon="27.981708811965927"><ele>135.0</ele><time>2026-04-29T10:51:40.999Z</time></trkpt><trkpt lat="43.239520115833415" lon="27.981862969183062"><ele>135.0</ele><time>2026-04-29T10:51:41.999Z</time></trkpt><trkpt lat="43.239491946291395" lon="27.981982679567587"><ele>135.0</ele><time>2026-04-29T10:51:42.999Z</time></trkpt><trkpt lat="43.23950520999568" lon="27.982085303878076"><ele>135.0</ele><time>2026-04-29T10:51:43.999Z</time></trkpt><trkpt lat="43.23951958253788" lon="27.982196507146522"><ele>135.0</ele><time>2026-04-29T10:51:44.999Z</time></trkpt><trkpt lat="43.239560948453295" lon="27.98230621192409"><ele>135.0</ele><time>2026-04-29T10:51:45.999Z</time></trkpt><trkpt lat="43.23959485848275" lon="27.98238781547192"><ele>135.0</ele><time>2026-04-29T10:51:46.999Z</time></trkpt><trkpt lat="43.23957533418149" lon="27.98251122153171"><ele>135.0</ele><time>2026-04-29T10:51:47.999Z</time></trkpt><trkpt lat="43.23968041738778" lon="27.98258176995774"><ele>135.0</ele><time>2026-04-29T10:51:48.999Z</time></trkpt><trkpt lat="43.23969209411622" lon="27.982736527915424"><ele>135.0</ele><time>2026-04-29T10:51:50.999Z</time></trkpt><trkpt lat="43.239723359670265" lon="27.98282457469712"><ele>134.83333333333334</ele><time>2026-04-29T10:51:51.999Z</time></trkpt><trkpt lat="43.23976927354655" lon="27.982930885299712"><ele>134.66666666666666</ele><time>2026-04-29T10:51:53.999Z</time></trkpt><trkpt lat="43.23971288095791" lon="27.983036336525537"><ele>134.5</ele><time>2026-04-29T10:51:54.999Z</time></trkpt><trkpt lat="43.239688773701744" lon="27.9831280727883"><ele>134.33333333333331</ele><time>2026-04-29T10:51:55.999Z</time></trkpt><trkpt lat="43.239671278491805" lon="27.9832357396086"><ele>134.16666666666666</ele><time>2026-04-29T10:51:56.999Z</time></trkpt><trkpt lat="43.239659874738415" lon="27.983337953292907"><ele>134.0</ele><time>2026-04-29T10:51:57.999Z</time></trkpt><trkpt lat="43.239649663874395" lon="27.983496924361482"><ele>133.5</ele><time>2026-04-29T10:51:59.999Z</time></trkpt><trkpt lat="43.2396440685754" lon="27.983629274523164"><ele>133.0</ele><time>2026-04-29T10:52:01.999Z</time></trkpt><trkpt lat="43.23964598812182" lon="27.983731441739877"><ele>132.5</ele><time>2026-04-29T10:52:03.999Z</time></trkpt><trkpt lat="43.239630039424675" lon="27.983866455686943"><ele>132.0</ele><time>2026-04-29T10:52:05.999Z</time></trkpt><trkpt lat="43.23989277536109" lon="27.983993062123456"><ele>131.66666666666666</ele><time>2026-04-29T10:52:06.999Z</time></trkpt><trkpt lat="43.23991624675237" lon="27.984101566617323"><ele>131.33333333333334</ele><time>2026-04-29T10:52:07.999Z</time></trkpt><trkpt lat="43.23994327250759" lon="27.9842068395638"><ele>131.0</ele><time>2026-04-29T10:52:08.999Z</time></trkpt><trkpt lat="43.239961197091496" lon="27.984306353586653"><ele>130.66666666666669</ele><time>2026-04-29T10:52:09.999Z</time></trkpt><trkpt lat="43.239979953970575" lon="27.984412224747118"><ele>130.33333333333334</ele><time>2026-04-29T10:52:10.999Z</time></trkpt><trkpt lat="43.23997138159981" lon="27.984524042815334"><ele>130.0</ele><time>2026-04-29T10:52:11.999Z</time></trkpt><trkpt lat="43.23995335066264" lon="27.984639646834722"><ele>129.83333333333334</ele><time>2026-04-29T10:52:12.999Z</time></trkpt><trkpt lat="43.23993670474123" lon="27.9847560114792"><ele>129.66666666666669</ele><time>2026-04-29T10:52:13.999Z</time></trkpt><trkpt lat="43.23992438722764" lon="27.984871830614836"><ele>129.5</ele><time>2026-04-29T10:52:14.998Z</time></trkpt><trkpt lat="43.23989702050312" lon="27.984973473988003"><ele>129.33333333333334</ele><time>2026-04-29T10:52:15.998Z</time></trkpt><trkpt lat="43.23989364809853" lon="27.98506841840963"><ele>129.16666666666666</ele><time>2026-04-29T10:52:16.998Z</time></trkpt><trkpt lat="43.239914522356734" lon="27.985175758293902"><ele>129.0</ele><time>2026-04-29T10:52:17.998Z</time></trkpt><trkpt lat="43.239946426610324" lon="27.985278950439824"><ele>129.0</ele><time>2026-04-29T10:52:18.998Z</time></trkpt><trkpt lat="43.2399910558611" lon="27.98538401662364"><ele>129.0</ele><time>2026-04-29T10:52:19.998Z</time></trkpt><trkpt lat="43.2400269814012" lon="27.9855004384793"><ele>129.0</ele><time>2026-04-29T10:52:20.998Z</time></trkpt><trkpt lat="43.240061964624104" lon="27.985603472881966"><ele>129.0</ele><time>2026-04-29T10:52:21.998Z</time></trkpt><trkpt lat="43.24010275284007" lon="27.98571389558576"><ele>129.0</ele><time>2026-04-29T10:52:22.998Z</time></trkpt><trkpt lat="43.240117760762175" lon="27.9858250482021"><ele>129.0</ele><time>2026-04-29T10:52:23.998Z</time></trkpt><trkpt lat="43.24009902287442" lon="27.9859142065609"><ele>129.16666666666666</ele><time>2026-04-29T10:52:24.998Z</time></trkpt><trkpt lat="43.24005191188694" lon="27.985988750579953"><ele>129.33333333333334</ele><time>2026-04-29T10:52:25.998Z</time></trkpt><trkpt lat="43.239983869771656" lon="27.986034410924763"><ele>129.5</ele><time>2026-04-29T10:52:26.998Z</time></trkpt><trkpt lat="43.239927839143824" lon="27.986079936132242"><ele>129.66666666666669</ele><time>2026-04-29T10:52:27.998Z</time></trkpt><trkpt lat="43.23985786419216" lon="27.9861630726104"><ele>129.83333333333334</ele><time>2026-04-29T10:52:29.998Z</time></trkpt><trkpt lat="43.23989115895982" lon="27.98626805115991"><ele>130.0</ele><time>2026-04-29T10:52:31.998Z</time></trkpt><trkpt lat="43.23999943771422" lon="27.98630233209685"><ele>130.0</ele><time>2026-04-29T10:52:33.998Z</time></trkpt><trkpt lat="43.24006632265727" lon="27.98631217014888"><ele>130.0</ele><time>2026-04-29T10:52:34.998Z</time></trkpt><trkpt lat="43.240122447460735" lon="27.986356962332472"><ele>130.0</ele><time>2026-04-29T10:52:36.998Z</time></trkpt><trkpt lat="43.24011543388015" lon="27.98646509058775"><ele>130.0</ele><time>2026-04-29T10:52:38.998Z</time></trkpt><trkpt lat="43.240072444199114" lon="27.986553867516097"><ele>130.0</ele><time>2026-04-29T10:52:39.998Z</time></trkpt><trkpt lat="43.240022656654936" lon="27.98667630944941"><ele>130.0</ele><time>2026-04-29T10:52:40.998Z</time></trkpt><trkpt lat="43.23996248586382" lon="27.986825785232618"><ele>129.5</ele><time>2026-04-29T10:52:41.998Z</time></trkpt><trkpt lat="43.23989776791208" lon="27.986980384379827"><ele>129.0</ele><time>2026-04-29T10:52:42.998Z</time></trkpt><trkpt lat="43.2398314785829" lon="27.98714354599575"><ele>128.5</ele><time>2026-04-29T10:52:43.998Z</time></trkpt><trkpt lat="43.23976209916607" lon="27.98731271578247"><ele>128.0</ele><time>2026-04-29T10:52:44.998Z</time></trkpt><trkpt lat="43.23968545278798" lon="27.987466235129585"><ele>126.5</ele><time>2026-04-29T10:52:45.998Z</time></trkpt><trkpt lat="43.23961368193924" lon="27.987616776600404"><ele>125.0</ele><time>2026-04-29T10:52:46.998Z</time></trkpt><trkpt lat="43.23953065997464" lon="27.98776510478316"><ele>123.5</ele><time>2026-04-29T10:52:48Z</time></trkpt><trkpt lat="43.2394493974967" lon="27.98789611849931"><ele>122.0</ele><time>2026-04-29T10:52:49Z</time></trkpt><trkpt lat="43.23937361781765" lon="27.988028310976098"><ele>122.0</ele><time>2026-04-29T10:52:50Z</time></trkpt><trkpt lat="43.23929149238954" lon="27.988162014442867"><ele>122.0</ele><time>2026-04-29T10:52:51Z</time></trkpt><trkpt lat="43.23920663996107" lon="27.98829757463364"><ele>122.0</ele><time>2026-04-29T10:52:52Z</time></trkpt><trkpt lat="43.239118365124725" lon="27.988438557829344"><ele>122.0</ele><time>2026-04-29T10:52:53Z</time></trkpt><trkpt lat="43.23903501658997" lon="27.98858601711121"><ele>119.0</ele><time>2026-04-29T10:52:54Z</time></trkpt><trkpt lat="43.23894306717508" lon="27.988738617912702"><ele>116.0</ele><time>2026-04-29T10:52:55Z</time></trkpt><trkpt lat="43.23885052621373" lon="27.98889231597194"><ele>113.0</ele><time>2026-04-29T10:52:56Z</time></trkpt><trkpt lat="43.23875718327506" lon="27.989051703087856"><ele>110.0</ele><time>2026-04-29T10:52:57Z</time></trkpt><trkpt lat="43.23866018405251" lon="27.98920328741102"><ele>108.75</ele><time>2026-04-29T10:52:58Z</time></trkpt><trkpt lat="43.238564844648685" lon="27.989358646360902"><ele>107.5</ele><time>2026-04-29T10:52:59Z</time></trkpt><trkpt lat="43.23846940629421" lon="27.98950318189413"><ele>106.25</ele><time>2026-04-29T10:53:00Z</time></trkpt><trkpt lat="43.238376529719936" lon="27.989643010569907"><ele>105.0</ele><time>2026-04-29T10:53:01Z</time></trkpt><trkpt lat="43.23829228092634" lon="27.989772452506635"><ele>105.0</ele><time>2026-04-29T10:53:02Z</time></trkpt><trkpt lat="43.23819318663475" lon="27.989888120594674"><ele>105.0</ele><time>2026-04-29T10:53:03Z</time></trkpt><trkpt lat="43.23809458137866" lon="27.990001028502057"><ele>105.0</ele><time>2026-04-29T10:53:04Z</time></trkpt><trkpt lat="43.23798978507461" lon="27.990107991432385"><ele>105.0</ele><time>2026-04-29T10:53:05Z</time></trkpt><trkpt lat="43.23788069972634" lon="27.990211734899155"><ele>103.75</ele><time>2026-04-29T10:53:06Z</time></trkpt><trkpt lat="43.237760628137714" lon="27.99029245059185"><ele>102.5</ele><time>2026-04-29T10:53:07Z</time></trkpt><trkpt lat="43.237635046830796" lon="27.990370695931865"><ele>101.25</ele><time>2026-04-29T10:53:08Z</time></trkpt><trkpt lat="43.23750929085454" lon="27.990443773217045"><ele>100.0</ele><time>2026-04-29T10:53:09Z</time></trkpt><trkpt lat="43.23738891412354" lon="27.99049857719959"><ele>99.0</ele><time>2026-04-29T10:53:10Z</time></trkpt><trkpt lat="43.23727399998906" lon="27.99054838606496"><ele>98.0</ele><time>2026-04-29T10:53:11Z</time></trkpt><trkpt lat="43.23716168794664" lon="27.990586784257953"><ele>97.0</ele><time>2026-04-29T10:53:12Z</time></trkpt><trkpt lat="43.2370566022794" lon="27.990628815018148"><ele>96.0</ele><time>2026-04-29T10:53:13Z</time></trkpt><trkpt lat="43.23695613151853" lon="27.990663695611637"><ele>95.0</ele><time>2026-04-29T10:53:14Z</time></trkpt><trkpt lat="43.236865348193675" lon="27.99069864224811"><ele>95.0</ele><time>2026-04-29T10:53:15Z</time></trkpt><trkpt lat="43.2367985004292" lon="27.990723556457343"><ele>95.0</ele><time>2026-04-29T10:53:16Z</time></trkpt><trkpt lat="43.23673008524419" lon="27.990751367160772"><ele>95.0</ele><time>2026-04-29T10:53:17Z</time></trkpt><trkpt lat="43.23664088214437" lon="27.990786807231174"><ele>95.0</ele><time>2026-04-29T10:53:18Z</time></trkpt><trkpt lat="43.2365377841316" lon="27.99083711939464"><ele>95.0</ele><time>2026-04-29T10:53:19Z</time></trkpt><trkpt lat="43.23642023414857" lon="27.990901636851515"><ele>93.5</ele><time>2026-04-29T10:53:20Z</time></trkpt><trkpt lat="43.23629553178632" lon="27.99097777836199"><ele>92.0</ele><time>2026-04-29T10:53:21Z</time></trkpt><trkpt lat="43.23616864734792" lon="27.991072209758826"><ele>90.5</ele><time>2026-04-29T10:53:22Z</time></trkpt><trkpt lat="43.23604381430413" lon="27.991175545360704"><ele>89.0</ele><time>2026-04-29T10:53:23Z</time></trkpt><trkpt lat="43.23593016747054" lon="27.991280130099906"><ele>89.0</ele><time>2026-04-29T10:53:24Z</time></trkpt><trkpt lat="43.23582882878461" lon="27.991386372104877"><ele>89.0</ele><time>2026-04-29T10:53:25Z</time></trkpt><trkpt lat="43.23573389876545" lon="27.991497524958856"><ele>89.0</ele><time>2026-04-29T10:53:26Z</time></trkpt><trkpt lat="43.23565090086831" lon="27.991613598162647"><ele>89.0</ele><time>2026-04-29T10:53:27Z</time></trkpt><trkpt lat="43.235573480161754" lon="27.991726551359985"><ele>88.2</ele><time>2026-04-29T10:53:27.999Z</time></trkpt><trkpt lat="43.235499401912975" lon="27.991830501327893"><ele>87.4</ele><time>2026-04-29T10:53:28.999Z</time></trkpt><trkpt lat="43.23543187324717" lon="27.99192781314717"><ele>86.6</ele><time>2026-04-29T10:53:29.999Z</time></trkpt><trkpt lat="43.23537159529113" lon="27.99202038390674"><ele>85.8</ele><time>2026-04-29T10:53:30.999Z</time></trkpt><trkpt lat="43.235312481636" lon="27.99210506972581"><ele>85.0</ele><time>2026-04-29T10:53:31.999Z</time></trkpt><trkpt lat="43.235249576675294" lon="27.992186632462378"><ele>85.0</ele><time>2026-04-29T10:53:32.999Z</time></trkpt><trkpt lat="43.23519059415927" lon="27.992275900507547"><ele>85.0</ele><time>2026-04-29T10:53:33.999Z</time></trkpt><trkpt lat="43.235132211460886" lon="27.9923628852835"><ele>85.0</ele><time>2026-04-29T10:53:34.999Z</time></trkpt><trkpt lat="43.23506772470029" lon="27.99244369665828"><ele>85.0</ele><time>2026-04-29T10:53:35.999Z</time></trkpt><trkpt lat="43.23500917315021" lon="27.992530804319713"><ele>85.0</ele><time>2026-04-29T10:53:36.999Z</time></trkpt><trkpt lat="43.23494191143881" lon="27.992629117755964"><ele>85.0</ele><time>2026-04-29T10:53:37.999Z</time></trkpt><trkpt lat="43.234869102161454" lon="27.992735096422983"><ele>83.25</ele><time>2026-04-29T10:53:38.999Z</time></trkpt><trkpt lat="43.234786812490604" lon="27.992850472245685"><ele>81.5</ele><time>2026-04-29T10:53:39.999Z</time></trkpt><trkpt lat="43.23470342321662" lon="27.992975241183476"><ele>79.75</ele><time>2026-04-29T10:53:40.999Z</time></trkpt><trkpt lat="43.23461431686384" lon="27.99310919511121"><ele>78.0</ele><time>2026-04-29T10:53:41.999Z</time></trkpt><trkpt lat="43.23452712373036" lon="27.99324248199507"><ele>77.5</ele><time>2026-04-29T10:53:42.999Z</time></trkpt><trkpt lat="43.234434739110995" lon="27.99336642787566"><ele>77.0</ele><time>2026-04-29T10:53:43.999Z</time></trkpt><trkpt lat="43.2343679802299" lon="27.99350777865572"><ele>76.5</ele><time>2026-04-29T10:53:44.999Z</time></trkpt><trkpt lat="43.23429814061921" lon="27.993653187330906"><ele>76.0</ele><time>2026-04-29T10:53:45.999Z</time></trkpt><trkpt lat="43.2342383726008" lon="27.993814014596722"><ele>76.0</ele><time>2026-04-29T10:53:46.999Z</time></trkpt><trkpt lat="43.23418723093247" lon="27.993975279605785"><ele>76.0</ele><time>2026-04-29T10:53:47.999Z</time></trkpt><trkpt lat="43.23413909413845" lon="27.994143529789152"><ele>76.0</ele><time>2026-04-29T10:53:48.999Z</time></trkpt><trkpt lat="43.23410590104233" lon="27.99431112873322"><ele>76.0</ele><time>2026-04-29T10:53:49.999Z</time></trkpt><trkpt lat="43.23408424266255" lon="27.99448246585248"><ele>75.39999999999999</ele><time>2026-04-29T10:53:50.999Z</time></trkpt><trkpt lat="43.23406713094848" lon="27.994635732272307"><ele>74.8</ele><time>2026-04-29T10:53:51.999Z</time></trkpt><trkpt lat="43.23405861296782" lon="27.994760088846792"><ele>74.19999999999999</ele><time>2026-04-29T10:53:52.999Z</time></trkpt><trkpt lat="43.2340544062912" lon="27.994866100052615"><ele>73.6</ele><time>2026-04-29T10:53:53.999Z</time></trkpt><trkpt lat="43.23404165437635" lon="27.995026333087022"><ele>73.0</ele><time>2026-04-29T10:53:55.999Z</time></trkpt><trkpt lat="43.23402992604909" lon="27.99515568340734"><ele>72.4</ele><time>2026-04-29T10:53:57.999Z</time></trkpt><trkpt lat="43.23401538671714" lon="27.995341116559207"><ele>71.8</ele><time>2026-04-29T10:53:59.999Z</time></trkpt><trkpt lat="43.234005111773456" lon="27.995464126731555"><ele>71.2</ele><time>2026-04-29T10:54:00.999Z</time></trkpt><trkpt lat="43.23399315113598" lon="27.995600328767104"><ele>70.6</ele><time>2026-04-29T10:54:01.999Z</time></trkpt><trkpt lat="43.23397724325013" lon="27.995733608670687"><ele>70.0</ele><time>2026-04-29T10:54:02.999Z</time></trkpt><trkpt lat="43.233962706745274" lon="27.995848543611654"><ele>68.0</ele><time>2026-04-29T10:54:03.999Z</time></trkpt><trkpt lat="43.233943626026175" lon="27.995950667676095"><ele>68.0</ele><time>2026-04-29T10:54:04.999Z</time></trkpt><trkpt lat="43.233920128924346" lon="27.99603363161827"><ele>68.0</ele><time>2026-04-29T10:54:05.999Z</time></trkpt><trkpt lat="43.23386273844748" lon="27.99609878309843"><ele>68.0</ele><time>2026-04-29T10:54:08.999Z</time></trkpt></trkseg></trk></gpx>